# Wetter Temperatur Luftdruck Luftfeuchtigkeit Sichtweite Windgeschwindigkeit Windrichtung Zeit
1 Clouds -5 999 91 3036 6.96 206 14:26 01.02.2023
2 Clouds -5 998 93 799 5.33 203 13:20 01.02.2023
3 Clouds -5 999 90 6256 6.74 206 12:49 01.02.2023
4 Clouds -5 998 91 6219 6.35 205 11:56 01.02.2023
5 Clouds -6 997 91 10000 5.56 199 08:43 01.02.2023
6 Clouds -9 995 92 823 4.55 174 02:34 01.02.2023
7 Snow -9 996 94 256 4.77 129 21:38 31.01.2023
8 Clouds -8 997 91 467 5.4 125 19:48 31.01.2023
9 Clouds -8 997 83 10000 5.93 127 18:37 31.01.2023
10 Clouds -10 999 91 10000 4.91 121 15:36 31.01.2023
11 Clouds -12 999 94 10000 3.65 115 15:18 31.01.2023
12 Clouds -13 1000 95 10000 3.59 118 14:18 31.01.2023
13 Clouds -14 1001 94 10000 3.33 119 12:19 31.01.2023
14 Clouds -13 1002 93 10000 3.27 128 10:47 31.01.2023
15 Clouds -13 1002 93 8669 2.95 139 09:51 31.01.2023
16 Clouds -13 1002 94 7876 3 143 08:59 31.01.2023
17 Clouds -13 1002 94 7876 3 143 08:34 31.01.2023
18 Clouds -18 1002 97 10000 2.89 161 05:32 31.01.2023
19 Clouds -16 1001 94 10000 3.75 187 23:54 30.01.2023
20 Clouds -15 1001 93 10000 4.22 191 22:50 30.01.2023
21 Clouds -14 1001 93 8179 4.29 195 21:56 30.01.2023
22 Clouds -14 1001 93 2856 4.32 195 20:47 30.01.2023
23 Clouds -17 1001 95 10000 3.71 185 19:30 30.01.2023
24 Clouds -14 1000 93 9097 4.12 204 17:28 30.01.2023
25 Clouds -14 999 92 10000 5.2 204 15:35 30.01.2023
26 Clouds -13 998 91 10000 5.46 201 14:26 30.01.2023
27 Snow -12 998 93 463 5.29 195 12:21 30.01.2023
28 Clouds -12 998 93 318 5.13 190 10:30 30.01.2023
29 Clouds -12 997 90 1537 5.16 188 09:54 30.01.2023
30 Clouds -11 997 90 2171 5.49 190 08:40 30.01.2023
31 Snow -10 996 93 293 5.94 193 06:23 30.01.2023
32 Clouds -9 995 91 885 6.27 188 01:35 30.01.2023
33 Clouds -8 996 89 1375 6.06 183 23:34 29.01.2023
34 Clouds -8 996 91 934 5.95 173 22:37 29.01.2023
35 Snow -9 996 92 296 6.15 159 21:20 29.01.2023
36 Snow -9 996 92 296 6.15 159 20:36 29.01.2023
37 Snow -10 996 93 231 5.59 149 19:33 29.01.2023
38 Snow -11 996 94 225 5.4 141 18:35 29.01.2023
39 Snow -13 997 94 230 5.88 132 16:53 29.01.2023
40 Snow -14 998 92 591 5.79 129 16:20 29.01.2023
41 Clouds -15 999 94 10000 9.09 124 14:20 29.01.2023
42 Clouds -17 1000 89 10000 5 120 13:25 29.01.2023
43 Clouds -17 1000 89 10000 5 120 12:39 29.01.2023
44 Clouds -19 1000 93 10000 4.65 117 12:20 29.01.2023
45 Clouds -19 1000 93 10000 4.65 117 11:38 29.01.2023
46 Clouds -19 1001 97 10000 4.33 120 10:54 29.01.2023
47 Clouds -22 1002 100 8222 4.11 123 08:55 29.01.2023
48 Clouds -21 1003 100 10000 3.65 136 05:45 29.01.2023
49 Clouds -21 1005 99 4898 2.55 182 23:55 28.01.2023
50 Clouds -20 1005 99 4066 1.51 174 21:30 28.01.2023
51 Clouds -19 1005 98 3062 1.26 241 19:59 28.01.2023
52 Clouds -18 1005 96 8767 0.81 293 19:25 28.01.2023
53 Clouds -16 1004 94 10000 1.46 358 17:59 28.01.2023
54 Clouds -15 1004 93 10000 2.05 353 16:57 28.01.2023
55 Clouds -15 1004 92 8670 2.34 343 16:19 28.01.2023
56 Clouds -15 1004 92 8670 2.34 343 15:37 28.01.2023
57 Clouds -14 1004 92 2936 2.72 338 13:57 28.01.2023
58 Clouds -15 1004 95 2975 2.46 318 12:46 28.01.2023
59 Clouds -14 1003 93 4076 3.28 333 11:25 28.01.2023
60 Clouds -14 1003 93 4076 3.28 333 10:33 28.01.2023
61 Clouds -13 1000 95 1651 3.27 342 05:57 28.01.2023
62 Clouds -10 998 91 1713 3.62 344 01:32 28.01.2023
63 Clouds -10 997 94 1539 2.33 320 00:22 28.01.2023
64 Clouds -11 995 96 733 2.59 279 20:45 27.01.2023
65 Clouds -13 993 99 3617 3.16 268 17:59 27.01.2023
66 Clouds -12 993 99 3784 3.42 267 17:21 27.01.2023
67 Clouds -12 993 99 3784 3.42 267 16:59 27.01.2023
68 Clouds -12 993 99 3784 3.42 267 16:33 27.01.2023
69 Clouds -12 992 98 2766 3.73 266 14:46 27.01.2023
70 Clouds -12 991 98 2619 4.01 264 14:23 27.01.2023
71 Clouds -11 991 97 6220 4.41 268 12:44 27.01.2023
72 Clouds -7 988 93 609 5.91 292 08:37 27.01.2023
73 Clouds -7 983 96 10000 5.1 281 03:56 27.01.2023
74 Clouds -6 983 91 10000 6.6 240 22:52 26.01.2023
75 Clouds -7 982 94 10000 5.28 237 21:22 26.01.2023
76 Clouds -7 982 94 10000 5.28 237 21:22 26.01.2023
77 Clouds -7 982 94 10000 5.28 237 20:35 26.01.2023
78 Clouds -6 982 92 10000 5.25 255 18:28 26.01.2023
79 Clouds -6 982 92 10000 5.25 255 17:42 26.01.2023
80 Clouds -5 981 94 10000 5.43 232 16:27 26.01.2023
81 Clouds -5 981 94 10000 5.43 232 15:53 26.01.2023
82 Clouds -5 981 94 10000 5.43 232 15:30 26.01.2023
83 Clouds -6 981 95 4641 5.56 229 14:49 26.01.2023
84 Clouds -9 981 98 9165 5.15 229 12:48 26.01.2023
85 Clouds -8 981 97 8680 5.56 234 11:31 26.01.2023
86 Clouds -7 981 95 10000 6.01 232 10:30 26.01.2023
87 Clouds -7 981 94 5727 6.26 228 09:44 26.01.2023
88 Clouds -9 981 96 1635 5.99 218 08:25 26.01.2023
89 Clouds -8 981 93 10000 6.54 216 06:26 26.01.2023
90 Clouds -8 984 90 3836 9.25 209 23:39 25.01.2023
91 Clouds -6 985 91 786 9.76 214 22:21 25.01.2023
92 Snow -5 985 91 533 9.87 217 21:24 25.01.2023
93 Snow -5 986 90 1850 10.08 217 19:41 25.01.2023
94 Snow -6 987 91 677 10.69 220 18:23 25.01.2023
95 Snow -7 989 92 519 11.3 220 15:51 25.01.2023
96 Snow -5 990 92 2961 10.7 226 13:33 25.01.2023
97 Snow -3 991 94 204 9.65 232 11:25 25.01.2023
98 Snow -3 991 94 204 9.65 232 11:25 25.01.2023
99 Clouds -2 991 93 861 8.14 228 09:49 25.01.2023
100 Clouds -6 993 91 1164 9.28 210 07:59 25.01.2023
101 Clouds -8 996 91 10000 8.11 216 01:51 25.01.2023
102 Clouds -8 997 91 2861 8.22 212 00:25 25.01.2023
103 Clouds -8 998 90 10000 9.17 221 21:35 24.01.2023
104 Clouds -8 999 90 9567 9.33 222 20:39 24.01.2023
105 Clouds -8 1000 91 1295 9.47 224 18:50 24.01.2023
106 Clouds -8 1000 90 10000 9.43 224 18:29 24.01.2023
107 Clouds -8 1001 90 10000 9.66 226 17:18 24.01.2023
108 Clouds -8 1001 90 10000 9.66 226 16:43 24.01.2023
109 Clouds -7 1003 90 2704 9.5 223 13:50 24.01.2023
110 Clouds -6 1003 90 1579 9.67 223 11:46 24.01.2023
111 Clouds -5 1005 91 3674 9.92 230 08:43 24.01.2023
112 Clouds -4 1005 91 5442 9.7 234 08:18 24.01.2023
113 Clouds -4 1005 91 5442 9.7 234 07:48 24.01.2023
114 Clouds -4 1008 90 3286 9.64 232 02:48 24.01.2023
115 Clouds -5 1009 90 4448 10.01 235 00:41 24.01.2023
116 Clouds -5 1010 89 10000 10.75 236 22:38 23.01.2023
117 Clouds -3 1011 89 10000 11.07 229 20:45 23.01.2023
118 Snow -1 1013 94 513 10 216 19:23 23.01.2023
119 Clouds -2 1015 92 3079 9.4 218 17:29 23.01.2023
120 Clouds -4 1016 92 2322 9.83 214 15:32 23.01.2023
121 Clouds -5 1018 91 3204 8.98 210 13:57 23.01.2023
122 Clouds -5 1019 91 2907 8.41 208 12:58 23.01.2023
123 Clouds -5 1019 91 2907 8.41 208 12:34 23.01.2023
124 Clouds -6 1021 91 8585 7.59 205 11:29 23.01.2023
125 Clouds -6 1022 93 10000 6.41 210 08:25 23.01.2023
126 Clouds -7 1025 99 6325 4.81 237 00:27 23.01.2023
127 Clouds -7 1024 97 9599 4.69 252 22:20 22.01.2023
128 Clouds -7 1024 95 10000 5.08 258 21:19 22.01.2023
129 Clouds -4 1023 89 10000 5.79 274 20:24 22.01.2023
130 Clouds -8 1024 94 10000 5.29 254 19:45 22.01.2023
131 Clouds -7 1024 92 10000 5.57 257 18:49 22.01.2023
132 Clouds -7 1024 90 10000 5.84 260 17:56 22.01.2023
133 Clouds -7 1023 90 10000 5.95 261 17:25 22.01.2023
134 Clouds -7 1023 92 10000 5.9 259 15:34 22.01.2023
135 Clouds -7 1023 93 10000 6.14 258 14:47 22.01.2023
136 Clouds -7 1022 93 10000 5.6 257 13:39 22.01.2023
137 Clouds -5 1022 91 10000 6.32 261 12:34 22.01.2023
138 Clouds -5 1021 96 10000 5.86 254 11:35 22.01.2023
139 Clouds -4 1020 95 10000 5.34 272 09:35 22.01.2023
140 Clouds -1 1019 92 10000 4.67 270 06:40 22.01.2023
141 Clouds -5 1018 93 481 6.83 228 02:27 22.01.2023
142 Clouds -6 1018 94 10000 5.92 228 23:32 21.01.2023
143 Clouds -5 1018 94 10000 5.24 229 22:18 21.01.2023
144 Clouds -6 1018 94 5280 5.35 223 19:47 21.01.2023
145 Clouds -6 1018 94 8112 5.37 227 17:40 21.01.2023
146 Clouds -5 1018 93 10000 5.75 226 14:37 21.01.2023
147 Clouds -4 1018 93 10000 5.97 229 12:57 21.01.2023
148 Clouds -4 1018 93 10000 5.97 229 12:35 21.01.2023
149 Clouds -4 1018 93 7315 6.78 229 11:27 21.01.2023
150 Clouds -4 1018 92 10000 7.03 227 09:31 21.01.2023
151 Clouds -4 1017 92 4903 7.69 231 04:37 21.01.2023
152 Clouds -3 1015 93 418 9.92 213 22:29 20.01.2023
153 Clouds -3 1015 93 418 9.92 213 22:29 20.01.2023
154 Clouds -3 1015 93 418 9.92 213 21:39 20.01.2023
155 Clouds -3 1014 91 1291 10.52 207 21:21 20.01.2023
156 Snow -4 1014 92 660 10.36 203 19:54 20.01.2023
157 Snow -3 1015 92 367 10.59 200 16:51 20.01.2023
158 Snow -4 1015 92 309 9.6 195 14:47 20.01.2023
159 Clouds -3 1016 90 890 9.67 195 13:51 20.01.2023
160 Clouds -3 1017 89 1377 9.57 195 10:25 20.01.2023
161 Clouds -3 1017 88 2467 10.66 188 08:57 20.01.2023
162 Clouds -4 1019 87 3820 10.12 186 06:38 20.01.2023
163 Clouds -4 1020 84 10000 7.74 162 02:31 20.01.2023
164 Clouds -10 1024 91 10000 5.17 156 22:36 19.01.2023
165 Clouds -11 1025 93 10000 4 148 21:31 19.01.2023
166 Clouds -13 1026 96 10000 3.32 160 19:29 19.01.2023
167 Clouds -13 1026 97 10000 3 148 17:39 19.01.2023
168 Clouds -14 1027 97 3185 2.76 199 14:25 19.01.2023
169 Clouds -17 1026 99 10000 2.74 226 10:19 19.01.2023
170 Clouds -17 1025 99 5436 3.2 224 08:55 19.01.2023
171 Clouds -4 1019 96 1083 4.62 289 22:40 18.01.2023
172 Snow -4 1017 94 277 7.29 232 20:21 18.01.2023
173 Snow -4 1017 94 277 7.29 232 19:41 18.01.2023
174 Clouds -4 1016 92 1005 7.79 229 19:23 18.01.2023
175 Clouds -6 1016 92 2205 7.01 221 16:19 18.01.2023
176 Clouds -6 1016 91 1761 7.18 221 13:59 18.01.2023
177 Clouds -6 1015 91 2297 7.02 218 12:24 18.01.2023
178 Clouds -6 1014 91 6574 7.49 214 09:32 18.01.2023
179 Clouds -7 1014 90 10000 7.63 212 06:22 18.01.2023
180 Clouds -8 1013 91 3601 6.95 208 00:37 18.01.2023
181 Clouds -8 1012 90 10000 7 208 21:27 17.01.2023
182 Clouds -8 1012 90 10000 7.14 208 19:41 17.01.2023
183 Clouds -8 1012 90 10000 6.97 208 18:48 17.01.2023
184 Clouds -8 1012 90 8845 7.1 209 17:38 17.01.2023
185 Clouds -8 1011 89 10000 7.64 207 15:26 17.01.2023
186 Clouds -8 1011 89 10000 7.56 208 14:34 17.01.2023
187 Clouds -8 1011 89 5945 7.75 208 13:31 17.01.2023
188 Clouds -8 1011 89 4203 7.88 205 11:46 17.01.2023
189 Clouds -7 1010 89 3375 8.13 205 09:36 17.01.2023
190 Snow -7 1009 92 388 7.96 200 08:20 17.01.2023
191 Snow -7 1009 92 299 7.42 202 06:51 17.01.2023
192 Snow -6 1008 91 767 8.04 197 01:32 17.01.2023
193 Snow -5 1009 92 453 7.59 197 00:47 17.01.2023
194 Snow -4 1008 93 360 7.22 193 22:29 16.01.2023
195 Clouds -3 1008 91 1420 7.09 184 20:50 16.01.2023
196 Snow -3 1008 93 534 6.61 171 19:45 16.01.2023
197 Snow -3 1009 95 286 5.85 172 18:56 16.01.2023
198 Snow -4 1009 94 472 5.3 173 18:28 16.01.2023
199 Snow -4 1009 94 472 5.3 173 17:57 16.01.2023
200 Clouds -4 1009 93 1142 4.53 162 17:19 16.01.2023
201 Clouds -5 1010 95 4750 3.51 163 13:40 16.01.2023
202 Clouds -6 1010 93 10000 1.93 207 11:58 16.01.2023
203 Clouds -8 1010 95 3823 4.38 242 10:21 16.01.2023
204 Clouds -9 1009 95 10000 5.1 234 07:35 16.01.2023
205 Snow -5 1003 96 283 2.44 185 22:42 15.01.2023
206 Snow -6 1003 96 218 2.62 195 20:48 15.01.2023
207 Clouds -6 1002 96 477 2.65 197 20:25 15.01.2023
208 Clouds -7 1002 96 1673 2.48 199 18:55 15.01.2023
209 Clouds -7 1002 96 3043 2.38 206 16:47 15.01.2023
210 Snow -4 1001 95 349 3.42 203 13:30 15.01.2023
211 Snow -5 1001 95 209 4.18 197 11:56 15.01.2023
212 Snow -5 1002 95 286 4.49 196 11:28 15.01.2023
213 Snow -5 1002 94 408 4.83 198 10:21 15.01.2023
214 Clouds -5 1003 93 2161 5.7 199 06:59 15.01.2023
215 Clouds -6 1006 93 971 4.76 203 23:28 14.01.2023
216 Clouds -6 1006 93 971 4.76 203 22:42 14.01.2023
217 Snow -6 1007 93 1012 4.47 203 21:36 14.01.2023
218 Snow -7 1007 95 321 4.17 202 21:18 14.01.2023
219 Snow -7 1007 95 321 4.17 202 20:40 14.01.2023
220 Clouds -7 1007 94 491 3.6 194 19:53 14.01.2023
221 Snow -8 1007 95 286 3.09 185 17:42 14.01.2023
222 Snow -8 1008 95 258 2.95 176 15:30 14.01.2023
223 Snow -8 1008 95 223 2.75 174 14:35 14.01.2023
224 Snow -9 1008 95 248 2.78 171 13:44 14.01.2023
225 Snow -9 1008 95 248 2.78 171 13:44 14.01.2023
226 Snow -9 1007 95 230 2.81 183 12:23 14.01.2023
227 Snow -9 1007 95 355 2.89 185 10:47 14.01.2023
228 Clouds -10 1007 95 425 2.84 192 08:19 14.01.2023
229 Clouds -10 1004 95 896 3.11 205 23:56 13.01.2023
230 Clouds -9 1004 94 690 3.39 203 22:58 13.01.2023
231 Clouds -9 1004 94 690 3.39 203 22:40 13.01.2023
232 Clouds -9 1004 94 964 3.63 202 21:56 13.01.2023
233 Clouds -9 1003 94 633 3.99 197 19:53 13.01.2023
234 Clouds -10 1003 94 1000 3.6 195 18:47 13.01.2023
235 Clouds -10 1003 93 4749 4.24 188 16:57 13.01.2023
236 Clouds -9 1003 91 1861 5.18 185 14:40 13.01.2023
237 Clouds -9 1003 91 1471 5.4 170 12:21 13.01.2023
238 Snow -9 1003 93 413 5.81 165 10:32 13.01.2023
239 Snow -9 1004 93 210 5.82 161 09:54 13.01.2023
240 Snow -9 1004 93 210 5.82 161 09:34 13.01.2023
241 Snow -10 1005 93 187 5.69 153 08:28 13.01.2023
242 Snow -9 1005 93 220 5.21 153 06:54 13.01.2023
243 Snow -10 1005 93 248 5.32 152 05:44 13.01.2023
244 Clouds -13 1009 94 458 4.64 136 00:45 13.01.2023
245 Clouds -16 1011 93 10000 3.73 129 22:44 12.01.2023
246 Clouds -18 1013 93 10000 3.34 139 20:56 12.01.2023
247 Clouds -18 1013 94 10000 3.36 141 19:54 12.01.2023
248 Clouds -20 1014 96 10000 3.19 150 17:56 12.01.2023
249 Clouds -21 1014 97 10000 3.19 154 16:47 12.01.2023
250 Clouds -21 1015 98 10000 3.01 159 14:45 12.01.2023
251 Clouds -21 1015 98 10000 3.01 159 14:45 12.01.2023
252 Clouds -22 1015 98 10000 2.87 165 14:23 12.01.2023
253 Clouds -21 1014 98 10000 2.56 172 12:56 12.01.2023
254 Clouds -22 1014 99 10000 2.47 168 10:54 12.01.2023
255 Clouds -22 1014 99 10000 2.45 172 09:31 12.01.2023
256 Clouds -20 1013 98 10000 2.57 176 05:48 12.01.2023
257 Clouds -17 1012 94 6104 2.82 186 00:21 12.01.2023
258 Clouds -17 1012 94 6104 2.82 186 23:41 11.01.2023
259 Clouds -17 1012 93 8485 2.94 187 23:22 11.01.2023
260 Clouds -17 1012 93 8485 2.94 187 22:42 11.01.2023
261 Clouds -16 1012 93 3679 3.15 180 20:37 11.01.2023
262 Clouds -17 1012 95 1173 2.98 182 18:40 11.01.2023
263 Clouds -17 1012 94 882 3.12 178 17:24 11.01.2023
264 Clouds -17 1012 94 1002 3.26 176 15:23 11.01.2023
265 Clouds -17 1012 94 994 3.23 174 13:51 11.01.2023
266 Clouds -16 1013 91 3358 4.08 175 12:20 11.01.2023
267 Clouds -16 1013 91 1548 4.23 178 10:43 11.01.2023
268 Clouds -15 1014 91 868 4.8 172 08:21 11.01.2023
269 Clouds -15 1014 90 1372 4.92 175 07:25 11.01.2023
270 Clouds -15 1017 92 644 4.71 167 01:25 11.01.2023
271 Clouds -15 1018 91 1133 4.21 164 22:46 10.01.2023
272 Clouds -15 1019 91 991 3.83 166 21:34 10.01.2023
273 Clouds -16 1019 90 3136 3.49 162 20:42 10.01.2023
274 Clouds -16 1020 92 8866 3.37 157 19:40 10.01.2023
275 Clouds -17 1021 93 2062 3.49 149 18:48 10.01.2023
276 Clouds -18 1021 94 917 3.49 144 17:59 10.01.2023
277 Clouds -18 1021 95 1370 3.67 134 16:39 10.01.2023
278 Clouds -19 1021 95 2169 4.06 127 15:31 10.01.2023
279 Clouds -19 1021 95 2169 4.06 127 15:31 10.01.2023
280 Clouds -18 1021 95 1940 4.26 126 14:32 10.01.2023
281 Clouds -18 1021 94 1747 4.72 124 12:25 10.01.2023
282 Clouds -18 1021 95 1208 4.85 112 09:26 10.01.2023
283 Clouds -18 1021 94 2435 5.05 112 08:30 10.01.2023
284 Clouds -18 1021 94 1929 5.24 111 07:27 10.01.2023
285 Clouds -17 1020 95 1818 4.53 99 04:55 10.01.2023
286 Clouds -14 1020 95 756 2.25 95 23:29 09.01.2023
287 Clouds -14 1020 95 1499 1.72 107 21:51 09.01.2023
288 Clouds -14 1020 95 901 1.66 114 20:45 09.01.2023
289 Clouds -15 1021 96 1111 2.26 101 19:30 09.01.2023
290 Clouds -14 1021 96 1672 1.96 103 17:55 09.01.2023
291 Snow -14 1021 95 718 2.28 99 17:26 09.01.2023
292 Snow -14 1021 95 718 2.28 99 16:32 09.01.2023
293 Snow -12 1021 96 250 1.81 91 15:28 09.01.2023
294 Snow -12 1021 96 250 1.81 91 14:45 09.01.2023
295 Snow -12 1020 96 323 2.16 94 13:38 09.01.2023
296 Snow -12 1020 96 237 0.95 122 12:49 09.01.2023
297 Snow -11 1020 96 221 1.01 170 11:42 09.01.2023
298 Snow -11 1020 96 301 0.76 165 10:26 09.01.2023
299 Clouds -11 1020 97 495 0.38 194 06:41 09.01.2023
300 Snow -13 1021 96 290 1.66 252 02:54 09.01.2023
301 Clouds -14 1022 95 435 1.57 295 23:53 08.01.2023
302 Clouds -18 1021 99 8120 2.14 316 21:24 08.01.2023
303 Clouds -18 1021 99 8120 2.14 316 20:58 08.01.2023
304 Clouds -18 1021 100 8350 2.25 281 19:48 08.01.2023
305 Clouds -18 1021 99 9197 2.85 248 17:53 08.01.2023
306 Clouds -17 1021 99 10000 3.02 246 17:20 08.01.2023
307 Clouds -17 1021 97 8255 4.13 239 15:39 08.01.2023
308 Clouds -18 1020 96 10000 5.88 235 14:41 08.01.2023
309 Clouds -19 1021 96 4658 6.68 231 13:57 08.01.2023
310 Clouds -20 1021 96 2445 7.25 230 13:25 08.01.2023
311 Clouds -21 1022 97 1858 7.55 227 11:51 08.01.2023
312 Clouds -24 1023 100 3684 7.57 225 09:38 08.01.2023
313 Clouds -25 1024 100 6352 7.18 223 08:42 08.01.2023
314 Clouds -28 1026 97 10000 4.71 224 06:20 08.01.2023
315 Clouds -30 1028 99 10000 2.34 215 23:25 07.01.2023
316 Clouds -30 1028 99 10000 2.34 215 22:44 07.01.2023
317 Clouds -30 1028 100 10000 2.01 211 21:59 07.01.2023
318 Clouds -30 1028 100 10000 1.83 208 21:29 07.01.2023
319 Clouds -31 1028 100 10000 1.66 204 20:25 07.01.2023
320 Clouds -31 1028 100 10000 1.48 202 19:25 07.01.2023
321 Clouds -31 1027 100 10000 1.68 197 18:21 07.01.2023
322 Clouds -31 1027 100 10000 1.68 197 17:40 07.01.2023
323 Clouds -31 1027 100 10000 1.63 189 16:47 07.01.2023
324 Clouds -31 1027 100 8704 1.67 178 16:23 07.01.2023
325 Clouds -31 1027 100 8704 1.67 178 15:39 07.01.2023
326 Clouds -31 1027 100 7907 1.67 165 15:21 07.01.2023
327 Clouds -31 1027 100 7043 1.55 151 13:59 07.01.2023
328 Clouds -30 1027 100 6260 1.7 134 13:41 07.01.2023
329 Clouds -29 1027 100 5949 1.97 125 12:50 07.01.2023
330 Clouds -29 1027 100 5703 2.15 115 12:21 07.01.2023
331 Clouds -29 1026 100 6000 2.47 102 10:28 07.01.2023
332 Clouds -29 1026 100 6084 2.67 102 09:22 07.01.2023
333 Clouds -29 1025 100 5965 2.86 101 07:59 07.01.2023
334 Clouds -29 1025 100 5965 2.86 101 07:40 07.01.2023
335 Clouds -29 1025 99 5972 3.18 99 05:49 07.01.2023
336 Clouds -27 1022 98 4896 4.09 95 22:58 06.01.2023
337 Clouds -27 1022 98 5016 4.13 94 22:21 06.01.2023
338 Clouds -27 1022 98 5016 4.13 94 22:21 06.01.2023
339 Clouds -27 1022 98 5016 4.13 94 21:44 06.01.2023
340 Clouds -27 1021 98 4315 3.86 96 20:33 06.01.2023
341 Clouds -27 1021 98 3378 3.67 101 19:54 06.01.2023
342 Clouds -27 1021 98 3378 3.67 101 19:36 06.01.2023
343 Clouds -26 1021 100 1535 3.4 116 19:18 06.01.2023
344 Clouds -25 1020 100 1385 3.59 121 17:44 06.01.2023
345 Clouds -24 1020 98 1845 3.67 107 16:52 06.01.2023
346 Clouds -23 1019 97 2583 4.28 104 16:21 06.01.2023
347 Clouds -23 1019 97 2583 4.28 104 15:51 06.01.2023
348 Clouds -22 1018 98 1520 4.26 110 15:27 06.01.2023
349 -273 0 0 0 0 0 13:31 06.01.2023
350 Clouds -21 1018 97 4156 2.96 61 11:19 06.01.2023
351 Clouds -21 1018 97 4156 2.96 61 10:33 06.01.2023
352 Clouds -20 1018 97 4405 3.15 67 08:34 06.01.2023
353 Clouds -22 1019 100 647 0.65 192 03:44 06.01.2023
354 Clouds -24 1021 99 3235 1.88 97 22:56 05.01.2023
355 Clouds -24 1021 99 2820 2.35 82 21:56 05.01.2023
356 Clouds -25 1021 98 7790 3.09 82 20:20 05.01.2023
357 Clouds -24 1022 98 8259 3.93 90 17:29 05.01.2023
358 Clouds -24 1022 98 8259 3.93 90 16:30 05.01.2023
359 Clouds -23 1022 97 8553 4.68 87 15:48 05.01.2023
360 Clouds -23 1022 96 9498 5.25 84 14:53 05.01.2023
361 Clouds -23 1022 96 9498 5.25 84 14:53 05.01.2023
362 Clouds -23 1022 94 10000 6.38 82 13:19 05.01.2023
363 Clouds -23 1022 94 10000 6.38 82 12:33 05.01.2023
364 Clouds -23 1022 96 10000 7.54 79 09:55 05.01.2023
365 Clouds -23 1022 96 10000 7.54 79 09:32 05.01.2023
366 Clouds -23 1022 99 5662 8.38 79 07:21 05.01.2023
367 Clouds -23 1022 99 5662 8.38 79 06:36 05.01.2023
368 Clouds -23 1021 100 1381 9.85 75 00:25 05.01.2023
369 Clouds -23 1021 100 1236 9.99 77 22:18 04.01.2023
370 Clouds -23 1020 100 1096 10.1 76 21:29 04.01.2023
371 Clouds -23 1020 100 1061 10.13 75 19:57 04.01.2023
372 Clouds -22 1020 100 951 10.02 76 19:34 04.01.2023
373 Clouds -22 1020 100 1012 10.12 76 18:59 04.01.2023
374 Clouds -22 1020 100 846 10.2 75 16:32 04.01.2023
375 Clouds -22 1020 100 846 10.2 75 16:32 04.01.2023
376 Clouds -21 1020 100 765 10.3 75 15:56 04.01.2023
377 Clouds -21 1019 100 783 10.34 73 14:47 04.01.2023
378 Clouds -20 1019 100 1287 10.5 73 11:45 04.01.2023
379 Clouds -20 1019 100 1287 10.46 74 11:22 04.01.2023
380 Clouds -20 1019 100 1287 10.46 74 10:43 04.01.2023
381 Clouds -19 1018 100 1351 10.49 74 10:23 04.01.2023
382 Clouds -19 1018 100 1497 10.47 74 08:55 04.01.2023
383 Clouds -18 1016 98 3981 10.77 73 05:36 04.01.2023
384 Clouds -18 1014 96 7292 10.6 76 00:32 04.01.2023
385 Clouds -18 1014 96 6914 10.43 78 23:35 03.01.2023
386 Clouds -18 1014 96 6048 10.59 78 22:54 03.01.2023
387 Clouds -18 1013 98 3403 10.41 79 20:53 03.01.2023
388 Clouds -18 1013 97 5160 10.5 80 19:26 03.01.2023
389 Clouds -18 1013 98 5181 10.6 80 17:37 03.01.2023
390 Clouds -18 1013 97 5419 10.56 81 16:39 03.01.2023
391 Clouds -19 1013 97 6614 10.53 85 13:56 03.01.2023
392 Clouds -19 1013 97 6614 10.53 85 13:31 03.01.2023
393 Clouds -19 1012 97 5155 10.55 84 12:58 03.01.2023
394 Clouds -19 1012 97 5155 10.55 84 12:30 03.01.2023
395 Clouds -19 1012 97 6317 10.79 85 11:21 03.01.2023
396 Clouds -19 1012 96 10000 11.11 87 07:50 03.01.2023
397 Clouds -20 1012 97 8961 11.44 87 04:22 03.01.2023
398 Clouds -20 1012 97 8961 11.44 87 03:44 03.01.2023
399 Clouds -20 1012 97 8815 11.48 87 01:56 03.01.2023
400 Clouds -22 1014 97 7589 11.21 90 22:42 02.01.2023
401 Clouds -22 1014 99 6337 11.43 90 22:19 02.01.2023
402 Clouds -23 1014 99 5921 11.44 90 20:40 02.01.2023
403 Clouds -23 1014 100 5680 11.43 90 19:52 02.01.2023
404 Clouds -23 1013 99 6417 11.7 90 17:29 02.01.2023
405 Clouds -22 1013 98 7736 12.02 92 15:23 02.01.2023
406 Clouds -22 1013 96 10000 12.05 95 13:25 02.01.2023
407 Clouds -22 1013 96 9578 12.17 96 11:57 02.01.2023
408 Clouds -22 1013 96 10000 12.08 96 10:43 02.01.2023
409 Clouds -22 1013 92 10000 11.4 102 07:33 02.01.2023
410 Clouds -24 1016 98 9625 7.37 106 00:58 02.01.2023
411 Clouds -26 1018 100 4532 5.59 110 22:20 01.01.2023
412 Clouds -26 1018 100 5515 5.24 109 21:28 01.01.2023
413 Clouds -26 1018 100 5515 5.24 109 20:47 01.01.2023
414 Clouds -25 1019 100 6150 4.94 109 19:44 01.01.2023
415 Clouds -25 1020 100 7843 4.41 113 17:59 01.01.2023
416 Clouds -24 1021 100 9665 4.31 113 17:21 01.01.2023
417 Clouds -24 1021 100 9665 4.31 113 16:32 01.01.2023
418 Clouds -23 1022 98 10000 4.23 120 14:53 01.01.2023
419 Clouds -23 1023 97 10000 4 126 13:38 01.01.2023
420 Clear -23 1024 99 10000 3.76 127 12:40 01.01.2023
421 Clear -22 1024 98 10000 3.67 120 11:37 01.01.2023
422 Clear -22 1025 97 10000 3.76 122 10:36 01.01.2023
423 Clear -22 1026 97 10000 3.63 127 08:51 01.01.2023
424 Clear -22 1026 96 10000 3.34 135 08:20 01.01.2023
425 Clear -22 1027 95 10000 3.07 146 07:18 01.01.2023
426 Clear -22 1030 91 10000 3.59 162 01:42 01.01.2023
427 Clear -22 1031 89 10000 3.77 170 23:42 31.12.2022
428 Clear -22 1031 89 10000 3.72 166 22:33 31.12.2022
429 Clear -22 1031 89 10000 3.73 166 21:35 31.12.2022
430 Clear -21 1032 88 10000 3.77 167 20:52 31.12.2022
431 Clear -21 1032 88 10000 3.76 169 19:33 31.12.2022
432 Clear -21 1032 87 10000 3.95 178 18:42 31.12.2022
433 Clear -21 1033 86 10000 4.05 179 18:18 31.12.2022
434 Clear -21 1033 86 10000 4.05 179 17:45 31.12.2022
435 Clear -21 1033 85 10000 4.14 183 16:40 31.12.2022
436 Clear -20 1033 83 10000 4.57 183 16:19 31.12.2022
437 Clear -20 1033 81 10000 4.94 184 14:39 31.12.2022
438 Clear -20 1033 80 10000 5.19 185 13:33 31.12.2022
439 Clouds -19 1033 78 10000 5.35 186 12:39 31.12.2022
440 Clouds -19 1034 79 10000 5.24 186 12:19 31.12.2022
441 Clouds -19 1034 79 10000 5.24 186 11:50 31.12.2022
442 Clouds -19 1034 79 10000 5.18 186 10:34 31.12.2022
443 Clouds -18 1034 79 10000 5.18 184 09:53 31.12.2022
444 Clouds -18 1034 80 10000 5.25 185 09:18 31.12.2022
445 Clouds -18 1034 81 10000 5.09 185 07:22 31.12.2022
446 Clouds -16 1034 82 10000 5.69 194 00:35 31.12.2022
447 Clouds -16 1034 82 10000 5.44 192 23:44 30.12.2022
448 Clouds -16 1034 82 10000 5.4 193 22:41 30.12.2022
449 Clouds -16 1033 82 10000 5.6 192 21:42 30.12.2022
450 Clouds -16 1033 82 10000 5.7 193 21:21 30.12.2022
451 Clouds -15 1033 80 10000 5.79 197 18:57 30.12.2022
452 Clouds -15 1032 80 10000 5.54 195 17:35 30.12.2022
453 Clouds -15 1032 80 10000 5.33 193 16:51 30.12.2022
454 Clouds -15 1032 80 10000 4.98 190 15:22 30.12.2022
455 Clouds -15 1032 80 10000 5.22 191 13:36 30.12.2022
456 Clouds -15 1032 86 10000 4.48 193 09:32 30.12.2022
457 Clouds -16 1031 92 10000 3.84 194 06:44 30.12.2022
458 Clouds -17 1030 89 10000 4.31 193 02:28 30.12.2022
459 Clouds -16 1030 88 10000 4.85 192 00:53 30.12.2022
460 Clouds -17 1030 86 10000 4.17 198 22:41 29.12.2022
461 Clouds -17 1030 85 10000 4.3 188 21:29 29.12.2022
462 Clouds -17 1030 85 10000 4.3 188 20:53 29.12.2022
463 Clouds -17 1030 84 10000 4.17 190 19:55 29.12.2022
464 Clouds -18 1030 83 10000 4.56 191 17:57 29.12.2022
465 Clouds -18 1029 81 10000 4.93 187 17:28 29.12.2022
466 Clouds -18 1029 81 10000 4.93 187 16:55 29.12.2022
467 Clouds -18 1029 81 10000 4.98 190 15:58 29.12.2022
468 Clouds -18 1029 83 10000 4.65 189 13:55 29.12.2022
469 Clouds -18 1029 82 10000 4.59 189 12:34 29.12.2022
470 Clouds -18 1028 87 10000 4.63 188 10:27 29.12.2022
471 Clouds -16 1028 93 10000 5.2 191 06:32 29.12.2022
472 Clouds -15 1026 97 10000 4.65 194 23:29 28.12.2022
473 Clouds -14 1026 97 10000 4.41 193 22:25 28.12.2022
474 Clouds -14 1025 97 10000 4.22 194 21:20 28.12.2022
475 Clouds -14 1025 97 9853 4.01 193 20:20 28.12.2022
476 Clouds -14 1025 97 10000 4.08 192 18:52 28.12.2022
477 Clouds -14 1024 97 10000 3.27 177 16:23 28.12.2022
478 Clouds -14 1024 96 10000 3.04 172 14:27 28.12.2022
479 Clouds -13 1023 96 10000 3.77 184 12:49 28.12.2022
480 Clouds -13 1023 96 10000 3.65 183 11:34 28.12.2022
481 Clouds -14 1023 96 10000 3.58 193 10:26 28.12.2022
482 Clouds -13 1022 96 10000 3.16 185 07:48 28.12.2022
483 Clouds -15 1022 97 10000 3.15 181 06:47 28.12.2022
484 Clouds -16 1021 100 6926 3.13 194 01:25 28.12.2022
485 Clouds -16 1021 100 5951 3.42 203 22:33 27.12.2022
486 Clouds -16 1020 100 3955 3.76 213 19:51 27.12.2022
487 Clouds -16 1019 100 6241 3.68 211 18:55 27.12.2022
488 Clouds -16 1019 100 6204 3.71 220 16:59 27.12.2022
489 Clouds -16 1018 99 10000 3.73 223 16:19 27.12.2022
490 Clouds -15 1018 99 5010 3.8 229 14:44 27.12.2022
491 Clouds -13 1017 99 3552 3.25 242 12:27 27.12.2022
492 Clouds -13 1017 98 7257 3.05 251 10:31 27.12.2022
493 Clouds -12 1016 95 10000 2.85 261 09:44 27.12.2022
494 Clouds -10 1016 90 10000 2.9 291 09:20 27.12.2022
495 Clouds -9 1013 92 2720 1.8 331 04:57 27.12.2022
496 Clouds -8 1010 93 1190 4.38 19 23:40 26.12.2022
497 Clouds -8 1007 94 766 4.19 25 21:52 26.12.2022
498 Clouds -10 1006 97 1766 3.21 36 20:44 26.12.2022
499 Clouds -8 1005 95 1695 6.65 28 19:55 26.12.2022
500 Snow -8 1003 95 526 4.19 345 18:42 26.12.2022
501 Clouds -9 1002 94 452 4.72 280 17:18 26.12.2022
502 Snow -8 1002 94 990 4.54 247 15:38 26.12.2022
503 Clouds -12 1001 91 2009 9.53 209 12:59 26.12.2022
504 Snow -12 1001 91 952 10.01 207 11:44 26.12.2022
505 Clouds -13 1001 92 10000 9.05 209 05:44 26.12.2022
506 Snow -11 1000 91 1245 9.48 212 23:42 25.12.2022
507 Clouds -10 1000 91 919 9.26 213 22:51 25.12.2022
508 Clouds -10 999 91 968 9.04 215 22:22 25.12.2022
509 Clouds -8 999 90 6671 8.17 218 19:56 25.12.2022
510 Snow -5 998 92 3443 6.35 225 17:52 25.12.2022
511 Snow -5 998 92 3443 6.35 225 17:34 25.12.2022
512 Snow -5 998 95 628 3.19 162 16:41 25.12.2022
513 Clouds -7 998 95 280 3.32 126 14:26 25.12.2022
514 Clouds -8 999 94 5116 3.27 134 11:47 25.12.2022
515 Snow -13 1001 95 193 4.7 107 04:48 25.12.2022
516 Clouds -16 1004 90 10000 6.63 106 22:55 24.12.2022
517 Clouds -17 1006 90 10000 6.17 105 19:53 24.12.2022
518 Clouds -17 1007 96 10000 5.24 109 17:35 24.12.2022
519 Clouds -19 1007 99 10000 4.76 113 15:38 24.12.2022
520 Clouds -20 1008 99 10000 4.33 116 14:30 24.12.2022
521 Clouds -21 1008 99 10000 3.59 123 12:24 24.12.2022
522 Clouds -22 1009 99 10000 2.89 135 10:24 24.12.2022
523 Clouds -22 1009 99 10000 2.89 135 09:37 24.12.2022
524 Clouds -22 1009 99 10000 2.88 141 08:46 24.12.2022
525 Clouds -23 1008 100 10000 2.81 151 02:52 24.12.2022
526 Clouds -22 1008 99 10000 2.95 131 00:29 24.12.2022
527 Clouds -21 1007 99 10000 2.78 135 22:45 23.12.2022
528 Clouds -21 1007 99 10000 2.76 133 21:43 23.12.2022
529 Clouds -20 1006 100 10000 1.82 126 19:40 23.12.2022
530 Clouds -21 1006 100 10000 1.53 130 19:22 23.12.2022
531 Clouds -20 1006 100 10000 1.49 135 18:53 23.12.2022
532 Clouds -21 1006 100 10000 1.03 135 18:22 23.12.2022
533 Clouds -21 1006 100 10000 1.03 135 17:43 23.12.2022
534 Clouds -21 1005 100 10000 1.62 189 15:45 23.12.2022
535 Clouds -21 1005 100 10000 2.11 187 13:42 23.12.2022
536 Clouds -22 1003 99 10000 2.93 209 10:21 23.12.2022
537 Clouds -22 1003 99 10000 2.93 209 09:35 23.12.2022
538 Clouds -21 1002 98 10000 3.9 210 07:30 23.12.2022
539 Clouds -21 1002 99 10000 4.29 212 06:50 23.12.2022
540 Clouds -20 1000 96 10000 6.18 216 00:39 23.12.2022
541 Clouds -20 999 94 10000 7.04 218 23:19 22.12.2022
542 Clouds -19 999 92 10000 7.18 216 21:55 22.12.2022
543 Clouds -18 999 90 10000 8.91 214 19:48 22.12.2022
544 Clouds -18 999 90 10000 9.35 214 19:21 22.12.2022
545 Clouds -18 999 93 1762 9.04 213 17:59 22.12.2022
546 Clouds -18 998 95 745 9.13 213 16:53 22.12.2022
547 Clouds -18 998 94 1398 9.03 214 15:47 22.12.2022
548 Clouds -18 999 94 10000 8.71 215 15:29 22.12.2022
549 Clouds -18 999 94 10000 8.71 215 15:29 22.12.2022
550 Clouds -18 999 94 10000 8.7 215 14:27 22.12.2022
551 Clouds -17 999 93 10000 8.67 219 13:20 22.12.2022
552 Clouds -16 999 93 10000 8.73 224 12:29 22.12.2022
553 Clouds -15 999 93 8165 9.12 226 10:31 22.12.2022
554 Clouds -14 998 92 3339 9.99 227 09:24 22.12.2022
555 Clouds -14 998 92 3339 9.99 227 08:53 22.12.2022
556 Snow -13 998 92 2171 9.7 226 07:52 22.12.2022
557 Clouds -11 1001 92 2031 7.46 240 04:19 22.12.2022
558 Clouds -12 1003 95 10000 6.33 242 00:46 22.12.2022
559 Clouds -13 1005 92 10000 5.79 251 22:29 21.12.2022
560 Clouds -13 1005 92 10000 5.79 251 21:49 21.12.2022
561 Clouds -11 1005 90 10000 6.49 265 21:19 21.12.2022
562 Clouds -11 1005 90 10000 6.49 265 20:34 21.12.2022
563 Clouds -10 1006 89 10000 7.26 272 19:47 21.12.2022
564 Clouds -9 1006 87 10000 7.58 278 19:29 21.12.2022
565 Clouds -10 1006 89 10000 7.28 273 18:54 21.12.2022
566 Clouds -10 1006 89 10000 7.28 273 18:35 21.12.2022
567 Snow -6 1008 81 10000 7.18 293 16:19 21.12.2022
568 Snow -7 1010 89 603 5.22 286 14:18 21.12.2022
569 Snow -7 1011 82 6517 4.36 299 11:50 21.12.2022
570 Snow -8 1012 87 1715 3.79 285 11:20 21.12.2022
571 Clouds -10 1013 91 2390 4.86 253 10:26 21.12.2022
572 Snow -10 1013 92 1220 5.29 254 08:48 21.12.2022
573 Snow -12 1015 96 713 4.41 256 06:30 21.12.2022
574 Clouds -18 1020 99 2266 1.15 207 00:25 21.12.2022
575 Clouds -20 1021 99 2200 1.65 167 21:47 20.12.2022
576 Clouds -20 1021 99 2397 1.89 160 20:51 20.12.2022
577 Clouds -21 1022 99 3634 2.23 151 19:54 20.12.2022
578 Clouds -22 1022 99 2782 2.68 141 18:47 20.12.2022
579 Clouds -22 1022 99 6028 2.87 134 18:22 20.12.2022
580 Clouds -22 1022 99 6028 2.87 134 17:47 20.12.2022
581 Clouds -21 1022 99 9339 3.28 126 17:22 20.12.2022
582 Clouds -20 1022 99 10000 3.74 121 15:50 20.12.2022
583 Clouds -19 1022 96 10000 4.24 116 14:52 20.12.2022
584 Clouds -18 1022 94 10000 4.65 112 14:29 20.12.2022
585 Clouds -17 1022 94 10000 4.84 109 13:26 20.12.2022
586 Clouds -17 1023 94 10000 4.97 109 12:32 20.12.2022
587 Clouds -16 1022 95 9849 5.31 107 11:42 20.12.2022
588 Clouds -14 1022 95 2879 6.15 104 09:52 20.12.2022
589 Clouds -12 1021 96 5170 7.6 99 06:24 20.12.2022
590 Clouds -14 1021 96 10000 6.74 114 23:46 19.12.2022
591 Clouds -13 1020 95 9730 5.29 106 22:21 19.12.2022
592 Clouds -13 1020 95 2297 4.15 103 20:48 19.12.2022
593 Clouds -13 1020 95 2224 3.44 101 19:40 19.12.2022
594 Clouds -13 1020 97 1075 3 111 18:43 19.12.2022
595 Clouds -14 1020 98 1012 2.73 118 17:36 19.12.2022
596 Clouds -16 1020 100 1296 1.61 144 14:45 19.12.2022
597 Clouds -15 1020 99 1472 2.37 123 12:35 19.12.2022
598 Clouds -15 1020 96 10000 1.53 138 11:30 19.12.2022
599 Clouds -16 1019 97 10000 3.62 197 07:47 19.12.2022
600 Clouds -15 1019 96 10000 4.25 206 06:31 19.12.2022
601 Clouds -12 1018 97 9671 7.82 216 22:59 18.12.2022
602 Clouds -12 1018 96 10000 8.23 215 21:47 18.12.2022
603 Clouds -12 1018 97 9245 7.97 214 21:24 18.12.2022
604 Clouds -12 1018 97 9245 7.97 214 20:52 18.12.2022
605 Clouds -12 1018 96 10000 8.31 217 19:43 18.12.2022
606 Clouds -11 1018 95 9646 8.97 217 18:39 18.12.2022
607 Clouds -10 1017 95 6266 9.06 219 17:52 18.12.2022
608 Clouds -9 1017 95 4487 9.44 223 15:41 18.12.2022
609 Clouds -9 1016 95 4314 9.7 224 15:20 18.12.2022
610 Clouds -9 1016 93 5020 9.64 220 14:21 18.12.2022
611 Clouds -9 1016 92 4893 9.62 223 12:57 18.12.2022
612 Clouds -9 1016 92 4893 9.62 223 12:57 18.12.2022
613 Clouds -9 1016 92 4893 9.62 223 12:31 18.12.2022
614 Clouds -9 1015 92 2965 10.29 228 11:22 18.12.2022
615 Clouds -9 1014 92 6281 9.9 222 09:20 18.12.2022
616 Clouds -9 1014 92 6281 9.9 222 08:45 18.12.2022
617 Clouds -9 1014 91 4885 9.86 222 06:24 18.12.2022
618 Clouds -10 1014 96 2664 10.02 220 04:20 18.12.2022
619 Clouds -10 1014 97 3338 9.41 222 01:49 18.12.2022
620 Clouds -10 1013 92 10000 7.92 215 22:29 17.12.2022
621 Clouds -10 1013 86 10000 5.4 226 20:18 17.12.2022
622 Clouds -11 1012 95 1812 5.57 255 17:20 17.12.2022
623 Clouds -12 1011 97 3763 5.29 248 14:44 17.12.2022
624 Clouds -13 1009 98 680 4.98 232 12:29 17.12.2022
625 Clouds -13 1008 97 4474 5.34 235 11:18 17.12.2022
626 Clouds -13 1008 97 4474 5.34 235 10:38 17.12.2022
627 Clouds -12 1007 96 6072 6.67 222 08:36 17.12.2022
628 Clouds -11 1006 94 8635 7.41 213 06:46 17.12.2022
629 Clouds -9 1006 90 8678 9.47 208 00:18 17.12.2022
630 Clouds -9 1007 87 10000 11.22 201 21:39 16.12.2022
631 Clouds -9 1007 88 10000 11.39 206 20:24 16.12.2022
632 Clouds -10 1008 89 10000 12.71 207 17:20 16.12.2022
633 Clouds -10 1008 91 10000 12.86 210 14:51 16.12.2022
634 Clouds -10 1009 92 10000 13.1 208 13:50 16.12.2022
635 Clouds -10 1009 91 3603 12.14 215 12:22 16.12.2022
636 Clouds -9 1009 89 2621 11.5 221 10:58 16.12.2022
637 Clouds -8 1008 89 1351 11.6 223 09:39 16.12.2022
638 Snow -8 1007 90 468 11.34 215 08:26 16.12.2022
639 Snow -8 1007 90 468 11.34 215 07:54 16.12.2022
640 Clouds -9 1007 90 939 10.01 209 00:18 16.12.2022
641 Snow -9 1007 90 566 9.88 210 22:33 15.12.2022
642 Snow -9 1007 90 566 9.88 210 22:33 15.12.2022
643 Clouds -9 1008 88 2926 9.4 214 21:24 15.12.2022
644 Clouds -9 1008 89 1983 9.26 214 19:41 15.12.2022
645 Clouds -8 1008 89 1656 9.12 215 18:34 15.12.2022
646 Clouds -8 1008 88 3670 9.45 215 17:27 15.12.2022
647 Clouds -7 1008 88 5061 9.65 215 15:41 15.12.2022
648 Clouds -7 1008 88 10000 9.76 213 14:37 15.12.2022
649 Clouds -7 1009 87 10000 9.08 210 12:47 15.12.2022
650 Clouds -7 1009 85 10000 8.95 211 10:41 15.12.2022
651 Clouds -7 1010 82 10000 9.08 208 08:55 15.12.2022
652 Clouds -7 1010 80 10000 9.52 204 07:57 15.12.2022
653 Clouds -7 1010 79 10000 11.3 203 05:35 15.12.2022
654 Clouds -10 1014 85 10000 10.34 212 22:35 14.12.2022
655 Clouds -9 1014 85 10000 10.64 209 21:23 14.12.2022
656 Clouds -9 1014 85 10000 10.64 209 20:35 14.12.2022
657 Clouds -5 1013 89 9590 9.06 207 19:28 14.12.2022
658 Clouds -6 1014 89 5606 9.94 208 16:58 14.12.2022
659 Clouds -6 1014 89 5642 10.01 207 15:58 14.12.2022
660 Clouds -8 1015 90 2594 9.76 206 14:49 14.12.2022
661 Snow -9 1016 90 2081 8.68 197 12:56 14.12.2022
662 Clouds -10 1017 90 1257 7.8 192 10:45 14.12.2022
663 Clouds -10 1018 89 2467 7.77 193 09:38 14.12.2022
664 Clouds -12 1020 77 10000 5.77 188 05:53 14.12.2022
665 Clouds -15 1025 84 10000 4.46 203 21:52 13.12.2022
666 Clouds -15 1025 84 10000 4.46 203 21:32 13.12.2022
667 Clouds -15 1025 85 10000 4.97 211 20:47 13.12.2022
668 Clouds -16 1026 90 10000 6.06 215 18:49 13.12.2022
669 Clouds -16 1026 93 10000 8.86 220 16:22 13.12.2022
670 Clouds -16 1026 93 10000 8.86 220 16:22 13.12.2022
671 Clouds -16 1026 93 10000 9.08 221 14:54 13.12.2022
672 Clouds -16 1026 95 10000 10.21 221 12:53 13.12.2022
673 Clouds -14 1025 92 7623 10.86 224 10:39 13.12.2022
674 Clouds -14 1024 92 5218 11.01 223 09:46 13.12.2022
675 Clouds -14 1023 93 3157 11.53 220 07:52 13.12.2022
676 Clouds -19 1020 95 6516 12.16 216 22:24 12.12.2022
677 Clouds -19 1020 95 6516 12.16 216 21:46 12.12.2022
678 Clouds -21 1021 96 6611 11.09 218 19:33 12.12.2022
679 Clouds -21 1020 97 4931 10.72 220 17:50 12.12.2022
680 Clouds -23 1022 95 4473 7.9 219 15:29 12.12.2022
681 Clouds -24 1023 97 10000 6.51 218 12:50 12.12.2022
682 Clouds -21 1023 95 10000 4.8 224 09:20 12.12.2022
683 Clouds -20 1024 94 10000 4.31 224 07:37 12.12.2022
684 Clouds -19 1025 91 10000 2.88 236 03:53 12.12.2022
685 Clouds -19 1027 91 10000 2.8 228 00:18 12.12.2022
686 Clouds -18 1028 88 10000 2.72 226 22:18 11.12.2022
687 Clouds -18 1029 86 10000 2.85 227 20:29 11.12.2022
688 Clouds -18 1029 88 10000 2.45 226 19:37 11.12.2022
689 Clouds -18 1030 88 10000 2.56 212 18:29 11.12.2022
690 Clouds -18 1030 88 10000 2.56 212 17:33 11.12.2022
691 Clouds -18 1030 90 10000 2.76 209 16:52 11.12.2022
692 Clouds -18 1031 92 10000 2.81 212 15:48 11.12.2022
693 Clouds -18 1032 92 10000 2.61 217 15:28 11.12.2022
694 Clouds -18 1033 96 10000 2.48 215 13:33 11.12.2022
695 Clouds -18 1033 97 10000 2.4 219 12:40 11.12.2022
696 Clouds -18 1034 98 10000 2.95 221 09:47 11.12.2022
697 Clouds -15 1034 97 10000 3.31 216 00:39 11.12.2022
698 Clouds -15 1034 96 10000 3.02 217 00:21 11.12.2022
699 Clouds -15 1034 96 10000 3 217 22:33 10.12.2022
700 Clouds -14 1034 94 10000 3.02 208 21:26 10.12.2022
701 Clouds -14 1034 94 10000 3.02 208 20:41 10.12.2022
702 Clouds -12 1034 96 618 2.35 199 19:55 10.12.2022
703 Clouds -12 1034 96 618 2.35 199 19:55 10.12.2022
704 Clouds -12 1034 96 1218 2.42 193 17:33 10.12.2022
705 Snow -11 1034 95 1083 2.75 190 16:37 10.12.2022
706 Snow -11 1034 95 581 3.01 190 15:40 10.12.2022
707 Snow -11 1034 95 581 3.01 190 15:40 10.12.2022
708 Snow -11 1034 95 542 2.67 190 14:59 10.12.2022
709 Clouds -10 1034 90 3193 2.82 200 12:55 10.12.2022
710 Snow -9 1033 92 1105 2.34 198 11:55 10.12.2022
711 Snow -9 1033 93 428 2 172 10:46 10.12.2022
712 Snow -8 1033 92 365 2.49 144 09:38 10.12.2022
713 Snow -5 1032 85 1167 6.54 43 07:21 10.12.2022
714 Snow -5 1031 76 9251 7.33 21 03:18 10.12.2022
715 Clouds -5 1031 68 10000 7.46 6 23:20 09.12.2022
716 Clouds -5 1031 68 10000 7.46 6 22:41 09.12.2022
717 Clouds -5 1030 67 10000 8.2 6 21:27 09.12.2022
718 Clouds -5 1030 67 10000 8.2 6 20:57 09.12.2022
719 Clouds -5 1030 66 10000 8.6 8 19:41 09.12.2022
720 Clouds -5 1029 66 10000 9.91 9 17:56 09.12.2022
721 Clouds -5 1029 66 10000 10.05 9 16:37 09.12.2022
722 Clouds -5 1029 67 10000 9.96 10 16:18 09.12.2022
723 Clouds -5 1029 67 10000 9.96 10 16:18 09.12.2022
724 Clouds -5 1029 67 10000 9.94 9 15:19 09.12.2022
725 Clouds -5 1028 72 10000 9.39 18 11:36 09.12.2022
726 Clouds -5 1028 62 10000 8.57 26 10:45 09.12.2022
727 Clouds -6 1028 60 10000 11.09 33 09:25 09.12.2022
728 Clouds -7 1025 66 10000 13.19 49 03:33 09.12.2022
729 Clouds -7 1023 66 10000 13.46 32 00:56 09.12.2022
730 Snow -8 1022 77 5939 12.16 32 22:20 08.12.2022
731 Snow -8 1022 80 4288 11.62 29 20:51 08.12.2022
732 Snow -10 1022 79 6847 10.78 28 18:18 08.12.2022
733 Snow -10 1021 79 10000 11.22 28 15:44 08.12.2022
734 Snow -11 1020 79 4881 11.74 31 14:27 08.12.2022
735 Snow -11 1020 79 4881 11.74 31 14:27 08.12.2022
736 Snow -11 1019 77 4391 10.78 30 11:33 08.12.2022
737 Snow -11 1017 80 2551 10.07 38 10:22 08.12.2022
738 Snow -11 1017 81 2379 9.96 41 09:27 08.12.2022
739 Snow -11 1012 87 738 8.89 54 02:56 08.12.2022
740 Snow -5 1007 93 812 7.38 27 22:19 07.12.2022
741 Snow -5 1007 93 812 7.38 27 21:50 07.12.2022
742 Snow -5 1007 93 812 7.38 27 21:31 07.12.2022
743 Snow -4 1006 96 100 7.15 245 19:44 07.12.2022
744 Snow -8 1008 94 167 8.68 227 17:41 07.12.2022
745 Clouds -10 1009 92 961 9.31 222 14:41 07.12.2022
746 Clouds -10 1009 91 3376 9.1 222 12:38 07.12.2022
747 Snow -11 1010 93 265 8.5 220 10:44 07.12.2022
748 Snow -11 1011 94 204 8.34 221 09:54 07.12.2022
749 Clouds -12 1012 91 3900 8.33 223 08:47 07.12.2022
750 Clouds -11 1013 92 5346 8.54 225 06:49 07.12.2022
751 Clouds -11 1014 93 1265 8.06 218 05:23 07.12.2022
752 Clouds -14 1018 94 6223 7.91 217 23:37 06.12.2022
753 Clouds -15 1019 94 10000 7.99 214 20:53 06.12.2022
754 Clouds -15 1020 93 10000 8.43 211 18:22 06.12.2022
755 Clouds -15 1020 94 10000 8.45 209 16:55 06.12.2022
756 Clouds -15 1021 94 10000 8.68 208 16:20 06.12.2022
757 Clouds -15 1021 94 10000 8.68 208 15:34 06.12.2022
758 Clouds -15 1021 93 10000 8.78 210 14:32 06.12.2022
759 Clouds -14 1021 91 10000 8.94 213 13:00 06.12.2022
760 Clouds -15 1022 90 10000 9.18 214 12:40 06.12.2022
761 Clouds -15 1022 88 10000 8.67 207 10:23 06.12.2022
762 Clouds -14 1023 86 10000 9.06 209 06:48 06.12.2022
763 Clouds -14 1024 85 10000 8.63 208 01:32 06.12.2022
764 Clouds -13 1026 83 10000 8.77 210 22:37 05.12.2022
765 Clouds -13 1026 82 10000 8.97 212 21:37 05.12.2022
766 Clouds -13 1026 81 10000 9.09 214 20:39 05.12.2022
767 Clouds -13 1027 81 10000 9.27 216 19:46 05.12.2022
768 Clouds -12 1027 80 10000 8.9 219 18:38 05.12.2022
769 Clouds -12 1028 84 10000 8.98 220 16:49 05.12.2022
770 Clouds -12 1029 88 10000 8.79 219 15:26 05.12.2022
771 Clouds -11 1030 92 10000 8.25 223 13:28 05.12.2022
772 Clouds -11 1030 92 10000 8.25 223 12:56 05.12.2022
773 Clouds -11 1030 92 10000 8.25 223 12:37 05.12.2022
774 Clouds -11 1031 95 7139 8.64 222 10:59 05.12.2022
775 Clouds -8 1034 91 10000 8.05 231 05:22 05.12.2022
776 Clouds -1 1036 90 10000 7.17 266 23:33 04.12.2022
777 Clouds -1 1036 87 10000 7.16 268 22:40 04.12.2022
778 Clouds 0 1036 86 10000 7.59 273 22:18 04.12.2022
779 Clouds -1 1036 87 10000 7.25 268 21:29 04.12.2022
780 Clouds -2 1037 93 10000 6.93 266 19:48 04.12.2022
781 Clouds -1 1037 92 10000 7.58 272 19:22 04.12.2022
782 Clouds 0 1037 90 10000 7.98 276 17:40 04.12.2022
783 Clouds 0 1037 85 10000 7.64 273 17:21 04.12.2022
784 Clouds 0 1037 85 10000 7.64 273 16:36 04.12.2022
785 Clouds 0 1037 83 10000 7.63 272 16:18 04.12.2022
786 Clouds -1 1038 85 10000 7.77 267 14:49 04.12.2022
787 Clouds -1 1038 86 10000 7.62 267 13:38 04.12.2022
788 Clouds -2 1038 84 10000 7.28 267 12:44 04.12.2022
789 Clouds -2 1038 83 10000 7.24 270 11:59 04.12.2022
790 Clouds -1 1039 83 10000 7.54 278 09:40 04.12.2022
791 Clouds -2 1038 83 10000 7.87 275 07:34 04.12.2022
792 Clouds 0 1038 84 10000 8.01 296 02:22 04.12.2022
793 Clouds 0 1038 88 10000 7.72 289 23:43 03.12.2022
794 Clouds -1 1037 89 10000 6.94 285 22:24 03.12.2022
795 Clouds -1 1037 89 10000 6.94 285 21:39 03.12.2022
796 Clouds -2 1037 92 10000 6.41 274 20:35 03.12.2022
797 Clouds -2 1037 92 10000 6.56 253 18:40 03.12.2022
798 Clouds -3 1038 94 10000 6.22 257 17:27 03.12.2022
799 Clouds -3 1038 95 10000 5.75 257 15:48 03.12.2022
800 Clouds -5 1038 96 10000 4.3 261 12:55 03.12.2022
801 Clouds -5 1038 96 10000 4.23 268 12:26 03.12.2022
802 Clouds -3 1038 95 10000 4.31 272 10:27 03.12.2022
803 Clouds -4 1038 97 10000 4.36 267 07:58 03.12.2022
804 Clouds -4 1038 99 733 4.62 257 01:31 03.12.2022
805 Clouds -3 1038 97 6922 3.55 262 23:25 02.12.2022
806 Clouds -1 1038 96 1869 3.17 257 21:23 02.12.2022
807 Clouds -1 1038 96 1851 3.48 247 19:34 02.12.2022
808 Clouds -3 1037 94 4243 5.77 221 15:59 02.12.2022
809 Clouds -4 1037 94 4978 5.77 219 14:45 02.12.2022
810 Clouds -4 1037 93 10000 6.49 221 14:26 02.12.2022
811 Clouds -4 1037 93 10000 6.49 221 13:36 02.12.2022
812 Clouds -5 1036 94 1630 7.2 223 11:44 02.12.2022
813 Clouds -7 1036 93 2406 8.39 220 09:46 02.12.2022
814 Clouds -7 1036 93 2406 8.39 220 09:45 02.12.2022
815 Clouds -7 1036 93 2406 8.39 220 09:45 02.12.2022
816 Clouds -9 1035 95 739 10.68 219 07:25 02.12.2022
817 Snow -10 1035 94 1076 11.64 219 05:21 02.12.2022
818 Clouds -12 1037 97 2615 11.85 216 21:59 01.12.2022
819 Clouds -12 1037 97 2615 11.85 216 21:38 01.12.2022
820 Clouds -13 1037 99 5144 11.73 216 20:30 01.12.2022
821 Clouds -14 1038 100 8965 10.99 216 18:56 01.12.2022
822 Clouds -15 1039 100 7754 10.06 215 16:22 01.12.2022
823 Clouds -15 1040 100 10000 8.94 216 13:22 01.12.2022
824 Clouds -15 1041 98 10000 8.73 217 10:42 01.12.2022
825 Clouds -15 1041 97 10000 8.61 218 09:54 01.12.2022
826 Clouds -15 1041 97 10000 8.61 218 09:36 01.12.2022
827 Clouds -15 1042 99 10000 6.33 215 03:33 01.12.2022
828 Clouds -15 1043 98 10000 4.64 215 22:39 30.11.2022
829 Clouds -15 1043 98 10000 4.43 212 21:19 30.11.2022
830 Clouds -15 1043 98 10000 4.43 212 20:47 30.11.2022
831 Clouds -15 1043 98 10000 4.27 212 20:23 30.11.2022
832 Clouds -15 1043 99 10000 3.79 213 18:34 30.11.2022
833 Clouds -15 1043 99 10000 3.6 216 17:36 30.11.2022
834 Clouds -15 1043 97 10000 3.08 216 16:20 30.11.2022
835 Clouds -15 1043 98 10000 3.06 212 14:39 30.11.2022
836 Clouds -15 1043 98 10000 2.8 210 14:20 30.11.2022
837 Clouds -15 1043 97 3329 2.49 212 11:35 30.11.2022
838 Clouds -14 1043 98 1752 2.16 212 08:40 30.11.2022
839 Clouds -14 1043 97 1704 2.16 210 07:58 30.11.2022
840 Clouds -13 1041 97 10000 2.54 194 23:42 29.11.2022
841 Clouds -13 1041 96 10000 2.42 198 23:21 29.11.2022
842 Clouds -12 1040 96 9070 2.47 204 21:39 29.11.2022
843 Clouds -12 1040 96 4672 2.7 199 20:37 29.11.2022
844 Clouds -12 1039 96 4715 2.21 170 19:20 29.11.2022
845 Clouds -11 1039 94 9032 2.44 178 17:36 29.11.2022
846 Clouds -10 1038 92 7078 3.19 185 16:27 29.11.2022
847 Clouds -10 1038 93 6573 3.39 193 14:51 29.11.2022
848 Clouds -11 1037 93 9786 2.78 189 13:36 29.11.2022
849 Clouds -9 1036 92 8593 3.54 199 12:22 29.11.2022
850 Clouds -8 1036 92 3217 3.77 203 11:24 29.11.2022
851 Clouds -8 1035 93 1470 4.1 205 10:22 29.11.2022
852 Clouds -8 1035 93 1251 4.47 209 08:42 29.11.2022
853 Snow -7 1034 94 206 6.25 215 05:49 29.11.2022
854 Snow -6 1032 94 251 8.22 220 23:35 28.11.2022
855 Snow -6 1032 94 344 8.36 221 22:57 28.11.2022
856 Snow -6 1032 93 405 8.48 221 21:54 28.11.2022
857 Snow -6 1032 93 405 8.48 221 21:36 28.11.2022
858 Snow -6 1031 94 308 8.93 221 20:19 28.11.2022
859 Snow -5 1031 94 287 9.08 219 18:39 28.11.2022
860 Snow -6 1031 93 293 9.27 217 17:51 28.11.2022
861 Snow -6 1031 93 298 9.4 216 16:57 28.11.2022
862 Clouds -6 1031 92 1001 9.41 218 14:28 28.11.2022
863 Clouds -6 1031 92 1001 9.41 218 13:52 28.11.2022
864 Clouds -6 1031 91 1562 9.7 218 12:43 28.11.2022
865 Clouds -7 1031 90 3797 10.49 215 10:29 28.11.2022
866 Clouds -7 1031 91 1450 10.53 213 07:52 28.11.2022
867 Clouds -7 1032 91 10000 9.87 216 04:44 28.11.2022
868 Clouds -6 1032 91 10000 9.65 217 03:59 28.11.2022
869 Clouds -5 1032 91 5771 9.35 219 03:19 28.11.2022
870 Clouds -5 1033 92 5804 8.99 217 22:53 27.11.2022
871 Clouds -4 1033 91 3162 8.82 219 21:43 27.11.2022
872 Clouds -2 1033 93 1928 8.33 225 20:34 27.11.2022
873 Snow -2 1032 94 1640 8.1 226 17:56 27.11.2022
874 Clouds -5 1032 93 10000 8.5 213 15:28 27.11.2022
875 Clouds -6 1032 93 10000 8.26 214 13:33 27.11.2022
876 Clouds -9 1032 94 10000 10.23 212 10:57 27.11.2022
877 Clouds -10 1032 94 10000 10.45 212 08:35 27.11.2022
878 Clouds -10 1031 93 10000 11.16 215 04:22 27.11.2022
879 Clouds -9 1032 92 10000 11.47 221 22:31 26.11.2022
880 Clouds -9 1032 93 7593 11.26 222 20:51 26.11.2022
881 Clouds -7 1031 92 2505 11.01 225 19:27 26.11.2022
882 Clouds -7 1032 92 1559 10.83 226 17:54 26.11.2022
883 Clouds -6 1032 91 2203 10.53 227 15:52 26.11.2022
884 Clouds -5 1032 91 2934 10.68 231 13:34 26.11.2022
885 Clouds -3 1031 91 1472 10.98 236 11:45 26.11.2022
886 Snow -2 1031 93 1625 9.36 238 10:22 26.11.2022
887 Snow -2 1031 93 1625 9.36 238 09:31 26.11.2022
888 Snow -1 1031 90 4010 7.5 251 06:30 26.11.2022
889 Clouds -4 1030 93 10000 6.01 219 21:46 25.11.2022
890 Clouds -4 1030 93 10000 6.44 218 21:22 25.11.2022
891 Clouds -5 1030 94 9408 6.58 218 19:56 25.11.2022
892 Clouds -5 1029 93 10000 5.62 222 16:49 25.11.2022
893 Clouds -7 1030 95 1447 6.55 231 14:22 25.11.2022
894 Clouds -11 1030 92 9219 7.12 210 09:22 25.11.2022
895 Clouds -11 1030 92 9219 7.12 210 08:41 25.11.2022
896 Clouds -12 1030 92 10000 5.77 206 06:54 25.11.2022
897 Clouds -12 1030 92 10000 5.16 208 06:22 25.11.2022
898 Clouds -11 1029 95 10000 3.77 214 23:54 24.11.2022
899 Clouds -11 1029 94 10000 3.39 217 22:50 24.11.2022
900 Clouds -10 1028 94 10000 3.2 219 21:58 24.11.2022
901 Clouds -10 1028 94 10000 2.88 209 20:30 24.11.2022
902 Clouds -10 1027 96 2064 2.54 193 18:30 24.11.2022
903 Clouds -9 1027 96 2106 2.26 187 17:40 24.11.2022
904 Clouds -9 1026 96 1592 2.32 175 17:20 24.11.2022
905 Clouds -10 1025 96 1416 1.91 150 15:18 24.11.2022
906 -273 0 0 0 0 0 13:49 24.11.2022
907 Clouds -10 1023 96 1499 1.97 157 11:55 24.11.2022
908 Clouds -10 1023 96 1740 2.12 181 10:35 24.11.2022
909 Clouds -7 1021 94 1165 4.29 218 07:53 24.11.2022
910 Clouds -8 1021 96 3798 4.59 219 03:19 24.11.2022
911 Clouds -9 1022 91 10000 4.22 238 23:33 23.11.2022
912 Clouds -10 1022 89 2284 2.96 236 21:56 23.11.2022
913 Clouds -9 1022 82 2464 2.35 244 21:23 23.11.2022
914 Clouds -8 1022 78 10000 1.82 282 19:59 23.11.2022
915 Clouds -7 1022 73 10000 2.01 319 18:58 23.11.2022
916 Clouds -7 1022 73 10000 2.01 319 18:35 23.11.2022
917 Clouds -5 1021 70 10000 3.64 349 16:24 23.11.2022
918 Clouds -4 1020 70 10000 4.85 359 13:27 23.11.2022
919 Clouds -4 1020 70 10000 4.85 359 12:58 23.11.2022
920 Clouds -4 1020 71 10000 5.02 2 11:59 23.11.2022
921 Clouds -4 1020 71 10000 5.02 2 11:40 23.11.2022
922 Clouds -3 1020 71 10000 5.64 4 10:42 23.11.2022
923 Clouds -2 1019 73 10000 6.29 5 09:42 23.11.2022
924 Snow -1 1019 79 10000 6.98 2 09:23 23.11.2022
925 Snow -1 1019 79 10000 6.98 2 08:36 23.11.2022
926 Snow -2 1017 96 172 8.43 283 05:22 23.11.2022
927 Snow -2 1018 92 302 9.25 277 02:56 23.11.2022
928 Snow -4 1019 91 404 11.28 261 22:58 22.11.2022
929 Snow -5 1019 93 236 11.5 260 21:54 22.11.2022
930 Snow -5 1019 93 236 11.5 260 21:32 22.11.2022
931 Snow -5 1019 93 190 11.71 259 20:45 22.11.2022
932 Snow -5 1019 93 190 11.71 259 20:45 22.11.2022
933 Snow -5 1019 93 184 11.93 258 19:52 22.11.2022
934 Snow -3 1019 93 188 11.41 262 17:55 22.11.2022
935 Snow -4 1019 94 153 10.6 251 16:48 22.11.2022
936 Snow -11 1019 99 126 10.91 223 14:56 22.11.2022
937 Clouds -13 1021 99 2700 12.38 217 13:24 22.11.2022
938 Snow -13 1022 98 530 8.8 206 10:25 22.11.2022
939 Snow -13 1022 99 242 7.86 206 08:59 22.11.2022
940 Clouds -15 1023 96 4816 6.51 206 06:46 22.11.2022
941 Clouds -14 1022 90 10000 3.89 205 01:35 22.11.2022
942 Clouds -12 1022 90 10000 4.21 202 23:33 21.11.2022
943 Clouds -12 1022 91 10000 4.13 203 22:31 21.11.2022
944 Clouds -13 1022 94 3492 4.03 212 21:58 21.11.2022
945 Clouds -13 1022 96 587 3.78 220 20:35 21.11.2022
946 Clouds -12 1021 83 1703 2.45 215 19:41 21.11.2022
947 Clouds -11 1020 75 10000 0.84 150 18:53 21.11.2022
948 Clouds -10 1020 72 10000 2.35 75 17:46 21.11.2022
949 Clouds -10 1020 72 10000 3.51 68 16:52 21.11.2022
950 Clouds -10 1020 72 10000 3.51 68 16:34 21.11.2022
951 Clouds -9 1020 73 8123 5.25 59 15:24 21.11.2022
952 Clouds -9 1020 72 10000 5.94 57 13:55 21.11.2022
953 Clouds -9 1020 72 10000 5.94 57 13:34 21.11.2022
954 Clouds -8 1017 72 10000 8.1 57 10:24 21.11.2022
955 Clouds -8 1016 73 10000 9.44 52 08:21 21.11.2022
956 Clouds -8 1014 75 9583 10.76 50 05:41 21.11.2022
957 Clouds -4 1006 66 10000 12.78 6 22:19 20.11.2022
958 Clouds -3 1006 67 10000 12.26 4 21:23 20.11.2022
959 Clouds -3 1006 67 10000 11.15 4 20:23 20.11.2022
960 Clouds -2 1005 75 9725 10.62 358 18:20 20.11.2022
961 Clouds -2 1005 81 9000 9.76 347 15:57 20.11.2022
962 Clouds -1 1004 76 10000 9.56 344 15:25 20.11.2022
963 Clouds -1 1004 73 10000 10.19 340 14:25 20.11.2022
964 Clouds -1 1004 76 10000 9.83 349 13:32 20.11.2022
965 Clouds -1 1004 73 10000 9.5 349 12:31 20.11.2022
966 Snow -5 1004 95 984 4.58 248 10:59 20.11.2022
967 Clouds -7 1004 95 541 8.69 221 09:55 20.11.2022
968 Clouds -8 1005 93 5134 10.9 220 08:59 20.11.2022
969 Clouds -8 1005 93 5134 10.9 220 08:33 20.11.2022
970 Snow -9 1006 95 1007 12.66 218 07:28 20.11.2022
971 Clouds -10 1012 83 10000 8.13 208 01:31 20.11.2022
972 Clouds -11 1012 84 10000 7.47 203 00:58 20.11.2022
973 Clouds -11 1012 84 10000 7.47 203 00:39 20.11.2022
974 Clouds -11 1013 85 10000 6.83 199 00:20 20.11.2022
975 Clouds -11 1013 85 10000 6.83 199 23:47 19.11.2022
976 Clouds -11 1014 84 10000 6.23 195 23:20 19.11.2022
977 Clouds -11 1014 85 10000 5.83 194 22:20 19.11.2022
978 Clouds -11 1014 86 10000 5.32 189 21:28 19.11.2022
979 Clouds -10 1013 86 10000 4.55 184 20:42 19.11.2022
980 Clouds -10 1013 86 10000 4.55 184 20:42 19.11.2022
981 Clouds -11 1013 88 10000 4.19 181 20:22 19.11.2022
982 Clouds -11 1014 86 10000 3.9 178 18:54 19.11.2022
983 Clouds -11 1014 85 10000 3.81 181 17:39 19.11.2022
984 Clouds -11 1014 83 10000 3.67 177 17:18 19.11.2022
985 Clouds -10 1014 78 10000 3.07 173 15:34 19.11.2022
986 Clouds -8 1015 65 10000 0.86 104 13:36 19.11.2022
987 Clouds -6 1016 74 10000 2.3 300 11:57 19.11.2022
988 Clouds -5 1017 72 6577 5.24 337 10:19 19.11.2022
989 Clouds -5 1017 64 10000 7.57 351 08:19 19.11.2022
990 Clouds -5 1018 69 8658 9.52 1 04:45 19.11.2022
991 Clouds -6 1019 75 10000 11.05 360 01:50 19.11.2022
992 Snow -6 1019 77 10000 11.91 358 23:37 18.11.2022
993 Snow -6 1019 77 10000 11.91 358 23:37 18.11.2022
994 Snow -6 1019 77 10000 11.91 358 23:37 18.11.2022
995 Snow -6 1019 77 10000 11.91 358 23:37 18.11.2022
996 Snow -6 1019 78 4142 11.98 357 22:25 18.11.2022
997 Snow -6 1019 78 4142 11.98 357 21:36 18.11.2022
998 Clouds -7 1019 79 9404 11.87 357 20:58 18.11.2022
999 Clouds -7 1019 76 10000 12.45 360 20:25 18.11.2022
1000 Clouds -7 1019 76 10000 12.45 360 19:44 18.11.2022
1001 Clouds -7 1018 72 10000 13.2 5 17:45 18.11.2022
1002 Clouds -7 1018 72 10000 13.32 5 16:37 18.11.2022
1003 Clouds -7 1015 72 10000 15.28 6 12:53 18.11.2022
1004 Clouds -7 1013 73 10000 15.34 5 11:22 18.11.2022
1005 Clouds -6 1009 67 10000 15.72 4 07:53 18.11.2022
1006 Snow -5 1006 80 6271 15.47 3 05:45 18.11.2022
1007 Snow -3 1000 81 4862 16.34 7 02:49 18.11.2022
1008 Snow -1 995 76 10000 11.88 343 23:52 17.11.2022
1009 Snow -2 994 95 169 10.03 315 20:48 17.11.2022
1010 Snow -2 994 88 1082 12.37 300 20:25 17.11.2022
1011 Snow -2 994 88 1082 12.37 300 19:49 17.11.2022
1012 Snow -2 993 90 664 11.73 299 18:34 17.11.2022
1013 Snow -1 993 90 645 12.07 305 17:32 17.11.2022
1014 Clouds -1 993 83 10000 12.85 303 16:33 17.11.2022
1015 Snow -2 997 94 161 17.05 241 12:27 17.11.2022
1016 Snow -2 999 93 219 16.45 239 11:19 17.11.2022
1017 Snow -3 1004 92 451 14.15 237 07:59 17.11.2022
1018 Clouds -5 1011 90 10000 6.36 243 01:39 17.11.2022
1019 Clouds -7 1012 93 1153 7.26 230 23:33 16.11.2022
1020 Clouds -8 1011 94 1023 8.81 226 22:25 16.11.2022
1021 Clouds -8 1011 95 1858 9.15 224 20:33 16.11.2022
1022 Clouds -7 1010 95 1404 8.25 227 18:53 16.11.2022
1023 Clouds -7 1010 95 1404 8.25 227 18:32 16.11.2022
1024 Clouds -6 1010 94 2278 8.3 227 16:30 16.11.2022
1025 Snow -6 1008 94 305 8.1 223 12:20 16.11.2022
1026 Clouds -8 1006 93 588 7.95 213 07:55 16.11.2022
1027 Clouds -8 1004 94 10000 8.92 210 01:49 16.11.2022
1028 Clouds -9 1004 94 10000 10.08 209 23:47 15.11.2022
1029 Clouds -9 1004 97 6150 10.42 211 21:54 15.11.2022
1030 Clouds -9 1005 95 10000 10.42 208 20:25 15.11.2022
1031 Clouds -10 1005 97 10000 10.17 207 18:56 15.11.2022
1032 Clouds -11 1006 97 10000 10.23 207 17:38 15.11.2022
1033 Clouds -11 1007 97 8037 10.76 215 16:22 15.11.2022
1034 Clouds -11 1007 97 8037 10.76 215 15:40 15.11.2022
1035 Clouds -11 1008 98 3009 10.41 214 14:41 15.11.2022
1036 Clouds -11 1008 97 8090 10.57 214 12:58 15.11.2022
1037 Clouds -10 1009 96 10000 8.84 212 11:22 15.11.2022
1038 Clouds -10 1010 94 10000 7.94 213 09:43 15.11.2022
1039 Clouds -13 1013 93 2305 3.13 218 03:48 15.11.2022
1040 Clouds -11 1014 79 10000 0.79 86 00:26 15.11.2022
1041 Clouds -11 1014 79 10000 1.37 104 22:51 14.11.2022
1042 Clouds -11 1014 81 10000 2.67 107 20:44 14.11.2022
1043 Clouds -11 1014 81 10000 2.67 107 20:44 14.11.2022
1044 Clouds -10 1015 80 10000 3.56 102 19:47 14.11.2022
1045 Clouds -10 1015 80 10000 3.81 100 18:27 14.11.2022
1046 Clouds -10 1015 81 10000 5 113 13:20 14.11.2022
1047 Clouds -10 1015 79 10000 5.59 109 11:49 14.11.2022
1048 Clouds -10 1015 79 10000 5.59 109 11:49 14.11.2022
1049 Clouds -9 1015 77 10000 6.2 104 10:59 14.11.2022
1050 Clouds -8 1014 76 10000 6.67 107 08:34 14.11.2022
1051 Clouds -8 1014 76 10000 6.67 107 08:34 14.11.2022
1052 Clouds -8 1014 76 10000 6.86 107 07:52 14.11.2022
1053 Clouds -9 1012 87 1539 9.02 109 04:24 14.11.2022
1054 Clouds -10 1011 87 1084 9.27 109 23:23 13.11.2022
1055 Clouds -10 1011 88 828 9.16 108 21:42 13.11.2022
1056 Snow -10 1010 90 482 8.91 108 20:48 13.11.2022
1057 Snow -10 1009 90 406 7.56 106 18:55 13.11.2022
1058 Snow -10 1009 91 354 6.76 107 17:50 13.11.2022
1059 Clouds -10 1008 86 3498 5.47 111 15:55 13.11.2022
1060 Clouds -11 1008 79 10000 5.24 111 14:39 13.11.2022
1061 Clouds -11 1007 72 10000 3.27 120 12:56 13.11.2022
1062 Clouds -11 1006 71 10000 3.32 121 11:55 13.11.2022
1063 Clouds -11 1006 73 10000 3.67 120 10:41 13.11.2022
1064 Clouds -11 1005 81 10000 6.37 112 05:53 13.11.2022
1065 Clouds -12 1005 74 10000 4.58 116 23:55 12.11.2022
1066 Clouds -12 1005 75 10000 4.63 118 21:41 12.11.2022
1067 Clouds -12 1004 75 10000 4.84 117 20:57 12.11.2022
1068 Clouds -13 1005 79 10000 5.49 119 19:28 12.11.2022
1069 Clouds -14 1006 81 10000 6.25 122 16:58 12.11.2022
1070 Clouds -14 1006 82 10000 6.68 120 15:55 12.11.2022
1071 Clouds -13 1007 80 10000 7.22 123 14:25 12.11.2022
1072 Clouds -12 1009 76 10000 9.32 125 09:43 12.11.2022
1073 Clouds -12 1009 77 10000 10.03 124 07:48 12.11.2022
1074 Clouds -10 1013 84 10000 8.69 120 00:40 12.11.2022
1075 Clouds -9 1014 79 10000 8.46 112 21:21 11.11.2022
1076 Clouds -9 1014 79 10000 8.46 112 20:44 11.11.2022
1077 Clouds -9 1014 78 10000 8.11 109 19:27 11.11.2022
1078 Clouds -9 1014 78 10000 8.27 109 18:33 11.11.2022
1079 Clouds -8 1014 77 10000 8.64 105 17:40 11.11.2022
1080 Clouds -8 1014 77 10000 8.64 105 17:40 11.11.2022
1081 Clouds -8 1014 77 10000 8.64 105 17:40 11.11.2022
1082 Clouds -8 1014 77 10000 8.64 105 17:40 11.11.2022
1083 Clouds -6 1014 71 10000 7.96 80 14:51 11.11.2022
1084 Clouds -6 1014 73 10000 8.55 74 13:56 11.11.2022
1085 Clouds -5 1013 74 10000 9.44 77 12:45 11.11.2022
1086 Clouds -4 1012 61 10000 6.54 55 09:32 11.11.2022
1087 Clouds -3 1011 66 10000 7.39 48 08:26 11.11.2022
1088 Clouds -7 1010 95 1310 3.91 233 00:40 11.11.2022
1089 Clouds -6 1011 92 1893 3.74 243 22:53 10.11.2022
1090 Clouds -6 1011 92 1879 4.09 242 21:50 10.11.2022
1091 Clouds -6 1011 92 1815 4 242 21:27 10.11.2022
1092 Clouds -6 1011 92 1815 4 242 20:43 10.11.2022
1093 Clouds -6 1011 92 2274 4.33 238 20:19 10.11.2022
1094 Clouds -6 1012 92 7121 4.51 236 18:50 10.11.2022
1095 Clouds -6 1012 94 2267 5.68 227 17:30 10.11.2022
1096 Clouds -6 1013 93 2142 5.78 225 16:25 10.11.2022
1097 Clouds -7 1014 93 3645 5.86 227 13:37 10.11.2022
1098 Clouds -10 1015 97 10000 6 221 09:53 10.11.2022
1099 Clouds -10 1016 96 10000 5.28 221 08:20 10.11.2022
1100 Clouds -8 1017 69 10000 2.7 196 01:21 10.11.2022
1101 Clouds -9 1017 80 10000 2.55 190 23:20 09.11.2022
1102 Clouds -9 1017 82 10000 2.34 182 21:57 09.11.2022
1103 Clouds -9 1017 83 10000 2.47 172 20:46 09.11.2022
1104 Clouds -9 1017 84 10000 2.4 167 20:28 09.11.2022
1105 Clouds -9 1017 84 10000 2.55 165 19:26 09.11.2022
1106 Clouds -9 1017 82 10000 3.04 153 17:50 09.11.2022
1107 Clouds -9 1017 84 10000 2.52 146 14:59 09.11.2022
1108 Clouds -9 1017 84 10000 2.52 146 14:41 09.11.2022
1109 Clouds -9 1017 84 10000 2.43 143 14:22 09.11.2022
1110 Clouds -9 1016 85 10000 2.7 137 12:57 09.11.2022
1111 Clouds -9 1016 85 10000 2.66 136 09:45 09.11.2022
1112 Clouds -9 1015 84 10000 2.79 137 07:47 09.11.2022
1113 Clouds -9 1014 85 10000 2.82 135 06:55 09.11.2022
1114 Clouds -6 1011 81 10000 4.6 115 22:46 08.11.2022
1115 Clouds -5 1011 79 10000 4.79 111 21:43 08.11.2022
1116 Clouds -5 1010 79 10000 4.99 109 21:21 08.11.2022
1117 Clouds -5 1010 79 10000 4.99 109 20:36 08.11.2022
1118 Clouds -4 1010 80 10000 5.36 97 19:28 08.11.2022
1119 Clouds -4 1009 86 4502 5.96 96 17:37 08.11.2022
1120 Clouds -3 1008 85 4028 5.46 84 15:50 08.11.2022
1121 Clouds -3 1008 87 3954 5.55 83 14:51 08.11.2022
1122 Clouds -3 1008 85 5135 5.7 81 13:34 08.11.2022
1123 Clouds -3 1007 83 10000 5.84 71 11:54 08.11.2022
1124 Clouds -2 1004 88 5534 5.66 89 07:45 08.11.2022
1125 Clouds -3 1004 91 2007 3.94 101 06:29 08.11.2022
1126 Clouds -5 1003 90 4932 1.87 200 23:52 07.11.2022
1127 Clouds -4 1003 89 10000 3.02 202 22:21 07.11.2022
1128 Clouds -4 1003 89 10000 3.23 202 20:59 07.11.2022
1129 Clouds -3 1003 90 10000 3.44 202 19:57 07.11.2022
1130 Clouds -3 1003 90 10000 3.41 206 17:44 07.11.2022
1131 Clouds -2 1003 91 10000 3.83 206 16:26 07.11.2022
1132 Clouds -2 1003 91 10000 3.83 206 15:33 07.11.2022
1133 Clouds -1 1003 92 10000 3.68 206 13:54 07.11.2022
1134 Clouds 0 1003 92 10000 3.37 209 12:32 07.11.2022
1135 Clouds 0 1003 94 10000 3.69 225 10:46 07.11.2022
1136 Clouds 0 1004 95 1087 5.01 224 09:19 07.11.2022
1137 Snow -1 1004 96 416 5.28 204 06:55 07.11.2022
1138 Clouds -1 1007 92 10000 4.95 194 02:28 07.11.2022
1139 Clouds -1 1007 93 10000 4.79 195 00:36 07.11.2022
1140 Clouds -1 1009 87 10000 3.68 208 21:52 06.11.2022
1141 Clouds -1 1009 86 10000 3.36 212 21:18 06.11.2022
1142 Clouds -1 1009 84 10000 3.24 208 19:58 06.11.2022
1143 Clouds -1 1009 84 10000 3.24 208 19:30 06.11.2022
1144 Clouds 0 1009 81 10000 1.78 239 18:21 06.11.2022
1145 Clouds 0 1009 81 10000 1.78 239 17:46 06.11.2022
1146 Clouds 0 1009 79 10000 1.71 276 17:19 06.11.2022
1147 Clouds 0 1010 76 10000 1.85 310 16:20 06.11.2022
1148 Clouds 0 1010 73 10000 2.4 328 15:26 06.11.2022
1149 Clouds 0 1009 76 10000 2.55 353 12:48 06.11.2022
1150 Clouds 0 1009 77 10000 3.44 356 11:42 06.11.2022
1151 Clouds 0 1009 81 10000 3.45 4 10:34 06.11.2022
1152 Clouds 1 1008 87 10000 5.59 7 07:44 06.11.2022
1153 Snow 1 1004 97 1360 5.6 301 23:26 05.11.2022
1154 Snow 1 1004 97 1360 5.6 301 22:35 05.11.2022
1155 Rain 2 1004 98 903 5.4 291 19:18 05.11.2022
1156 Rain 2 1004 98 1266 5.62 246 16:56 05.11.2022
1157 Rain 2 1004 98 634 7.48 234 15:20 05.11.2022
1158 Snow 2 1005 98 91 7.87 229 13:51 05.11.2022
1159 Rain 2 1005 98 617 7.43 233 11:52 05.11.2022
1160 Rain 2 1006 98 860 7.97 238 08:59 05.11.2022
1161 Rain 2 1006 98 642 8.28 236 07:23 05.11.2022
1162 Rain 2 1006 98 642 8.28 236 06:56 05.11.2022
1163 Clouds 2 1008 97 52 9.4 233 00:45 05.11.2022
1164 Clouds 2 1009 96 460 9.82 235 23:29 04.11.2022
1165 Clouds 2 1009 95 2159 9.87 234 21:36 04.11.2022
1166 Clouds 2 1010 96 1620 8.96 234 19:38 04.11.2022
1167 Rain 2 1010 97 590 8.33 234 17:44 04.11.2022
1168 Rain 2 1011 98 698 7.58 231 14:28 04.11.2022
1169 Rain 2 1011 97 109 8.46 228 13:19 04.11.2022
1170 Snow 2 1012 97 93 8.32 228 11:58 04.11.2022
1171 Snow 2 1012 98 47 8.24 230 09:30 04.11.2022
1172 Snow 1 1012 97 39 8.34 231 08:20 04.11.2022
1173 Snow 1 1012 97 39 8.61 229 06:34 04.11.2022
1174 Clouds -2 1014 87 10000 8.63 222 00:56 04.11.2022
1175 Clouds -5 1015 88 10000 8.36 217 21:42 03.11.2022
1176 Clouds -5 1016 88 10000 8.32 217 20:45 03.11.2022
1177 Clouds -6 1016 88 10000 8.34 217 19:41 03.11.2022
1178 Clouds -5 1017 87 10000 8.28 216 18:26 03.11.2022
1179 Clouds -5 1017 87 10000 8.28 216 17:37 03.11.2022
1180 Clouds -6 1018 88 10000 7.88 216 15:20 03.11.2022
1181 Clouds -6 1018 88 10000 7.69 217 13:33 03.11.2022
1182 Clouds -6 1018 87 10000 7.6 215 12:34 03.11.2022
1183 Clouds -6 1019 87 10000 7.44 216 11:31 03.11.2022
1184 Clouds -6 1020 89 10000 7.37 216 07:48 03.11.2022
1185 Clouds -6 1022 91 10000 6.85 216 22:20 02.11.2022
1186 Clouds -6 1022 91 10000 7.08 215 20:55 02.11.2022
1187 Clouds -5 1022 90 10000 7.09 215 20:23 02.11.2022
1188 Clouds -4 1022 87 10000 7.02 214 18:23 02.11.2022
1189 Clouds -4 1022 90 10000 7.2 217 16:28 02.11.2022
1190 Clouds -4 1022 90 10000 7.2 217 15:30 02.11.2022
1191 Clouds -3 1022 86 10000 7.19 215 12:51 02.11.2022
1192 Clouds -3 1021 85 10000 7.22 213 12:22 02.11.2022
1193 Clouds -3 1022 83 10000 7.05 213 09:50 02.11.2022
1194 Clouds -4 1022 81 10000 7.23 214 08:18 02.11.2022
1195 Clouds -5 1020 74 10000 3.64 209 01:46 02.11.2022
1196 Clouds -6 1019 79 10000 2.8 236 22:21 01.11.2022
1197 Clouds -6 1019 79 10000 2.8 236 21:54 01.11.2022
1198 Clouds -5 1018 70 10000 2.04 254 20:28 01.11.2022
1199 Clouds -5 1018 70 10000 2.04 254 19:59 01.11.2022
1200 Clouds -5 1018 70 10000 2.04 254 19:40 01.11.2022
1201 Clouds -3 1017 65 10000 1.92 332 18:21 01.11.2022
1202 Clouds -3 1015 65 10000 3.55 356 16:28 01.11.2022
1203 Clouds -2 1015 64 10000 4.29 358 14:38 01.11.2022
1204 Clouds -1 1013 65 10000 5.08 8 12:34 01.11.2022
1205 Clouds -1 1012 66 10000 5.96 11 11:40 01.11.2022
1206 Clouds -1 1011 65 10000 6.44 14 11:20 01.11.2022
1207 Clouds 0 1009 63 10000 7.48 20 08:51 01.11.2022
1208 Clouds 0 1008 64 10000 8.83 23 07:48 01.11.2022
1209 Clouds 1 1007 63 10000 9.1 24 07:27 01.11.2022
1210 Clouds 1 1007 66 10000 8.88 27 06:45 01.11.2022
1211 Clouds 1 1003 81 10000 10.56 30 04:20 01.11.2022
1212 Clouds 1 997 97 213 5.39 230 22:35 31.10.2022
1213 Clouds -1 996 96 308 6.48 217 21:31 31.10.2022
1214 Clouds -1 996 94 1548 6.92 211 19:56 31.10.2022
1215 Clouds -1 996 94 5515 6.51 211 18:36 31.10.2022
1216 Clouds -2 996 92 10000 7.25 209 16:44 31.10.2022
1217 Clouds -2 996 92 10000 7.63 208 15:30 31.10.2022
1218 Clouds -2 995 91 10000 8.75 202 12:21 31.10.2022
1219 Clouds -1 995 92 10000 9.06 205 09:35 31.10.2022
1220 Clouds -1 995 91 10000 9.42 202 05:40 31.10.2022
1221 Clouds 0 996 91 10000 10.51 204 02:42 31.10.2022
1222 Clouds 0 996 91 10000 10.75 205 01:46 31.10.2022
1223 Clouds 0 996 90 10000 10.51 204 22:18 30.10.2022
1224 Clouds 0 997 90 10000 10.82 203 20:37 30.10.2022
1225 Clouds 0 997 91 10000 11.26 203 19:33 30.10.2022
1226 Clouds 1 996 90 10000 11.39 203 16:28 30.10.2022
1227 Clouds 1 996 89 10000 10.79 203 14:33 30.10.2022
1228 Clouds 2 997 91 10000 10.29 204 13:33 30.10.2022
1229 Clouds 2 996 92 10000 10.12 201 11:58 30.10.2022
1230 Clouds 2 996 97 242 9.76 204 09:56 30.10.2022
1231 Snow 2 996 97 52 9.71 203 08:57 30.10.2022
1232 Snow 2 996 97 38 9.61 201 07:45 30.10.2022
1233 Clouds -2 998 90 10000 10.07 197 00:29 30.10.2022
1234 Clouds -2 998 90 10000 10.07 197 00:29 30.10.2022
1235 Clouds -2 998 90 10000 10.07 197 23:46 29.10.2022
1236 Clouds -3 999 89 10000 10.37 193 21:56 29.10.2022
1237 Clouds -4 1001 88 10000 10.77 198 18:38 29.10.2022
1238 Clouds -5 1003 90 10000 10.43 199 17:22 29.10.2022
1239 Clouds -5 1004 89 10000 10.41 197 15:38 29.10.2022
1240 Clouds -5 1005 90 10000 10.33 194 14:52 29.10.2022
1241 Clouds -5 1007 90 10000 9.17 194 12:36 29.10.2022
1242 Clouds -5 1008 88 10000 8.46 195 11:58 29.10.2022
1243 Clouds -2 1010 86 10000 6.06 214 07:39 29.10.2022
1244 Clouds -4 1010 89 1783 4.92 195 06:47 29.10.2022
1245 Clouds -5 1011 76 10000 4.36 198 05:53 29.10.2022
1246 Clouds -5 1012 72 10000 5.67 271 23:43 28.10.2022
1247 Clouds -4 1012 64 10000 6.37 281 21:30 28.10.2022
1248 Clouds -2 1012 66 10000 7.6 286 19:46 28.10.2022
1249 Clouds -1 1011 64 10000 7.49 311 18:32 28.10.2022
1250 Clouds -1 1011 62 10000 8.28 329 17:39 28.10.2022
1251 Snow -1 1010 64 10000 10.32 336 14:46 28.10.2022
1252 Clouds -1 1008 64 8887 11.41 335 13:23 28.10.2022
1253 Snow -1 1007 65 10000 11.13 334 11:54 28.10.2022
1254 Snow -1 1007 65 10000 11.13 334 11:32 28.10.2022
1255 Snow -1 1007 65 7058 11.36 333 10:44 28.10.2022
1256 Snow -1 1006 65 9930 11.24 331 08:40 28.10.2022
1257 Snow -1 1006 64 6616 10.3 328 06:51 28.10.2022
1258 Snow -1 1003 76 9283 10.82 329 00:52 28.10.2022
1259 Clouds 0 1002 64 10000 10.01 320 23:45 27.10.2022
1260 Clouds 0 1002 61 10000 9.59 318 22:32 27.10.2022
1261 Clouds 0 1001 62 10000 9.55 324 20:53 27.10.2022
1262 Snow -1 1000 69 10000 7.22 329 18:28 27.10.2022
1263 Snow -1 999 72 10000 6.46 326 16:38 27.10.2022
1264 Snow 1 997 81 10000 7.58 280 11:35 27.10.2022
1265 Snow 0 998 92 4881 5.51 242 07:34 27.10.2022
1266 Snow 0 999 96 126 12.73 231 02:50 27.10.2022
1267 Snow 0 1000 96 206 13.18 232 23:53 26.10.2022
1268 Snow 1 1001 97 81 12.31 235 22:41 26.10.2022
1269 Snow 1 1001 97 76 11.52 240 21:31 26.10.2022
1270 Snow 1 1003 97 91 10.24 245 17:59 26.10.2022
1271 Clouds 1 1005 81 10000 5.52 236 14:54 26.10.2022
1272 Clouds 1 1004 82 10000 6.17 247 13:33 26.10.2022
1273 Clouds 1 1003 73 10000 8.83 285 12:26 26.10.2022
1274 Snow 0 1003 92 595 10.02 213 09:19 26.10.2022
1275 Snow 0 1003 92 595 10.02 213 08:53 26.10.2022
1276 Clouds -3 1006 91 10000 4.45 252 00:57 26.10.2022
1277 Clouds -3 1006 91 10000 4.45 252 00:36 26.10.2022
1278 Snow -2 1005 88 10000 3.97 253 22:43 25.10.2022
1279 Clouds -2 1005 87 10000 3.62 253 21:46 25.10.2022
1280 Clouds -2 1005 85 10000 3.15 253 20:45 25.10.2022
1281 Clouds -1 1005 75 10000 2.7 305 18:56 25.10.2022
1282 Clouds -1 1005 74 10000 3.16 323 17:38 25.10.2022
1283 Clouds 0 1003 70 10000 3.71 342 12:55 25.10.2022
1284 Clouds 0 1003 69 10000 3.94 353 11:38 25.10.2022
1285 Clouds 0 1003 69 10000 3.94 353 11:38 25.10.2022
1286 Clouds 1 1003 68 10000 4.04 0 10:36 25.10.2022
1287 Clouds 0 1002 69 10000 4.22 6 08:38 25.10.2022
1288 Clouds 1 1001 69 10000 4.54 14 08:18 25.10.2022
1289 Clouds 1 1001 69 10000 4.54 14 07:53 25.10.2022
1290 Clouds 1 1001 70 10000 4.95 20 06:52 25.10.2022
1291 Snow 1 1000 71 10000 6.1 34 03:32 25.10.2022
1292 Clouds 0 999 79 7307 3.25 40 00:32 25.10.2022
1293 Clouds 1 998 81 8348 4.13 63 22:28 24.10.2022
1294 Clouds 1 998 81 8348 4.13 63 21:50 24.10.2022
1295 Clouds 1 998 81 8348 4.13 63 21:31 24.10.2022
1296 Clouds 1 997 78 10000 5.49 58 20:29 24.10.2022
1297 Clouds 1 997 80 7996 5.83 52 18:45 24.10.2022
1298 Snow 1 995 83 5643 6.34 55 16:58 24.10.2022
1299 Snow 1 995 83 7135 5.56 44 15:34 24.10.2022
1300 Clouds 1 994 75 10000 2.8 15 14:20 24.10.2022
1301 Clouds 1 993 76 10000 2.68 14 12:41 24.10.2022
1302 Clouds 1 992 66 10000 4.52 41 09:28 24.10.2022
1303 Clouds 1 992 65 10000 4.8 51 07:51 24.10.2022
1304 Clouds -1 988 83 10000 6.74 108 22:40 23.10.2022
1305 Clouds -1 988 84 10000 6.17 116 20:39 23.10.2022
1306 Clouds -1 989 85 10000 5.64 124 18:53 23.10.2022
1307 Clouds -1 989 82 10000 4.4 136 17:29 23.10.2022
1308 Clouds -1 989 82 10000 4.4 136 17:29 23.10.2022
1309 Clouds -1 990 80 10000 4.24 148 15:41 23.10.2022
1310 Clouds -1 990 81 10000 4 156 14:56 23.10.2022
1311 Clouds 0 991 73 10000 2.9 196 11:56 23.10.2022
1312 Clouds 0 992 72 10000 2.91 218 10:40 23.10.2022
1313 Clouds -2 994 85 10000 4.32 270 05:53 23.10.2022
1314 Snow 0 995 87 2137 8.67 305 22:51 22.10.2022
1315 Snow 0 995 85 1854 8.75 313 21:45 22.10.2022
1316 Clouds 1 995 82 4906 8.84 319 21:20 22.10.2022
1317 Snow 1 995 77 10000 9.32 324 19:59 22.10.2022
1318 Snow 1 995 77 10000 9.32 324 19:31 22.10.2022
1319 Snow 1 994 86 2299 8.36 331 17:39 22.10.2022
1320 Clouds 2 994 79 10000 7.04 332 16:28 22.10.2022
1321 Clouds 1 994 82 10000 6.04 330 14:49 22.10.2022
1322 Clouds 1 993 82 10000 5.01 327 13:58 22.10.2022
1323 Snow 1 993 78 7926 4.75 1 11:22 22.10.2022
1324 Snow 1 992 82 7913 4.97 356 09:43 22.10.2022
1325 Clouds 1 992 88 9699 4.38 1 08:37 22.10.2022
1326 Snow 1 990 99 37 8.29 343 05:34 22.10.2022
1327 Snow 1 990 90 1253 6.09 343 00:28 22.10.2022
1328 Snow 1 990 95 593 6.18 339 22:37 21.10.2022
1329 Snow 1 990 93 684 6.53 341 21:32 21.10.2022
1330 Snow 2 990 80 10000 6.75 351 20:25 21.10.2022
1331 Clouds 2 990 78 10000 5.48 16 17:50 21.10.2022
1332 Snow 1 989 90 3244 5.51 44 14:38 21.10.2022
1333 Clouds 1 989 84 10000 3.8 54 13:39 21.10.2022
1334 Clouds 1 988 81 10000 3.13 81 11:46 21.10.2022
1335 Clouds 1 987 82 10000 2.5 114 10:22 21.10.2022
1336 Clouds 1 987 85 10000 2.35 132 08:42 21.10.2022
1337 Clouds 0 987 87 10000 2.48 145 08:19 21.10.2022
1338 Clouds -1 986 92 10000 2.91 170 03:19 21.10.2022
1339 Clouds 0 986 90 10000 4.01 219 22:36 20.10.2022
1340 Snow 0 986 96 1540 4.74 211 20:56 20.10.2022
1341 Clouds 0 986 94 2189 4.68 205 19:42 20.10.2022
1342 Snow 0 985 94 1604 4.37 215 18:19 20.10.2022
1343 Snow 0 985 94 1604 4.37 215 17:38 20.10.2022
1344 Clouds 0 986 80 10000 4.2 229 13:32 20.10.2022
1345 Clouds 0 985 74 10000 4.12 237 12:31 20.10.2022
1346 Clouds 1 985 71 10000 4.06 239 11:26 20.10.2022
1347 Clouds 1 985 71 10000 4.06 239 10:51 20.10.2022
1348 Clouds 0 985 71 10000 4.38 255 08:55 20.10.2022
1349 Clouds -1 985 76 10000 6.27 264 05:54 20.10.2022
1350 Clouds 0 983 86 7566 8.95 273 01:56 20.10.2022
1351 Snow 1 982 97 98 8.29 273 22:52 19.10.2022
1352 Snow 1 982 96 148 7.51 268 21:59 19.10.2022
1353 Clouds 1 982 95 826 7.01 260 21:20 19.10.2022
1354 Clouds 2 982 96 156 6.87 256 19:42 19.10.2022
1355 Rain 2 982 96 35 8.94 207 17:40 19.10.2022
1356 Clouds 2 983 95 75 9.94 209 16:22 19.10.2022
1357 Rain 3 984 96 157 9.92 210 13:59 19.10.2022
1358 Clouds 4 985 90 10000 7.6 197 10:23 19.10.2022
1359 Clouds 4 986 88 10000 7.96 199 08:37 19.10.2022
1360 Clouds 4 986 88 10000 7 201 07:21 19.10.2022
1361 Clouds 5 987 85 10000 8.29 208 01:32 19.10.2022
1362 Rain 4 987 93 10000 7.55 207 23:22 18.10.2022
1363 Rain 4 987 96 1350 7.97 198 21:49 18.10.2022
1364 Clouds 4 988 93 2196 7.81 189 21:18 18.10.2022
1365 Clouds 5 989 88 10000 6.08 186 20:24 18.10.2022
1366 Clouds 5 989 89 10000 5.92 185 18:32 18.10.2022
1367 Clouds 5 991 92 10000 5.33 188 16:55 18.10.2022
1368 Clouds 5 991 93 10000 5.2 197 14:59 18.10.2022
1369 Clouds 6 992 87 10000 6.42 200 13:38 18.10.2022
1370 Clouds 5 992 94 10000 6.17 196 11:39 18.10.2022
1371 Clouds 5 993 93 10000 6.87 193 10:24 18.10.2022
1372 Clouds 5 993 93 10000 6.95 193 08:40 18.10.2022
1373 Clouds 5 995 93 10000 7.91 199 05:45 18.10.2022
1374 Clouds 5 995 93 10000 7.91 199 05:45 18.10.2022
1375 Clouds 5 999 93 10000 9.25 212 22:56 17.10.2022
1376 Clouds 5 1001 93 10000 9.48 216 21:28 17.10.2022
1377 Clouds 5 1001 93 10000 9.48 216 20:45 17.10.2022
1378 Clouds 5 1001 94 10000 9.25 216 20:27 17.10.2022
1379 Clouds 5 1001 94 10000 9.25 216 19:37 17.10.2022
1380 Rain 5 1002 94 10000 9.39 218 17:38 17.10.2022
1381 Clouds 5 1003 90 10000 9.91 211 15:54 17.10.2022
1382 Clouds 5 1005 89 10000 9.81 206 14:35 17.10.2022
1383 Clouds 5 1007 87 10000 9.39 210 12:29 17.10.2022
1384 Clouds 5 1009 91 10000 8.13 209 07:34 17.10.2022
1385 Clouds 4 1013 95 10000 5.3 232 00:28 17.10.2022
1386 Clouds 4 1013 96 10000 5.2 221 22:26 16.10.2022
1387 Clouds 4 1013 97 2713 4.77 212 21:20 16.10.2022
1388 Clouds 4 1013 96 2073 5.06 207 19:50 16.10.2022
1389 Clouds 4 1014 96 5443 4.67 197 18:37 16.10.2022
1390 Clouds 4 1014 96 10000 4.27 199 17:43 16.10.2022
1391 Clouds 3 1015 97 2433 4.24 206 16:24 16.10.2022
1392 Clouds 3 1015 97 2433 4.24 206 15:50 16.10.2022
1393 Rain 3 1015 97 1994 3.85 199 12:25 16.10.2022
1394 Rain 3 1016 97 2065 4.02 202 10:46 16.10.2022
1395 Rain 3 1016 96 10000 3.85 195 10:25 16.10.2022
1396 Clouds 3 1016 91 10000 3.64 205 04:51 16.10.2022
1397 Rain 4 1016 95 10000 3.61 215 23:42 15.10.2022
1398 Rain 4 1016 97 10000 3.01 208 21:30 15.10.2022
1399 Rain 4 1016 97 10000 3.01 208 21:30 15.10.2022
1400 Rain 4 1016 97 10000 3.01 208 21:30 15.10.2022
1401 Rain 4 1016 97 10000 3.01 208 20:57 15.10.2022
1402 Rain 4 1016 97 10000 3.01 208 20:57 15.10.2022
1403 Rain 4 1016 97 10000 3.01 208 20:57 15.10.2022
1404 Rain 4 1016 97 5007 2.27 203 19:30 15.10.2022
1405 Clouds 4 1016 96 10000 2.48 219 16:57 15.10.2022
1406 Clouds 4 1016 96 10000 2.74 221 15:45 15.10.2022
1407 Clouds 4 1016 94 10000 3.64 219 13:21 15.10.2022
1408 Clouds 4 1016 94 10000 4.17 218 11:40 15.10.2022
1409 Clouds 4 1015 94 10000 5.42 213 09:26 15.10.2022
1410 Clouds 4 1015 94 10000 5.34 215 07:33 15.10.2022
1411 Clouds 4 1013 96 10000 7.2 226 00:40 15.10.2022
1412 Rain 4 1012 95 10000 8.06 227 22:41 14.10.2022
1413 Rain 4 1012 95 10000 8.44 226 22:22 14.10.2022
1414 Rain 3 1012 96 1503 8.47 225 20:33 14.10.2022
1415 Rain 3 1012 96 564 8.74 226 18:39 14.10.2022
1416 Rain 3 1012 96 545 9.13 223 15:32 14.10.2022
1417 Clouds 3 1011 90 7646 10.31 225 12:48 14.10.2022
1418 Clouds 4 1011 79 10000 10.43 221 11:25 14.10.2022
1419 Clouds 4 1012 78 10000 9.64 210 08:26 14.10.2022
1420 Clouds 4 1012 80 10000 8.66 215 06:46 14.10.2022
1421 Clouds 3 1012 83 10000 8.05 220 06:18 14.10.2022
1422 Clouds 3 1012 83 10000 8.05 220 05:42 14.10.2022
1423 Clouds 2 1013 93 10000 6.94 224 02:18 14.10.2022
1424 Clouds 3 1012 92 10000 6.48 222 23:23 13.10.2022
1425 Clouds 3 1012 91 10000 6.55 221 21:39 13.10.2022
1426 Clouds 4 1012 92 10000 6.48 216 20:42 13.10.2022
1427 Clouds 4 1013 92 10000 6.54 219 19:42 13.10.2022
1428 Clouds 4 1013 91 10000 7.12 219 18:51 13.10.2022
1429 Clouds 4 1013 91 10000 7.26 219 18:20 13.10.2022
1430 Clouds 4 1013 89 10000 7.57 219 15:49 13.10.2022
1431 Clouds 4 1013 88 10000 7.77 219 14:59 13.10.2022
1432 Clouds 5 1013 89 10000 7.48 212 13:50 13.10.2022
1433 Clouds 5 1012 89 10000 7.46 214 11:46 13.10.2022
1434 Clouds 5 1012 89 10000 7.92 215 10:31 13.10.2022
1435 Clouds 4 1012 90 10000 8.1 210 08:34 13.10.2022
1436 Clouds 4 1012 90 10000 8.21 211 07:36 13.10.2022
1437 Clouds 4 1012 92 10000 8.54 209 03:45 13.10.2022
1438 Clouds 4 1012 93 10000 8.18 208 01:39 13.10.2022
1439 Clouds 4 1012 92 10000 8.01 207 00:21 13.10.2022
1440 Clouds 5 1012 90 10000 8.19 205 22:44 12.10.2022
1441 Clouds 5 1013 85 10000 7.17 198 21:25 12.10.2022
1442 Clouds 5 1013 85 10000 7.17 198 20:56 12.10.2022
1443 Clouds 5 1013 90 10000 7.43 196 20:27 12.10.2022
1444 Clouds 5 1014 91 10000 7.61 197 19:19 12.10.2022
1445 Clouds 5 1014 93 10000 7.51 197 17:54 12.10.2022
1446 Clouds 5 1014 93 10000 7.23 197 16:48 12.10.2022
1447 Clouds 5 1014 96 10000 6.28 205 14:20 12.10.2022
1448 Clouds 5 1014 95 10000 6.22 204 13:36 12.10.2022
1449 Clouds 5 1014 96 2385 6.05 210 11:25 12.10.2022
1450 Clouds 4 1013 94 10000 6.09 210 09:23 12.10.2022
1451 Clouds 4 1013 93 10000 5.88 214 07:41 12.10.2022
1452 Clouds 4 1013 93 10000 5.5 219 06:43 12.10.2022
1453 Clouds 4 1012 86 10000 4.5 240 03:59 12.10.2022
1454 Clouds 3 1011 94 10000 4.86 254 23:37 11.10.2022
1455 Clear 3 1010 86 10000 4.74 256 20:58 11.10.2022
1456 Clear 3 1009 86 10000 4.69 252 20:19 11.10.2022
1457 Clouds 2 1009 89 10000 5.16 267 17:46 11.10.2022
1458 Clouds 3 1007 88 10000 4.95 275 15:37 11.10.2022
1459 Clouds 4 1005 83 10000 5.24 291 13:30 11.10.2022
1460 Clouds 4 1002 87 10000 6.71 293 10:44 11.10.2022
1461 Clouds 4 1001 87 10000 6.99 293 10:24 11.10.2022
1462 Clouds 4 1000 88 10000 6.96 293 08:30 11.10.2022
1463 Clouds 5 995 90 10000 6.16 273 02:52 11.10.2022
1464 Rain 5 994 92 10000 5.11 263 00:36 11.10.2022
1465 Rain 5 993 93 10000 5.93 250 22:54 10.10.2022
1466 Rain 5 993 93 10000 7.26 255 20:48 10.10.2022
1467 Clouds 5 993 93 10000 6.85 243 19:22 10.10.2022
1468 Clouds 4 994 94 10000 7.03 247 17:34 10.10.2022
1469 Clouds 5 994 91 10000 7.53 244 16:36 10.10.2022
1470 Clouds 5 994 89 10000 8.97 244 13:59 10.10.2022
1471 Rain 5 994 89 10000 7.45 238 12:23 10.10.2022
1472 Rain 5 994 92 10000 6.83 247 09:38 10.10.2022
1473 Rain 5 993 95 10000 6.53 234 06:50 10.10.2022
1474 Rain 5 993 93 10000 6.61 245 05:35 10.10.2022
1475 Clouds 5 993 89 10000 8.05 229 01:58 10.10.2022
1476 Clouds 5 993 90 10000 7.62 227 00:23 10.10.2022
1477 Clouds 6 993 77 10000 8.93 249 22:26 09.10.2022
1478 Clouds 6 993 77 10000 8.93 249 21:45 09.10.2022
1479 Clouds 6 993 82 10000 9.34 250 20:45 09.10.2022
1480 Clouds 6 994 90 10000 8.25 250 19:51 09.10.2022
1481 Clouds 6 994 94 10000 8.11 252 18:51 09.10.2022
1482 Clouds 5 993 96 8208 7.41 245 17:55 09.10.2022
1483 Clouds 6 993 94 10000 6.98 246 16:56 09.10.2022
1484 Clouds 6 993 93 10000 6.87 241 16:21 09.10.2022
1485 Rain 6 992 94 10000 6.25 251 15:25 09.10.2022
1486 Rain 6 992 94 10000 7.12 269 14:26 09.10.2022
1487 Rain 6 991 96 10000 6.77 253 12:53 09.10.2022
1488 Rain 6 991 96 4783 7.09 205 11:28 09.10.2022
1489 Rain 6 992 95 5080 8.12 204 08:41 09.10.2022
1490 Rain 5 993 94 10000 8.44 200 06:46 09.10.2022
1491 Rain 5 995 92 10000 8.02 189 03:30 09.10.2022
1492 Clouds 5 996 89 10000 6.82 198 02:22 09.10.2022
1493 Clouds 5 998 84 10000 6.87 225 23:56 08.10.2022
1494 Clouds 5 997 87 10000 7.8 233 22:52 08.10.2022
1495 Clouds 5 997 90 10000 8.7 247 20:52 08.10.2022
1496 Clouds 5 997 92 10000 8.65 249 19:51 08.10.2022
1497 Rain 6 996 89 10000 8.4 252 17:55 08.10.2022
1498 Clouds 6 995 92 10000 8.52 271 15:41 08.10.2022
1499 Rain 6 994 92 10000 3.59 156 13:53 08.10.2022
1500 Rain 6 994 91 10000 3.92 151 12:30 08.10.2022
1501 Clouds 6 994 94 10000 4.22 170 10:36 08.10.2022
1502 Rain 5 994 95 10000 4.35 179 09:43 08.10.2022
1503 Rain 5 994 94 10000 4.94 165 07:32 08.10.2022
1504 Rain 5 994 91 10000 4.9 151 02:45 08.10.2022
1505 Clouds 5 995 89 10000 5.56 166 00:24 08.10.2022
1506 Clouds 5 995 90 10000 5.58 168 23:20 07.10.2022
1507 Clouds 5 995 90 10000 5.63 172 22:24 07.10.2022
1508 Clouds 5 996 90 10000 5.89 176 20:37 07.10.2022
1509 Clouds 5 996 90 10000 6.14 181 19:18 07.10.2022
1510 Clouds 5 997 90 10000 6.42 180 16:59 07.10.2022
1511 Clouds 5 997 90 10000 6.47 179 15:56 07.10.2022
1512 Clouds 5 997 90 10000 6.25 178 14:42 07.10.2022
1513 Clouds 5 999 88 10000 5.51 174 12:23 07.10.2022
1514 Rain 4 1000 97 5040 5.16 159 09:26 07.10.2022
1515 Rain 4 1000 97 5040 5.16 159 08:56 07.10.2022
1516 Rain 4 1002 96 10000 5.31 164 06:23 07.10.2022
1517 Clouds 4 1005 91 10000 4.34 172 00:46 07.10.2022
1518 Clouds 4 1007 95 10000 4.39 188 22:50 06.10.2022
1519 Clouds 4 1007 96 2479 4.4 191 21:44 06.10.2022
1520 Rain 5 1008 96 2778 4.46 199 21:22 06.10.2022
1521 Rain 5 1009 96 7575 3.96 193 19:50 06.10.2022
1522 Clouds 5 1010 95 10000 4.11 188 18:37 06.10.2022
1523 Clouds 5 1010 95 10000 4.11 188 18:37 06.10.2022
1524 Clouds 5 1010 93 10000 4.16 185 17:50 06.10.2022
1525 Clouds 5 1012 91 10000 5.15 204 14:24 06.10.2022
1526 Clouds 6 1013 96 2919 6.68 206 11:24 06.10.2022
1527 Clouds 5 1014 95 10000 6.73 206 06:53 06.10.2022
1528 Clouds 5 1015 94 10000 6.3 197 03:29 06.10.2022
1529 Rain 5 1017 92 10000 6.51 183 22:55 05.10.2022
1530 Clouds 4 1019 82 10000 5.31 163 19:57 05.10.2022
1531 Rain 3 1020 79 10000 4.58 157 18:42 05.10.2022
1532 Clouds 3 1021 77 10000 4.51 144 17:34 05.10.2022
1533 Clouds 3 1022 77 10000 4.8 137 15:54 05.10.2022
1534 Clouds 3 1023 77 10000 4.97 137 14:47 05.10.2022
1535 Clouds 4 1024 75 10000 4.54 141 13:54 05.10.2022
1536 Clouds 5 1025 71 10000 4.28 144 12:19 05.10.2022
1537 Clouds 4 1026 71 10000 3.47 154 08:49 05.10.2022
1538 Clouds 3 1026 74 10000 3.42 160 07:35 05.10.2022
1539 Clouds 2 1027 79 10000 3.38 171 05:35 05.10.2022
1540 Clouds 2 1027 82 10000 2.97 179 02:47 05.10.2022
1541 Clear 2 1028 83 10000 2.56 184 00:41 05.10.2022
1542 Clear 2 1028 84 10000 2 181 00:23 05.10.2022
1543 Clear 2 1027 87 10000 2.17 218 21:59 04.10.2022
1544 Clouds 3 1027 87 10000 1.6 279 20:29 04.10.2022
1545 Clouds 3 1027 87 10000 2.38 298 18:57 04.10.2022
1546 Clouds 3 1027 87 10000 2.38 298 18:35 04.10.2022
1547 Clouds 3 1026 87 10000 3.21 296 17:43 04.10.2022
1548 Clouds 4 1025 85 10000 3.71 305 16:28 04.10.2022
1549 Clouds 5 1021 78 10000 4.76 310 12:24 04.10.2022
1550 Clouds 4 1018 82 10000 6.26 305 08:42 04.10.2022
1551 Clouds 4 1016 91 10000 5.85 293 06:25 04.10.2022
1552 Clouds 4 1013 91 10000 6.35 272 01:27 04.10.2022
1553 Clouds 4 1013 92 10000 6.84 281 23:36 03.10.2022
1554 Clouds 4 1011 87 10000 6.38 259 21:52 03.10.2022
1555 Clouds 5 1011 82 10000 5.62 255 20:51 03.10.2022
1556 Clouds 4 1011 86 10000 4.52 259 18:57 03.10.2022
1557 Rain 4 1010 87 10000 4.24 270 17:48 03.10.2022
1558 Clouds 4 1010 89 10000 4.37 286 16:41 03.10.2022
1559 Clouds 5 1009 94 10000 4.07 293 15:27 03.10.2022
1560 Clouds 5 1009 93 10000 3.63 301 13:44 03.10.2022
1561 Clouds 5 1008 95 10000 3.62 310 11:47 03.10.2022
1562 Clouds 4 1007 96 10000 2.34 294 10:25 03.10.2022
1563 Clouds 4 1007 96 10000 2.34 294 09:33 03.10.2022
1564 Rain 3 1008 95 10000 2.6 177 04:51 03.10.2022
1565 Rain 3 1009 95 10000 2.99 144 02:27 03.10.2022
1566 Clouds 4 1011 92 10000 4.32 198 22:24 02.10.2022
1567 Clouds 4 1011 92 10000 4.93 197 20:32 02.10.2022
1568 Clouds 4 1013 96 10000 5.33 201 18:27 02.10.2022
1569 Clouds 4 1013 96 10000 5.33 201 17:32 02.10.2022
1570 Clouds 4 1013 97 2318 5.33 202 16:33 02.10.2022
1571 Clouds 4 1013 97 1881 5.55 203 15:40 02.10.2022
1572 Clouds 4 1013 97 1714 6.24 200 13:51 02.10.2022
1573 Clouds 4 1013 97 1749 5.87 202 12:51 02.10.2022
1574 Clouds 4 1013 96 2997 5.85 212 12:24 02.10.2022
1575 Clouds 4 1013 96 2997 5.85 212 11:36 02.10.2022
1576 Clouds 4 1013 97 2126 5.9 216 10:36 02.10.2022
1577 Clouds 3 1013 97 1586 6.68 209 08:40 02.10.2022
1578 Clouds 3 1013 96 903 7.34 201 06:38 02.10.2022
1579 Clouds 2 1013 97 70 7.41 197 02:54 02.10.2022
1580 Clouds 1 1014 94 2135 7.71 199 00:45 02.10.2022
1581 Clouds 1 1014 90 10000 7.51 197 23:43 01.10.2022
1582 Clouds 1 1015 89 10000 7.68 195 22:31 01.10.2022
1583 Snow 2 1016 91 10000 7.84 191 19:58 01.10.2022
1584 Snow 1 1017 93 10000 7.18 191 17:49 01.10.2022
1585 Clouds 1 1018 93 2241 6.93 191 16:29 01.10.2022
1586 Clouds 1 1019 90 7497 6.54 184 14:19 01.10.2022
1587 Snow 1 1020 92 5456 5.76 180 12:57 01.10.2022
1588 Snow 1 1020 96 251 5.51 185 12:29 01.10.2022
1589 Snow 1 1020 96 251 5.51 185 12:29 01.10.2022
1590 Snow 1 1021 93 1011 5.89 190 11:19 01.10.2022
1591 Snow 1 1021 93 1011 5.89 190 10:31 01.10.2022
1592 Clouds 1 1022 66 10000 6.2 194 09:27 01.10.2022
1593 Clouds 1 1022 66 10000 6.2 194 08:57 01.10.2022
1594 Clouds 0 1023 66 10000 6.71 195 03:59 01.10.2022
1595 Clouds -1 1024 67 10000 6.48 196 03:28 01.10.2022
1596 Clouds -1 1025 73 10000 6.45 194 23:47 30.09.2022
1597 Clouds -1 1025 75 10000 6.75 196 22:32 30.09.2022
1598 Clouds 0 1026 74 10000 6.86 197 21:22 30.09.2022
1599 Clouds 0 1026 74 10000 6.86 197 20:43 30.09.2022
1600 Clouds 0 1027 71 10000 6.68 199 19:32 30.09.2022
1601 Clouds 0 1027 67 10000 6.29 202 17:27 30.09.2022
1602 Clouds 1 1028 68 10000 6.09 209 15:26 30.09.2022
1603 Clouds 2 1028 67 10000 6.55 211 13:27 30.09.2022
1604 Clouds 2 1028 67 10000 6.83 215 11:56 30.09.2022
1605 Clouds 2 1029 69 10000 6.88 218 10:18 30.09.2022
1606 Clouds 1 1029 76 10000 7.07 214 08:21 30.09.2022
1607 Clouds -1 1029 83 10000 6.71 204 04:31 30.09.2022
1608 Clouds -1 1030 79 10000 6.4 201 02:27 30.09.2022
1609 Clear -1 1031 74 10000 5.52 206 22:24 29.09.2022
1610 Clear 0 1031 74 10000 5.09 204 21:26 29.09.2022
1611 Clear 0 1031 72 10000 5.24 207 20:31 29.09.2022
1612 Clear 0 1031 71 10000 4.33 206 18:32 29.09.2022
1613 Clouds 0 1032 69 10000 3.59 210 16:56 29.09.2022
1614 Clouds 0 1032 69 10000 3.7 216 16:26 29.09.2022
1615 Clouds 0 1032 69 10000 3.7 216 15:35 29.09.2022
1616 Clouds 2 1032 56 10000 2.85 195 13:28 29.09.2022
1617 Clouds 1 1033 61 10000 2.41 186 09:21 29.09.2022
1618 Clouds -1 1033 73 10000 2.47 202 05:42 29.09.2022
1619 Clouds -2 1033 80 10000 2.72 190 02:44 29.09.2022
1620 Clouds -1 1033 78 10000 2.78 189 23:32 28.09.2022
1621 Clouds -1 1033 78 10000 2.69 189 22:32 28.09.2022
1622 Clouds 0 1033 73 10000 2.31 158 21:29 28.09.2022
1623 Clouds 0 1033 73 10000 2.44 143 20:20 28.09.2022
1624 Clouds 2 1033 70 10000 2.87 100 18:20 28.09.2022
1625 Clouds 2 1033 76 10000 3.23 83 14:50 28.09.2022
1626 Clouds 3 1032 77 10000 2.79 76 12:40 28.09.2022
1627 Clouds 3 1032 74 10000 2.29 77 10:24 28.09.2022
1628 Clouds 3 1032 77 10000 3 78 08:25 28.09.2022
1629 Clouds 3 1032 75 10000 3.14 74 06:45 28.09.2022
1630 Clouds 2 1032 75 10000 2.74 35 01:54 28.09.2022
1631 Clouds 2 1032 75 10000 2.74 35 01:30 28.09.2022
1632 Clouds 2 1032 73 10000 2.34 57 23:19 27.09.2022
1633 Clouds 2 1032 73 10000 2.68 59 21:40 27.09.2022
1634 Clouds 2 1032 71 10000 2.99 66 20:37 27.09.2022
1635 Clouds 2 1032 72 10000 3.5 74 19:47 27.09.2022
1636 Clouds 2 1032 68 10000 4.2 80 18:31 27.09.2022
1637 Clouds 2 1032 66 10000 4.37 82 17:43 27.09.2022
1638 Clouds 2 1032 71 10000 4.09 69 15:27 27.09.2022
1639 Clouds 2 1032 71 10000 4.09 69 14:41 27.09.2022
1640 Clouds 2 1032 70 10000 4.34 73 12:40 27.09.2022
1641 Clouds 2 1032 67 10000 4.9 73 10:53 27.09.2022
1642 Clouds 2 1031 60 10000 4.07 80 08:46 27.09.2022
1643 Clouds 2 1031 68 10000 3.65 100 06:27 27.09.2022
1644 Clouds 2 1030 85 10000 1.81 7 01:45 27.09.2022
1645 Clouds 1 1031 86 10000 1.11 347 01:27 27.09.2022
1646 Clouds 1 1031 85 10000 0.53 192 23:25 26.09.2022
1647 Clouds 0 1030 85 10000 1.01 162 22:24 26.09.2022
1648 Clouds 0 1031 85 10000 2.47 132 20:29 26.09.2022
1649 Clouds 0 1031 85 10000 2.47 132 19:30 26.09.2022
1650 Clouds 0 1031 85 10000 3.23 129 18:31 26.09.2022
1651 Clouds 1 1030 75 10000 3.44 111 15:52 26.09.2022
1652 Clouds 3 1030 70 10000 3.29 102 13:30 26.09.2022
1653 Clouds 3 1030 69 10000 3.02 100 11:29 26.09.2022
1654 Clouds 3 1030 69 10000 3.02 100 10:37 26.09.2022
1655 Clouds 2 1030 69 10000 2.49 112 10:19 26.09.2022
1656 Clouds 2 1030 69 10000 2.49 112 09:53 26.09.2022
1657 Clouds 2 1030 71 10000 2.43 122 09:22 26.09.2022
1658 Clouds 1 1030 74 10000 2 145 06:28 26.09.2022
1659 Clouds 0 1030 75 10000 2.19 143 02:44 26.09.2022
1660 Clouds 0 1031 76 10000 2.73 170 23:28 25.09.2022
1661 Clouds 0 1031 76 10000 2.86 170 21:49 25.09.2022
1662 Clouds 0 1031 76 10000 2.86 171 21:25 25.09.2022
1663 Clouds 0 1031 76 10000 2.86 171 20:44 25.09.2022
1664 Clouds 1 1031 76 10000 2.8 160 19:31 25.09.2022
1665 Clouds 1 1031 75 10000 3.12 148 18:34 25.09.2022
1666 Clouds 1 1031 74 10000 3.44 136 17:49 25.09.2022
1667 Clouds 2 1031 71 10000 3.7 108 16:22 25.09.2022
1668 Clouds 2 1031 71 10000 3.7 108 15:35 25.09.2022
1669 Clouds 3 1032 66 10000 3.52 84 14:21 25.09.2022
1670 Clouds 3 1032 65 10000 3.37 84 12:44 25.09.2022
1671 Clouds 3 1032 65 10000 2.94 58 10:20 25.09.2022
1672 Clouds 3 1031 62 10000 3.13 56 07:47 25.09.2022
1673 Clouds 3 1031 62 10000 2.44 45 05:31 25.09.2022
1674 Clouds 2 1031 66 10000 2.82 61 00:36 25.09.2022
1675 Clouds 2 1030 66 10000 3.16 48 22:34 24.09.2022
1676 Clouds 3 1030 68 10000 3.66 56 20:36 24.09.2022
1677 Clouds 2 1030 69 10000 4.18 47 19:20 24.09.2022
1678 Clouds 3 1030 71 10000 4.22 41 16:59 24.09.2022
1679 Clouds 3 1030 72 10000 4.4 32 16:23 24.09.2022
1680 Rain 3 1030 72 10000 4.46 23 15:19 24.09.2022
1681 Clouds 4 1030 67 10000 4.97 32 13:23 24.09.2022
1682 Clouds 4 1030 67 10000 4.97 32 12:40 24.09.2022
1683 Rain 3 1029 71 10000 5.97 30 10:18 24.09.2022
1684 Clouds 4 1029 72 7727 6.21 27 09:22 24.09.2022
1685 Clouds 4 1029 72 7727 6.21 27 09:22 24.09.2022
1686 Clouds 4 1029 72 7727 6.21 27 08:42 24.09.2022
1687 Clouds 3 1028 73 9689 7.62 26 04:58 24.09.2022
1688 Clouds 3 1028 73 9689 7.62 26 04:31 24.09.2022
1689 Rain 4 1026 73 10000 7.68 26 23:47 23.09.2022
1690 Clouds 4 1025 73 10000 7.22 30 21:44 23.09.2022
1691 Clouds 4 1024 73 10000 7.51 31 21:24 23.09.2022
1692 Clouds 4 1024 73 10000 7.51 31 20:54 23.09.2022
1693 Clouds 4 1023 72 10000 8.19 24 19:20 23.09.2022
1694 Clouds 4 1023 73 10000 8.64 21 17:50 23.09.2022
1695 Rain 4 1020 78 10000 9.24 14 13:41 23.09.2022
1696 Rain 3 1018 96 486 8.64 8 10:24 23.09.2022
1697 Rain 3 1017 96 529 8.63 2 07:43 23.09.2022
1698 Rain 3 1014 82 3188 8.79 350 02:32 23.09.2022
1699 Rain 4 1012 79 10000 9.58 338 23:29 22.09.2022
1700 Rain 4 1011 78 10000 9.89 337 22:28 22.09.2022
1701 Rain 4 1011 78 10000 9.89 337 21:35 22.09.2022
1702 Rain 3 1009 83 3361 10.18 340 20:23 22.09.2022
1703 Rain 3 1008 85 3294 10.82 338 18:57 22.09.2022
1704 Rain 3 1005 89 3530 13.32 327 15:23 22.09.2022
1705 Rain 3 1002 81 5859 14.99 309 10:48 22.09.2022
1706 Clouds 3 1001 78 9753 15.01 309 10:19 22.09.2022
1707 Clouds 3 1001 76 10000 15.28 310 07:55 22.09.2022
1708 Clouds 3 998 80 10000 16.73 310 04:56 22.09.2022
1709 Rain 3 995 86 4873 18.85 308 00:37 22.09.2022
1710 Rain 2 994 96 584 17.82 299 22:29 21.09.2022
1711 Rain 2 994 96 621 17.75 298 21:18 21.09.2022
1712 Rain 3 993 87 3885 16.25 298 18:50 21.09.2022
1713 Rain 3 993 85 5481 15.63 292 17:41 21.09.2022
1714 Rain 3 994 83 7480 15.61 288 15:35 21.09.2022
1715 Rain 4 993 80 6114 14.48 292 13:41 21.09.2022
1716 Clouds 4 991 80 8882 13.78 295 11:42 21.09.2022
1717 Rain 4 990 80 10000 13.1 297 10:54 21.09.2022
1718 Rain 4 990 80 10000 12.54 299 09:39 21.09.2022
1719 Rain 4 990 80 10000 12.54 299 09:39 21.09.2022
1720 Rain 4 989 81 10000 12.1 304 08:31 21.09.2022
1721 Rain 8 985 94 10000 8.56 222 03:51 21.09.2022
1722 Rain 8 986 94 10000 8.07 221 02:38 21.09.2022
1723 Rain 8 987 94 10000 8.28 221 01:52 21.09.2022
1724 Clouds 9 988 92 10000 8.03 216 00:19 21.09.2022
1725 Rain 9 989 94 10000 8.14 217 21:52 20.09.2022
1726 Rain 9 990 95 10000 7.74 211 20:32 20.09.2022
1727 Clouds 10 992 90 10000 8.89 189 17:54 20.09.2022
1728 Rain 9 994 93 10000 5.82 167 15:37 20.09.2022
1729 Rain 7 997 91 10000 8.61 123 14:18 20.09.2022
1730 Rain 8 1003 83 10000 7.72 114 11:29 20.09.2022
1731 Clouds 7 1006 84 10000 8.93 111 08:38 20.09.2022
1732 Clouds 7 1007 86 10000 8.04 110 07:37 20.09.2022
1733 Clouds 6 1010 90 10000 6.96 118 04:37 20.09.2022
1734 Clouds 5 1013 90 10000 6.91 111 01:42 20.09.2022
1735 Rain 5 1015 90 10000 6.42 117 22:42 19.09.2022
1736 Rain 5 1015 92 10000 7.42 112 21:28 19.09.2022
1737 Rain 5 1015 92 10000 7.42 112 20:40 19.09.2022
1738 Clouds 5 1016 90 10000 6.74 113 18:45 19.09.2022
1739 Clouds 5 1016 89 10000 6.31 105 17:20 19.09.2022
1740 Clouds 5 1015 89 10000 6.23 92 13:47 19.09.2022
1741 Clouds 5 1014 88 10000 5.99 88 11:57 19.09.2022
1742 Clouds 5 1013 89 10000 6.3 81 09:44 19.09.2022
1743 Clouds 6 1012 86 10000 6.09 81 08:36 19.09.2022
1744 Clouds 5 1009 88 10000 6.81 69 03:39 19.09.2022
1745 Clouds 5 1007 90 10000 6.96 64 00:48 19.09.2022
1746 Clouds 6 1006 95 2569 7.34 61 22:33 18.09.2022
1747 Clouds 6 1004 96 10000 7.16 58 21:26 18.09.2022
1748 Clouds 6 1004 94 10000 7.8 63 19:40 18.09.2022
1749 Clouds 6 1003 95 10000 8.49 66 17:52 18.09.2022
1750 Clouds 7 1003 96 8027 8.32 66 16:49 18.09.2022
1751 Clouds 7 1004 98 2834 7.7 63 14:51 18.09.2022
1752 Clouds 8 1004 95 10000 7.07 71 13:35 18.09.2022
1753 Clouds 8 1003 88 10000 6.65 71 12:20 18.09.2022
1754 Clouds 9 1004 87 10000 4.59 75 09:44 18.09.2022
1755 Clouds 9 1006 85 10000 1.96 158 01:44 18.09.2022
1756 Clouds 9 1006 86 10000 2.27 178 01:20 18.09.2022
1757 Clouds 10 1006 87 10000 2.54 181 22:57 17.09.2022
1758 Rain 10 1007 90 10000 2.18 167 20:55 17.09.2022
1759 Clouds 10 1007 86 10000 1.99 170 19:39 17.09.2022
1760 Clouds 10 1007 87 10000 1.49 170 18:21 17.09.2022
1761 Clouds 10 1008 91 10000 2.66 211 14:27 17.09.2022
1762 Clouds 10 1008 91 10000 2.66 211 13:32 17.09.2022
1763 Clouds 10 1008 89 10000 3.78 218 10:49 17.09.2022
1764 Clouds 9 1008 88 10000 3.82 207 07:28 17.09.2022
1765 Clouds 9 1008 90 10000 3.49 194 06:19 17.09.2022
1766 Clouds 9 1009 93 10000 3.98 163 23:41 16.09.2022
1767 Rain 9 1010 93 10000 4.78 169 22:27 16.09.2022
1768 Rain 9 1010 92 10000 4.51 163 20:54 16.09.2022
1769 Rain 8 1011 93 10000 4.71 139 19:35 16.09.2022
1770 Rain 7 1012 96 10000 4.37 118 16:24 16.09.2022
1771 Rain 7 1013 97 10000 4.76 124 14:52 16.09.2022
1772 Rain 6 1013 96 10000 6.51 111 13:21 16.09.2022
1773 Rain 6 1014 93 10000 6.71 114 10:24 16.09.2022
1774 Rain 5 1015 89 10000 7.34 114 07:26 16.09.2022
1775 Rain 5 1015 89 10000 7.34 114 06:48 16.09.2022
1776 Clouds 5 1015 88 10000 7.46 114 05:57 16.09.2022
1777 Rain 5 1016 89 10000 6.3 111 02:30 16.09.2022
1778 Clouds 4 1016 84 10000 3.51 121 21:47 15.09.2022
1779 Clouds 5 1016 81 10000 3.17 124 20:38 15.09.2022
1780 Clouds 5 1016 78 10000 2.38 107 19:31 15.09.2022
1781 Clouds 5 1016 77 10000 1.14 45 17:41 15.09.2022
1782 Clouds 5 1015 78 10000 1.42 2 17:22 15.09.2022
1783 Clouds 5 1015 78 10000 2.69 352 15:38 15.09.2022
1784 Clouds 8 1014 70 10000 6.4 315 12:51 15.09.2022
1785 Clouds 8 1013 67 10000 7.03 293 11:48 15.09.2022
1786 Clouds 8 1012 67 10000 8.8 279 09:45 15.09.2022
1787 Clouds 7 1011 72 10000 9.33 269 06:58 15.09.2022
1788 Clouds 5 1010 81 10000 7.43 270 03:46 15.09.2022
1789 Rain 8 1007 93 10000 8.88 293 23:22 14.09.2022
1790 Rain 9 1006 87 10000 12.55 237 20:37 14.09.2022
1791 Rain 9 1007 89 10000 11.99 231 19:33 14.09.2022
1792 Rain 9 1008 88 10000 10.07 212 17:47 14.09.2022
1793 Clouds 8 1009 84 10000 9.35 209 16:36 14.09.2022
1794 Clouds 7 1010 77 10000 6.43 207 14:56 14.09.2022
1795 Clouds 7 1011 76 10000 5.79 234 12:40 14.09.2022
1796 Clouds 6 1011 85 10000 2.22 277 09:52 14.09.2022
1797 Clouds 5 1010 91 10000 0.96 281 08:38 14.09.2022
1798 Rain 5 1009 94 10000 2.45 127 06:50 14.09.2022
1799 Rain 5 1009 95 10000 2.49 116 06:29 14.09.2022
1800 Clouds 4 1010 87 10000 2.33 170 02:43 14.09.2022
1801 Rain 3 1011 87 10000 3.15 182 01:36 14.09.2022
1802 Clouds 3 1011 88 10000 3.04 195 00:53 14.09.2022
1803 Clouds 3 1011 89 10000 3.29 202 23:55 13.09.2022
1804 Clouds 3 1011 89 10000 3.29 202 23:36 13.09.2022
1805 Clouds 3 1011 90 10000 3.66 208 23:18 13.09.2022
1806 Clouds 3 1011 88 10000 3.7 210 22:28 13.09.2022
1807 Clouds 3 1011 88 10000 3.7 210 21:38 13.09.2022
1808 Clouds 3 1011 81 10000 3.12 235 18:56 13.09.2022
1809 Clouds 4 1011 79 10000 3.98 238 16:39 13.09.2022
1810 Clouds 6 1011 72 10000 4.83 244 15:19 13.09.2022
1811 Clouds 6 1011 73 10000 5.15 251 13:40 13.09.2022
1812 Clouds 7 1010 64 10000 5.43 268 10:30 13.09.2022
1813 Clouds 6 1010 64 10000 5.21 269 07:56 13.09.2022
1814 Clouds 2 1009 79 10000 4.78 265 02:22 13.09.2022
1815 Clouds 3 1008 76 10000 5 269 23:22 12.09.2022
1816 Clouds 3 1008 76 10000 5 269 22:40 12.09.2022
1817 Clouds 3 1008 79 10000 4.92 266 21:21 12.09.2022
1818 Clouds 3 1008 79 10000 4.77 260 19:58 12.09.2022
1819 Clouds 3 1008 70 10000 4.53 268 18:22 12.09.2022
1820 Clouds 5 1008 63 10000 4.29 296 15:50 12.09.2022
1821 Clouds 6 1008 61 10000 5.34 309 12:30 12.09.2022
1822 Rain 6 1008 64 10000 5.19 288 10:30 12.09.2022
1823 Clouds 5 1008 64 10000 4.85 269 07:33 12.09.2022
1824 Clouds 3 1008 75 10000 5.53 266 04:36 12.09.2022
1825 Clouds 3 1008 76 10000 7.03 274 02:24 12.09.2022
1826 Clouds 4 1008 70 10000 8.22 290 22:46 11.09.2022
1827 Clouds 5 1007 68 10000 9.5 301 21:27 11.09.2022
1828 Clouds 5 1007 68 10000 9.5 301 20:44 11.09.2022
1829 Clouds 6 1006 68 10000 8.92 300 19:39 11.09.2022
1830 Clouds 6 1006 68 10000 8.84 295 19:19 11.09.2022
1831 Rain 6 1005 73 10000 8.4 287 17:28 11.09.2022
1832 Clouds 6 1005 76 10000 9.02 285 15:51 11.09.2022
1833 Clouds 8 1004 80 10000 9.51 267 13:26 11.09.2022
1834 Clouds 8 1004 78 10000 9.16 267 11:26 11.09.2022
1835 Rain 8 1004 84 10000 8.96 260 08:25 11.09.2022
1836 Rain 9 1004 83 10000 8.34 253 05:30 11.09.2022
1837 Clouds 6 1009 86 10000 6.65 217 00:23 11.09.2022
1838 Clouds 4 1010 86 10000 5.12 229 22:23 10.09.2022
1839 Clouds 5 1011 85 10000 4.89 231 20:34 10.09.2022
1840 Clouds 5 1011 86 10000 4.41 234 19:44 10.09.2022
1841 Clouds 5 1011 85 10000 4.35 240 19:25 10.09.2022
1842 Clouds 5 1011 82 10000 3.92 232 17:49 10.09.2022
1843 Clouds 6 1012 69 10000 1.39 277 15:37 10.09.2022
1844 Clouds 6 1012 65 10000 2.62 328 13:55 10.09.2022
1845 Clouds 6 1012 64 10000 3.57 323 12:51 10.09.2022
1846 Clouds 6 1012 65 10000 4.12 315 10:34 10.09.2022
1847 Clouds 6 1012 69 10000 3.46 327 08:42 10.09.2022
1848 Clouds 6 1011 71 10000 3.48 332 08:22 10.09.2022
1849 Clouds 6 1010 78 10000 4.09 356 04:30 10.09.2022
1850 Clouds 5 1009 86 10000 3.22 285 23:38 09.09.2022
1851 Rain 5 1009 86 10000 3.06 263 22:36 09.09.2022
1852 Clouds 5 1009 88 10000 3.28 237 20:59 09.09.2022
1853 Clouds 5 1009 83 10000 2.8 240 20:20 09.09.2022
1854 Clouds 5 1008 81 10000 1.62 242 19:23 09.09.2022
1855 Clouds 5 1008 80 10000 0.37 312 17:50 09.09.2022
1856 Clouds 6 1008 77 10000 2.58 33 15:23 09.09.2022
1857 Clouds 6 1007 78 10000 3.21 32 13:43 09.09.2022
1858 Clouds 6 1006 77 10000 3.13 17 11:38 09.09.2022
1859 Clouds 5 1005 83 10000 1.99 329 07:58 09.09.2022
1860 Rain 5 1005 91 10000 2.95 286 03:39 09.09.2022
1861 Clouds 3 1006 96 1440 3.15 220 00:21 09.09.2022
1862 Clouds 3 1006 91 10000 3.78 238 21:52 08.09.2022
1863 Clouds 4 1006 89 10000 4.03 252 20:49 08.09.2022
1864 Clouds 4 1006 88 10000 4.03 252 20:29 08.09.2022
1865 Clouds 4 1007 88 10000 4.31 265 19:25 08.09.2022
1866 Rain 4 1007 94 4608 3.83 250 17:29 08.09.2022
1867 Clouds 5 1008 81 10000 3.85 262 15:53 08.09.2022
1868 Clouds 5 1007 76 10000 3.31 287 13:30 08.09.2022
1869 Clouds 6 1008 73 10000 3.87 297 12:42 08.09.2022
1870 Clouds 6 1008 67 10000 4.27 316 11:23 08.09.2022
1871 Clouds 6 1008 67 10000 4.48 324 09:46 08.09.2022
1872 Rain 6 1007 68 10000 4.89 342 07:25 08.09.2022
1873 Rain 5 1007 70 10000 4.4 349 04:44 08.09.2022
1874 Rain 5 1007 72 10000 4.71 355 02:36 08.09.2022
1875 Clouds 5 1008 70 10000 5.07 360 02:18 08.09.2022
1876 Rain 5 1008 68 10000 5.66 11 23:25 07.09.2022
1877 Rain 5 1008 68 10000 5.84 12 21:46 07.09.2022
1878 Clouds 5 1008 68 10000 6.06 12 21:24 07.09.2022
1879 Clouds 5 1008 66 10000 6.82 11 20:28 07.09.2022
1880 Clouds 5 1008 66 10000 7 15 19:20 07.09.2022
1881 Rain 5 1008 69 10000 6.77 10 16:24 07.09.2022
1882 Rain 6 1008 66 10000 4.48 1 10:52 07.09.2022
1883 Rain 6 1008 66 10000 4.48 1 10:32 07.09.2022
1884 Clouds 6 1008 62 10000 6.58 23 08:26 07.09.2022
1885 Rain 6 1008 64 10000 6.66 32 05:46 07.09.2022
1886 Rain 6 1007 69 10000 5.91 16 00:31 07.09.2022
1887 Rain 5 1007 69 10000 6.4 18 21:56 06.09.2022
1888 Rain 5 1007 69 10000 6.4 18 21:33 06.09.2022
1889 Rain 6 1007 66 10000 6.2 25 19:39 06.09.2022
1890 Rain 5 1007 67 10000 5.62 26 18:39 06.09.2022
1891 Clouds 5 1007 67 10000 5.76 27 17:39 06.09.2022
1892 Rain 5 1007 65 10000 6.38 29 16:47 06.09.2022
1893 Clouds 6 1007 64 10000 6.6 35 15:58 06.09.2022
1894 Clouds 6 1006 64 10000 5.67 40 13:48 06.09.2022
1895 Clouds 6 1006 64 10000 5.41 46 13:27 06.09.2022
1896 Clouds 6 1006 64 10000 5.41 46 12:57 06.09.2022
1897 Clouds 6 1006 63 10000 6.18 61 10:55 06.09.2022
1898 Clouds 6 1005 63 10000 7.73 66 09:18 06.09.2022
1899 Clouds 6 1005 66 10000 7.49 67 07:52 06.09.2022
1900 Clouds 6 1005 66 10000 7.49 67 07:52 06.09.2022
1901 Rain 6 1004 80 10000 8.79 73 06:18 06.09.2022
1902 Rain 5 1002 91 10000 4.55 66 00:54 06.09.2022
1903 Rain 5 1001 90 10000 4.39 67 22:49 05.09.2022
1904 Rain 6 1001 89 10000 3.86 60 21:38 05.09.2022
1905 Clouds 6 1001 78 10000 2.1 17 20:18 05.09.2022
1906 Clouds 6 1002 74 10000 1.97 349 18:53 05.09.2022
1907 Clouds 6 1001 73 10000 2.36 349 18:24 05.09.2022
1908 Clouds 6 1001 73 10000 2.36 349 17:47 05.09.2022
1909 Clouds 7 1001 70 10000 2.1 334 15:53 05.09.2022
1910 Clouds 7 1003 70 10000 2.17 333 14:34 05.09.2022
1911 Clouds 7 1003 70 10000 2.76 324 12:51 05.09.2022
1912 Clouds 8 1004 69 10000 3.67 323 10:35 05.09.2022
1913 Clouds 7 1004 69 10000 3.4 321 08:36 05.09.2022
1914 Clouds 7 1004 77 10000 5.36 347 03:47 05.09.2022
1915 Clouds 6 1004 78 10000 6.71 359 00:18 05.09.2022
1916 Clouds 6 1004 78 10000 7.49 4 22:28 04.09.2022
1917 Clouds 6 1004 78 10000 7.49 4 21:49 04.09.2022
1918 Clouds 6 1004 78 10000 8.9 11 19:50 04.09.2022
1919 Clouds 6 1004 78 10000 9.19 14 18:33 04.09.2022
1920 Clouds 7 1004 78 10000 9.79 18 17:26 04.09.2022
1921 Clouds 7 1004 75 10000 10.2 20 15:23 04.09.2022
1922 Clouds 7 1004 76 10000 10.4 20 14:24 04.09.2022
1923 Clouds 7 1004 73 10000 9.86 26 12:26 04.09.2022
1924 Rain 7 1004 74 10000 10.23 31 10:59 04.09.2022
1925 Clouds 7 1004 67 10000 11.03 43 09:24 04.09.2022
1926 Clouds 7 1003 72 10000 10.65 43 06:27 04.09.2022
1927 Clouds 6 1004 74 10000 11.63 52 02:41 04.09.2022
1928 Clouds 7 1005 78 10000 12.2 66 22:33 03.09.2022
1929 Clouds 7 1006 81 10000 12.72 72 21:25 03.09.2022
1930 Clouds 7 1006 81 10000 12.72 72 20:55 03.09.2022
1931 Clouds 7 1008 78 10000 12.93 74 17:37 03.09.2022
1932 Clouds 8 1008 74 10000 12.63 77 16:52 03.09.2022
1933 Clouds 8 1009 74 10000 12.94 85 14:52 03.09.2022
1934 Clouds 8 1009 74 10000 12.94 85 14:30 03.09.2022
1935 Clouds 8 1010 73 10000 13.32 84 13:44 03.09.2022
1936 Clouds 8 1010 73 10000 13.48 87 11:31 03.09.2022
1937 Clouds 8 1012 77 10000 13.37 91 08:57 03.09.2022
1938 Clouds 8 1013 78 10000 13.08 92 07:45 03.09.2022
1939 Clouds 7 1014 81 10000 12.34 91 04:48 03.09.2022
1940 Clouds 7 1015 85 10000 12.36 89 02:35 03.09.2022
1941 Clouds 7 1017 88 10000 11.15 93 23:35 02.09.2022
1942 Clouds 8 1018 88 10000 11.21 91 21:46 02.09.2022
1943 Clouds 8 1019 87 10000 11.32 90 20:40 02.09.2022
1944 Clouds 8 1020 87 10000 10.78 91 19:47 02.09.2022
1945 Clouds 8 1020 87 10000 10.38 91 18:50 02.09.2022
1946 Clouds 8 1021 88 10000 10.11 90 18:24 02.09.2022
1947 Clouds 8 1021 88 10000 10.06 89 16:56 02.09.2022
1948 Clouds 8 1021 87 10000 9.88 89 16:22 02.09.2022
1949 Clouds 9 1022 80 10000 10.44 88 12:58 02.09.2022
1950 Clouds 9 1022 79 10000 9.94 87 10:37 02.09.2022
1951 Clouds 9 1022 79 10000 9.34 85 09:41 02.09.2022
1952 Clouds 9 1022 77 10000 7.98 91 08:43 02.09.2022
1953 Clouds 8 1022 78 10000 6.59 96 06:43 02.09.2022
1954 Clouds 8 1022 79 10000 5.87 98 05:32 02.09.2022
1955 Clouds 5 1022 78 10000 2.47 117 22:58 01.09.2022
1956 Clouds 5 1021 80 10000 2.46 118 21:46 01.09.2022
1957 Clouds 6 1021 81 10000 2.2 117 21:26 01.09.2022
1958 Clouds 6 1021 81 10000 2.2 117 20:49 01.09.2022
1959 Clouds 7 1020 78 10000 2.67 118 19:24 01.09.2022
1960 Clouds 7 1020 78 10000 2.92 116 17:49 01.09.2022
1961 Clouds 7 1020 79 10000 2.93 109 16:41 01.09.2022
1962 Clouds 7 1019 77 10000 2.88 82 14:41 01.09.2022
1963 Clouds 8 1018 71 10000 1.24 327 13:20 01.09.2022
1964 Clouds 8 1018 69 10000 1.64 313 11:57 01.09.2022
1965 Clouds 8 1018 69 10000 1.64 313 11:38 01.09.2022
1966 Clouds 8 1017 68 10000 1.72 300 11:18 01.09.2022
1967 Clouds 8 1016 71 10000 2.61 277 08:53 01.09.2022
1968 Clouds 7 1016 83 10000 4.65 274 06:28 01.09.2022
1969 Clouds 5 1015 81 10000 2.98 338 01:45 01.09.2022
1970 Clouds 6 1015 81 10000 3.04 344 00:33 01.09.2022
1971 Rain 6 1014 80 10000 2.3 350 22:21 31.08.2022
1972 Rain 6 1013 85 10000 3.85 345 20:22 31.08.2022
1973 Clouds 6 1013 80 10000 4.19 334 18:19 31.08.2022
1974 Clouds 6 1013 79 10000 4.16 347 16:32 31.08.2022
1975 Clouds 7 1013 79 10000 3.65 0 14:58 31.08.2022
1976 Clouds 6 1012 81 10000 3.19 0 12:25 31.08.2022
1977 Clouds 6 1012 81 10000 3.19 0 11:37 31.08.2022
1978 Rain 7 1011 76 10000 2.84 305 09:25 31.08.2022
1979 Clouds 7 1011 76 10000 2.63 307 06:35 31.08.2022
1980 Rain 7 1011 85 10000 5.97 322 01:25 31.08.2022
1981 Clouds 6 1011 86 10000 4.82 314 21:49 30.08.2022
1982 Rain 6 1011 84 10000 4.82 327 20:59 30.08.2022
1983 Rain 6 1010 83 10000 5.69 342 18:53 30.08.2022
1984 Rain 7 1010 83 10000 7.17 341 15:43 30.08.2022
1985 Clouds 7 1008 85 10000 6.39 353 13:25 30.08.2022
1986 Clouds 7 1007 82 10000 6.96 314 11:22 30.08.2022
1987 Clouds 7 1007 82 10000 6.96 314 10:57 30.08.2022
1988 Clouds 7 1007 82 10000 6.96 314 10:57 30.08.2022
1989 Rain 7 1005 84 10000 6.56 329 08:46 30.08.2022
1990 Rain 6 1003 87 10000 6.58 18 03:33 30.08.2022
1991 Rain 7 1002 93 10000 6.45 33 23:45 29.08.2022
1992 Rain 7 1001 96 10000 4.53 31 22:33 29.08.2022
1993 Rain 8 1001 98 1528 2.85 342 21:27 29.08.2022
1994 Clouds 8 1002 97 10000 3.66 321 20:26 29.08.2022
1995 Rain 9 1003 98 10000 1.81 331 17:58 29.08.2022
1996 Rain 9 1003 97 4841 0.88 236 17:25 29.08.2022
1997 Rain 7 1004 94 10000 3.37 40 16:43 29.08.2022
1998 Clouds 9 1005 85 10000 3.89 74 15:18 29.08.2022
1999 Clouds 10 1006 79 10000 3.78 73 13:26 29.08.2022
2000 Clouds 10 1006 76 10000 2.56 73 11:33 29.08.2022
2001 Clouds 10 1006 78 10000 2.66 107 10:39 29.08.2022
2002 Clouds 8 1006 77 10000 3.13 134 08:38 29.08.2022
2003 Clouds 6 1007 73 10000 3.88 140 05:58 29.08.2022
2004 Clouds 6 1010 67 10000 3.44 140 01:25 29.08.2022
2005 Clouds 5 1011 72 10000 3.84 135 22:55 28.08.2022
2006 Clouds 5 1011 74 10000 4.2 133 21:45 28.08.2022
2007 Clouds 5 1011 73 10000 3.72 130 20:58 28.08.2022
2008 Clouds 5 1011 73 10000 3.85 121 19:44 28.08.2022
2009 Clouds 6 1011 69 10000 3.85 92 18:22 28.08.2022
2010 Clouds 6 1011 69 10000 3.85 92 17:40 28.08.2022
2011 Clouds 6 1011 66 10000 4.5 82 16:32 28.08.2022
2012 Clouds 6 1012 67 10000 4.24 75 14:44 28.08.2022
2013 Clouds 7 1012 64 10000 3.6 56 12:49 28.08.2022
2014 Clouds 7 1011 64 10000 2.2 22 10:51 28.08.2022
2015 Clouds 7 1011 65 10000 2.24 23 09:57 28.08.2022
2016 Clouds 7 1010 66 10000 2.14 43 08:39 28.08.2022
2017 Clouds 7 1010 64 10000 2.33 42 07:48 28.08.2022
2018 Clouds 7 1011 68 10000 2.17 24 03:32 28.08.2022
2019 Clouds 6 1011 73 10000 3.45 334 00:31 28.08.2022
2020 Clouds 5 1011 77 10000 3.27 293 22:38 27.08.2022
2021 Clouds 5 1011 78 10000 3.22 277 21:58 27.08.2022
2022 Clouds 5 1012 75 10000 4.34 282 20:19 27.08.2022
2023 Clouds 6 1012 73 10000 4.41 282 18:41 27.08.2022
2024 Clouds 6 1012 72 10000 6.01 297 15:53 27.08.2022
2025 Clouds 7 1013 73 10000 6.87 294 15:25 27.08.2022
2026 Clouds 8 1013 67 10000 5.98 309 12:31 27.08.2022
2027 Clouds 8 1013 69 10000 6.11 308 11:47 27.08.2022
2028 Clouds 8 1012 74 10000 6.61 307 09:51 27.08.2022
2029 Clouds 8 1011 77 10000 7.5 310 08:45 27.08.2022
2030 Clouds 9 1008 97 10000 7.4 315 03:58 27.08.2022
2031 Rain 8 1009 95 8618 6.66 241 00:20 27.08.2022
2032 Rain 8 1011 94 9229 6.28 244 23:23 26.08.2022
2033 Rain 8 1012 90 10000 6.96 254 21:39 26.08.2022
2034 Rain 8 1014 87 10000 8.65 263 19:24 26.08.2022
2035 Clouds 8 1015 76 10000 7.85 267 17:29 26.08.2022
2036 Clouds 9 1015 71 10000 7.58 280 15:35 26.08.2022
2037 Clouds 9 1016 70 10000 6.24 294 14:42 26.08.2022
2038 Clouds 8 1016 73 10000 7.64 309 12:53 26.08.2022
2039 Clouds 8 1016 75 10000 7.6 308 11:35 26.08.2022
2040 Clouds 9 1015 77 10000 8.11 308 10:46 26.08.2022
2041 Clouds 8 1015 80 10000 4.96 288 07:31 26.08.2022
2042 Clouds 7 1012 87 10000 2.61 6 02:31 26.08.2022
2043 Rain 7 1010 93 10000 3.26 297 23:44 25.08.2022
2044 Rain 7 1011 92 10000 5.09 291 21:40 25.08.2022
2045 Rain 7 1012 93 7900 5.69 266 20:51 25.08.2022
2046 Rain 7 1013 93 10000 3.37 255 19:20 25.08.2022
2047 Rain 7 1014 91 10000 4.15 262 18:18 25.08.2022
2048 Rain 7 1014 91 10000 4.15 262 17:31 25.08.2022
2049 Rain 8 1016 83 10000 5.38 276 15:54 25.08.2022
2050 Clouds 8 1017 75 10000 5.24 281 15:27 25.08.2022
2051 Clouds 8 1018 68 10000 5.83 292 12:40 25.08.2022
2052 Clouds 8 1018 65 10000 7.2 308 10:48 25.08.2022
2053 Clouds 8 1019 65 10000 7.97 296 09:20 25.08.2022
2054 Clouds 7 1019 70 10000 7.66 283 05:39 25.08.2022
2055 Clouds 7 1018 80 10000 3.26 334 01:42 25.08.2022
2056 Clouds 8 1015 84 10000 6.85 331 23:26 24.08.2022
2057 Clouds 8 1014 86 10000 7.12 330 22:23 24.08.2022
2058 Clouds 8 1014 86 10000 7.12 330 21:36 24.08.2022
2059 Clouds 8 1013 88 10000 8.53 318 20:52 24.08.2022
2060 Clouds 10 1010 85 10000 11.25 304 18:58 24.08.2022
2061 Clouds 10 1007 85 10000 12.18 286 16:47 24.08.2022
2062 Rain 10 1006 88 10000 13.03 280 15:52 24.08.2022
2063 Rain 10 1007 86 10000 12.53 262 13:40 24.08.2022
2064 Rain 11 1007 80 10000 12.7 265 11:38 24.08.2022
2065 Clouds 12 1007 73 10000 12.26 258 09:39 24.08.2022
2066 Clouds 14 1008 64 10000 9.67 237 07:59 24.08.2022
2067 Clouds 9 1012 88 10000 7.01 230 02:36 24.08.2022
2068 Clouds 9 1013 92 10000 6.82 234 23:32 23.08.2022
2069 Clouds 9 1014 92 10000 6.55 242 22:32 23.08.2022
2070 Clouds 10 1014 91 10000 7.11 248 21:34 23.08.2022
2071 Clouds 10 1014 92 10000 7.86 248 20:21 23.08.2022
2072 Clouds 11 1013 94 10000 8.41 250 18:46 23.08.2022
2073 Clouds 11 1013 93 10000 9.16 251 17:49 23.08.2022
2074 Clouds 12 1013 89 10000 9.69 250 16:54 23.08.2022
2075 Clouds 14 1012 83 10000 9.73 245 15:39 23.08.2022
2076 Clouds 17 1014 64 10000 9.88 250 13:29 23.08.2022
2077 Clouds 18 1013 60 10000 10.2 246 11:32 23.08.2022
2078 Clouds 18 1014 60 10000 10.53 241 10:36 23.08.2022
2079 Clouds 18 1014 60 10000 10.25 234 09:54 23.08.2022
2080 Clouds 18 1014 60 10000 10.17 232 08:51 23.08.2022
2081 Clouds 17 1014 62 10000 10.16 227 08:20 23.08.2022
2082 Clouds 17 1014 62 10000 10.16 227 07:38 23.08.2022
2083 Clouds 17 1015 67 10000 9.18 226 06:28 23.08.2022
2084 Clouds 15 1016 73 10000 8.84 226 04:38 23.08.2022
2085 Clouds 13 1018 82 10000 7.48 227 00:28 23.08.2022
2086 Clouds 13 1018 82 10000 7.48 227 23:37 22.08.2022
2087 Clouds 13 1018 81 10000 6.5 223 22:44 22.08.2022
2088 Clouds 13 1019 77 10000 7.21 222 21:29 22.08.2022
2089 Clear 13 1019 76 10000 7.16 229 19:48 22.08.2022
2090 Clear 13 1019 76 10000 7.11 237 18:50 22.08.2022
2091 Clear 14 1020 71 10000 7.59 242 17:22 22.08.2022
2092 Clear 15 1020 67 10000 7.93 247 15:39 22.08.2022
2093 Clear 16 1020 66 10000 8.73 253 13:57 22.08.2022
2094 Clear 17 1020 64 10000 8.79 253 10:43 22.08.2022
2095 Clouds 16 1019 70 10000 8.45 253 07:59 22.08.2022
2096 Clouds 12 1019 91 10000 7.83 240 04:25 22.08.2022
2097 Clouds 12 1019 98 132 8.6 235 00:43 22.08.2022
2098 Clouds 12 1019 98 167 7.98 234 00:24 22.08.2022
2099 Clouds 12 1019 98 1855 6.1 234 22:22 21.08.2022
2100 Clouds 12 1020 98 1872 5.51 235 21:28 21.08.2022
2101 Clouds 12 1020 98 1872 5.51 235 20:56 21.08.2022
2102 Clouds 12 1020 97 10000 4.62 237 19:26 21.08.2022
2103 Clouds 12 1020 96 10000 3.67 239 17:35 21.08.2022
2104 Clouds 14 1020 88 10000 4.55 263 15:53 21.08.2022
2105 Clouds 14 1020 86 10000 4.68 271 15:21 21.08.2022
2106 Clouds 15 1020 86 10000 4.81 250 13:52 21.08.2022
2107 Clouds 15 1021 85 10000 4.64 250 13:28 21.08.2022
2108 Clouds 15 1021 85 10000 4.62 246 11:39 21.08.2022
2109 Clouds 14 1021 88 10000 3.47 240 09:31 21.08.2022
2110 Clouds 14 1021 91 10000 3.92 260 08:56 21.08.2022
2111 Clouds 14 1021 91 10000 3.92 260 08:38 21.08.2022
2112 Clouds 12 1020 96 9635 3.48 271 07:26 21.08.2022
2113 Clouds 12 1020 99 562 4.19 265 03:40 21.08.2022
2114 Clouds 11 1019 99 314 4.52 271 00:22 21.08.2022
2115 Clouds 11 1018 99 986 5.13 268 22:37 20.08.2022
2116 Clouds 11 1018 99 256 5.26 265 21:34 20.08.2022
2117 Clouds 11 1017 98 1920 6.78 253 20:28 20.08.2022
2118 Clouds 11 1018 98 1730 6.75 263 19:40 20.08.2022
2119 Clouds 12 1018 94 10000 9.01 228 18:29 20.08.2022
2120 Clouds 12 1018 94 10000 9.01 228 17:40 20.08.2022
2121 Clouds 12 1018 92 10000 9.88 225 16:49 20.08.2022
2122 Rain 9 1020 93 10000 8.89 196 15:26 20.08.2022
2123 Clouds 12 1023 56 10000 6.96 217 12:52 20.08.2022
2124 Clouds 12 1024 55 10000 5.99 213 11:47 20.08.2022
2125 Clouds 13 1025 58 10000 5.15 233 09:33 20.08.2022
2126 Clouds 12 1026 59 10000 3.9 223 08:29 20.08.2022
2127 Clouds 10 1026 62 10000 3.83 226 05:51 20.08.2022
2128 Clouds 6 1027 80 10000 2.32 239 00:58 20.08.2022
2129 Clouds 6 1027 80 10000 2.32 239 00:58 20.08.2022
2130 Clouds 6 1027 80 10000 2.32 239 00:30 20.08.2022
2131 Clouds 6 1027 81 10000 2.51 245 22:53 19.08.2022
2132 Clouds 7 1027 81 10000 2.33 248 21:38 19.08.2022
2133 Clouds 7 1027 83 10000 1.63 273 19:43 19.08.2022
2134 Clouds 9 1026 80 10000 3.4 323 16:47 19.08.2022
2135 Clouds 10 1026 76 10000 5.76 323 14:54 19.08.2022
2136 Clouds 10 1025 79 10000 5.06 319 12:49 19.08.2022
2137 Clouds 10 1023 82 10000 6.71 323 10:44 19.08.2022
2138 Clouds 10 1023 82 10000 7.54 323 09:59 19.08.2022
2139 Clouds 10 1018 86 10000 9.29 301 05:30 19.08.2022
2140 Clear 13 1016 92 10000 7.99 240 00:46 19.08.2022
2141 Clear 13 1017 89 10000 8.41 240 00:22 19.08.2022
2142 Clear 14 1017 87 10000 8.9 236 22:59 18.08.2022
2143 Clear 14 1017 87 10000 8.9 236 22:30 18.08.2022
2144 Clear 14 1017 89 10000 8.22 224 21:53 18.08.2022
2145 Clear 14 1018 88 10000 8.02 223 21:23 18.08.2022
2146 Clouds 14 1018 87 10000 7.66 222 19:54 18.08.2022
2147 Clouds 14 1018 86 10000 7.46 226 19:24 18.08.2022
2148 Clouds 15 1019 82 10000 7.24 230 17:46 18.08.2022
2149 Clouds 16 1019 75 10000 7.37 235 16:25 18.08.2022
2150 Clouds 17 1020 65 10000 8.93 238 14:22 18.08.2022
2151 Clouds 17 1020 65 10000 8.93 238 13:45 18.08.2022
2152 Clouds 17 1021 62 10000 9.02 235 12:30 18.08.2022
2153 Clouds 16 1021 57 10000 10.09 230 11:21 18.08.2022
2154 Clouds 15 1021 56 10000 10.2 227 09:43 18.08.2022
2155 Clouds 14 1022 56 10000 9.14 219 07:57 18.08.2022
2156 Clouds 13 1023 58 10000 8.75 217 06:43 18.08.2022
2157 Clouds 9 1024 63 10000 7.02 208 02:32 18.08.2022
2158 Clouds 9 1025 62 10000 3.96 193 22:50 17.08.2022
2159 Clouds 9 1026 68 10000 3.18 189 21:26 17.08.2022
2160 Clouds 9 1026 68 10000 2.26 198 19:59 17.08.2022
2161 Clouds 8 1026 70 10000 1.99 198 18:39 17.08.2022
2162 Clouds 8 1026 70 10000 0.74 134 17:27 17.08.2022
2163 Clouds 9 1026 66 10000 0.4 38 16:20 17.08.2022
2164 Clouds 9 1026 64 10000 0.77 352 14:46 17.08.2022
2165 Clouds 9 1027 64 10000 2.09 30 12:36 17.08.2022
2166 Clouds 9 1027 65 10000 2.16 15 11:36 17.08.2022
2167 Clouds 9 1027 68 10000 3.77 356 09:29 17.08.2022
2168 Clouds 8 1026 69 10000 4.34 360 06:50 17.08.2022
2169 Clouds 7 1025 79 10000 4.88 348 01:45 17.08.2022
2170 Clouds 6 1024 84 10000 5.08 349 23:33 16.08.2022
2171 Clouds 6 1024 83 10000 5.36 341 21:48 16.08.2022
2172 Clouds 6 1023 85 10000 5.36 339 20:25 16.08.2022
2173 Clouds 6 1023 85 10000 5.36 339 19:40 16.08.2022
2174 Clouds 7 1022 84 10000 5.94 333 17:56 16.08.2022
2175 Clouds 7 1022 84 10000 5.94 333 17:56 16.08.2022
2176 Clouds 7 1022 81 10000 6.72 333 17:23 16.08.2022
2177 Rain 7 1022 80 10000 6.73 332 15:45 16.08.2022
2178 Clouds 8 1021 78 10000 6.73 331 14:54 16.08.2022
2179 Clouds 8 1022 75 10000 6.75 332 14:36 16.08.2022
2180 Clouds 8 1021 74 10000 6.79 333 12:40 16.08.2022
2181 Rain 9 1019 78 10000 5.31 13 10:23 16.08.2022
2182 Clouds 9 1019 78 10000 6.06 343 09:29 16.08.2022
2183 Clouds 9 1018 81 10000 6.78 326 08:26 16.08.2022
2184 Clouds 8 1018 86 10000 6.5 332 07:20 16.08.2022
2185 Clouds 6 1015 91 10000 3.82 259 01:20 16.08.2022
2186 Clouds 6 1015 90 10000 2.22 283 22:26 15.08.2022
2187 Clouds 6 1015 90 10000 2.22 283 21:51 15.08.2022
2188 Clouds 6 1014 89 10000 2.34 295 20:39 15.08.2022
2189 Clouds 7 1014 88 10000 2.8 313 19:59 15.08.2022
2190 Clouds 7 1013 91 10000 4.23 335 18:20 15.08.2022
2191 Rain 8 1012 95 10000 5.14 337 16:26 15.08.2022
2192 Rain 8 1012 95 10000 5.14 337 15:55 15.08.2022
2193 Rain 8 1011 96 10000 7.6 325 13:54 15.08.2022
2194 Rain 9 1009 95 10000 7.19 328 12:24 15.08.2022
2195 Rain 9 1009 96 9963 4.18 248 09:54 15.08.2022
2196 Rain 9 1009 96 10000 6.42 224 07:50 15.08.2022
2197 Rain 8 1010 95 6983 7.44 205 04:35 15.08.2022
2198 Clouds 8 1012 93 10000 4.17 247 01:26 15.08.2022
2199 Clouds 8 1012 88 10000 5.52 273 22:39 14.08.2022
2200 Clouds 8 1012 86 10000 6.34 279 21:38 14.08.2022
2201 Clouds 8 1012 77 10000 5.14 272 19:54 14.08.2022
2202 Clouds 8 1012 77 10000 4.48 279 18:58 14.08.2022
2203 Clouds 8 1012 75 10000 4.64 289 18:18 14.08.2022
2204 Clouds 8 1012 74 10000 5.05 293 16:52 14.08.2022
2205 Clouds 9 1012 72 10000 6.24 295 15:48 14.08.2022
2206 Clouds 9 1012 72 10000 6.24 295 15:48 14.08.2022
2207 Clouds 8 1011 70 10000 8.3 305 14:27 14.08.2022
2208 Clouds 8 1011 70 10000 8.3 305 13:50 14.08.2022
2209 Clouds 8 1011 68 10000 8.92 306 13:19 14.08.2022
2210 Clouds 8 1011 67 10000 8.85 307 12:23 14.08.2022
2211 Clouds 8 1010 68 10000 9.59 306 10:49 14.08.2022
2212 Clouds 7 1009 72 10000 9 303 08:50 14.08.2022
2213 Clouds 7 1008 77 10000 8.6 299 06:21 14.08.2022
2214 Clouds 6 1007 84 10000 9.05 301 02:48 14.08.2022
2215 Clouds 6 1005 85 10000 8.9 298 23:53 13.08.2022
2216 Clouds 7 1004 83 10000 8.87 302 22:52 13.08.2022
2217 Clouds 7 1002 83 10000 9.68 307 20:58 13.08.2022
2218 Clouds 7 1002 83 10000 9.68 307 20:33 13.08.2022
2219 Clouds 8 1002 82 10000 10.02 303 19:37 13.08.2022
2220 Rain 8 1001 85 10000 8.75 295 17:42 13.08.2022
2221 Rain 8 999 90 10000 7.8 268 15:26 13.08.2022
2222 Rain 8 998 91 10000 7.9 257 14:27 13.08.2022
2223 Rain 8 999 90 10000 8.45 262 13:39 13.08.2022
2224 Clouds 9 998 88 10000 8 250 11:52 13.08.2022
2225 Clouds 9 997 84 10000 7.97 249 10:21 13.08.2022
2226 Rain 9 997 89 10000 8.36 237 08:23 13.08.2022
2227 Rain 9 997 89 10000 8.36 237 08:23 13.08.2022
2228 Clouds 9 997 91 10000 7.63 233 05:22 13.08.2022
2229 Clouds 8 998 95 10000 6.25 232 23:52 12.08.2022
2230 Clouds 8 998 94 10000 6.64 224 21:42 12.08.2022
2231 Clouds 8 998 93 10000 7.24 226 20:51 12.08.2022
2232 Clouds 9 999 85 10000 7.16 219 19:39 12.08.2022
2233 Clouds 9 999 92 10000 6.43 216 18:46 12.08.2022
2234 Clouds 10 999 82 10000 5.43 239 17:21 12.08.2022
2235 Clouds 11 999 79 10000 6.61 255 15:49 12.08.2022
2236 Clouds 11 999 76 10000 7.04 262 14:29 12.08.2022
2237 Clouds 11 999 75 10000 6.79 265 12:53 12.08.2022
2238 Clouds 11 999 80 10000 6.18 266 10:35 12.08.2022
2239 Clouds 11 998 86 10000 5.66 276 07:47 12.08.2022
2240 Clouds 11 998 93 10000 5.27 266 06:38 12.08.2022
2241 Rain 11 998 93 6411 10.99 202 02:39 12.08.2022
2242 Clouds 12 1001 79 10000 11.35 201 00:26 12.08.2022
2243 Clouds 12 1001 79 10000 11.35 201 23:35 11.08.2022
2244 Clouds 13 1002 70 10000 10.54 188 22:26 11.08.2022
2245 Clouds 13 1002 70 10000 10.54 188 21:40 11.08.2022
2246 Clouds 14 1003 58 10000 10.34 187 20:45 11.08.2022
2247 Clouds 15 1004 54 10000 9.68 190 20:18 11.08.2022
2248 Clouds 15 1004 53 10000 9.81 188 19:32 11.08.2022
2249 Clouds 15 1006 56 10000 8.08 190 17:48 11.08.2022
2250 Clouds 15 1007 57 10000 7.74 193 16:34 11.08.2022
2251 Clouds 15 1009 59 10000 7.65 213 15:21 11.08.2022
2252 Clouds 15 1010 57 10000 8.45 217 12:44 11.08.2022
2253 Clouds 15 1012 56 10000 8.93 214 10:18 11.08.2022
2254 Clouds 13 1014 62 10000 8.05 212 07:19 11.08.2022
2255 Clouds 11 1015 73 10000 6.52 202 03:52 11.08.2022
2256 Clouds 9 1017 79 10000 5.47 201 00:37 11.08.2022
2257 Clouds 9 1018 78 10000 5.43 212 22:32 10.08.2022
2258 Clouds 9 1018 80 10000 5.91 221 21:25 10.08.2022
2259 Clouds 9 1018 80 10000 5.91 221 20:54 10.08.2022
2260 Clouds 10 1019 76 10000 6.53 222 19:24 10.08.2022
2261 Clouds 11 1019 71 10000 6.79 227 17:55 10.08.2022
2262 Clouds 11 1019 68 10000 6.95 235 16:35 10.08.2022
2263 Clouds 11 1020 70 10000 7.35 230 13:35 10.08.2022
2264 Clouds 12 1020 67 10000 7.66 243 12:35 10.08.2022
2265 Clouds 12 1020 69 10000 7.25 265 09:24 10.08.2022
2266 Clouds 12 1020 69 10000 7.25 265 08:32 10.08.2022
2267 Clouds 9 1021 90 10000 6.32 258 06:23 10.08.2022
2268 Rain 9 1020 91 10000 5.4 252 03:25 10.08.2022
2269 Clouds 9 1020 90 10000 7.19 264 23:34 09.08.2022
2270 Clouds 8 1019 95 10000 6.4 248 22:56 09.08.2022
2271 Clouds 7 1019 94 10000 6.48 253 21:35 09.08.2022
2272 Clouds 7 1019 89 10000 7.5 261 20:26 09.08.2022
2273 Clouds 8 1019 85 10000 8.06 263 18:42 09.08.2022
2274 Clouds 10 1018 76 10000 8.61 272 17:28 09.08.2022
2275 Clouds 10 1018 76 10000 8.61 272 17:28 09.08.2022
2276 Clouds 10 1018 76 10000 8.61 272 16:40 09.08.2022
2277 Clouds 10 1017 72 10000 9.06 276 15:58 09.08.2022
2278 Clouds 11 1016 67 10000 10.01 271 12:51 09.08.2022
2279 Rain 11 1015 71 10000 10.23 269 09:36 09.08.2022
2280 Clouds 11 1014 75 10000 10.88 265 08:39 09.08.2022
2281 Clouds 11 1014 75 10000 10.92 266 07:52 09.08.2022
2282 Clouds 10 1013 82 10000 9.79 251 03:34 09.08.2022
2283 Clear 9 1013 83 10000 7.75 221 23:27 08.08.2022
2284 Clear 9 1013 83 10000 7.75 221 22:54 08.08.2022
2285 Clear 9 1013 85 10000 6.93 220 21:49 08.08.2022
2286 Clear 8 1013 88 10000 6.56 222 20:55 08.08.2022
2287 Clouds 9 1013 90 10000 6.55 225 19:50 08.08.2022
2288 Clouds 9 1014 86 10000 6.85 236 18:38 08.08.2022
2289 Clouds 11 1013 78 10000 7.63 254 16:37 08.08.2022
2290 Clouds 11 1013 77 10000 8.96 264 15:39 08.08.2022
2291 Clouds 13 1012 73 10000 10.07 256 12:51 08.08.2022
2292 Clouds 13 1011 72 10000 10.13 255 11:58 08.08.2022
2293 Clouds 14 1010 61 10000 10.82 254 09:43 08.08.2022
2294 Clouds 14 1009 65 10000 9.85 248 05:43 08.08.2022
2295 Clouds 13 1008 98 2217 7.85 247 02:27 08.08.2022
2296 Clear 17 1006 69 10000 7.54 205 22:25 07.08.2022
2297 Clear 17 1006 69 10000 7.54 205 21:38 07.08.2022
2298 Clear 17 1007 76 10000 5.82 209 20:25 07.08.2022
2299 Clear 17 1007 76 10000 5.82 209 19:54 07.08.2022
2300 Clear 17 1007 76 10000 5.82 209 19:33 07.08.2022
2301 Clear 18 1008 71 10000 6.11 216 18:22 07.08.2022
2302 Clear 19 1008 66 10000 6.28 229 16:54 07.08.2022
2303 Clear 20 1008 63 10000 6.46 237 16:28 07.08.2022
2304 Clear 20 1008 63 10000 6.59 241 15:19 07.08.2022
2305 Clear 21 1009 62 10000 7.41 249 13:22 07.08.2022
2306 Clear 21 1010 63 10000 7.92 244 10:59 07.08.2022
2307 Clear 21 1010 63 10000 7.92 244 10:33 07.08.2022
2308 Clouds 19 1010 71 10000 7.48 232 06:52 07.08.2022
2309 Clouds 14 1011 88 10000 7.16 224 03:19 07.08.2022
2310 Clouds 14 1011 85 10000 8.05 224 23:44 06.08.2022
2311 Clouds 15 1012 80 10000 9.49 215 22:20 06.08.2022
2312 Rain 14 1013 86 10000 7.18 204 20:26 06.08.2022
2313 Rain 14 1013 86 10000 7.18 204 19:41 06.08.2022
2314 Rain 14 1013 86 10000 7.18 204 19:41 06.08.2022
2315 Clouds 13 1014 88 10000 6.04 210 18:25 06.08.2022
2316 Rain 13 1015 86 10000 5.68 219 17:28 06.08.2022
2317 Clouds 14 1015 73 10000 6.07 236 14:31 06.08.2022
2318 Clouds 14 1015 72 10000 6.23 244 13:40 06.08.2022
2319 Clouds 14 1016 75 10000 6.74 266 11:24 06.08.2022
2320 Clouds 14 1015 76 10000 6.39 268 09:51 06.08.2022
2321 Clouds 13 1015 80 10000 5.61 272 08:28 06.08.2022
2322 Clouds 10 1013 95 10000 6.08 270 03:35 06.08.2022
2323 Clouds 9 1012 98 259 6.62 261 23:34 05.08.2022
2324 Clouds 9 1011 99 694 7.19 253 22:22 05.08.2022
2325 Clouds 10 1011 95 10000 6.41 246 19:32 05.08.2022
2326 Clouds 10 1011 95 10000 6.09 249 18:44 05.08.2022
2327 Clouds 11 1010 94 10000 6.59 257 17:27 05.08.2022
2328 Clouds 11 1010 94 10000 6.59 257 16:48 05.08.2022
2329 Clouds 12 1009 91 10000 8.14 256 15:21 05.08.2022
2330 Clouds 11 1009 95 10000 7.96 248 13:59 05.08.2022
2331 Clouds 12 1008 92 10000 7.98 248 13:23 05.08.2022
2332 Clouds 12 1008 92 10000 7.86 243 12:24 05.08.2022
2333 Rain 12 1008 95 10000 7.67 236 10:44 05.08.2022
2334 Clouds 13 1009 87 10000 9.75 218 07:58 05.08.2022
2335 Clouds 13 1009 84 10000 10.02 218 06:41 05.08.2022
2336 Clouds 10 1013 89 10000 7.73 228 00:30 05.08.2022
2337 Clouds 9 1013 95 10000 5.68 235 22:29 04.08.2022
2338 Clouds 9 1013 94 10000 6.15 244 21:26 04.08.2022
2339 Clouds 9 1013 94 10000 6.15 244 20:43 04.08.2022
2340 Clouds 10 1014 93 10000 6.79 247 19:40 04.08.2022
2341 Clouds 10 1014 89 10000 7.91 247 18:36 04.08.2022
2342 Clouds 11 1013 83 10000 7.48 254 17:38 04.08.2022
2343 Clouds 11 1012 91 10000 9.18 251 14:18 04.08.2022
2344 Clouds 11 1012 92 10000 9.78 251 12:44 04.08.2022
2345 Clouds 12 1012 87 10000 9.19 248 10:51 04.08.2022
2346 Clouds 14 1011 70 10000 10.48 237 07:53 04.08.2022
2347 Clouds 14 1011 70 10000 7.91 219 05:46 04.08.2022
2348 Clouds 13 1011 87 10000 7.62 230 02:29 04.08.2022
2349 Clouds 14 1010 84 10000 7.11 217 23:45 03.08.2022
2350 Clouds 15 1010 78 10000 7.32 204 22:30 03.08.2022
2351 Rain 17 1011 71 10000 6.42 192 20:50 03.08.2022
2352 Clouds 16 1012 66 10000 4.32 166 19:44 03.08.2022
2353 Clouds 17 1013 66 10000 4.17 205 18:36 03.08.2022
2354 Clouds 17 1014 65 10000 3.15 194 16:25 03.08.2022
2355 Clouds 17 1014 65 10000 2.41 196 14:51 03.08.2022
2356 Clouds 17 1016 63 10000 2.07 240 12:41 03.08.2022
2357 Clouds 18 1016 58 10000 4.64 221 08:54 03.08.2022
2358 Clouds 16 1017 71 10000 5.19 214 04:47 03.08.2022
2359 Clouds 15 1017 78 10000 4.29 196 03:37 03.08.2022
2360 Clouds 13 1017 80 10000 2.89 193 01:36 03.08.2022
2361 Clouds 12 1018 88 10000 3.66 212 23:27 02.08.2022
2362 Clouds 12 1018 90 10000 3.83 219 21:55 02.08.2022
2363 Clouds 12 1018 90 10000 3.83 219 21:33 02.08.2022
2364 Clouds 14 1018 90 10000 4.2 237 19:19 02.08.2022
2365 Clouds 15 1017 82 10000 5.53 256 16:42 02.08.2022
2366 Clouds 19 1017 54 10000 5.99 221 13:21 02.08.2022
2367 Clouds 19 1017 54 10000 4.68 204 09:53 02.08.2022
2368 Clouds 18 1018 57 10000 5.62 199 08:26 02.08.2022
2369 Clouds 18 1018 57 10000 5.62 199 07:50 02.08.2022
2370 Clouds 15 1018 64 10000 6.24 190 04:55 02.08.2022
2371 Clear 12 1020 77 10000 4.62 186 01:26 02.08.2022
2372 Clear 12 1020 79 10000 4.48 170 23:21 01.08.2022
2373 Clear 12 1020 83 10000 4.45 154 21:19 01.08.2022
2374 Clear 12 1020 81 10000 4.57 140 19:44 01.08.2022
2375 Clear 13 1020 79 10000 5.32 131 18:53 01.08.2022
2376 Clear 14 1020 74 10000 5.57 110 16:55 01.08.2022
2377 Clear 14 1020 74 10000 5.57 110 16:55 01.08.2022
2378 Clear 14 1020 74 10000 5.57 110 16:55 01.08.2022
2379 Clear 15 1020 71 10000 5.36 106 16:29 01.08.2022
2380 Clear 15 1020 71 10000 5.36 106 15:33 01.08.2022
2381 Clear 15 1021 68 10000 5.48 105 14:43 01.08.2022
2382 Clouds 14 1021 68 5071 5.58 96 12:57 01.08.2022
2383 Clouds 14 1022 68 6054 5.27 96 10:47 01.08.2022
2384 Clouds 13 1022 69 10000 5.02 99 08:45 01.08.2022
2385 Clouds 13 1023 72 10000 5.06 103 06:50 01.08.2022
2386 Clouds 11 1023 75 10000 4.5 109 04:30 01.08.2022
2387 Clouds 8 1024 81 10000 3.78 110 00:56 01.08.2022
2388 Clouds 8 1024 78 10000 3.48 112 22:42 31.07.2022
2389 Clouds 8 1024 77 10000 3.45 114 21:46 31.07.2022
2390 Clouds 8 1025 76 10000 4.4 106 20:21 31.07.2022
2391 Clouds 8 1025 73 10000 4.73 98 18:38 31.07.2022
2392 Clouds 10 1025 63 10000 5.9 91 16:22 31.07.2022
2393 Clouds 10 1025 64 10000 6.11 85 13:59 31.07.2022
2394 Clouds 10 1025 63 10000 5.96 83 12:43 31.07.2022
2395 Clouds 10 1026 61 10000 5.91 80 10:53 31.07.2022
2396 Clouds 10 1026 63 10000 5.42 78 08:29 31.07.2022
2397 Clouds 9 1026 67 10000 4.43 97 04:46 31.07.2022
2398 Clouds 6 1027 78 10000 3.11 109 00:56 31.07.2022
2399 Clouds 6 1027 79 10000 3.11 110 22:20 30.07.2022
2400 Clouds 6 1027 79 10000 3.11 110 21:50 30.07.2022
2401 Clouds 6 1027 79 10000 3.52 105 21:24 30.07.2022
2402 Clouds 6 1027 78 10000 3.37 99 20:24 30.07.2022
2403 Clouds 7 1027 74 10000 3.25 94 19:27 30.07.2022
2404 Clouds 8 1027 73 10000 3.51 94 17:48 30.07.2022
2405 Clouds 8 1027 70 10000 3.82 85 16:37 30.07.2022
2406 Clouds 9 1027 68 10000 4.57 79 15:29 30.07.2022
2407 Clouds 8 1027 72 10000 4.46 63 13:22 30.07.2022
2408 Clouds 8 1027 72 10000 4.3 66 12:21 30.07.2022
2409 Clouds 8 1027 73 10000 4.38 68 10:44 30.07.2022
2410 Clouds 8 1026 76 10000 4.3 69 09:59 30.07.2022
2411 Clouds 8 1026 77 10000 3.97 58 08:44 30.07.2022
2412 Clouds 7 1026 77 10000 3.14 44 06:50 30.07.2022
2413 Clouds 7 1024 82 10000 2.36 31 02:33 30.07.2022
2414 Clouds 5 1022 94 10000 2.87 24 22:57 29.07.2022
2415 Clouds 5 1021 95 10000 3.07 7 21:36 29.07.2022
2416 Clouds 6 1021 94 10000 3.24 343 20:50 29.07.2022
2417 Clouds 6 1019 98 4101 3.56 329 19:34 29.07.2022
2418 Clouds 8 1017 93 930 3.99 328 16:44 29.07.2022
2419 Clouds 15 1015 78 10000 5.33 267 14:23 29.07.2022
2420 Clouds 17 1015 64 10000 6.19 276 12:32 29.07.2022
2421 Clouds 15 1014 84 10000 6.1 240 08:51 29.07.2022
2422 Clouds 15 1013 82 10000 6.2 245 08:22 29.07.2022
2423 Clouds 13 1012 89 10000 5.07 228 04:39 29.07.2022
2424 Rain 14 1012 81 10000 6.57 215 23:46 28.07.2022
2425 Clouds 15 1011 75 10000 7 215 21:38 28.07.2022
2426 Clouds 16 1011 70 10000 7.24 220 20:50 28.07.2022
2427 Clouds 16 1012 67 10000 6.59 213 20:18 28.07.2022
2428 Clouds 16 1012 67 10000 6.43 212 19:26 28.07.2022
2429 Clouds 16 1012 67 10000 6.46 210 17:46 28.07.2022
2430 Clouds 17 1012 66 10000 6.49 213 17:20 28.07.2022
2431 Clouds 17 1012 66 10000 6.49 213 16:40 28.07.2022
2432 Clouds 19 1012 60 10000 7.06 236 13:56 28.07.2022
2433 Clouds 19 1012 62 10000 7.13 234 12:39 28.07.2022
2434 Clouds 17 1011 64 10000 8.71 228 07:46 28.07.2022
2435 Clouds 16 1010 65 10000 8.43 226 05:39 28.07.2022
2436 Clouds 15 1010 67 10000 8.26 224 05:20 28.07.2022
2437 Rain 13 1010 95 10000 6.4 217 23:19 27.07.2022
2438 Rain 12 1010 96 10000 6.28 220 21:30 27.07.2022
2439 Clouds 12 1010 72 10000 6.36 232 19:48 27.07.2022
2440 Clouds 12 1010 71 10000 5.74 230 19:19 27.07.2022
2441 Clouds 13 1010 69 10000 6.11 234 16:31 27.07.2022
2442 Clouds 14 1010 64 10000 6.65 245 15:51 27.07.2022
2443 Clouds 15 1010 58 10000 6.48 251 14:41 27.07.2022
2444 Clouds 15 1010 59 10000 7.67 253 13:34 27.07.2022
2445 Clear 12 1008 70 10000 8.74 260 09:28 27.07.2022
2446 Clouds 11 1008 73 10000 8.8 263 07:40 27.07.2022
2447 Clouds 8 1007 85 10000 9.04 267 03:57 27.07.2022
2448 Clouds 6 1003 93 10000 10.04 264 23:21 26.07.2022
2449 Clouds 7 1003 92 10000 10.32 266 21:49 26.07.2022
2450 Clouds 7 1002 92 10000 10.48 264 20:49 26.07.2022
2451 Clouds 8 1000 83 10000 7.83 269 19:20 26.07.2022
2452 Clouds 8 1000 83 10000 7.83 269 18:39 26.07.2022
2453 Clouds 9 1000 81 10000 9.75 284 17:47 26.07.2022
2454 Clouds 9 998 85 10000 7.78 271 15:43 26.07.2022
2455 Clouds 8 998 88 10000 5.34 284 14:38 26.07.2022
2456 Clouds 8 995 91 10000 8.07 264 12:25 26.07.2022
2457 Rain 7 994 96 10000 6.58 258 09:59 26.07.2022
2458 Clouds 7 993 97 10000 7.4 284 08:23 26.07.2022
2459 Rain 7 990 97 1629 9.45 257 01:52 26.07.2022
2460 Rain 7 991 97 1142 10.17 258 00:19 26.07.2022
2461 Rain 7 991 97 909 10 257 22:39 25.07.2022
2462 Rain 7 991 97 1046 10.18 257 21:43 25.07.2022
2463 Rain 7 991 97 1139 10.38 256 20:43 25.07.2022
2464 Rain 7 992 97 984 9.56 254 19:55 25.07.2022
2465 Rain 7 992 96 10000 7.57 271 19:20 25.07.2022
2466 Clouds 6 992 96 10000 7.06 270 17:35 25.07.2022
2467 Rain 6 992 96 10000 6.82 268 16:40 25.07.2022
2468 Rain 6 993 92 10000 8.04 267 12:58 25.07.2022
2469 Rain 7 994 89 10000 7.95 270 10:47 25.07.2022
2470 Clouds 8 994 87 10000 9.47 272 07:32 25.07.2022
2471 Clouds 8 997 92 10000 9.23 282 00:38 25.07.2022
2472 Clouds 7 997 93 10000 9.2 282 23:45 24.07.2022
2473 Clouds 7 997 95 10000 9.16 288 22:43 24.07.2022
2474 Clouds 7 997 94 10000 7.82 276 21:33 24.07.2022
2475 Clouds 7 998 91 10000 7.11 272 20:58 24.07.2022
2476 Clouds 7 998 91 10000 7.11 272 20:35 24.07.2022
2477 Clouds 6 999 92 10000 7.1 291 18:59 24.07.2022
2478 Clouds 6 1000 91 10000 6.14 302 16:54 24.07.2022
2479 Clouds 6 1000 91 10000 6.02 316 15:54 24.07.2022
2480 Clouds 7 1000 85 10000 5.91 319 14:41 24.07.2022
2481 Clouds 8 1000 83 10000 4.33 319 13:47 24.07.2022
2482 Clouds 7 1001 88 10000 3.42 46 12:19 24.07.2022
2483 Clouds 7 1001 90 10000 3.55 48 11:29 24.07.2022
2484 Clouds 7 1000 92 10000 2.64 55 09:44 24.07.2022
2485 Clouds 8 1000 94 10000 2.91 68 07:53 24.07.2022
2486 Clouds 8 1000 93 10000 3.56 79 07:26 24.07.2022
2487 Clouds 8 1001 94 10000 3.23 130 02:52 24.07.2022
2488 Clouds 7 1001 93 10000 5.03 99 22:45 23.07.2022
2489 Clouds 7 1002 93 10000 4.78 96 20:47 23.07.2022
2490 Rain 7 1002 94 10000 5.32 108 19:25 23.07.2022
2491 Rain 7 1003 94 10000 5.74 103 18:18 23.07.2022
2492 Rain 7 1003 94 10000 4.64 104 17:27 23.07.2022
2493 Rain 7 1003 93 10000 3.58 107 16:22 23.07.2022
2494 Rain 8 1003 86 10000 1.99 164 15:21 23.07.2022
2495 Rain 8 1003 86 10000 1.99 164 14:52 23.07.2022
2496 Clouds 10 1003 69 10000 1.58 210 14:21 23.07.2022
2497 Clouds 10 1004 67 10000 0.75 298 11:56 23.07.2022
2498 Clouds 9 1004 68 10000 2.26 278 10:41 23.07.2022
2499 Clouds 9 1004 69 10000 2.99 276 09:38 23.07.2022
2500 Rain 7 1004 88 10000 2.63 258 07:18 23.07.2022
2501 Clouds 6 1004 90 10000 3.23 286 03:37 23.07.2022
2502 Clouds 6 1005 95 10000 3.18 287 00:37 23.07.2022
2503 Clouds 5 1006 95 10000 3.82 301 21:36 22.07.2022
2504 Clouds 5 1006 94 10000 4.11 300 20:31 22.07.2022
2505 Clouds 6 1008 92 10000 4.4 318 18:42 22.07.2022
2506 Clouds 6 1008 92 10000 4.86 319 17:40 22.07.2022
2507 Clouds 6 1008 89 10000 5.53 322 15:48 22.07.2022
2508 Clouds 6 1009 90 10000 7.4 330 13:24 22.07.2022
2509 Clouds 6 1009 91 10000 6.8 334 10:23 22.07.2022
2510 Clouds 5 1009 92 10000 7.42 342 09:24 22.07.2022
2511 Clouds 5 1009 94 10000 7.57 344 07:58 22.07.2022
2512 Clouds 5 1009 97 2233 8.57 344 04:23 22.07.2022
2513 Rain 5 1010 92 10000 8.03 357 23:43 21.07.2022
2514 Clouds 5 1011 94 10000 7.35 4 21:51 21.07.2022
2515 Clear 5 1011 95 10000 6.68 7 20:28 21.07.2022
2516 Clouds 5 1012 94 10000 6.49 5 18:43 21.07.2022
2517 Clouds 6 1012 90 10000 7.27 6 17:22 21.07.2022
2518 Clouds 6 1012 90 10000 7.27 6 16:31 21.07.2022
2519 Clouds 6 1013 87 10000 7.58 9 14:46 21.07.2022
2520 Clouds 6 1013 86 4509 7.36 12 13:58 21.07.2022
2521 Clouds 6 1013 83 4071 6.73 13 11:58 21.07.2022
2522 Clouds 6 1013 85 3814 5.95 25 10:20 21.07.2022
2523 Clouds 6 1013 85 3946 5.95 28 08:53 21.07.2022
2524 Clear 6 1013 85 4697 5.75 32 08:18 21.07.2022
2525 Clear 6 1013 84 10000 6.04 38 06:45 21.07.2022
2526 Clear 6 1013 86 10000 5.71 50 02:59 21.07.2022
2527 Clouds 6 1014 97 10000 3.49 2 22:51 20.07.2022
2528 Clouds 6 1014 97 5121 3.38 3 22:20 20.07.2022
2529 Clouds 6 1014 97 8999 2.77 7 20:46 20.07.2022
2530 Clouds 6 1015 98 1809 2.62 14 19:47 20.07.2022
2531 Clouds 7 1014 96 1983 2.03 32 18:56 20.07.2022
2532 Clouds 7 1014 96 1983 2.03 32 18:31 20.07.2022
2533 Clouds 7 1015 95 2190 3.07 48 17:33 20.07.2022
2534 Clouds 7 1015 95 1661 4.27 47 15:38 20.07.2022
2535 Clouds 7 1015 94 1795 4.79 31 14:49 20.07.2022
2536 Clouds 7 1016 90 3769 5.13 23 13:44 20.07.2022
2537 Clouds 8 1016 86 3688 5.22 33 11:29 20.07.2022
2538 Clouds 8 1016 86 3708 4.78 63 06:49 20.07.2022
2539 Clouds 6 1017 93 10000 2.94 34 01:57 20.07.2022
2540 Clouds 6 1017 94 10000 2.36 31 00:42 20.07.2022
2541 Clouds 6 1018 93 10000 2.86 45 22:38 19.07.2022
2542 Clouds 7 1018 91 10000 2.57 56 22:20 19.07.2022
2543 Clouds 7 1018 88 10000 2.5 68 20:50 19.07.2022
2544 Clouds 8 1018 84 10000 2.86 75 19:38 19.07.2022
2545 Clouds 8 1018 82 10000 3.51 80 18:43 19.07.2022
2546 Clouds 9 1018 80 10000 3.81 77 17:56 19.07.2022
2547 Clouds 10 1018 76 10000 4.31 67 15:50 19.07.2022
2548 Clouds 11 1019 74 10000 4.7 72 13:51 19.07.2022
2549 Clouds 11 1019 73 10000 4.26 67 11:35 19.07.2022
2550 Clouds 11 1018 71 10000 4.51 73 09:58 19.07.2022
2551 Clouds 10 1019 71 9887 4.06 61 08:48 19.07.2022
2552 Clouds 10 1019 71 6841 3.8 58 08:21 19.07.2022
2553 Clouds 11 1018 70 10000 4.13 60 07:18 19.07.2022
2554 Clouds 12 1018 66 10000 3.59 91 05:23 19.07.2022
2555 Clouds 12 1018 66 10000 3.59 91 04:40 19.07.2022
2556 Clouds 10 1018 76 10000 1.72 83 00:21 19.07.2022
2557 Clouds 10 1018 76 10000 1.9 75 23:21 18.07.2022
2558 Clouds 10 1018 76 10000 1.9 75 22:51 18.07.2022
2559 Clouds 10 1018 77 10000 1.78 62 21:27 18.07.2022
2560 Clouds 10 1018 77 10000 1.78 62 20:50 18.07.2022
2561 Clouds 11 1018 76 10000 1.54 60 19:24 18.07.2022
2562 Clouds 12 1018 71 10000 2.02 55 16:50 18.07.2022
2563 Clouds 12 1017 68 10000 1.73 62 15:41 18.07.2022
2564 Clouds 12 1018 76 10000 2.39 39 13:45 18.07.2022
2565 Clouds 13 1018 76 10000 2.08 21 12:37 18.07.2022
2566 Clouds 13 1017 77 10000 1.95 33 10:34 18.07.2022
2567 Clouds 14 1016 72 10000 2.09 38 08:21 18.07.2022
2568 Clouds 15 1016 70 10000 1.81 33 06:54 18.07.2022
2569 Clouds 13 1016 70 10000 2.88 156 23:31 17.07.2022
2570 Clouds 13 1016 70 10000 3.22 146 22:32 17.07.2022
2571 Clouds 13 1016 71 10000 3.66 141 21:47 17.07.2022
2572 Clouds 14 1015 72 10000 4.18 139 20:55 17.07.2022
2573 Clouds 14 1015 72 10000 4.18 139 20:36 17.07.2022
2574 Clouds 13 1015 71 10000 5.75 113 19:28 17.07.2022
2575 Clear 14 1015 70 10000 5.77 103 18:26 17.07.2022
2576 Clear 14 1015 70 10000 5.77 103 17:38 17.07.2022
2577 Clear 13 1015 67 10000 5.18 92 16:50 17.07.2022
2578 Clear 14 1015 63 10000 5.17 90 16:25 17.07.2022
2579 Clear 14 1015 62 10000 5.69 90 14:32 17.07.2022
2580 Clouds 15 1015 58 10000 5.06 94 13:28 17.07.2022
2581 Clouds 15 1015 57 10000 4.95 101 10:59 17.07.2022
2582 Clouds 15 1015 59 10000 5.44 104 08:44 17.07.2022
2583 Clear 15 1015 66 10000 3.46 137 03:40 17.07.2022
2584 Clouds 14 1015 70 10000 3 145 02:21 17.07.2022
2585 Clouds 13 1014 73 10000 3.16 141 23:19 16.07.2022
2586 Clouds 13 1014 68 10000 4.11 121 21:21 16.07.2022
2587 Clouds 14 1014 69 10000 5.63 116 19:25 16.07.2022
2588 Clouds 15 1014 66 10000 6.59 113 17:56 16.07.2022
2589 Clouds 16 1014 65 10000 7.19 102 16:27 16.07.2022
2590 Clouds 17 1013 64 10000 6.39 101 13:47 16.07.2022
2591 Clouds 16 1013 68 10000 4.94 106 10:50 16.07.2022
2592 Clouds 17 1013 71 10000 4.82 120 09:32 16.07.2022
2593 Clouds 16 1013 74 10000 5.39 134 08:43 16.07.2022
2594 Clouds 16 1013 76 10000 5.6 138 07:59 16.07.2022
2595 Clouds 16 1012 80 10000 4.81 146 03:41 16.07.2022
2596 Clouds 15 1011 87 4771 4.75 137 02:35 16.07.2022
2597 Clouds 12 1011 90 10000 3.94 117 23:29 15.07.2022
2598 Clouds 12 1011 90 10000 3.94 117 22:39 15.07.2022
2599 Clouds 13 1011 81 10000 5.07 112 21:28 15.07.2022
2600 Clouds 14 1011 76 10000 6.19 120 20:24 15.07.2022
2601 Clouds 14 1010 76 10000 5.98 112 18:37 15.07.2022
2602 Clouds 15 1010 74 10000 6.65 110 17:36 15.07.2022
2603 Clear 15 1010 72 10000 8.01 99 14:48 15.07.2022
2604 Clouds 15 1011 68 2399 6.36 96 12:49 15.07.2022
2605 Clouds 15 1011 68 1880 6.24 96 11:20 15.07.2022
2606 Clouds 14 1011 72 2231 6.34 94 09:21 15.07.2022
2607 Clouds 11 1011 84 1831 5.99 96 05:56 15.07.2022
2608 Clouds 7 1012 98 382 3.54 90 00:52 15.07.2022
2609 Clouds 6 1012 99 166 3.72 93 23:36 14.07.2022
2610 Clouds 7 1012 99 143 3.96 95 22:42 14.07.2022
2611 Clouds 7 1013 99 135 4.27 97 21:43 14.07.2022
2612 Clouds 6 1013 99 108 5.02 93 21:25 14.07.2022
2613 Clouds 6 1013 99 108 5.02 93 20:43 14.07.2022
2614 Clouds 6 1013 99 122 5.45 87 20:19 14.07.2022
2615 Clouds 8 1013 98 176 6.06 94 18:42 14.07.2022
2616 Clouds 10 1012 87 995 7.96 89 16:22 14.07.2022
2617 Clouds 9 1013 88 1234 6.39 78 15:29 14.07.2022
2618 Clouds 8 1013 91 1883 4.67 63 13:53 14.07.2022
2619 Clouds 7 1014 88 975 4.59 59 12:53 14.07.2022
2620 Clouds 7 1014 88 958 3.16 53 11:43 14.07.2022
2621 Clouds 6 1014 90 959 2.47 22 11:22 14.07.2022
2622 Clouds 6 1014 93 978 2.9 348 09:49 14.07.2022
2623 Clouds 5 1014 96 1390 3.72 344 06:54 14.07.2022
2624 Clouds 4 1014 97 818 4.98 294 01:24 14.07.2022
2625 Clouds 4 1014 97 818 4.98 294 00:53 14.07.2022
2626 Clouds 5 1014 96 3580 5.35 296 22:33 13.07.2022
2627 Clouds 5 1014 94 4921 5.17 291 21:55 13.07.2022
2628 Clouds 5 1014 95 8433 5.33 285 20:45 13.07.2022
2629 Clouds 5 1014 97 791 6.43 290 19:21 13.07.2022
2630 Clouds 6 1014 93 1480 6.41 297 17:42 13.07.2022
2631 Clouds 8 1014 90 2172 4.81 302 16:29 13.07.2022
2632 Clouds 8 1014 91 1593 4.4 300 15:24 13.07.2022
2633 Clouds 10 1014 88 1526 4.34 319 12:55 13.07.2022
2634 Clouds 11 1014 90 955 5.93 305 10:45 13.07.2022
2635 Clouds 11 1013 90 933 5.91 299 09:58 13.07.2022
2636 Clouds 12 1013 92 928 6.09 302 09:22 13.07.2022
2637 Clouds 12 1012 97 458 7.76 231 06:19 13.07.2022
2638 Rain 12 1015 85 10000 5.64 164 02:21 13.07.2022
2639 Clouds 11 1017 80 10000 6.03 148 23:45 12.07.2022
2640 Clouds 11 1018 79 10000 5.48 134 21:57 12.07.2022
2641 Clouds 12 1019 78 10000 5.91 138 21:29 12.07.2022
2642 Clouds 12 1019 78 10000 5.91 138 20:41 12.07.2022
2643 Clouds 12 1021 79 10000 5.17 139 19:26 12.07.2022
2644 Clouds 13 1021 76 10000 5.69 138 17:50 12.07.2022
2645 Clouds 13 1022 73 10000 4.85 151 16:20 12.07.2022
2646 Clouds 13 1023 73 10000 4.84 161 14:31 12.07.2022
2647 Clouds 11 1024 83 6532 4.64 139 12:48 12.07.2022
2648 Clouds 9 1025 85 10000 4.62 110 11:26 12.07.2022
2649 Rain 9 1025 83 9318 3.51 87 09:42 12.07.2022
2650 Clouds 12 1025 67 10000 2.88 136 08:23 12.07.2022
2651 Clouds 12 1025 65 10000 2.66 148 06:49 12.07.2022
2652 Clouds 11 1025 62 10000 3.58 151 05:42 12.07.2022
2653 Clouds 8 1026 66 10000 3.32 117 02:32 12.07.2022
2654 Clouds 7 1028 71 10000 3.44 130 23:30 11.07.2022
2655 Clouds 6 1028 74 10000 3.57 123 22:31 11.07.2022
2656 Clouds 6 1028 76 10000 3.58 101 20:41 11.07.2022
2657 Clouds 6 1028 76 10000 4.05 99 19:44 11.07.2022
2658 Clouds 6 1028 76 10000 3.75 99 18:32 11.07.2022
2659 Clouds 6 1029 76 10000 3.68 90 17:49 11.07.2022
2660 Clouds 7 1029 71 10000 3.8 82 16:21 11.07.2022
2661 Clouds 7 1029 70 10000 3.42 80 14:49 11.07.2022
2662 Clouds 7 1028 67 3660 2.92 48 11:59 11.07.2022
2663 Clouds 7 1028 67 3890 2.43 29 10:37 11.07.2022
2664 Clear 7 1028 67 4626 2.57 12 09:49 11.07.2022
2665 Clouds 7 1027 67 5154 2.48 10 08:34 11.07.2022
2666 Clouds 8 1027 62 10000 2.93 326 06:44 11.07.2022
2667 Clouds 5 1025 84 10000 1.6 213 00:22 11.07.2022
2668 Clouds 5 1024 88 10000 1.28 213 23:28 10.07.2022
2669 Clouds 4 1024 89 2049 0.73 199 21:55 10.07.2022
2670 Clouds 4 1023 89 2276 0.54 157 20:54 10.07.2022
2671 Clouds 4 1024 93 2219 0.22 180 19:50 10.07.2022
2672 Clouds 5 1023 92 2215 0.18 88 18:50 10.07.2022
2673 Clouds 5 1023 90 2212 0.69 360 17:41 10.07.2022
2674 Clouds 5 1023 88 2215 1.07 341 16:58 10.07.2022
2675 Clouds 5 1022 88 2203 1.55 353 16:19 10.07.2022
2676 Clouds 5 1022 89 2189 1.83 349 14:33 10.07.2022
2677 Clouds 5 1021 88 2212 2.88 356 12:33 10.07.2022
2678 Clouds 5 1021 88 2259 2.95 360 11:34 10.07.2022
2679 Clouds 4 1018 97 1374 2.28 14 08:46 10.07.2022
2680 Clouds 4 1017 98 1355 2.76 12 08:24 10.07.2022
2681 Clouds 6 1014 97 439 0.89 281 03:38 10.07.2022
2682 Clouds 6 1012 96 10000 1.4 257 23:30 09.07.2022
2683 Clouds 6 1012 94 10000 1.01 228 22:25 09.07.2022
2684 Clouds 6 1011 94 10000 0.54 273 21:29 09.07.2022
2685 Clouds 6 1010 93 2358 1.16 3 18:58 09.07.2022
2686 Clouds 7 1010 90 5758 1.46 345 17:59 09.07.2022
2687 Clouds 7 1009 89 6269 1.15 294 16:59 09.07.2022
2688 Rain 6 1009 91 8189 2 97 15:44 09.07.2022
2689 Rain 6 1009 88 5607 3.41 97 15:25 09.07.2022
2690 Clouds 5 1010 88 10000 4.66 79 13:51 09.07.2022
2691 Clouds 5 1010 89 3578 3.73 78 12:53 09.07.2022
2692 Clouds 5 1010 89 2401 3 71 11:33 09.07.2022
2693 Clouds 5 1009 90 2257 2.11 13 10:23 09.07.2022
2694 Clouds 4 1008 94 2442 1.32 354 07:54 09.07.2022
2695 Clouds 4 1008 94 2469 1.48 309 06:58 09.07.2022
2696 Clouds 4 1007 96 5059 1.86 327 04:34 09.07.2022
2697 Clouds 5 999 99 269 2.61 353 23:18 08.07.2022
2698 Rain 6 998 99 136 1.75 288 21:59 08.07.2022
2699 Clouds 7 998 97 207 5.03 245 20:59 08.07.2022
2700 Clouds 9 997 97 290 6.85 236 20:25 08.07.2022
2701 Rain 12 997 95 883 5.15 226 18:32 08.07.2022
2702 Rain 9 999 93 4326 8.34 118 17:25 08.07.2022
2703 Rain 6 1002 97 4661 8.82 95 14:55 08.07.2022
2704 Rain 7 1003 96 1740 6.06 80 14:29 08.07.2022
2705 Rain 10 1006 93 4326 3.3 107 12:28 08.07.2022
2706 Rain 10 1007 89 9259 1.48 201 10:45 08.07.2022
2707 Clouds 10 1008 74 3622 1.9 82 08:51 08.07.2022
2708 Clouds 11 1009 65 10000 2.32 281 06:55 08.07.2022
2709 Clouds 9 1009 82 5768 4.53 245 03:22 08.07.2022
2710 Clouds 7 1009 98 405 6.67 234 23:45 07.07.2022
2711 Clouds 7 1009 99 208 6.78 233 22:45 07.07.2022
2712 Clouds 8 1009 93 7275 6.26 242 20:59 07.07.2022
2713 Clouds 9 1009 91 10000 6.39 244 18:42 07.07.2022
2714 Clouds 10 1009 87 10000 6.48 245 17:41 07.07.2022
2715 Clouds 11 1008 85 10000 6.2 267 15:22 07.07.2022
2716 Clouds 11 1008 83 10000 7.6 259 13:30 07.07.2022
2717 Clouds 12 1007 78 10000 8.15 255 12:40 07.07.2022
2718 Clouds 14 1007 72 10000 8.76 251 12:20 07.07.2022
2719 Clouds 14 1007 72 10000 8.76 251 11:31 07.07.2022
2720 Clouds 15 1006 71 10000 8.51 248 10:44 07.07.2022
2721 Clouds 15 1006 80 10000 7.46 252 10:25 07.07.2022
2722 Rain 14 1005 79 10000 7.16 230 07:40 07.07.2022
2723 Clouds 13 1005 72 10000 6.58 198 04:42 07.07.2022
2724 Clouds 9 1007 89 946 4.79 142 23:37 06.07.2022
2725 Clouds 7 1008 92 927 4.25 132 23:19 06.07.2022
2726 Clouds 7 1008 92 927 4.25 132 22:57 06.07.2022
2727 Clouds 7 1008 92 927 4.25 132 22:38 06.07.2022
2728 Clouds 7 1009 92 938 4.14 130 21:30 06.07.2022
2729 Clouds 7 1010 97 1002 4.07 110 19:39 06.07.2022
2730 Clouds 7 1010 89 977 3.93 90 18:29 06.07.2022
2731 Clouds 7 1011 87 939 4.11 87 16:19 06.07.2022
2732 Clouds 6 1011 89 955 3.68 78 14:58 06.07.2022
2733 Clouds 7 1011 87 920 3.27 71 12:42 06.07.2022
2734 Clouds 7 1011 87 925 3.12 74 11:49 06.07.2022
2735 Clouds 7 1011 86 921 2.83 64 10:18 06.07.2022
2736 Clouds 8 1010 87 986 1.32 34 07:47 06.07.2022
2737 Clouds 8 1010 88 2354 0.68 20 07:23 06.07.2022
2738 Clouds 7 1010 90 2438 0.71 258 05:28 06.07.2022
2739 Clouds 6 1009 90 1023 0.23 258 22:45 05.07.2022
2740 Clouds 5 1009 90 968 0.73 164 21:53 05.07.2022
2741 Clouds 5 1009 93 984 0.59 125 20:39 05.07.2022
2742 Clouds 5 1009 90 5591 0.38 203 19:43 05.07.2022
2743 Clouds 4 1009 91 2388 0.17 352 19:22 05.07.2022
2744 Clouds 4 1009 92 2271 1.2 354 17:47 05.07.2022
2745 Clouds 4 1009 91 2230 2 346 16:54 05.07.2022
2746 Clouds 5 1009 87 2220 2.41 345 15:25 05.07.2022
2747 Clouds 5 1009 89 2284 2.67 329 13:59 05.07.2022
2748 Clouds 5 1009 88 2238 2.58 329 12:43 05.07.2022
2749 Clouds 6 1009 87 2217 3.34 335 11:33 05.07.2022
2750 Clouds 6 1008 86 2208 3.55 330 10:40 05.07.2022
2751 Clouds 6 1008 88 1837 3.07 330 09:22 05.07.2022
2752 Clouds 6 1007 91 1508 3.02 311 07:45 05.07.2022
2753 Clouds 5 1006 98 331 3.47 288 04:49 05.07.2022
2754 Clouds 5 1006 98 119 4.29 289 04:21 05.07.2022
2755 Clouds 7 1005 97 1002 5 255 23:56 04.07.2022
2756 Clouds 8 1005 97 2714 5.86 246 23:26 04.07.2022
2757 Clouds 8 1005 97 2642 6.28 245 22:25 04.07.2022
2758 Clouds 8 1005 97 2642 6.28 245 21:30 04.07.2022
2759 Clouds 8 1005 96 2712 6.11 244 20:52 04.07.2022
2760 Clouds 8 1005 96 2712 6.11 244 20:33 04.07.2022
2761 Clouds 9 1005 96 2177 6.54 247 19:52 04.07.2022
2762 Clouds 8 1006 97 3227 6.85 248 19:34 04.07.2022
2763 Rain 10 1006 85 10000 7.44 253 17:57 04.07.2022
2764 Clouds 13 1006 68 10000 8.93 248 15:50 04.07.2022
2765 Clouds 14 1007 64 10000 10.21 251 14:54 04.07.2022
2766 Clouds 14 1009 59 10000 10.36 253 13:29 04.07.2022
2767 Clouds 14 1009 57 10000 10.2 249 12:20 04.07.2022
2768 Clouds 13 1010 58 10000 10.03 246 10:33 04.07.2022
2769 Clouds 13 1010 58 10000 9.83 242 09:40 04.07.2022
2770 Clouds 11 1013 57 10000 7.53 237 07:21 04.07.2022
2771 Clouds 8 1014 64 10000 6.99 239 03:35 04.07.2022
2772 Clouds 5 1017 74 10000 4.41 233 00:30 04.07.2022
2773 Clouds 5 1017 75 10000 3.76 233 22:58 03.07.2022
2774 Clouds 5 1018 71 10000 2.75 229 20:51 03.07.2022
2775 Clouds 6 1018 70 10000 2.47 230 20:25 03.07.2022
2776 Clouds 5 1019 73 10000 1.01 206 19:26 03.07.2022
2777 Clouds 5 1019 73 10000 1.01 206 18:32 03.07.2022
2778 Clouds 5 1019 72 10000 0.99 178 17:43 03.07.2022
2779 Clouds 3 1021 79 3834 1.66 63 15:29 03.07.2022
2780 Clouds 3 1021 79 3834 1.66 63 14:58 03.07.2022
2781 Clouds 3 1021 79 3754 1.87 47 13:59 03.07.2022
2782 Clouds 4 1021 77 3807 1.87 36 13:33 03.07.2022
2783 Clouds 4 1021 77 3768 2.38 31 12:32 03.07.2022
2784 Clouds 4 1021 78 3761 2.72 13 11:18 03.07.2022
2785 Clouds 4 1021 78 3761 2.72 13 10:38 03.07.2022
2786 Clouds 3 1021 81 3776 3.04 18 08:59 03.07.2022
2787 Clouds 3 1021 81 3699 2.74 21 07:34 03.07.2022
2788 Clouds 1 1020 92 10000 4.02 24 01:39 03.07.2022
2789 Clouds 1 1019 92 10000 3.33 18 23:50 02.07.2022
2790 Clouds 1 1019 91 10000 3.71 9 22:33 02.07.2022
2791 Clouds 1 1019 92 10000 3.52 5 20:37 02.07.2022
2792 Clouds 1 1018 92 10000 4.17 4 19:51 02.07.2022
2793 Clouds 2 1018 90 4282 4.47 357 19:19 02.07.2022
2794 Clouds 2 1018 89 3909 4.08 354 17:41 02.07.2022
2795 Clouds 2 1018 88 3934 4.04 358 16:38 02.07.2022
2796 Clouds 3 1017 88 2362 4.14 359 13:51 02.07.2022
2797 Clouds 4 1016 84 2202 3.58 7 11:52 02.07.2022
2798 Clouds 4 1015 84 2207 3.74 4 10:53 02.07.2022
2799 Clouds 4 1015 84 2207 3.74 4 10:32 02.07.2022
2800 Clouds 4 1014 84 2210 3.47 351 08:39 02.07.2022
2801 Clouds 3 1014 83 2209 3.54 352 08:19 02.07.2022
2802 Clouds 3 1014 85 2227 3.13 349 06:51 02.07.2022
2803 Clouds 2 1013 93 4022 2.85 317 00:55 02.07.2022
2804 Clouds 2 1012 95 2223 2.75 319 23:31 01.07.2022
2805 Clouds 2 1012 98 749 2.34 309 22:40 01.07.2022
2806 Clouds 2 1012 98 872 2.45 309 21:40 01.07.2022
2807 Clouds 2 1012 96 1892 2.72 309 20:59 01.07.2022
2808 Clouds 2 1012 96 1892 2.72 309 20:37 01.07.2022
2809 Clouds 2 1012 96 1883 4.53 305 19:41 01.07.2022
2810 Clouds 4 1011 90 5220 4.74 298 17:52 01.07.2022
2811 Clouds 8 1011 88 7865 5.77 283 15:26 01.07.2022
2812 Clouds 8 1011 84 10000 6.41 265 13:54 01.07.2022
2813 Clouds 9 1011 82 10000 5.66 267 13:54 01.07.2022
2814 Clouds 9 1012 73 10000 7.22 263 11:49 01.07.2022
2815 Clouds 9 1012 73 10000 8.79 265 10:20 01.07.2022
2816 Clouds 10 1012 61 10000 8.16 256 08:50 01.07.2022
2817 Clouds 6 1014 70 10000 6.05 255 03:18 01.07.2022
2818 Clouds 5 1015 76 10000 5.62 249 00:25 01.07.2022
2819 Clouds 5 1015 78 10000 4.98 241 22:56 30.06.2022
2820 Clouds 5 1015 78 10000 4.98 241 22:33 30.06.2022
2821 Clouds 5 1015 79 10000 4.88 244 21:59 30.06.2022
2822 Clouds 5 1015 79 10000 4.88 244 21:35 30.06.2022
2823 Clouds 6 1016 76 10000 5.84 245 20:22 30.06.2022
2824 Clouds 6 1016 76 10000 5.84 245 19:53 30.06.2022
2825 Clouds 6 1016 75 10000 5.8 245 19:18 30.06.2022
2826 Clouds 6 1016 75 10000 5.8 245 18:35 30.06.2022
2827 Clouds 7 1017 69 10000 5.98 249 17:38 30.06.2022
2828 Clouds 8 1017 62 10000 5.97 252 16:48 30.06.2022
2829 Clouds 9 1018 56 10000 4.47 265 15:27 30.06.2022
2830 Clouds 8 1018 55 10000 2.7 273 13:30 30.06.2022
2831 Clouds 7 1019 58 10000 0.97 286 12:35 30.06.2022
2832 Clouds 7 1019 58 10000 0.97 286 12:35 30.06.2022
2833 Clouds 5 1020 69 10000 1.37 345 11:28 30.06.2022
2834 Clouds 4 1020 73 10000 2.18 349 09:53 30.06.2022
2835 Clouds 4 1020 73 10000 2.18 349 09:32 30.06.2022
2836 Clouds 3 1020 77 10000 2.96 340 07:51 30.06.2022
2837 Clouds 3 1021 81 10000 2.76 340 05:57 30.06.2022
2838 Clouds 1 1020 93 10000 2.77 1 00:32 30.06.2022
2839 Clouds 0 1020 95 10000 3.46 6 23:21 29.06.2022
2840 Clouds 0 1020 95 10000 3.46 6 22:39 29.06.2022
2841 Clouds 0 1020 94 10000 3.7 7 21:34 29.06.2022
2842 Clouds 0 1020 94 10000 3.29 4 20:33 29.06.2022
2843 Clouds 1 1020 94 10000 4.07 359 19:37 29.06.2022
2844 Clouds 1 1020 90 10000 5.49 359 17:43 29.06.2022
2845 Clouds 1 1020 90 10000 5.07 2 16:37 29.06.2022
2846 Clouds 1 1020 91 10000 6.27 13 14:56 29.06.2022
2847 Clouds 2 1019 90 10000 6.77 9 12:40 29.06.2022
2848 Clouds 1 1018 94 10000 6.57 11 10:56 29.06.2022
2849 Clouds 1 1018 95 10000 6.72 14 09:32 29.06.2022
2850 Clouds 1 1017 94 10000 6.35 13 07:39 29.06.2022
2851 Snow 1 1017 99 589 4.77 358 04:51 29.06.2022
2852 Clouds 1 1017 90 10000 4.13 21 00:57 29.06.2022
2853 Clouds 1 1017 90 10000 4.13 21 00:35 29.06.2022
2854 Clouds 0 1017 86 10000 2.43 351 22:54 28.06.2022
2855 Clouds 0 1017 86 10000 2.43 351 22:30 28.06.2022
2856 Clouds 1 1017 78 10000 2.57 350 21:54 28.06.2022
2857 Clouds 1 1017 78 10000 2.57 350 21:54 28.06.2022
2858 Clouds 1 1017 78 10000 2.57 350 21:32 28.06.2022
2859 Clouds 1 1018 69 10000 1.72 321 20:35 28.06.2022
2860 Clouds 2 1019 72 10000 1.89 284 19:34 28.06.2022
2861 Clouds 2 1020 74 10000 2.33 305 18:46 28.06.2022
2862 Clouds 2 1021 74 10000 1.83 324 17:40 28.06.2022
2863 Clouds 2 1022 79 10000 2.78 351 15:57 28.06.2022
2864 Clouds 2 1022 79 10000 2.78 351 15:36 28.06.2022
2865 Clouds 2 1023 81 10000 4.42 11 14:20 28.06.2022
2866 Clouds 2 1023 81 10000 4.42 11 13:51 28.06.2022
2867 Clouds 2 1023 83 10000 5.04 6 12:55 28.06.2022
2868 Clouds 2 1023 81 10000 5.87 8 11:18 28.06.2022
2869 Clouds 1 1022 90 10000 5.78 11 09:29 28.06.2022
2870 Clouds 1 1022 90 10000 5.78 11 08:43 28.06.2022
2871 Clouds 1 1022 90 10000 5.98 18 07:42 28.06.2022
2872 Clouds 1 1022 91 10000 6.59 25 06:20 28.06.2022
2873 Clouds 1 1019 90 10000 8.44 30 00:56 28.06.2022
2874 Clouds 1 1019 91 10000 8.76 29 23:37 27.06.2022
2875 Clouds 1 1018 88 10000 8.55 29 22:52 27.06.2022
2876 Clouds 1 1018 88 10000 8.61 28 21:34 27.06.2022
2877 Clouds 1 1018 89 10000 8.66 25 20:52 27.06.2022
2878 Clouds 1 1017 89 10000 8.87 21 19:31 27.06.2022
2879 Clouds 1 1016 89 10000 8.79 21 18:24 27.06.2022
2880 Clouds 1 1016 90 10000 8.77 13 16:19 27.06.2022
2881 Clouds 1 1015 90 10000 8.71 12 14:46 27.06.2022
2882 Clouds 1 1015 91 10000 8.46 13 13:36 27.06.2022
2883 Clouds 1 1015 91 10000 8.4 13 12:56 27.06.2022
2884 Clouds 1 1015 92 10000 7.95 15 10:34 27.06.2022
2885 Clouds 1 1014 92 10000 7.58 11 09:18 27.06.2022
2886 Clouds 1 1014 92 10000 7.38 13 08:19 27.06.2022
2887 Clouds 1 1014 93 10000 7.37 15 06:38 27.06.2022
2888 Clouds 1 1014 95 10000 6.73 16 03:24 27.06.2022
2889 Clouds 0 1014 97 1713 5.64 1 23:55 26.06.2022
2890 Clouds 0 1014 97 10000 6.46 10 21:59 26.06.2022
2891 Clouds 0 1014 97 4334 6.56 15 20:44 26.06.2022
2892 Clouds 0 1014 97 2023 6.33 14 19:32 26.06.2022
2893 Clouds 0 1014 96 5254 5.97 10 18:30 26.06.2022
2894 Clouds 1 1014 93 10000 5.79 4 16:33 26.06.2022
2895 Clouds 0 1015 94 10000 5.7 358 14:41 26.06.2022
2896 Snow 1 1015 93 4586 6.01 356 13:38 26.06.2022
2897 Clouds 1 1015 91 10000 6.11 356 13:18 26.06.2022
2898 Clouds 1 1015 89 10000 6.25 356 11:26 26.06.2022
2899 Clouds 1 1015 87 10000 6.13 1 10:26 26.06.2022
2900 Clouds 1 1015 86 10000 6.04 2 09:19 26.06.2022
2901 Clouds 1 1015 91 10000 6.67 0 07:41 26.06.2022
2902 Clouds 1 1014 91 10000 5.75 13 01:53 26.06.2022
2903 Clouds 1 1013 91 10000 7.2 23 00:20 26.06.2022
2904 Clouds 1 1013 91 10000 7.2 23 23:41 25.06.2022
2905 Clouds 1 1013 92 10000 7.39 19 22:57 25.06.2022
2906 Clouds 1 1012 93 10000 7.29 13 22:27 25.06.2022
2907 Clouds 1 1012 93 10000 7.29 13 21:40 25.06.2022
2908 Clouds 1 1012 93 10000 7.41 12 21:18 25.06.2022
2909 Clouds 1 1012 94 10000 7.63 12 20:27 25.06.2022
2910 Clouds 1 1011 93 10000 7.59 11 19:21 25.06.2022
2911 Clouds 1 1011 93 10000 7.37 15 17:56 25.06.2022
2912 Clouds 1 1011 93 10000 7.52 16 17:22 25.06.2022
2913 Clouds 1 1010 93 10000 7.75 18 15:26 25.06.2022
2914 Clouds 1 1009 94 10000 8.5 25 13:27 25.06.2022
2915 Clouds 1 1009 94 10000 8.5 25 12:37 25.06.2022
2916 Clouds 1 1009 95 10000 8.58 26 10:34 25.06.2022
2917 Clouds 1 1008 96 10000 8.16 30 08:58 25.06.2022
2918 Clouds 1 1008 96 10000 8.16 30 08:35 25.06.2022
2919 Clouds 1 1008 97 1855 7.29 29 07:45 25.06.2022
2920 Clouds 1 1006 93 10000 7.03 28 03:33 25.06.2022
2921 Snow 1 1005 96 10000 6.15 33 00:34 25.06.2022
2922 Snow 1 1005 97 2821 5.81 35 22:53 24.06.2022
2923 Snow 1 1005 98 1990 5.39 39 21:34 24.06.2022
2924 Snow 1 1005 98 1876 5.35 44 20:44 24.06.2022
2925 Snow 1 1005 99 1658 5.46 46 20:18 24.06.2022
2926 Snow 1 1005 96 10000 5.04 30 19:20 24.06.2022
2927 Snow 1 1005 96 10000 5.04 30 18:48 24.06.2022
2928 Snow 1 1005 96 10000 5.04 30 18:30 24.06.2022
2929 Snow 1 1005 97 3811 4.54 27 17:19 24.06.2022
2930 Clouds 1 1005 97 1949 4.81 37 15:29 24.06.2022
2931 Clouds 1 1005 98 1992 5.44 36 14:26 24.06.2022
2932 Clouds 1 1005 98 287 5.26 31 13:54 24.06.2022
2933 Clouds 1 1006 98 1705 6.11 32 11:43 24.06.2022
2934 Snow 1 1006 98 1773 5.99 31 10:47 24.06.2022
2935 Snow 1 1006 98 1331 5.71 29 09:42 24.06.2022
2936 Snow 1 1006 98 1726 5.48 34 09:19 24.06.2022
2937 Snow 1 1006 98 1726 5.48 34 08:42 24.06.2022
2938 Clouds 1 1006 97 1690 5 26 06:47 24.06.2022
2939 Clouds 0 1006 97 1637 5.29 22 06:29 24.06.2022
2940 Clouds 0 1006 97 1637 5.29 22 05:51 24.06.2022
2941 Clouds 0 1007 98 1904 4.68 26 00:57 24.06.2022
2942 Clouds 0 1007 99 1972 4.17 13 22:44 23.06.2022
2943 Clouds 0 1007 98 2104 3.43 9 21:52 23.06.2022
2944 Clouds 0 1007 99 2036 3.75 11 20:53 23.06.2022
2945 Clouds 0 1008 98 2200 3.83 5 20:31 23.06.2022
2946 Clouds 0 1008 98 2261 3.94 359 18:43 23.06.2022
2947 Clouds 0 1008 98 2011 3.67 358 17:44 23.06.2022
2948 Clouds 0 1008 98 1683 4.29 342 16:34 23.06.2022
2949 Clouds 1 1008 97 1717 3.76 340 15:27 23.06.2022
2950 Clouds 1 1008 97 1717 3.76 340 14:51 23.06.2022
2951 Clouds 1 1008 97 1723 4.02 351 11:54 23.06.2022
2952 Clouds 1 1008 97 1744 4.27 346 10:56 23.06.2022
2953 Clouds 0 1007 98 1746 4.5 345 09:20 23.06.2022
2954 Clouds 0 1008 98 1651 4.05 6 05:51 23.06.2022
2955 Clouds 0 1008 98 2027 4.91 349 01:22 23.06.2022
2956 Clouds 0 1007 98 2147 4.82 354 00:25 23.06.2022
2957 Clouds 0 1007 99 1988 4.78 353 23:22 22.06.2022
2958 Clouds 0 1007 99 1867 4.48 353 21:44 22.06.2022
2959 Clouds 1 1007 99 1766 4.62 352 20:52 22.06.2022
2960 Snow 1 1007 99 1730 4.33 0 20:20 22.06.2022
2961 Snow 1 1007 99 1730 4.33 0 19:44 22.06.2022
2962 Clouds 0 1007 98 1744 5.04 3 17:50 22.06.2022
2963 Clouds 1 1007 99 760 4.99 5 16:50 22.06.2022
2964 Snow 1 1007 99 527 5.29 9 15:29 22.06.2022
2965 Snow 1 1007 99 527 5.29 9 14:57 22.06.2022
2966 Snow 1 1007 99 1325 5.06 8 13:49 22.06.2022
2967 Snow 1 1007 99 1154 5.49 20 13:24 22.06.2022
2968 Snow 1 1007 99 1154 5.49 20 12:37 22.06.2022
2969 Snow 1 1007 99 1167 5.02 18 11:46 22.06.2022
2970 Snow 1 1007 98 1696 4.57 23 10:50 22.06.2022
2971 Snow 1 1006 98 1606 4.5 27 09:42 22.06.2022
2972 Clouds 1 1006 98 1986 4.68 36 07:51 22.06.2022
2973 Clouds 1 1005 97 2404 3.76 8 02:56 22.06.2022
2974 Clouds 0 1005 98 1867 4.03 359 01:19 22.06.2022
2975 Clouds 0 1005 98 1586 4.48 3 23:19 21.06.2022
2976 Snow 0 1005 98 1688 4.59 7 21:25 21.06.2022
2977 Clouds 0 1005 98 1842 4.67 8 19:43 21.06.2022
2978 Clouds 0 1006 97 1692 4.98 13 17:56 21.06.2022
2979 Clouds 0 1006 97 1602 4.73 19 16:52 21.06.2022
2980 Clouds 1 1005 96 1658 5.26 18 12:36 21.06.2022
2981 Clouds 1 1005 95 1527 5.01 27 10:55 21.06.2022
2982 Clouds 1 1005 95 1540 5.02 30 09:39 21.06.2022
2983 Clouds 1 1005 96 1580 4.59 28 07:56 21.06.2022
2984 Clouds 1 1005 97 1484 4.21 37 05:33 21.06.2022
2985 Clouds 0 1005 98 1454 4.06 48 00:35 21.06.2022
2986 Clouds 0 1004 98 632 3.59 39 22:22 20.06.2022
2987 Clouds 0 1004 98 632 3.59 39 21:41 20.06.2022
2988 Clouds 0 1004 98 296 3.45 42 20:30 20.06.2022
2989 Clouds 1 1004 98 1478 2.6 32 19:37 20.06.2022
2990 Clouds 1 1004 97 1552 2.62 33 18:44 20.06.2022
2991 Clouds 1 1003 97 1547 2.82 32 17:50 20.06.2022
2992 Clouds 1 1003 97 1423 2.77 35 16:53 20.06.2022
2993 Clouds 1 1003 96 1368 2.87 32 15:52 20.06.2022
2994 Clouds 2 1003 95 1413 2.73 34 12:38 20.06.2022
2995 Clouds 1 1002 96 237 3.45 37 10:32 20.06.2022
2996 Clouds 2 1002 95 293 2.81 41 08:56 20.06.2022
2997 Clouds 3 1002 95 1180 2.61 58 07:53 20.06.2022
2998 Snow 2 1001 99 543 3.17 69 05:35 20.06.2022
2999 Clouds 2 1002 97 2922 3.29 70 01:33 20.06.2022
3000 Clouds 2 1002 98 6100 4.1 82 00:25 20.06.2022
3001 Clouds 2 1002 98 1655 4.19 72 22:46 19.06.2022
3002 Rain 2 1002 99 473 4.1 65 21:51 19.06.2022
3003 Rain 2 1002 99 473 4.1 65 21:31 19.06.2022
3004 Rain 2 1002 99 1397 3.53 61 20:38 19.06.2022
3005 Rain 2 1002 98 1567 3.89 64 19:47 19.06.2022
3006 Rain 3 1002 98 1466 4.57 63 18:43 19.06.2022
3007 Clouds 2 1002 97 1378 3.69 54 17:48 19.06.2022
3008 Clouds 3 1002 96 1385 4.74 55 17:22 19.06.2022
3009 Clouds 3 1002 96 1385 4.74 55 16:34 19.06.2022
3010 Clouds 3 1002 95 2272 5.28 64 15:41 19.06.2022
3011 Clouds 3 1003 95 1397 5.03 70 14:56 19.06.2022
3012 Clouds 3 1003 94 1373 5.03 60 14:19 19.06.2022
3013 Clouds 3 1003 94 1365 4.4 59 12:56 19.06.2022
3014 Clouds 4 1003 93 2213 4.38 57 10:54 19.06.2022
3015 Clouds 4 1003 93 1371 3.95 56 09:40 19.06.2022
3016 Clouds 3 1003 95 1083 3.74 63 08:47 19.06.2022
3017 Clouds 3 1003 98 439 5.75 77 07:51 19.06.2022
3018 Clouds 3 1003 98 270 5.52 79 05:36 19.06.2022
3019 Clouds 2 1005 99 92 4.57 74 01:29 19.06.2022
3020 Clouds 2 1005 99 103 4.56 77 00:24 19.06.2022
3021 Clouds 2 1005 99 103 4.56 77 23:36 18.06.2022
3022 Clouds 2 1005 99 117 4.6 70 22:36 18.06.2022
3023 Clouds 2 1005 99 143 4.38 67 20:56 18.06.2022
3024 Clouds 2 1005 99 143 4.38 67 20:38 18.06.2022
3025 Clouds 2 1007 98 1534 4.66 67 19:38 18.06.2022
3026 Clouds 2 1007 98 1681 4.59 69 18:45 18.06.2022
3027 Clouds 2 1007 98 1645 5.2 68 17:34 18.06.2022
3028 Clouds 2 1007 98 1558 5.48 67 16:47 18.06.2022
3029 Clouds 2 1007 98 1516 5.76 72 15:31 18.06.2022
3030 Clouds 3 1008 97 1512 5.96 72 14:44 18.06.2022
3031 Clouds 3 1008 96 1032 6.94 75 13:22 18.06.2022
3032 Clouds 4 1008 95 1014 6.83 79 11:39 18.06.2022
3033 Clouds 3 1008 97 224 6.52 83 10:46 18.06.2022
3034 Rain 3 1008 98 338 6.04 86 09:22 18.06.2022
3035 Rain 2 1008 98 627 6.1 86 08:24 18.06.2022
3036 Clouds 2 1009 96 2642 5.27 77 06:46 18.06.2022
3037 Clouds 1 1009 97 5693 4.94 65 03:30 18.06.2022
3038 Snow 0 1010 98 290 6.07 68 01:25 18.06.2022
3039 Snow 0 1010 98 290 6.07 68 00:46 18.06.2022
3040 Snow 0 1011 98 282 5.61 65 23:52 17.06.2022
3041 Clouds 1 1011 96 4319 5.29 70 23:20 17.06.2022
3042 Clouds 1 1011 93 10000 5.75 72 20:55 17.06.2022
3043 Clouds 1 1012 91 10000 5.46 70 19:31 17.06.2022
3044 Clouds 2 1012 86 10000 5.78 72 18:37 17.06.2022
3045 Clouds 2 1012 81 10000 6.11 82 17:43 17.06.2022
3046 Clouds 2 1012 79 10000 6.11 78 16:43 17.06.2022
3047 Clouds 2 1012 79 10000 6.11 78 16:43 17.06.2022
3048 Clouds 3 1012 77 10000 6.23 73 15:43 17.06.2022
3049 Clouds 3 1012 76 10000 6.34 76 15:20 17.06.2022
3050 Clouds 3 1012 76 10000 6.48 75 14:20 17.06.2022
3051 Clouds 3 1013 78 10000 5.86 68 13:45 17.06.2022
3052 Clouds 3 1013 78 10000 5.85 67 12:53 17.06.2022
3053 Clouds 3 1013 77 6581 5.68 72 11:57 17.06.2022
3054 Clouds 3 1013 77 6581 5.68 72 11:36 17.06.2022
3055 Clouds 3 1012 77 10000 5.44 66 10:48 17.06.2022
3056 Clouds 2 1012 79 4815 5.29 61 08:30 17.06.2022
3057 Clouds 3 1012 78 8502 4.68 72 07:30 17.06.2022
3058 Clouds 2 1013 84 5234 4.34 79 05:51 17.06.2022
3059 Clouds 1 1013 95 1406 3.43 80 02:47 17.06.2022
3060 Clouds 1 1014 97 98 2.23 56 00:42 17.06.2022
3061 Clouds 1 1014 97 98 2.23 56 00:42 17.06.2022
3062 Clouds 0 1014 97 111 1.89 55 22:45 16.06.2022
3063 Clouds 0 1014 97 181 1.61 39 21:58 16.06.2022
3064 Clouds 1 1014 97 986 1.07 14 21:18 16.06.2022
3065 Clouds 1 1014 97 986 1.07 14 20:49 16.06.2022
3066 Clouds 1 1015 95 974 1.04 7 19:57 16.06.2022
3067 Clouds 1 1014 93 981 1.67 22 18:34 16.06.2022
3068 Clouds 2 1014 90 1784 2.01 8 17:44 16.06.2022
3069 Clouds 3 1015 88 1824 2.36 355 16:46 16.06.2022
3070 Clouds 3 1015 86 2102 2.53 346 15:37 16.06.2022
3071 Clouds 3 1015 85 2193 2.45 343 15:18 16.06.2022
3072 Clouds 4 1015 84 2191 2.74 344 13:46 16.06.2022
3073 Clouds 4 1015 83 2196 2.85 349 12:38 16.06.2022
3074 Clouds 4 1015 83 1647 3.11 341 11:54 16.06.2022
3075 Clouds 4 1015 83 1500 3.27 341 11:18 16.06.2022
3076 Clouds 4 1015 83 1500 3.27 341 10:34 16.06.2022
3077 Clouds 4 1015 83 1451 2.98 331 09:26 16.06.2022
3078 Clouds 4 1015 83 1451 2.98 331 08:46 16.06.2022
3079 Clouds 4 1014 84 1471 3.13 328 07:29 16.06.2022
3080 Clouds 4 1015 87 1489 3.42 318 05:42 16.06.2022
3081 Clouds 3 1014 84 10000 2.75 309 02:54 16.06.2022
3082 Clouds 2 1014 75 10000 3.28 302 01:51 16.06.2022
3083 Clouds 2 1014 76 10000 3.42 298 01:21 16.06.2022
3084 Clear 2 1014 79 10000 3.6 291 23:56 15.06.2022
3085 Clear 2 1014 79 10000 3.6 291 23:56 15.06.2022
3086 Clear 2 1013 81 10000 3.61 288 22:45 15.06.2022
3087 Clear 2 1013 82 10000 3.47 296 21:29 15.06.2022
3088 Clear 2 1013 82 10000 3.47 296 20:57 15.06.2022
3089 Clear 2 1013 82 10000 3.47 296 20:35 15.06.2022
3090 Clear 2 1013 74 10000 3.78 304 19:49 15.06.2022
3091 Clouds 3 1013 72 10000 4.17 308 18:30 15.06.2022
3092 Clouds 3 1013 72 10000 4.17 308 17:42 15.06.2022
3093 Clouds 4 1012 73 10000 3.42 317 16:20 15.06.2022
3094 Clouds 4 1012 73 10000 4.35 322 14:33 15.06.2022
3095 Clouds 8 1011 70 10000 4.31 280 13:20 15.06.2022
3096 Clouds 8 1011 70 10000 4.31 280 12:33 15.06.2022
3097 Clouds 11 1010 67 10000 3.63 278 11:22 15.06.2022
3098 Clouds 10 1009 67 10000 2.93 256 10:21 15.06.2022
3099 Clouds 10 1009 69 10000 2.68 233 08:58 15.06.2022
3100 Clouds 9 1009 69 10000 3.46 264 07:32 15.06.2022
3101 Clouds 10 1008 62 10000 3.37 243 05:24 15.06.2022
3102 Clouds 9 1008 52 10000 3.67 194 02:31 15.06.2022
3103 Clouds 9 1008 51 10000 3.2 171 01:33 15.06.2022
3104 Clouds 8 1008 52 10000 3.13 149 23:55 14.06.2022
3105 Clouds 8 1008 52 10000 3.13 149 23:37 14.06.2022
3106 Clouds 8 1008 53 10000 3.27 140 22:45 14.06.2022
3107 Clouds 8 1008 53 10000 3.57 129 21:42 14.06.2022
3108 Clouds 7 1008 56 10000 3.01 124 20:58 14.06.2022
3109 Clouds 7 1008 56 10000 3.01 124 20:36 14.06.2022
3110 Clouds 7 1009 55 10000 3.76 111 19:32 14.06.2022
3111 Clouds 6 1009 58 10000 3.9 95 18:32 14.06.2022
3112 Clouds 7 1009 54 10000 3.46 83 16:50 14.06.2022
3113 Clouds 7 1009 52 10000 3.89 82 15:52 14.06.2022
3114 Clouds 7 1009 52 10000 3.89 82 15:34 14.06.2022
3115 Clouds 7 1009 52 10000 3.89 82 15:34 14.06.2022
3116 Clouds 7 1010 51 10000 4.01 83 14:46 14.06.2022
3117 Clouds 6 1010 54 10000 4.69 80 13:53 14.06.2022
3118 Clouds 6 1010 55 10000 5.01 77 12:55 14.06.2022
3119 Clouds 6 1010 54 10000 4.9 74 11:52 14.06.2022
3120 Clouds 6 1011 54 10000 5.04 77 10:49 14.06.2022
3121 Clouds 6 1011 54 10000 5.18 78 10:25 14.06.2022
3122 Clouds 6 1011 54 10000 5.18 78 10:25 14.06.2022
3123 Clouds 6 1011 54 10000 4.85 78 08:52 14.06.2022
3124 Clouds 6 1011 54 10000 4.58 80 07:58 14.06.2022
3125 Clouds 5 1011 57 10000 3.93 96 06:19 14.06.2022
3126 Clouds 5 1012 62 10000 3.02 111 03:36 14.06.2022
3127 Clouds 3 1012 69 10000 2.33 103 01:36 14.06.2022
3128 Clouds 2 1012 72 10000 2.65 110 23:53 13.06.2022
3129 Clouds 2 1013 76 10000 2.33 100 22:27 13.06.2022
3130 Clouds 2 1013 76 10000 2.33 100 21:59 13.06.2022
3131 Clouds 2 1013 78 10000 2.43 96 21:24 13.06.2022
3132 Clouds 2 1013 77 10000 2.81 92 19:42 13.06.2022
3133 Clouds 2 1014 75 10000 3.19 92 18:45 13.06.2022
3134 Clouds 2 1014 74 10000 3.21 82 17:52 13.06.2022
3135 Clouds 2 1014 72 10000 3.28 74 17:18 13.06.2022
3136 Clouds 3 1014 71 10000 3.5 71 15:53 13.06.2022
3137 Clouds 3 1015 70 10000 3.81 72 14:48 13.06.2022
3138 Clouds 3 1015 70 10000 4.12 75 14:18 13.06.2022
3139 Clouds 3 1015 71 10000 4.1 71 13:23 13.06.2022
3140 Clouds 3 1015 72 10000 4.03 65 11:50 13.06.2022
3141 Clouds 3 1015 72 10000 4.04 62 10:36 13.06.2022
3142 Clouds 3 1015 71 10000 4.02 63 09:42 13.06.2022
3143 Clouds 3 1015 70 10000 3.94 69 08:30 13.06.2022
3144 Clouds 2 1015 74 10000 3.65 64 06:35 13.06.2022
3145 Clear 1 1016 78 10000 2.71 46 04:23 13.06.2022
3146 Clear 1 1016 83 10000 2.61 52 01:44 13.06.2022
3147 Clear 0 1016 85 10000 2.45 50 01:18 13.06.2022
3148 Clear 0 1016 87 10000 2.21 46 23:41 12.06.2022
3149 Clear 0 1016 88 10000 2.22 33 22:34 12.06.2022
3150 Clear 0 1016 87 10000 2.29 20 21:45 12.06.2022
3151 Clear 0 1015 87 10000 2.28 25 20:49 12.06.2022
3152 Clouds 0 1016 85 10000 2.61 29 19:49 12.06.2022
3153 Clouds 1 1016 84 10000 3.11 22 18:53 12.06.2022
3154 Clouds 1 1016 80 10000 3.65 22 17:24 12.06.2022
3155 Clouds 1 1016 79 10000 3.91 20 15:44 12.06.2022
3156 Clouds 2 1016 77 10000 4.2 15 14:50 12.06.2022
3157 Clouds 2 1017 79 10000 4.49 11 14:18 12.06.2022
3158 Clouds 2 1017 79 10000 4.49 11 13:44 12.06.2022
3159 Clouds 2 1016 78 10000 4.84 8 12:22 12.06.2022
3160 Clouds 2 1016 77 10000 4.97 5 10:46 12.06.2022
3161 Clouds 2 1016 78 10000 5.12 3 09:42 12.06.2022
3162 Clouds 2 1015 79 10000 5.34 0 08:50 12.06.2022
3163 Clouds 2 1015 80 10000 5.22 360 07:52 12.06.2022
3164 Clouds 2 1015 82 10000 5.54 360 06:27 12.06.2022
3165 Clouds 1 1014 84 10000 5.88 355 03:54 12.06.2022
3166 Clouds 1 1013 85 10000 5.96 342 02:25 12.06.2022
3167 Clouds 1 1013 85 10000 5.64 345 01:35 12.06.2022
3168 Clouds 0 1013 88 10000 5.56 342 00:44 12.06.2022
3169 Clouds 0 1012 89 10000 5.31 340 00:19 12.06.2022
3170 Clouds 0 1012 89 10000 5.37 339 23:21 11.06.2022
3171 Clouds 0 1012 89 10000 5.37 339 22:37 11.06.2022
3172 Clouds 1 1011 90 10000 5.82 338 21:18 11.06.2022
3173 Snow 1 1011 93 10000 6.19 334 20:26 11.06.2022
3174 Clouds 1 1010 95 10000 6.31 334 19:36 11.06.2022
3175 Clouds 1 1010 94 10000 6.17 336 18:45 11.06.2022
3176 Clouds 1 1010 94 10000 6.24 341 18:26 11.06.2022
3177 Clouds 1 1010 94 10000 6.24 341 17:47 11.06.2022
3178 Clouds 1 1009 95 10000 6.64 336 17:26 11.06.2022
3179 Clouds 1 1009 95 10000 6.64 336 16:43 11.06.2022
3180 Clouds 1 1009 95 10000 6.59 333 16:18 11.06.2022
3181 Clouds 1 1009 96 9209 6.53 332 14:44 11.06.2022
3182 Clouds 1 1008 95 4512 6.06 335 13:52 11.06.2022
3183 Clouds 2 1007 93 2546 5.96 331 12:19 11.06.2022
3184 Clouds 2 1006 93 1573 6.29 335 10:31 11.06.2022
3185 Clouds 2 1006 93 1292 6.55 335 09:41 11.06.2022
3186 Clouds 2 1005 92 1092 6.23 328 08:38 11.06.2022
3187 Clouds 3 1005 89 2203 5.93 322 06:33 11.06.2022
3188 Clouds 3 1004 88 4831 5.54 326 05:44 11.06.2022
3189 Clouds 3 1003 85 10000 3.71 337 03:18 11.06.2022
3190 Clouds 3 1002 86 4213 3.25 334 01:51 11.06.2022
3191 Clouds 5 1002 79 10000 4.72 314 01:25 11.06.2022
3192 Clouds 11 1001 53 10000 1.91 176 23:26 10.06.2022
3193 Clouds 11 1001 52 10000 3.09 177 22:21 10.06.2022
3194 Clouds 11 1001 52 10000 3.09 177 21:44 10.06.2022
3195 Clouds 12 1001 52 10000 3.15 181 20:39 10.06.2022
3196 Clouds 11 1002 55 10000 3.09 148 20:19 10.06.2022
3197 Clouds 10 1002 62 10000 2.86 123 19:19 10.06.2022
3198 Clouds 10 1002 62 10000 2.86 123 18:32 10.06.2022
3199 Clouds 9 1003 67 10000 2.97 100 17:50 10.06.2022
3200 Clouds 9 1003 67 10000 3.03 91 17:21 10.06.2022
3201 Clouds 10 1004 64 8290 2.57 78 16:26 10.06.2022
3202 Clouds 10 1004 64 8290 2.57 78 15:38 10.06.2022
3203 Clouds 11 1005 54 10000 1.29 97 13:58 10.06.2022
3204 Clouds 11 1005 52 10000 1.47 119 12:57 10.06.2022
3205 Clouds 10 1006 53 10000 2.35 111 11:59 10.06.2022
3206 Clouds 9 1007 58 5446 3.6 97 10:45 10.06.2022
3207 Clouds 7 1008 63 5304 4.52 89 09:55 10.06.2022
3208 Clouds 7 1008 65 5400 4.97 85 08:44 10.06.2022
3209 Clouds 5 1009 71 3185 4.74 80 07:31 10.06.2022
3210 Clouds 4 1010 72 4690 4.66 85 06:45 10.06.2022
3211 Clouds 4 1010 74 4101 4.59 90 06:26 10.06.2022
3212 Clouds 3 1011 76 5762 4.09 86 04:37 10.06.2022
3213 Clouds 2 1012 80 10000 3.36 90 01:42 10.06.2022
3214 Clouds 2 1012 81 10000 3.06 84 00:40 10.06.2022
3215 Clouds 1 1013 82 10000 2.96 90 23:49 09.06.2022
3216 Clouds 1 1013 83 6483 2.96 91 22:18 09.06.2022
3217 Clouds 1 1013 83 6483 2.96 91 21:37 09.06.2022
3218 Clouds 1 1014 84 9234 3.12 92 20:58 09.06.2022
3219 Clouds 1 1014 84 5560 2.89 88 20:26 09.06.2022
3220 Clouds 2 1014 86 3479 2.63 86 19:31 09.06.2022
3221 Clouds 2 1014 85 2352 2.95 89 18:34 09.06.2022
3222 Clouds 2 1015 83 1944 2.82 77 17:18 09.06.2022
3223 Clouds 2 1015 83 2245 2.81 74 15:54 09.06.2022
3224 Clouds 2 1015 82 2252 2.72 65 14:38 09.06.2022
3225 Clouds 3 1015 81 2219 2.86 53 13:55 09.06.2022
3226 Clouds 4 1015 80 2067 2.61 53 13:29 09.06.2022
3227 Clouds 4 1015 82 2194 2.23 47 12:21 09.06.2022
3228 Clouds 3 1015 83 2195 2.24 39 11:19 09.06.2022
3229 Clouds 3 1015 84 2199 2.24 23 09:50 09.06.2022
3230 Clouds 3 1015 84 2199 2.24 23 09:31 09.06.2022
3231 Clouds 3 1014 85 2216 2.87 343 07:56 09.06.2022
3232 Clouds 3 1014 86 1683 2.89 335 06:55 09.06.2022
3233 Clouds 3 1014 87 10000 3.35 306 03:22 09.06.2022
3234 Clouds 3 1013 89 10000 4.1 304 23:49 08.06.2022
3235 Clouds 3 1013 90 10000 4.43 305 22:58 08.06.2022
3236 Clouds 3 1013 91 10000 4.93 306 22:27 08.06.2022
3237 Clouds 3 1013 91 10000 4.93 306 21:56 08.06.2022
3238 Clouds 3 1013 96 6479 4.82 303 21:23 08.06.2022
3239 Clouds 3 1013 97 304 5.03 305 20:22 08.06.2022
3240 Clouds 3 1013 97 486 4.79 306 19:39 08.06.2022
3241 Clouds 3 1013 95 979 4.84 310 18:47 08.06.2022
3242 Clouds 7 1011 82 7085 4.26 298 17:25 08.06.2022
3243 Clouds 7 1011 78 10000 4.53 300 15:52 08.06.2022
3244 Clouds 9 1010 73 10000 4.42 277 13:58 08.06.2022
3245 Clouds 13 1009 46 10000 5.3 273 12:22 08.06.2022
3246 Clouds 13 1009 46 10000 5.3 273 11:33 08.06.2022
3247 Clouds 12 1009 40 10000 2.88 136 10:20 08.06.2022
3248 Clouds 12 1010 43 10000 3.08 137 09:22 08.06.2022
3249 Clouds 12 1010 43 10000 3.08 137 08:40 08.06.2022
3250 Clouds 10 1010 48 10000 2.89 111 06:35 08.06.2022
3251 Clear 8 1010 55 10000 2.26 114 03:58 08.06.2022
3252 Clouds 6 1011 59 10000 2.23 116 00:45 08.06.2022
3253 Clouds 6 1011 59 10000 1.61 110 23:29 07.06.2022
3254 Clouds 6 1011 59 10000 1.61 110 22:45 07.06.2022
3255 Clouds 5 1011 60 10000 1.32 105 22:26 07.06.2022
3256 Clouds 5 1011 60 10000 1.32 105 21:35 07.06.2022
3257 Clouds 5 1011 63 10000 1.48 109 20:58 07.06.2022
3258 Clouds 5 1011 63 10000 1.48 109 20:32 07.06.2022
3259 Clouds 5 1012 65 10000 1.15 97 19:45 07.06.2022
3260 Clouds 5 1011 66 10000 0.97 58 18:24 07.06.2022
3261 Clouds 5 1011 68 10000 1.28 52 17:27 07.06.2022
3262 Clouds 5 1011 68 10000 1.28 52 16:43 07.06.2022
3263 Clouds 6 1011 66 10000 1.94 30 15:54 07.06.2022
3264 Clouds 7 1011 58 10000 2.4 6 15:26 07.06.2022
3265 Clouds 7 1011 58 10000 2.4 6 14:50 07.06.2022
3266 Clouds 7 1011 58 10000 2.4 6 14:32 07.06.2022
3267 Clouds 9 1011 51 10000 2.71 329 13:31 07.06.2022
3268 Clouds 9 1011 50 10000 2.7 318 12:49 07.06.2022
3269 Clouds 9 1011 50 10000 2.84 316 11:47 07.06.2022
3270 Clouds 9 1011 51 10000 3.07 306 10:26 07.06.2022
3271 Clouds 9 1011 50 10000 2.98 299 08:49 07.06.2022
3272 Clouds 10 1011 48 10000 3.53 288 07:34 07.06.2022
3273 Clouds 8 1011 52 10000 3.46 280 06:18 07.06.2022
3274 Clouds 7 1011 60 10000 3.5 262 03:31 07.06.2022
3275 Clouds 7 1011 60 10000 3.5 262 03:31 07.06.2022
3276 Clouds 6 1012 57 10000 2.33 228 00:45 07.06.2022
3277 Clouds 6 1013 57 10000 1.97 223 23:41 06.06.2022
3278 Clouds 6 1013 58 10000 1.58 233 22:47 06.06.2022
3279 Clouds 6 1013 58 10000 1.53 250 21:57 06.06.2022
3280 Clouds 6 1014 58 10000 1.76 252 20:42 06.06.2022
3281 Clouds 7 1014 58 10000 2.31 261 19:24 06.06.2022
3282 Clouds 7 1014 58 10000 2.31 261 18:47 06.06.2022
3283 Clouds 7 1015 59 10000 2.13 272 17:55 06.06.2022
3284 Clouds 7 1015 60 10000 1.87 304 16:55 06.06.2022
3285 Clouds 7 1016 55 10000 2.23 307 15:45 06.06.2022
3286 Clouds 7 1016 54 10000 1.2 309 14:59 06.06.2022
3287 Clouds 7 1017 54 10000 1.37 311 13:43 06.06.2022
3288 Clouds 7 1017 54 10000 1.89 299 13:19 06.06.2022
3289 Clouds 7 1017 54 10000 1.89 299 12:33 06.06.2022
3290 Clouds 7 1017 56 10000 2.23 305 11:45 06.06.2022
3291 Clouds 8 1017 54 10000 1.71 307 09:53 06.06.2022
3292 Clouds 7 1017 52 10000 1.38 298 08:57 06.06.2022
3293 Clouds 7 1017 54 10000 1.09 270 08:28 06.06.2022
3294 Clouds 6 1018 55 10000 1.2 246 07:19 06.06.2022
3295 Clouds 5 1019 61 10000 1.75 218 04:38 06.06.2022
3296 Clouds 3 1020 72 10000 2.45 151 01:53 06.06.2022
3297 Clouds 2 1020 71 10000 2.48 147 00:57 06.06.2022
3298 Clouds 2 1020 71 10000 2.48 147 00:34 06.06.2022
3299 Clouds 2 1021 73 10000 2.74 133 22:59 05.06.2022
3300 Clouds 2 1021 73 10000 2.93 125 22:21 05.06.2022
3301 Clouds 2 1022 72 10000 3.24 120 20:24 05.06.2022
3302 Clouds 2 1023 73 10000 3.5 103 19:23 05.06.2022
3303 Clouds 2 1023 74 10000 4.04 97 18:19 05.06.2022
3304 Clouds 2 1023 74 10000 4.04 97 17:39 05.06.2022
3305 Clouds 2 1023 74 10000 4.23 86 17:20 05.06.2022
3306 Clouds 2 1023 74 10000 4.23 86 16:47 05.06.2022
3307 Clouds 3 1024 67 10000 4.61 84 15:28 05.06.2022
3308 Clouds 3 1024 66 10000 4.77 83 14:21 05.06.2022
3309 Clouds 3 1025 68 10000 5.07 80 11:59 05.06.2022
3310 Clouds 3 1025 67 10000 5.16 78 10:45 05.06.2022
3311 Clouds 3 1025 67 10000 4.93 80 10:24 05.06.2022
3312 Clouds 3 1025 67 10000 4.93 80 09:42 05.06.2022
3313 Clouds 2 1026 72 10000 4.84 85 08:23 05.06.2022
3314 Clear 1 1026 74 10000 5.03 93 06:25 05.06.2022
3315 Clouds 0 1027 77 10000 4.95 93 05:19 05.06.2022
3316 Clouds -1 1027 82 10000 4.2 99 02:47 05.06.2022
3317 Clouds -1 1027 86 10000 4.91 98 01:24 05.06.2022
3318 Clouds -1 1027 87 10000 4.83 96 23:36 04.06.2022
3319 Clouds -2 1028 87 10000 4.8 87 21:30 04.06.2022
3320 Clouds -1 1029 87 10000 4.84 84 19:36 04.06.2022
3321 Clouds -1 1029 86 10000 5.01 70 17:21 04.06.2022
3322 Clouds 0 1030 85 10000 5.53 69 16:20 04.06.2022
3323 Clouds 0 1030 85 10000 5.53 69 15:45 04.06.2022
3324 Clouds 0 1030 86 10000 5.36 70 14:18 04.06.2022
3325 Clouds 0 1031 86 10000 5.41 63 11:43 04.06.2022
3326 Clouds -1 1031 88 10000 5.46 62 10:55 04.06.2022
3327 Clouds -1 1031 89 10000 5.05 58 09:59 04.06.2022
3328 Clouds -1 1031 89 10000 5.05 58 09:38 04.06.2022
3329 Clouds -1 1031 91 10000 5.07 57 08:39 04.06.2022
3330 Clouds -1 1032 92 10000 5.06 58 07:00 04.06.2022
3331 Clouds -1 1032 94 10000 5.18 51 04:29 04.06.2022
3332 Clouds -2 1033 92 10000 4.8 41 00:24 04.06.2022
3333 Clouds -2 1033 92 10000 4.65 37 23:19 03.06.2022
3334 Clouds -2 1033 91 10000 4.61 37 22:20 03.06.2022
3335 Clouds -2 1034 91 10000 4.59 42 20:42 03.06.2022
3336 Clouds -2 1034 91 10000 4.59 42 20:42 03.06.2022
3337 Clouds -2 1034 90 10000 4.97 41 19:58 03.06.2022
3338 Clouds -1 1035 87 10000 6 37 16:59 03.06.2022
3339 Clouds -1 1035 87 10000 6 37 16:30 03.06.2022
3340 Clouds -1 1035 88 10000 6.41 31 14:47 03.06.2022
3341 Clear -1 1034 85 10000 6.94 24 12:26 03.06.2022
3342 Clear -1 1034 85 10000 6.89 15 10:18 03.06.2022
3343 Clear -1 1034 85 10000 6.65 15 09:29 03.06.2022
3344 Clear -1 1034 85 10000 6.63 16 07:53 03.06.2022
3345 Clear -1 1034 85 10000 6.6 13 07:19 03.06.2022
3346 Clear -1 1034 85 10000 6.6 13 06:30 03.06.2022
3347 Clear -2 1034 87 10000 6.55 7 04:40 03.06.2022
3348 Clouds -2 1033 89 10000 6.37 5 00:22 03.06.2022
3349 Clouds -2 1033 91 10000 6.24 4 22:35 02.06.2022
3350 Clouds -2 1033 91 10000 5.65 4 20:58 02.06.2022
3351 Clear -2 1033 89 10000 6.13 2 19:59 02.06.2022
3352 Clear -2 1033 89 10000 6.13 2 19:41 02.06.2022
3353 Clear -2 1033 88 10000 5.94 6 19:18 02.06.2022
3354 Clear -1 1033 85 10000 5.72 9 16:30 02.06.2022
3355 Clear -1 1033 83 10000 5.71 10 15:58 02.06.2022
3356 Clear -1 1033 82 10000 6.05 5 13:38 02.06.2022
3357 Clear -1 1032 81 10000 6.18 8 13:20 02.06.2022
3358 Clear -1 1032 79 10000 6.34 6 10:53 02.06.2022
3359 Clear -1 1031 79 10000 6.41 7 10:19 02.06.2022
3360 Clear -2 1031 79 10000 6.49 7 09:27 02.06.2022
3361 Clear -2 1031 79 10000 6.68 7 08:25 02.06.2022
3362 Clear -2 1030 77 10000 6.85 7 06:50 02.06.2022
3363 Clear -2 1030 81 10000 6.23 12 03:54 02.06.2022
3364 Clouds -2 1030 83 10000 6.07 16 02:22 02.06.2022
3365 Clouds -2 1029 90 10000 5.12 11 23:36 01.06.2022
3366 Clouds -1 1029 88 10000 4.31 5 22:21 01.06.2022
3367 Clouds -1 1028 87 10000 3.98 358 21:26 01.06.2022
3368 Clouds -1 1028 87 10000 3.98 358 20:39 01.06.2022
3369 Clouds -1 1028 87 10000 3.8 2 19:52 01.06.2022
3370 Clouds 0 1028 86 10000 3.94 4 18:52 01.06.2022
3371 Clouds 0 1028 85 10000 3.97 359 17:40 01.06.2022
3372 Clouds 0 1029 84 10000 3.78 359 16:22 01.06.2022
3373 Clouds 0 1029 84 10000 3.86 1 14:51 01.06.2022
3374 Clouds 0 1029 85 10000 4.12 1 13:44 01.06.2022
3375 Clouds 0 1029 87 10000 3.88 357 11:41 01.06.2022
3376 Clouds 0 1029 89 10000 4.09 355 09:34 01.06.2022
3377 Clouds 0 1028 89 10000 4.43 355 08:28 01.06.2022
3378 Clouds 0 1028 81 10000 5.19 1 07:21 01.06.2022
3379 Clouds 0 1027 80 10000 4.66 17 04:58 01.06.2022
3380 Clouds 0 1025 84 10000 7.1 43 23:57 31.05.2022
3381 Clouds -1 1025 95 10000 5.06 35 22:51 31.05.2022
3382 Clouds -1 1024 93 10000 5.12 39 22:29 31.05.2022
3383 Clouds -1 1024 93 10000 5.12 39 21:45 31.05.2022
3384 Clouds 0 1024 93 10000 5.08 42 20:44 31.05.2022
3385 Clouds 0 1023 93 10000 4.71 41 19:52 31.05.2022
3386 Clouds 0 1023 92 10000 4.63 30 18:44 31.05.2022
3387 Clouds 1 1022 90 10000 3.54 7 17:49 31.05.2022
3388 Clouds 2 1021 86 10000 3.53 334 16:48 31.05.2022
3389 Clear 3 1021 83 10000 3.98 310 15:40 31.05.2022
3390 Clear 5 1021 79 10000 5.3 268 13:37 31.05.2022
3391 Clear 4 1021 85 10000 4.51 259 12:19 31.05.2022
3392 Clear 4 1021 85 10000 3.89 261 10:52 31.05.2022
3393 Clear 2 1022 87 10000 3.15 265 08:37 31.05.2022
3394 Clouds 2 1022 74 10000 3.59 290 06:52 31.05.2022
3395 Clouds 1 1022 78 10000 2.78 298 04:34 31.05.2022
3396 Clouds -1 1023 84 10000 1.91 325 23:49 30.05.2022
3397 Clouds -1 1023 84 10000 1.46 334 23:25 30.05.2022
3398 Clouds -1 1023 84 10000 1.46 334 22:42 30.05.2022
3399 Clouds -1 1023 85 10000 1.1 15 21:47 30.05.2022
3400 Clouds -1 1023 85 10000 1.69 26 21:29 30.05.2022
3401 Clouds -1 1023 86 10000 1.47 29 19:51 30.05.2022
3402 Clouds 0 1023 85 10000 1.76 46 18:26 30.05.2022
3403 Clouds 0 1023 84 10000 1.96 44 17:23 30.05.2022
3404 Clouds 0 1023 84 10000 1.96 44 16:36 30.05.2022
3405 Clouds 0 1023 85 10000 2.96 77 13:44 30.05.2022
3406 Clouds 0 1023 87 10000 4.3 68 11:54 30.05.2022
3407 Clouds 0 1022 90 10000 4.7 74 10:20 30.05.2022
3408 Clouds 0 1022 91 10000 4.81 77 09:18 30.05.2022
3409 Clouds 0 1021 84 10000 5.76 73 06:28 30.05.2022
3410 Clouds 0 1021 87 10000 6.02 82 04:52 30.05.2022
3411 Clouds -1 1022 92 10000 6.24 73 01:30 30.05.2022
3412 Clear -1 1021 92 10000 6.55 78 22:49 29.05.2022
3413 Clouds -1 1021 92 10000 6.95 75 22:29 29.05.2022
3414 Clear -1 1021 91 10000 7.2 76 20:38 29.05.2022
3415 Clear 0 1021 91 10000 7.4 77 19:30 29.05.2022
3416 Clear 0 1021 90 10000 7.58 77 18:34 29.05.2022
3417 Clear 0 1021 88 10000 8.14 77 16:40 29.05.2022
3418 Clear 1 1020 87 10000 8.55 78 15:47 29.05.2022
3419 Clear 1 1020 87 10000 8.88 77 14:55 29.05.2022
3420 Clear 1 1020 86 10000 9.3 74 13:18 29.05.2022
3421 Clear 1 1020 84 10000 9.71 77 11:20 29.05.2022
3422 Clear 1 1020 84 10000 9.71 77 10:37 29.05.2022
3423 Clear 0 1020 84 10000 9.94 78 08:36 29.05.2022
3424 Clear 2 1019 79 10000 9.26 82 04:59 29.05.2022
3425 Clear 2 1019 79 10000 9.26 82 04:39 29.05.2022
3426 Clouds 1 1020 86 10000 7.97 85 01:52 29.05.2022
3427 Clouds 1 1020 84 10000 7.6 88 23:48 28.05.2022
3428 Clouds 2 1020 83 10000 7.58 89 23:20 28.05.2022
3429 Clouds 2 1020 82 10000 7.61 89 22:21 28.05.2022
3430 Clouds 3 1019 80 10000 7.37 92 21:19 28.05.2022
3431 Clouds 3 1019 80 10000 7.37 92 21:19 28.05.2022
3432 Clouds 4 1019 75 10000 7.7 94 19:21 28.05.2022
3433 Clouds 4 1019 75 10000 7.7 94 18:40 28.05.2022
3434 Clouds 4 1019 75 10000 8.15 92 17:33 28.05.2022
3435 Clouds 5 1018 78 10000 7.86 84 16:22 28.05.2022
3436 Clouds 5 1018 78 10000 7.86 84 15:38 28.05.2022
3437 Clouds 5 1017 85 10000 6.58 82 13:42 28.05.2022
3438 Clouds 5 1017 88 10000 5.69 79 12:43 28.05.2022
3439 Clouds 4 1017 93 10000 4.49 76 11:50 28.05.2022
3440 Clouds 3 1017 96 10000 3.95 73 10:41 28.05.2022
3441 Clouds 3 1017 97 1559 3.64 72 09:55 28.05.2022
3442 Clouds 3 1016 99 1396 3.07 69 08:39 28.05.2022
3443 Clouds 4 1016 93 2429 2.57 64 06:53 28.05.2022
3444 Clouds 4 1015 98 2110 1.21 49 05:24 28.05.2022
3445 Clouds 3 1014 95 10000 1.12 186 02:27 28.05.2022
3446 Clouds 3 1013 92 10000 2.54 105 00:18 28.05.2022
3447 Clouds 3 1012 92 10000 3.67 100 22:49 27.05.2022
3448 Clouds 3 1012 91 10000 4.42 96 21:35 27.05.2022
3449 Clouds 3 1011 91 10000 5.15 93 20:46 27.05.2022
3450 Clouds 3 1011 92 10000 5.2 88 20:21 27.05.2022
3451 Clouds 3 1012 93 10000 4.23 88 19:38 27.05.2022
3452 Clouds 3 1012 94 10000 4.24 87 19:20 27.05.2022
3453 Clouds 3 1012 95 10000 3.97 78 17:26 27.05.2022
3454 Clouds 3 1012 96 10000 4.11 86 15:57 27.05.2022
3455 Clouds 2 1012 96 10000 4.42 76 14:58 27.05.2022
3456 Clouds 2 1012 96 10000 4.24 75 13:41 27.05.2022
3457 Clouds 2 1012 97 1504 4.18 71 12:20 27.05.2022
3458 Clouds 2 1012 97 1504 4.18 71 11:31 27.05.2022
3459 Clouds 2 1012 97 1477 3.84 77 10:43 27.05.2022
3460 Clouds 1 1013 97 2125 4.38 85 09:59 27.05.2022
3461 Clouds 1 1013 97 2125 4.38 85 09:31 27.05.2022
3462 Clouds 1 1012 95 10000 4.28 83 07:40 27.05.2022
3463 Clouds 2 1013 95 10000 4.01 82 04:58 27.05.2022
3464 Clouds 1 1013 93 10000 4.6 85 01:38 27.05.2022
3465 Clouds 1 1013 94 10000 4.69 89 23:31 26.05.2022
3466 Clouds 1 1013 93 10000 6.77 91 22:22 26.05.2022
3467 Clouds 1 1013 93 10000 6.77 91 21:32 26.05.2022
3468 Clouds 1 1015 93 10000 7.64 87 19:39 26.05.2022
3469 Clouds 1 1015 93 10000 7.55 91 18:52 26.05.2022
3470 Clouds 2 1015 93 10000 7.75 86 17:36 26.05.2022
3471 Clouds 1 1016 93 10000 8.39 86 16:30 26.05.2022
3472 Clouds 1 1017 92 10000 8.76 84 15:28 26.05.2022
3473 Clouds 2 1018 92 10000 8.23 84 14:20 26.05.2022
3474 Clouds 2 1018 93 10000 8.34 87 12:18 26.05.2022
3475 Clouds 1 1019 93 10000 8.34 87 11:21 26.05.2022
3476 Clouds 1 1019 92 10000 8.2 89 09:39 26.05.2022
3477 Clouds 1 1020 91 10000 8.33 84 08:48 26.05.2022
3478 Clouds 2 1020 87 10000 7.98 87 06:47 26.05.2022
3479 Clouds 1 1022 98 242 6.82 95 02:51 26.05.2022
3480 Clouds 0 1024 98 397 5.34 98 23:58 25.05.2022
3481 Clouds 0 1024 98 1062 5.25 97 22:58 25.05.2022
3482 Clouds 0 1024 98 10000 5.02 95 21:44 25.05.2022
3483 Clouds 0 1024 98 5127 5.02 92 20:50 25.05.2022
3484 Clouds 0 1024 98 3001 4.86 89 19:56 25.05.2022
3485 Clouds 0 1025 97 10000 4.42 85 18:48 25.05.2022
3486 Clouds 1 1024 97 10000 4.48 81 17:26 25.05.2022
3487 Clouds 1 1024 97 10000 4.48 81 16:34 25.05.2022
3488 Clouds 1 1025 98 3999 4.77 82 15:49 25.05.2022
3489 Clouds 1 1025 97 2324 4.66 79 14:51 25.05.2022
3490 Clouds 1 1025 97 2324 4.66 79 14:32 25.05.2022
3491 Clouds 2 1024 96 10000 4.31 94 13:27 25.05.2022
3492 Clouds 2 1024 98 10000 4.24 96 11:51 25.05.2022
3493 Clouds 1 1024 99 10000 4.32 96 10:42 25.05.2022
3494 Clouds 1 1024 99 1634 4.37 94 09:46 25.05.2022
3495 Clouds 1 1024 97 2288 4.47 93 08:21 25.05.2022
3496 Clouds 1 1024 95 10000 4.54 99 06:37 25.05.2022
3497 Clouds 0 1023 95 10000 5.01 104 02:46 25.05.2022
3498 Clouds -1 1022 96 10000 4.68 89 23:52 24.05.2022
3499 Clouds -1 1022 97 10000 4.32 85 23:23 24.05.2022
3500 Clouds -1 1021 96 10000 4.13 86 22:18 24.05.2022
3501 Clouds -1 1021 96 10000 4.13 86 21:38 24.05.2022
3502 Clouds -1 1021 96 10000 4.33 91 21:19 24.05.2022
3503 Clouds -1 1021 96 10000 4.31 93 19:32 24.05.2022
3504 Clouds 0 1020 95 10000 4.81 93 18:40 24.05.2022
3505 Clouds 0 1019 94 10000 5.52 91 16:40 24.05.2022
3506 Clouds 0 1019 94 10000 5.86 85 15:54 24.05.2022
3507 Clouds 0 1019 93 10000 6.06 85 14:45 24.05.2022
3508 Clouds 0 1019 92 5093 6.34 85 13:48 24.05.2022
3509 Clouds -1 1018 91 7410 6.45 85 12:42 24.05.2022
3510 Clouds -1 1017 89 10000 7.61 85 10:18 24.05.2022
3511 Clouds -1 1017 89 10000 7.61 85 09:41 24.05.2022
3512 Clouds -1 1016 89 10000 7.56 83 08:43 24.05.2022
3513 Clouds -1 1015 89 10000 7.65 85 06:45 24.05.2022
3514 Clouds -3 1015 92 7892 8.41 75 03:48 24.05.2022
3515 Snow -3 1014 95 609 8.52 74 01:49 24.05.2022
3516 Snow -3 1013 95 481 8.96 73 00:57 24.05.2022
3517 Clouds -2 1012 94 2915 10.03 71 22:29 23.05.2022
3518 Clouds -2 1012 94 2915 10.03 71 21:53 23.05.2022
3519 Snow -2 1012 95 563 10.58 69 20:59 23.05.2022
3520 Snow -1 1012 92 1874 11.25 68 20:26 23.05.2022
3521 Clouds -1 1012 92 4679 10.96 68 19:31 23.05.2022
3522 Clouds -1 1012 91 9375 11.27 69 18:43 23.05.2022
3523 Clouds -1 1012 91 10000 11.45 69 18:22 23.05.2022
3524 Clouds 0 1012 89 10000 11.64 67 16:51 23.05.2022
3525 Clouds 0 1013 88 10000 12.15 70 14:49 23.05.2022
3526 Clouds 0 1013 88 10000 12.87 68 12:30 23.05.2022
3527 Clouds -1 1013 89 10000 13.06 68 11:26 23.05.2022
3528 Clouds -1 1013 88 10000 13.1 66 09:50 23.05.2022
3529 Clouds -1 1014 88 10000 12.83 64 09:23 23.05.2022
3530 Clouds -1 1013 89 10000 12.51 65 07:48 23.05.2022
3531 Clouds -1 1014 89 10000 12.2 63 06:45 23.05.2022
3532 Clouds -2 1015 90 10000 11.51 64 05:21 23.05.2022
3533 Clouds -3 1016 87 10000 10.79 57 02:19 23.05.2022
3534 Clouds -3 1017 87 10000 10.65 59 01:36 23.05.2022
3535 Clouds -3 1017 87 10000 10.1 58 23:42 22.05.2022
3536 Clouds -3 1018 88 10000 9.75 55 22:35 22.05.2022
3537 Clouds -2 1018 88 10000 8.85 58 21:55 22.05.2022
3538 Clouds -2 1018 90 10000 8.83 56 20:53 22.05.2022
3539 Clouds -2 1019 89 9727 8.44 60 20:27 22.05.2022
3540 Clouds -2 1019 88 10000 8.26 60 19:56 22.05.2022
3541 Clouds -2 1019 87 10000 8 61 18:55 22.05.2022
3542 Clouds -2 1019 84 10000 8.33 61 18:24 22.05.2022
3543 Clouds -2 1019 84 10000 8.33 61 17:32 22.05.2022
3544 Clouds -1 1019 87 10000 7.85 52 16:25 22.05.2022
3545 Clouds -1 1019 85 10000 7.74 54 14:48 22.05.2022
3546 Clouds -1 1020 82 10000 7.61 57 13:45 22.05.2022
3547 Clouds -1 1020 83 10000 7.53 54 12:50 22.05.2022
3548 Clouds -2 1019 82 10000 7.57 51 11:42 22.05.2022
3549 Clouds -2 1019 80 10000 7.09 46 09:43 22.05.2022
3550 Clouds -2 1019 81 10000 6.73 44 08:37 22.05.2022
3551 Clouds -3 1019 84 10000 6.34 38 07:22 22.05.2022
3552 Clouds -3 1020 83 10000 6.03 39 05:44 22.05.2022
3553 Clouds -3 1020 87 10000 4.51 38 01:43 22.05.2022
3554 Clouds -3 1019 88 10000 4.45 35 00:43 22.05.2022
3555 Clouds -3 1019 88 9313 4.17 38 23:55 21.05.2022
3556 Clouds -3 1019 88 9534 4.39 34 22:57 21.05.2022
3557 Clouds -3 1019 87 9240 4.75 30 21:43 21.05.2022
3558 Clouds -3 1019 86 8853 5.11 28 21:23 21.05.2022
3559 Clouds -3 1019 86 10000 5.25 26 20:24 21.05.2022
3560 Clouds -3 1019 85 6505 5.08 29 19:30 21.05.2022
3561 Clouds -3 1018 85 10000 5.47 25 17:51 21.05.2022
3562 Clouds -2 1018 82 10000 5.68 21 16:46 21.05.2022
3563 Clouds -2 1017 80 10000 6.29 19 14:38 21.05.2022
3564 Clouds -2 1017 80 10000 6.72 21 13:52 21.05.2022
3565 Clouds -2 1016 80 10000 6.82 20 12:50 21.05.2022
3566 Clouds -2 1016 80 10000 6.69 19 12:26 21.05.2022
3567 Clouds -2 1016 81 10000 6.35 19 10:34 21.05.2022
3568 Clouds -2 1015 81 10000 6.33 19 09:44 21.05.2022
3569 Clouds -2 1015 80 10000 6.29 17 08:57 21.05.2022
3570 Clouds -2 1015 82 10000 6.55 14 07:54 21.05.2022
3571 Clouds -2 1013 91 2183 6.97 21 04:29 21.05.2022
3572 Clouds -2 1011 94 4090 6.79 20 23:54 20.05.2022
3573 Clouds -2 1011 95 2541 7.06 19 22:57 20.05.2022
3574 Clouds -1 1011 95 1942 6.72 15 22:24 20.05.2022
3575 Clouds -1 1011 95 1942 6.72 15 21:43 20.05.2022
3576 Clouds -1 1011 93 5163 5.91 13 20:56 20.05.2022
3577 Clouds -1 1011 93 7989 5.66 8 19:59 20.05.2022
3578 Clouds -1 1011 92 10000 5.48 8 19:26 20.05.2022
3579 Clouds -1 1011 92 10000 5.48 8 18:46 20.05.2022
3580 Clouds -1 1011 90 10000 5.16 12 17:24 20.05.2022
3581 Clouds -1 1010 88 10000 5.39 10 16:19 20.05.2022
3582 Clouds -1 1010 88 10000 5.39 10 15:47 20.05.2022
3583 Clouds -1 1010 87 10000 5.12 19 14:30 20.05.2022
3584 Clouds -1 1010 87 10000 5.2 20 13:55 20.05.2022
3585 Clouds -1 1010 92 10000 4.54 357 11:34 20.05.2022
3586 Clouds -1 1010 86 10000 4.03 347 09:52 20.05.2022
3587 Clouds 0 1010 83 10000 3.35 338 08:44 20.05.2022
3588 Clouds -1 1009 79 10000 2.93 321 07:18 20.05.2022
3589 Clouds -1 1009 79 10000 2.93 321 06:32 20.05.2022
3590 Clouds -1 1009 83 10000 2.43 286 04:42 20.05.2022
3591 Clouds -4 1009 93 10000 2.35 245 00:48 20.05.2022
3592 Clouds -4 1009 95 10000 2.59 245 22:47 19.05.2022
3593 Clouds -4 1009 95 10000 2.76 235 22:19 19.05.2022
3594 Clouds -4 1009 95 10000 2.76 235 21:42 19.05.2022
3595 Clouds -3 1010 95 10000 2.88 228 21:22 19.05.2022
3596 Clouds -3 1010 95 10000 2.88 228 20:34 19.05.2022
3597 Clouds -3 1009 95 10000 2.61 240 19:50 19.05.2022
3598 Clouds -1 1009 92 10000 3.22 241 18:22 19.05.2022
3599 Clouds 0 1009 90 10000 3.26 246 16:35 19.05.2022
3600 Clouds 0 1009 87 10000 4.05 248 14:52 19.05.2022
3601 Clear 0 1009 86 10000 4.26 242 14:24 19.05.2022
3602 Clouds 1 1009 86 10000 4.07 241 13:20 19.05.2022
3603 Clouds 0 1009 87 10000 4.33 233 11:25 19.05.2022
3604 Clouds 0 1009 88 10000 4.48 229 09:27 19.05.2022
3605 Clouds -1 1008 89 10000 5.17 229 07:50 19.05.2022
3606 Clouds -2 1008 93 10000 5.69 228 05:32 19.05.2022
3607 Clouds -4 1007 94 10000 5.62 225 01:59 19.05.2022
3608 Clouds -4 1007 93 10000 5.84 232 23:57 18.05.2022
3609 Clouds -4 1006 93 10000 6.12 234 22:47 18.05.2022
3610 Clouds -3 1006 93 10000 6.23 235 21:51 18.05.2022
3611 Clouds -3 1006 93 10000 6.37 237 21:29 18.05.2022
3612 Clouds -3 1006 93 10000 6.37 237 20:41 18.05.2022
3613 Clouds -2 1006 92 10000 6.65 237 20:18 18.05.2022
3614 Clouds -1 1005 88 10000 6.99 246 18:28 18.05.2022
3615 Clouds -1 1005 88 10000 6.99 246 17:41 18.05.2022
3616 Clouds 0 1005 81 10000 7.23 250 17:23 18.05.2022
3617 Clouds 0 1005 81 10000 7.23 250 16:31 18.05.2022
3618 Clouds 0 1005 76 10000 7.73 253 15:41 18.05.2022
3619 Clouds 0 1004 74 10000 8.26 256 14:35 18.05.2022
3620 Clouds 0 1004 75 10000 8.69 259 13:35 18.05.2022
3621 Clouds 0 1004 78 10000 9.2 262 12:42 18.05.2022
3622 Clouds 0 1003 80 10000 9.57 265 11:34 18.05.2022
3623 Clouds 0 1002 81 10000 9.8 266 10:56 18.05.2022
3624 Clouds 0 1001 85 10000 9.63 265 09:24 18.05.2022
3625 Clouds -1 1000 84 10000 9.39 268 07:32 18.05.2022
3626 Clouds -1 999 87 10000 9.18 270 05:34 18.05.2022
3627 Clouds -2 997 89 10000 9.64 270 01:20 18.05.2022
3628 Clouds -2 997 90 10000 9.47 267 00:21 18.05.2022
3629 Clouds -1 996 93 3306 8.77 263 21:39 17.05.2022
3630 Clouds -1 996 94 1379 8.28 261 21:19 17.05.2022
3631 Clouds -1 995 94 1254 8.74 257 19:52 17.05.2022
3632 Clouds -1 995 93 3509 8.59 255 19:27 17.05.2022
3633 Clouds 0 995 93 6834 8.1 258 17:50 17.05.2022
3634 Clouds 0 995 94 1114 7.8 258 16:58 17.05.2022
3635 Clouds 0 995 95 1339 7.7 257 16:29 17.05.2022
3636 Clouds 0 995 95 1067 7.88 257 15:24 17.05.2022
3637 Clouds 0 995 95 1067 7.88 257 14:30 17.05.2022
3638 Clouds 0 996 98 473 7.23 259 13:32 17.05.2022
3639 Clouds 0 996 99 53 6.58 253 11:37 17.05.2022
3640 Clouds 0 995 99 139 7.04 274 09:23 17.05.2022
3641 Clouds 0 995 99 227 7 278 08:25 17.05.2022
3642 Snow 0 994 99 171 6.44 283 06:46 17.05.2022
3643 Clouds -1 994 97 1739 6.19 284 03:20 17.05.2022
3644 Snow -1 994 98 156 5.81 290 00:36 17.05.2022
3645 Snow -1 994 98 143 5.64 300 22:42 16.05.2022
3646 Snow -1 994 98 156 5.41 302 21:37 16.05.2022
3647 Snow -1 994 98 284 5.24 304 20:46 16.05.2022
3648 Snow -1 994 99 160 4.83 312 19:43 16.05.2022
3649 Snow 0 994 99 118 4.3 302 18:20 16.05.2022
3650 Snow 0 994 99 80 3.08 279 15:49 16.05.2022
3651 Clouds 0 994 100 112 2.26 298 13:49 16.05.2022
3652 Snow 0 994 100 77 2.37 296 13:23 16.05.2022
3653 Snow 0 994 100 120 2.22 303 11:20 16.05.2022
3654 Snow 0 994 100 292 2.51 302 09:30 16.05.2022
3655 Snow 0 993 100 174 2.04 314 06:47 16.05.2022
3656 Snow 0 994 100 104 2.58 348 03:31 16.05.2022
3657 Clouds 0 994 100 71 1.97 47 23:30 15.05.2022
3658 Clouds 0 995 100 67 1.97 58 22:29 15.05.2022
3659 Clouds 0 995 100 67 1.97 58 21:44 15.05.2022
3660 Clouds 0 996 100 66 1.97 58 20:54 15.05.2022
3661 Clouds 0 996 100 64 1.78 51 19:32 15.05.2022
3662 Clouds 0 996 100 65 2.32 51 17:51 15.05.2022
3663 Clouds 0 996 100 82 2.78 55 15:59 15.05.2022
3664 Snow 0 997 100 114 2.73 62 13:54 15.05.2022
3665 Snow 0 997 100 110 4.28 73 12:26 15.05.2022
3666 Snow 0 997 100 110 4.28 73 11:38 15.05.2022
3667 Snow 0 998 100 81 5.38 75 10:25 15.05.2022
3668 Snow 0 998 100 77 5.17 76 08:32 15.05.2022
3669 Clouds 1 998 98 127 6.6 73 06:58 15.05.2022
3670 Clouds 1 998 98 112 5.75 81 05:47 15.05.2022
3671 Clouds 0 1001 97 2852 4.97 82 00:49 15.05.2022
3672 Clouds 0 1001 97 2186 5.07 86 23:38 14.05.2022
3673 Clouds 0 1001 97 1660 4.65 80 22:47 14.05.2022
3674 Clouds 0 1002 97 540 4.78 84 21:29 14.05.2022
3675 Clouds 0 1002 97 540 4.78 84 20:51 14.05.2022
3676 Clouds 0 1003 98 445 5.15 88 19:38 14.05.2022
3677 Clouds 1 1003 96 1035 5.15 88 19:19 14.05.2022
3678 Clouds 1 1003 96 1035 5.15 88 18:41 14.05.2022
3679 Clouds 2 1003 93 949 5.12 89 16:38 14.05.2022
3680 Clouds 5 1003 87 936 4.58 92 15:23 14.05.2022
3681 Clouds 5 1003 87 936 4.58 92 14:33 14.05.2022
3682 Clouds 6 1004 78 1306 4.35 100 12:23 14.05.2022
3683 Clouds 7 1004 77 3256 4.34 107 10:58 14.05.2022
3684 Clouds 7 1005 78 3491 4.47 107 10:21 14.05.2022
3685 Clouds 7 1005 78 3491 4.47 107 09:53 14.05.2022
3686 Clouds 6 1005 82 3804 3.87 104 08:49 14.05.2022
3687 Clouds 3 1006 98 4316 2.52 140 05:47 14.05.2022
3688 Clouds 2 1005 100 253 2.58 190 02:39 14.05.2022
3689 Clouds 1 1005 99 113 3.47 217 23:36 13.05.2022
3690 Clouds 1 1005 99 102 3.58 216 22:58 13.05.2022
3691 Clouds 1 1005 99 107 3.88 221 22:25 13.05.2022
3692 Clouds 1 1005 99 107 3.88 221 21:52 13.05.2022
3693 Clouds 1 1004 99 116 3.88 218 20:45 13.05.2022
3694 Clouds 2 1004 99 133 4.1 212 20:27 13.05.2022
3695 Snow 2 1004 99 311 4.89 212 19:28 13.05.2022
3696 Rain 2 1004 98 490 5.47 210 17:50 13.05.2022
3697 Rain 3 1003 98 1581 5.94 210 17:27 13.05.2022
3698 Clouds 3 1003 97 10000 6.34 209 16:20 13.05.2022
3699 Clouds 3 1003 98 10000 6.59 210 15:28 13.05.2022
3700 Clouds 3 1003 98 1631 7.18 211 13:41 13.05.2022
3701 Rain 3 1002 98 155 9.06 209 12:28 13.05.2022
3702 Rain 3 1002 98 154 9.24 207 10:53 13.05.2022
3703 Clouds 3 1002 98 141 8.93 206 09:34 13.05.2022
3704 Clouds 3 1001 99 102 8.5 199 08:24 13.05.2022
3705 Clouds 3 1001 99 99 8.43 198 07:48 13.05.2022
3706 Clouds 2 1000 98 94 7.96 194 06:33 13.05.2022
3707 Clouds 2 1001 99 51 6.87 184 02:48 13.05.2022
3708 Clouds 2 1002 100 47 4.95 185 23:56 12.05.2022
3709 Rain 2 1002 99 47 4.21 180 22:44 12.05.2022
3710 Clouds 2 1002 99 304 3.73 175 21:54 12.05.2022
3711 Clouds 2 1003 91 10000 3.58 177 20:27 12.05.2022
3712 Clouds 2 1004 82 10000 3.73 160 18:50 12.05.2022
3713 Clouds 3 1005 77 10000 2.94 163 16:58 12.05.2022
3714 Clouds 3 1005 77 10000 2.72 151 15:50 12.05.2022
3715 Clouds 3 1006 78 10000 3.02 151 14:39 12.05.2022
3716 Clouds 2 1006 84 10000 2.63 151 13:38 12.05.2022
3717 Clouds 2 1007 91 10000 2.98 157 10:45 12.05.2022
3718 Clouds 2 1008 93 10000 2.85 185 09:24 12.05.2022
3719 Clouds 2 1008 93 10000 2.85 185 08:50 12.05.2022
3720 Clouds 1 1008 92 10000 3.17 187 07:38 12.05.2022
3721 Clouds 1 1009 91 10000 3.13 181 05:46 12.05.2022
3722 Clouds -1 1009 96 5896 3.81 208 02:49 12.05.2022
3723 Clouds -1 1010 98 406 5.21 217 00:35 12.05.2022
3724 Clouds -1 1010 97 1380 5.07 219 22:34 11.05.2022
3725 Clouds 0 1010 96 10000 5.12 222 21:38 11.05.2022
3726 Clouds 0 1010 95 10000 4.97 223 20:55 11.05.2022
3727 Clouds 1 1009 97 281 6.29 226 18:27 11.05.2022
3728 Clouds 1 1009 97 592 6.9 234 16:53 11.05.2022
3729 Clouds 1 1009 99 103 5.89 224 14:58 11.05.2022
3730 Clouds 1 1009 99 103 5.89 224 14:38 11.05.2022
3731 Snow 1 1009 99 99 5.29 217 14:18 11.05.2022
3732 Snow 0 1010 99 34 5.09 232 11:52 11.05.2022
3733 Clouds 0 1010 99 43 5.57 239 10:32 11.05.2022
3734 Snow 0 1009 99 30 5.23 236 08:37 11.05.2022
3735 Snow 0 1009 99 33 5.48 237 05:27 11.05.2022
3736 Snow 1 1009 97 32 10.78 238 00:42 11.05.2022
3737 Snow 1 1009 97 52 13.13 233 22:31 10.05.2022
3738 Snow 0 1009 96 129 13.73 230 21:56 10.05.2022
3739 Snow 0 1009 96 303 14.1 228 20:56 10.05.2022
3740 Clouds 1 1010 85 7007 14.1 224 19:27 10.05.2022
3741 Clouds 1 1011 81 10000 13.29 218 17:58 10.05.2022
3742 Clouds 1 1012 82 10000 12.42 218 17:21 10.05.2022
3743 Clear 0 1013 83 10000 10.88 220 15:28 10.05.2022
3744 Clear 0 1015 86 10000 9.9 219 12:39 10.05.2022
3745 Clear -1 1015 87 10000 9.53 219 11:50 10.05.2022
3746 Clouds -1 1015 88 10000 9.25 221 11:20 10.05.2022
3747 Clouds -2 1016 88 10000 9.46 220 10:26 10.05.2022
3748 Clouds -3 1016 88 10000 10.07 218 09:25 10.05.2022
3749 Clouds -4 1016 86 10000 10.02 217 06:54 10.05.2022
3750 Clouds -6 1017 87 10000 9.38 219 03:30 10.05.2022
3751 Clouds -7 1018 87 10000 7.86 217 00:38 10.05.2022
3752 Clear -7 1017 87 10000 6.36 218 22:56 09.05.2022
3753 Clear -7 1018 86 10000 5.85 222 21:50 09.05.2022
3754 Clear -7 1018 85 10000 5.36 222 20:52 09.05.2022
3755 Clouds -5 1018 84 10000 4.14 219 19:23 09.05.2022
3756 Clouds -5 1018 84 10000 3.63 222 17:51 09.05.2022
3757 Clouds -4 1018 82 10000 2.85 231 16:33 09.05.2022
3758 Clouds -3 1018 79 10000 2.55 252 15:52 09.05.2022
3759 Clouds -2 1017 76 10000 3.16 277 15:24 09.05.2022
3760 Clouds -2 1017 72 10000 4 299 14:29 09.05.2022
3761 Clouds -2 1017 72 10000 4 299 13:49 09.05.2022
3762 Clouds -2 1016 72 10000 4.71 308 12:26 09.05.2022
3763 Clouds -2 1016 72 10000 4.71 308 11:32 09.05.2022
3764 Clouds -2 1015 73 10000 4.97 314 10:42 09.05.2022
3765 Clouds -1 1014 75 10000 5.4 320 08:45 09.05.2022
3766 Clouds -1 1013 77 10000 5.46 317 07:54 09.05.2022
3767 Clouds -1 1009 95 3190 4.22 268 03:21 09.05.2022
3768 Clouds 0 1007 97 10000 4.27 254 23:34 08.05.2022
3769 Clouds 0 1006 98 186 3.47 251 22:55 08.05.2022
3770 Clouds 1 1006 98 77 4.11 244 21:55 08.05.2022
3771 Clouds 1 1006 98 77 4.11 244 21:55 08.05.2022
3772 Clouds 1 1006 98 64 5.14 240 20:35 08.05.2022
3773 Snow 2 1005 99 68 5.61 226 19:45 08.05.2022
3774 Rain 2 1005 98 52 6.24 215 18:54 08.05.2022
3775 Clouds 2 1005 98 54 7.19 211 17:59 08.05.2022
3776 Clouds 2 1005 98 64 8.16 213 16:43 08.05.2022
3777 Clouds 2 1004 98 93 8.77 213 15:39 08.05.2022
3778 Clouds 3 1004 98 71 9.27 216 14:45 08.05.2022
3779 Clouds 3 1005 99 51 9.84 210 12:27 08.05.2022
3780 Clouds 3 1004 99 58 10.04 209 10:32 08.05.2022
3781 Clouds 3 1004 99 36 9.01 206 09:57 08.05.2022
3782 Clouds 3 1005 99 39 8.72 205 08:56 08.05.2022
3783 Clouds 2 1005 99 51 8.67 211 06:58 08.05.2022
3784 Clouds 2 1005 99 63 7.66 214 03:35 08.05.2022
3785 Clouds 1 1005 98 76 7.22 211 02:45 08.05.2022
3786 Clouds 1 1006 97 49 7.05 193 00:24 08.05.2022
3787 Clouds 1 1006 97 49 7.05 193 23:49 07.05.2022
3788 Clouds 1 1006 96 1055 6.57 190 22:46 07.05.2022
3789 Clouds 0 1006 96 3181 6.05 192 21:58 07.05.2022
3790 Clouds 0 1006 96 3181 6.05 192 21:34 07.05.2022
3791 Clouds 0 1008 93 10000 5.65 209 20:28 07.05.2022
3792 Clouds 0 1008 94 10000 4.54 213 19:23 07.05.2022
3793 Clouds 0 1008 91 10000 3.96 219 17:34 07.05.2022
3794 Clouds 0 1008 89 10000 5.45 203 15:41 07.05.2022
3795 Clouds -1 1009 89 10000 6.31 193 13:39 07.05.2022
3796 Clouds -2 1009 85 10000 6.57 184 10:41 07.05.2022
3797 Clouds -4 1009 82 10000 5.83 185 08:57 07.05.2022
3798 Clouds -4 1009 83 10000 6.11 186 07:50 07.05.2022
3799 Clouds -5 1010 83 10000 5.97 184 06:43 07.05.2022
3800 Clouds -8 1011 87 10000 5.54 189 04:35 07.05.2022
3801 Clouds -11 1013 91 10000 4.65 206 00:56 07.05.2022
3802 Clouds -11 1013 90 10000 4.3 214 23:28 06.05.2022
3803 Clouds -11 1013 90 10000 4.23 215 22:26 06.05.2022
3804 Clouds -11 1013 90 10000 4.23 215 21:36 06.05.2022
3805 Clouds -10 1014 88 10000 3.98 213 20:20 06.05.2022
3806 Clouds -10 1014 87 10000 3.7 218 19:29 06.05.2022
3807 Clouds -10 1014 87 10000 3.7 218 19:29 06.05.2022
3808 Clouds -10 1014 87 10000 3.7 218 18:54 06.05.2022
3809 Clouds -10 1014 86 10000 3.56 217 17:38 06.05.2022
3810 Clouds -8 1014 87 10000 2.96 226 15:56 06.05.2022
3811 Clouds -8 1014 87 10000 2.96 226 15:38 06.05.2022
3812 Clouds -6 1014 84 10000 3.24 255 14:23 06.05.2022
3813 Clouds -6 1014 84 10000 3.7 252 12:53 06.05.2022
3814 Clouds -6 1014 84 10000 3.7 252 12:30 06.05.2022
3815 Clouds -7 1014 82 10000 3.87 250 11:33 06.05.2022
3816 Clouds -8 1013 81 10000 3.54 248 09:49 06.05.2022
3817 Clear -8 1013 83 10000 3.08 252 09:19 06.05.2022
3818 Clouds -9 1012 86 10000 2.54 257 07:57 06.05.2022
3819 Clouds -11 1011 90 10000 2.56 259 06:29 06.05.2022
3820 Clouds -12 1010 92 10000 2.85 256 04:32 06.05.2022
3821 Clouds -14 1009 92 10000 3.58 247 02:40 06.05.2022
3822 Clouds -14 1007 94 10000 3.34 237 23:25 05.05.2022
3823 Clouds -13 1006 93 10000 3.67 233 21:51 05.05.2022
3824 Clouds -12 1006 91 10000 3.44 228 20:37 05.05.2022
3825 Clouds -12 1005 93 10000 3.62 230 19:42 05.05.2022
3826 Clouds -7 1004 81 10000 3.25 233 16:51 05.05.2022
3827 Clouds -6 1004 78 10000 3.32 245 15:48 05.05.2022
3828 Clouds -6 1004 78 10000 3.94 251 14:34 05.05.2022
3829 Clouds -6 1004 75 10000 5.32 272 13:18 05.05.2022
3830 Clouds -6 1004 74 10000 6.38 276 11:48 05.05.2022
3831 Clouds -6 1002 80 10000 6.06 271 10:28 05.05.2022
3832 Clouds -6 1002 80 10000 6.06 271 09:32 05.05.2022
3833 Clouds -8 1000 78 10000 6.85 291 06:49 05.05.2022
3834 Clouds -8 998 89 10000 7.97 298 02:30 05.05.2022
3835 Snow -8 996 94 205 8.19 303 01:47 05.05.2022
3836 Snow -8 995 93 254 8.35 302 01:19 05.05.2022
3837 Snow -8 993 91 1375 10.11 310 23:27 04.05.2022
3838 Clouds -8 991 92 738 10.79 312 22:23 04.05.2022
3839 Clouds -8 991 92 738 10.79 312 21:46 04.05.2022
3840 Snow -7 990 93 287 11.38 314 21:18 04.05.2022
3841 Snow -7 989 93 176 11.38 315 20:20 04.05.2022
3842 Snow -7 989 94 153 12.09 314 19:44 04.05.2022
3843 Snow -7 987 93 161 12.28 313 18:44 04.05.2022
3844 Snow -7 986 93 214 12.73 308 18:20 04.05.2022
3845 Snow -6 984 93 174 12.32 303 17:22 04.05.2022
3846 Snow -6 983 94 210 9.59 294 15:35 04.05.2022
3847 Snow -3 982 95 309 7.46 286 14:46 04.05.2022
3848 Snow 0 981 96 387 5.88 234 14:20 04.05.2022
3849 Snow 0 981 96 387 5.88 234 14:20 04.05.2022
3850 Snow -1 982 97 181 5.58 262 12:58 04.05.2022
3851 Snow 0 982 98 62 7.73 221 12:24 04.05.2022
3852 Snow 1 982 97 51 8.52 213 10:30 04.05.2022
3853 Snow 0 982 99 42 3.8 157 09:23 04.05.2022
3854 Snow 0 982 99 42 3.8 157 08:33 04.05.2022
3855 Snow -6 986 95 101 9.92 90 05:44 04.05.2022
3856 Snow -7 990 94 151 10.89 95 02:43 04.05.2022
3857 Snow -7 994 93 680 9.98 95 23:31 03.05.2022
3858 Clouds -6 996 78 10000 8.6 100 22:00 03.05.2022
3859 Clouds -6 996 78 10000 8.6 100 21:33 03.05.2022
3860 Clouds -7 997 80 10000 7.85 101 20:52 03.05.2022
3861 Clouds -7 998 86 10000 7.03 97 19:39 03.05.2022
3862 Clouds -7 999 85 10000 6.31 99 18:48 03.05.2022
3863 Clouds -7 1000 84 10000 5.37 102 17:34 03.05.2022
3864 Clouds -7 1000 81 10000 4.1 108 16:28 03.05.2022
3865 Clouds -6 1001 76 10000 3.76 109 14:43 03.05.2022
3866 Clear -5 1002 72 10000 2.1 102 12:46 03.05.2022
3867 Clear -6 1002 71 10000 0.98 108 12:22 03.05.2022
3868 Clear -6 1002 70 10000 0.3 232 10:52 03.05.2022
3869 Clear -7 1001 74 10000 1.91 268 08:38 03.05.2022
3870 Clouds -8 1001 80 10000 2.96 261 06:46 03.05.2022
3871 Clouds -10 1000 91 10000 3.01 259 03:34 03.05.2022
3872 Clouds -7 999 91 10000 3.27 262 23:32 02.05.2022
3873 Clouds -7 999 93 10000 3.5 272 22:34 02.05.2022
3874 Snow -6 999 95 1431 4.19 269 21:48 02.05.2022
3875 Clouds -6 999 95 413 4.48 248 20:48 02.05.2022
3876 Clouds -8 1000 84 10000 4.22 224 18:28 02.05.2022
3877 Clouds -8 1000 84 10000 4.22 224 17:44 02.05.2022
3878 Clouds -7 1000 82 10000 3.78 228 16:47 02.05.2022
3879 Clouds -6 1001 79 10000 3.9 231 15:56 02.05.2022
3880 Clouds -5 1001 78 10000 4.03 233 14:56 02.05.2022
3881 Clouds -5 1001 78 10000 4.33 241 13:47 02.05.2022
3882 Clouds -5 1001 72 10000 3.99 248 11:51 02.05.2022
3883 Clouds -5 1001 74 10000 4.05 253 10:18 02.05.2022
3884 Clouds -6 1001 75 10000 3.96 261 08:46 02.05.2022
3885 Clouds -6 1001 78 10000 3.78 259 07:30 02.05.2022
3886 Clouds -8 1003 92 10000 4.47 245 01:28 02.05.2022
3887 Clouds -8 1003 93 10000 4.59 244 00:23 02.05.2022
3888 Clouds -8 1003 93 10000 4.59 244 23:43 01.05.2022
3889 Snow -7 1002 94 871 5.53 250 21:46 01.05.2022
3890 Snow -7 1002 90 1647 5.66 245 20:50 01.05.2022
3891 Clouds -7 1003 89 2529 5.56 247 19:46 01.05.2022
3892 Clouds -7 1003 86 6054 5.74 246 18:53 01.05.2022
3893 Clouds -7 1003 84 10000 5.68 247 17:57 01.05.2022
3894 Snow -6 1003 81 10000 6.07 253 16:46 01.05.2022
3895 Clouds -5 1003 80 10000 6.11 263 16:23 01.05.2022
3896 Snow -5 1003 77 10000 5.97 268 14:58 01.05.2022
3897 Snow -4 1003 73 10000 7.55 270 13:23 01.05.2022
3898 Snow -4 1003 92 234 7.92 244 10:46 01.05.2022
3899 Snow -4 1003 85 3905 7.63 241 08:51 01.05.2022
3900 Snow -6 1003 90 796 7.98 238 06:53 01.05.2022
3901 Clouds -8 1003 90 10000 6.03 241 02:51 01.05.2022
3902 Clouds -8 1003 90 10000 6.41 242 22:52 30.04.2022
3903 Clouds -7 1003 89 10000 6.81 241 21:34 30.04.2022
3904 Clouds -6 1003 86 10000 7.01 243 20:24 30.04.2022
3905 Clouds -6 1002 84 10000 7.37 243 19:33 30.04.2022
3906 Clouds -4 1002 80 10000 7.33 250 17:38 30.04.2022
3907 Clouds -4 1002 80 10000 7.75 257 16:30 30.04.2022
3908 Snow -4 1002 92 777 9.62 252 15:19 30.04.2022
3909 Snow -4 1002 92 777 9.62 252 14:30 30.04.2022
3910 Snow -4 1002 90 984 10.73 234 12:28 30.04.2022
3911 Snow -4 1002 90 984 10.73 234 11:32 30.04.2022
3912 Snow -5 1002 90 1726 11.17 235 10:30 30.04.2022
3913 Clouds -5 1002 90 3372 11.8 217 08:26 30.04.2022
3914 Clouds -7 1003 91 10000 9.06 222 05:19 30.04.2022
3915 Clouds -9 1003 90 10000 9.07 219 00:35 30.04.2022
3916 Clouds -8 1004 88 10000 9.11 224 23:29 29.04.2022
3917 Clouds -7 1004 87 10000 9.4 228 22:29 29.04.2022
3918 Clouds -7 1004 84 10000 9.58 230 21:26 29.04.2022
3919 Clouds -7 1004 84 10000 9.58 230 20:36 29.04.2022
3920 Clouds -7 1004 80 10000 9.86 231 19:33 29.04.2022
3921 Clouds -6 1004 87 10000 8.71 235 17:48 29.04.2022
3922 Clouds -5 1004 87 10000 8.48 242 16:43 29.04.2022
3923 Snow -5 1004 87 10000 6.34 235 14:38 29.04.2022
3924 Snow -5 1004 87 10000 6.34 235 14:38 29.04.2022
3925 Snow -5 1004 87 10000 6.34 235 14:38 29.04.2022
3926 Snow -5 1004 87 10000 6.34 235 14:38 29.04.2022
3927 Clouds -5 1005 82 10000 8.3 231 13:59 29.04.2022
3928 Clouds -4 1005 82 10000 8.84 233 12:41 29.04.2022
3929 Clouds -5 1005 87 10000 8.87 228 10:57 29.04.2022
3930 Clouds -7 1005 85 10000 9.67 208 08:18 29.04.2022
3931 Clouds -8 1005 85 10000 9.38 209 07:27 29.04.2022
3932 Clouds -8 1005 85 10000 9.37 209 06:34 29.04.2022
3933 Clouds -7 1006 90 10000 7.82 223 03:23 29.04.2022
3934 Clouds -9 1007 92 6944 7.83 204 00:18 29.04.2022
3935 Clouds -8 1007 92 4338 7.68 207 23:26 28.04.2022
3936 Clouds -8 1007 92 4338 7.68 207 22:37 28.04.2022
3937 Clouds -8 1007 92 4639 7.02 213 21:44 28.04.2022
3938 Clouds -6 1007 91 4012 7.3 227 20:49 28.04.2022
3939 Clouds -7 1008 90 10000 6.78 233 19:57 28.04.2022
3940 Clouds -7 1008 90 10000 6.78 233 19:39 28.04.2022
3941 Clouds -6 1008 90 3456 8.07 239 19:19 28.04.2022
3942 Snow -6 1008 91 728 9.63 234 17:56 28.04.2022
3943 Snow -7 1008 91 316 10.66 224 16:58 28.04.2022
3944 Clouds -7 1007 87 505 11.74 218 16:21 28.04.2022
3945 Clouds -7 1007 87 505 11.74 218 15:52 28.04.2022
3946 Clear -7 1008 76 10000 12.11 214 15:21 28.04.2022
3947 Clear -7 1008 77 10000 11.39 209 13:43 28.04.2022
3948 Clear -7 1009 74 10000 10.96 213 12:32 28.04.2022
3949 Clear -7 1009 73 10000 10.53 217 11:38 28.04.2022
3950 Clear -7 1009 78 10000 9.73 226 10:27 28.04.2022
3951 Clear -7 1009 78 10000 9.73 226 09:50 28.04.2022
3952 Clouds -8 1009 84 10000 7.83 220 07:44 28.04.2022
3953 Clouds -8 1009 85 10000 7.3 224 06:53 28.04.2022
3954 Clouds -8 1008 83 10000 7.59 243 05:53 28.04.2022
3955 Clouds -8 1007 88 10000 8.32 250 04:43 28.04.2022
3956 Clouds -9 1006 83 8838 8.4 252 02:45 28.04.2022
3957 Snow -7 1002 88 1777 11.46 249 23:36 27.04.2022
3958 Clouds -7 1000 81 10000 12.63 238 22:22 27.04.2022
3959 Clouds -7 1000 81 10000 12.63 238 21:47 27.04.2022
3960 Clouds -6 1000 82 6549 12.76 240 20:47 27.04.2022
3961 Clouds -6 999 81 10000 13.29 240 20:29 27.04.2022
3962 Clouds -6 1000 82 10000 13.4 238 19:36 27.04.2022
3963 Clouds -6 999 79 10000 12.5 238 18:42 27.04.2022
3964 Clouds -5 999 80 10000 11.88 240 18:21 27.04.2022
3965 Clear -4 998 75 10000 11.92 248 16:20 27.04.2022
3966 Clouds -3 996 74 10000 11.21 264 13:21 27.04.2022
3967 Clouds -2 995 74 10000 11.41 271 11:37 27.04.2022
3968 Snow -3 994 78 10000 11.17 281 10:51 27.04.2022
3969 Snow -1 989 96 148 10.11 284 08:31 27.04.2022
3970 Snow 0 987 98 52 5.79 264 06:44 27.04.2022
3971 Snow -2 989 97 152 4.12 117 02:40 27.04.2022
3972 Snow -4 991 97 131 6.75 105 01:24 27.04.2022
3973 Snow -4 991 97 131 6.75 105 00:35 27.04.2022
3974 Clouds -3 994 89 10000 6.05 102 23:24 26.04.2022
3975 Clouds -3 994 89 10000 6.05 102 22:52 26.04.2022
3976 Clouds -3 994 89 10000 6.05 102 22:32 26.04.2022
3977 Clouds -2 997 90 10000 5.94 117 21:25 26.04.2022
3978 Clouds -2 997 90 10000 5.94 117 20:40 26.04.2022
3979 Clouds -2 997 90 10000 5.94 117 20:40 26.04.2022
3980 Clouds -2 998 91 10000 5.94 119 19:48 26.04.2022
3981 Clouds -1 999 91 10000 6.24 121 19:26 26.04.2022
3982 Clouds -1 999 91 10000 6.24 121 18:40 26.04.2022
3983 Clouds -1 1001 91 10000 5.4 122 17:50 26.04.2022
3984 Clouds 0 1003 94 10000 4.52 117 16:19 26.04.2022
3985 Clouds 0 1005 98 1711 3.09 128 13:58 26.04.2022
3986 Clouds 0 1006 94 2910 3.06 142 13:29 26.04.2022
3987 Clouds -1 1007 89 10000 3.45 145 11:29 26.04.2022
3988 Clouds -1 1007 89 10000 3.45 145 10:31 26.04.2022
3989 Clouds -3 1008 88 10000 2.69 146 08:38 26.04.2022
3990 Clouds -7 1009 95 10000 2.17 198 05:46 26.04.2022
3991 Clouds -9 1009 96 10000 2.88 209 04:23 26.04.2022
3992 Clouds -9 1010 93 10000 3.73 223 00:53 26.04.2022
3993 Clouds -8 1010 92 10000 3.67 226 23:52 25.04.2022
3994 Clouds -9 1010 92 10000 3.59 221 22:18 25.04.2022
3995 Clouds -9 1010 92 10000 3.59 221 21:33 25.04.2022
3996 Clouds -9 1010 93 10000 3.41 222 20:26 25.04.2022
3997 Clouds -9 1010 92 10000 3.09 230 18:52 25.04.2022
3998 Clouds -7 1010 91 10000 2.83 239 17:40 25.04.2022
3999 Clouds -6 1009 90 10000 2.8 253 16:50 25.04.2022
4000 Clouds -3 1009 84 10000 3.53 284 15:23 25.04.2022
4001 Clouds -3 1009 84 10000 3.53 284 14:34 25.04.2022
4002 Clouds -1 1008 84 10000 4.64 310 13:21 25.04.2022
4003 Snow -1 1007 93 1935 4.88 289 10:44 25.04.2022
4004 Clouds -1 1006 93 1172 4.89 257 09:42 25.04.2022
4005 Clouds -3 1006 91 10000 6.11 218 07:56 25.04.2022
4006 Clouds -5 1006 92 10000 5.83 216 05:55 25.04.2022
4007 Clouds -7 1008 92 10000 6.3 206 01:49 25.04.2022
4008 Clouds -6 1008 94 10000 5.54 211 23:57 24.04.2022
4009 Clouds -5 1009 94 6418 5.34 215 23:28 24.04.2022
4010 Clouds -5 1009 94 6418 5.34 215 22:39 24.04.2022
4011 Clouds -5 1009 95 1595 5.16 219 21:56 24.04.2022
4012 Snow -4 1009 95 660 5.49 223 21:22 24.04.2022
4013 Snow -4 1009 95 660 5.49 223 21:22 24.04.2022
4014 Snow -4 1009 95 660 5.49 223 20:46 24.04.2022
4015 Snow -3 1009 96 343 4.77 237 20:21 24.04.2022
4016 Snow -3 1010 97 334 4.59 233 18:44 24.04.2022
4017 Clouds -3 1010 95 628 5.1 224 17:54 24.04.2022
4018 Clouds -3 1010 95 628 5.1 224 17:54 24.04.2022
4019 Clouds -3 1010 95 1188 5.58 221 17:21 24.04.2022
4020 Clouds -3 1010 95 1188 5.58 221 16:55 24.04.2022
4021 Clouds -3 1011 94 2189 5.79 224 16:29 24.04.2022
4022 Clouds -3 1011 94 2189 5.79 224 15:43 24.04.2022
4023 Clouds -3 1011 93 6843 6.15 224 14:36 24.04.2022
4024 Clouds -5 1012 91 10000 6.77 234 13:27 24.04.2022
4025 Clouds -5 1012 91 10000 6.77 234 12:56 24.04.2022
4026 Clouds -6 1012 90 6417 7.31 235 11:50 24.04.2022
4027 Clouds -7 1012 90 3385 7.56 233 10:47 24.04.2022
4028 Clouds -8 1012 90 6381 7.79 229 09:47 24.04.2022
4029 Clouds -9 1013 90 1344 7.88 224 07:55 24.04.2022
4030 Snow -11 1014 91 677 7.81 222 05:45 24.04.2022
4031 Clouds -12 1016 87 10000 7.31 224 02:30 24.04.2022
4032 Clouds -12 1017 89 10000 7.07 227 00:45 24.04.2022
4033 Clouds -12 1018 89 10000 6.79 229 23:46 23.04.2022
4034 Clouds -12 1018 90 10000 7.01 230 23:25 23.04.2022
4035 Clouds -12 1019 91 10000 7.09 231 21:58 23.04.2022
4036 Clouds -12 1019 91 10000 7.09 231 21:36 23.04.2022
4037 Clouds -12 1019 91 10000 7.07 232 20:59 23.04.2022
4038 Clouds -12 1020 91 10000 6.77 233 19:56 23.04.2022
4039 Clouds -13 1021 91 10000 6.43 234 19:20 23.04.2022
4040 Clouds -13 1021 91 10000 6.43 234 18:53 23.04.2022
4041 Clouds -13 1021 91 10000 6.43 234 18:31 23.04.2022
4042 Clouds -13 1022 92 10000 5.81 233 17:44 23.04.2022
4043 Clouds -13 1022 93 10000 5.02 229 16:44 23.04.2022
4044 Clouds -13 1023 93 10000 4.33 226 15:35 23.04.2022
4045 Clouds -12 1024 89 10000 3.61 248 12:59 23.04.2022
4046 Clouds -12 1025 87 10000 3.1 257 11:24 23.04.2022
4047 Clouds -13 1025 87 10000 2.81 260 09:38 23.04.2022
4048 Clouds -14 1026 90 10000 1.83 258 07:52 23.04.2022
4049 Clouds -18 1026 99 3170 1.48 234 03:56 23.04.2022
4050 Clouds -20 1026 100 2853 1.54 241 01:58 23.04.2022
4051 Clouds -20 1026 100 2176 1.62 245 23:34 22.04.2022
4052 Clouds -20 1026 100 2162 1.49 244 22:32 22.04.2022
4053 Clouds -20 1026 100 2475 1.16 254 21:44 22.04.2022
4054 Clouds -19 1026 100 3425 0.83 275 21:20 22.04.2022
4055 Clouds -18 1026 100 3850 0.76 324 20:28 22.04.2022
4056 Clouds -18 1026 100 3580 1.06 329 19:23 22.04.2022
4057 Clouds -18 1026 100 3580 1.06 329 18:52 22.04.2022
4058 Clouds -17 1026 98 6040 1.57 338 17:54 22.04.2022
4059 Clouds -15 1026 95 10000 1.89 339 16:52 22.04.2022
4060 Clouds -13 1026 90 10000 2.25 349 15:47 22.04.2022
4061 Clouds -12 1026 87 10000 2.75 353 15:22 22.04.2022
4062 Clouds -12 1027 84 10000 3.63 355 13:54 22.04.2022
4063 Clouds -13 1026 81 10000 3.86 356 13:27 22.04.2022
4064 Clouds -13 1026 81 10000 3.86 358 12:29 22.04.2022
4065 Clouds -13 1026 82 10000 3.82 2 11:22 22.04.2022
4066 Clouds -13 1026 82 10000 3.82 2 10:52 22.04.2022
4067 Clouds -13 1026 82 10000 3.82 2 10:31 22.04.2022
4068 Clouds -13 1026 84 10000 4 6 09:53 22.04.2022
4069 Clouds -14 1026 87 10000 4.15 6 08:56 22.04.2022
4070 Clouds -15 1026 89 10000 4.05 3 07:44 22.04.2022
4071 Clouds -18 1026 100 5457 2.79 340 04:24 22.04.2022
4072 Clouds -18 1026 100 3176 2.99 344 00:52 22.04.2022
4073 Clouds -17 1026 100 2177 3.34 348 23:28 21.04.2022
4074 Clouds -16 1026 100 2661 3.57 346 22:29 21.04.2022
4075 Clouds -15 1026 99 2472 3.85 348 20:46 21.04.2022
4076 Clouds -14 1026 98 1683 4.31 349 20:26 21.04.2022
4077 Clouds -15 1026 98 2160 4.05 349 18:47 21.04.2022
4078 Clouds -14 1026 96 2784 4.34 354 18:19 21.04.2022
4079 Clouds -13 1026 92 3508 5.33 2 16:47 21.04.2022
4080 Clouds -12 1026 89 2379 6.27 360 15:22 21.04.2022
4081 Clouds -12 1026 89 2379 6.27 360 14:50 21.04.2022
4082 Clouds -11 1026 85 5575 6.75 1 13:24 21.04.2022
4083 Clouds -11 1026 85 5575 6.75 1 12:59 21.04.2022
4084 Clouds -11 1026 85 9734 6.8 1 10:57 21.04.2022
4085 Clouds -12 1026 86 10000 6.88 360 08:57 21.04.2022
4086 Clouds -13 1025 88 10000 6.89 356 07:49 21.04.2022
4087 Clouds -14 1025 93 7810 6.19 347 05:44 21.04.2022
4088 Clouds -15 1025 95 4926 5.77 338 03:32 21.04.2022
4089 Clouds -15 1025 96 5449 5.55 334 02:47 21.04.2022
4090 Clouds -15 1025 95 7495 5.79 333 01:41 21.04.2022
4091 Clouds -15 1024 94 10000 5.72 339 23:51 20.04.2022
4092 Clouds -15 1023 93 10000 5.98 340 23:22 20.04.2022
4093 Clouds -15 1023 93 10000 5.98 340 22:51 20.04.2022
4094 Clouds -15 1023 93 10000 5.98 340 22:31 20.04.2022
4095 Clouds -15 1023 92 10000 6.1 341 21:33 20.04.2022
4096 Clouds -14 1023 91 10000 6.33 342 20:37 20.04.2022
4097 Clouds -14 1022 90 10000 6.59 344 19:53 20.04.2022
4098 Clouds -13 1021 89 7726 7.61 344 19:22 20.04.2022
4099 Clouds -13 1021 87 5499 7.43 343 18:23 20.04.2022
4100 Clouds -13 1021 83 10000 7.09 342 16:56 20.04.2022
4101 Clouds -13 1021 83 10000 7.09 342 16:37 20.04.2022
4102 Clouds -12 1020 81 10000 7.85 338 14:21 20.04.2022
4103 Clouds -12 1019 78 10000 6.83 339 11:55 20.04.2022
4104 Clouds -12 1019 76 10000 7.4 344 11:25 20.04.2022
4105 Clouds -12 1019 76 10000 7.26 345 10:24 20.04.2022
4106 Clouds -12 1018 83 10000 6.98 343 09:25 20.04.2022
4107 Clouds -11 1017 91 3290 7.28 351 08:22 20.04.2022
4108 Clouds -11 1017 91 3290 7.28 351 08:22 20.04.2022
4109 Clouds -11 1017 91 3290 7.28 351 07:42 20.04.2022
4110 Clouds -13 1014 95 930 6.47 334 03:54 20.04.2022
4111 Clouds -11 1011 95 7976 6.34 332 00:24 20.04.2022
4112 Clouds -11 1011 95 7976 6.34 332 23:59 19.04.2022
4113 Clouds -9 1009 93 10000 6.34 330 22:28 19.04.2022
4114 Clouds -9 1009 93 10000 6.34 330 21:57 19.04.2022
4115 Clouds -9 1009 93 10000 6.34 330 21:33 19.04.2022
4116 Clouds -7 1008 93 7763 6.85 333 20:50 19.04.2022
4117 Clouds -7 1008 93 7763 6.85 333 20:32 19.04.2022
4118 Clouds -3 1006 84 10000 8 347 19:24 19.04.2022
4119 Snow -2 1004 95 1131 7.51 336 17:51 19.04.2022
4120 Snow 0 1003 98 82 7.78 316 16:43 19.04.2022
4121 Snow 1 1003 98 38 7.2 282 16:24 19.04.2022
4122 Clouds 1 1003 98 77 6.7 277 14:51 19.04.2022
4123 Clouds 1 1003 98 77 6.7 277 14:30 19.04.2022
4124 Clouds 1 1003 98 396 7.6 271 12:51 19.04.2022
4125 Clouds 1 1003 98 75 7.98 264 12:26 19.04.2022
4126 Snow 1 1003 98 58 8.23 256 10:50 19.04.2022
4127 Snow -1 1004 94 445 9.91 227 09:23 19.04.2022
4128 Snow -3 1005 93 489 8.39 211 06:30 19.04.2022
4129 Clouds -7 1009 93 658 5.75 204 03:59 19.04.2022
4130 Clouds -9 1011 93 10000 3.45 205 00:56 19.04.2022
4131 Clouds -10 1012 94 10000 3.01 207 23:38 18.04.2022
4132 Clouds -14 1013 97 10000 3.01 200 21:38 18.04.2022
4133 Clouds -15 1013 98 6545 2.65 203 21:20 18.04.2022
4134 Clouds -15 1013 98 6545 2.65 203 20:36 18.04.2022
4135 Clouds -15 1013 99 6544 2.22 202 19:57 18.04.2022
4136 Clouds -15 1013 100 6553 1.26 202 18:58 18.04.2022
4137 Clouds -15 1013 100 6553 1.26 202 18:32 18.04.2022
4138 Clouds -14 1013 100 7473 0.16 127 17:38 18.04.2022
4139 Clouds -12 1013 98 10000 1.37 29 17:18 18.04.2022
4140 Clouds -12 1013 98 10000 1.37 29 16:34 18.04.2022
4141 Clouds -7 1013 90 10000 2.85 13 15:27 18.04.2022
4142 Clouds -5 1012 88 10000 3.68 7 13:42 18.04.2022
4143 Clouds -5 1012 88 10000 3.68 7 13:42 18.04.2022
4144 Clouds -4 1011 85 10000 4.49 0 12:40 18.04.2022
4145 Clouds -4 1011 82 10000 4.66 350 11:42 18.04.2022
4146 Clouds -3 1010 83 10000 4.55 346 10:42 18.04.2022
4147 Clouds -3 1009 88 10000 5.16 337 09:31 18.04.2022
4148 Clouds -1 1007 92 7453 6.16 311 08:28 18.04.2022
4149 Clouds -1 1007 95 2561 6.11 265 05:58 18.04.2022
4150 Clouds -4 1007 94 830 6.57 230 01:37 18.04.2022
4151 Clouds -4 1008 92 3380 6.89 225 22:44 17.04.2022
4152 Clouds -5 1008 92 3890 7.13 225 21:51 17.04.2022
4153 Clouds -5 1008 92 3890 7.13 225 21:32 17.04.2022
4154 Clouds -5 1009 92 1582 7.18 223 20:50 17.04.2022
4155 Clouds -5 1010 92 1429 7.19 223 19:53 17.04.2022
4156 Clouds -6 1010 92 10000 7.49 222 18:32 17.04.2022
4157 Clouds -6 1011 91 10000 7.38 220 16:33 17.04.2022
4158 Clouds -6 1011 91 10000 7.59 220 15:32 17.04.2022
4159 Clouds -6 1011 90 10000 7.46 224 14:28 17.04.2022
4160 Clouds -6 1011 91 10000 7.29 225 13:20 17.04.2022
4161 Clouds -6 1011 90 10000 7.49 227 12:29 17.04.2022
4162 Clouds -7 1011 90 10000 7.39 227 10:47 17.04.2022
4163 Clouds -7 1011 90 10000 7.08 229 10:29 17.04.2022
4164 Clouds -7 1011 90 10000 7.08 229 09:49 17.04.2022
4165 Clouds -8 1012 91 10000 6.74 232 08:54 17.04.2022
4166 Clouds -9 1012 90 10000 6.34 232 08:26 17.04.2022
4167 Clouds -12 1013 95 10000 5.81 223 04:52 17.04.2022
4168 Clouds -16 1014 95 10000 4.21 220 01:39 17.04.2022
4169 Clouds -17 1015 91 10000 3.54 218 23:57 16.04.2022
4170 Clouds -18 1015 92 10000 2.96 218 22:50 16.04.2022
4171 Clouds -18 1015 93 10000 2.42 225 21:42 16.04.2022
4172 Clouds -18 1015 95 10000 1.82 241 20:45 16.04.2022
4173 Clouds -16 1015 96 10000 1.42 305 19:20 16.04.2022
4174 Clouds -16 1015 96 10000 1.42 305 18:32 16.04.2022
4175 Clouds -10 1015 92 10000 2.91 342 16:41 16.04.2022
4176 Clouds -8 1015 89 10000 3.99 349 15:46 16.04.2022
4177 Clouds -7 1015 89 6723 4.78 357 14:57 16.04.2022
4178 Clouds -6 1014 90 2171 5.44 357 13:58 16.04.2022
4179 Clouds -6 1014 90 2171 5.44 357 13:40 16.04.2022
4180 Clouds -6 1014 89 1446 5.7 358 12:33 16.04.2022
4181 Clouds -6 1014 88 1783 5.66 355 11:19 16.04.2022
4182 Clouds -6 1014 89 1141 5.52 355 09:57 16.04.2022
4183 Clouds -7 1014 90 818 5.37 354 08:59 16.04.2022
4184 Snow -7 1014 92 507 5.26 352 08:18 16.04.2022
4185 Clouds -8 1013 93 570 4.74 346 06:59 16.04.2022
4186 Clouds -10 1013 96 721 3.78 321 03:48 16.04.2022
4187 Clouds -10 1013 97 679 3.47 303 00:35 16.04.2022
4188 Clouds -8 1013 92 1893 4.68 328 23:27 15.04.2022
4189 Clouds -8 1013 92 1893 4.68 328 22:37 15.04.2022
4190 Clouds -7 1013 91 1655 5.61 332 21:58 15.04.2022
4191 Clouds -7 1013 90 1668 6.1 327 21:18 15.04.2022
4192 Clouds -7 1013 89 1555 6.45 322 20:27 15.04.2022
4193 Clouds -7 1012 91 959 6.43 321 19:40 15.04.2022
4194 Clouds -7 1012 88 1235 7.19 320 18:54 15.04.2022
4195 Clouds -7 1011 90 1201 7.62 317 18:25 15.04.2022
4196 Clouds -7 1011 90 1201 7.62 317 17:48 15.04.2022
4197 Clouds -6 1011 91 781 7.85 314 17:21 15.04.2022
4198 Clouds -6 1010 89 1161 8.66 313 16:23 15.04.2022
4199 Clouds -6 1009 90 1752 9.15 311 15:24 15.04.2022
4200 Snow -5 1008 91 825 9.25 310 13:42 15.04.2022
4201 Clouds -5 1007 91 844 9.77 308 12:43 15.04.2022
4202 Clouds -5 1006 92 792 10.44 307 11:57 15.04.2022
4203 Clouds -5 1006 92 792 10.44 307 11:35 15.04.2022
4204 Snow -5 1004 92 600 11.18 308 10:45 15.04.2022
4205 Snow -4 1003 93 388 11.33 308 09:47 15.04.2022
4206 Snow -3 1001 94 231 11.42 311 09:21 15.04.2022
4207 Snow -3 999 94 269 9.33 311 07:44 15.04.2022
4208 Snow -3 998 95 261 6.48 311 06:37 15.04.2022
4209 Clouds -7 995 97 1632 3.32 275 03:21 15.04.2022
4210 Clouds -8 995 97 7317 2.42 139 23:32 14.04.2022
4211 Clouds -8 996 93 10000 3.3 133 22:49 14.04.2022
4212 Clouds -8 996 93 10000 3.3 133 22:31 14.04.2022
4213 Clouds -6 997 89 10000 4.02 150 21:59 14.04.2022
4214 Clouds -2 998 84 10000 6.2 173 20:57 14.04.2022
4215 Snow 1 999 99 37 5.01 135 19:23 14.04.2022
4216 Snow 1 999 99 37 5.01 135 18:30 14.04.2022
4217 Snow 0 1000 99 88 6.5 109 17:44 14.04.2022
4218 Snow 0 1000 99 88 6.5 109 17:44 14.04.2022
4219 Clouds -1 1001 98 362 7.23 98 16:46 14.04.2022
4220 Clouds -1 1004 97 740 7.84 93 15:26 14.04.2022
4221 Clouds -1 1006 96 1457 7.92 95 13:47 14.04.2022
4222 Clouds -1 1006 96 2153 8.13 90 12:57 14.04.2022
4223 Clouds -1 1006 96 2153 8.13 90 12:31 14.04.2022
4224 Clouds -1 1009 94 2091 8.07 87 11:29 14.04.2022
4225 Clouds -1 1009 94 2091 8.07 87 10:53 14.04.2022
4226 Clouds -2 1010 93 1103 7.56 82 10:27 14.04.2022
4227 Clouds -2 1012 90 4769 6.96 83 09:25 14.04.2022
4228 Clouds -3 1013 88 10000 5.42 87 07:33 14.04.2022
4229 Clouds -5 1016 94 10000 2.24 91 04:28 14.04.2022
4230 Clouds -8 1019 96 10000 2.12 214 23:29 13.04.2022
4231 Clouds -8 1019 96 10000 2.53 223 22:23 13.04.2022
4232 Clouds -8 1019 96 10000 2.53 223 21:37 13.04.2022
4233 Clouds -8 1020 95 10000 2.63 246 20:24 13.04.2022
4234 Clouds -9 1020 94 10000 2.89 245 19:39 13.04.2022
4235 Clouds -7 1020 92 10000 2.55 266 18:36 13.04.2022
4236 Clouds -1 1019 94 1534 5.65 269 17:24 13.04.2022
4237 Clouds -1 1019 94 1534 5.65 269 16:41 13.04.2022
4238 Clouds -1 1019 84 10000 6.71 257 15:43 13.04.2022
4239 Clouds 0 1018 79 10000 7.6 260 14:53 13.04.2022
4240 Clouds 0 1018 79 10000 7.6 260 14:30 13.04.2022
4241 Clouds -1 1018 89 10000 8.07 251 13:29 13.04.2022
4242 Clouds -1 1018 89 10000 8.07 251 12:38 13.04.2022
4243 Clouds -1 1018 88 10000 7.06 234 10:58 13.04.2022
4244 Clouds -2 1017 89 10000 7.1 237 09:45 13.04.2022
4245 Clouds -2 1017 91 10000 7.11 237 08:43 13.04.2022
4246 Clouds -3 1017 92 10000 6.61 233 07:23 13.04.2022
4247 Clouds -3 1017 92 10000 6.61 233 06:46 13.04.2022
4248 Clouds -3 1017 92 10000 6.68 228 06:18 13.04.2022
4249 Clouds 0 1015 90 10000 8.29 239 00:25 13.04.2022
4250 Clouds 0 1015 90 10000 8.29 239 23:46 12.04.2022
4251 Clouds 1 1014 91 10000 8 236 22:20 12.04.2022
4252 Clouds 1 1014 91 10000 8 236 21:39 12.04.2022
4253 Clouds 1 1014 92 10000 7.67 232 20:42 12.04.2022
4254 Clouds 1 1014 90 10000 7.08 234 19:54 12.04.2022
4255 Clouds 1 1015 90 10000 7.36 230 19:33 12.04.2022
4256 Clouds 1 1015 91 10000 6.97 230 18:50 12.04.2022
4257 Clouds 1 1015 91 10000 6.97 230 18:50 12.04.2022
4258 Clouds 1 1015 93 10000 6.87 232 17:36 12.04.2022
4259 Clouds 1 1015 95 10000 6.74 231 16:32 12.04.2022
4260 Clouds 1 1014 94 10000 7.21 231 15:33 12.04.2022
4261 Clouds 1 1014 98 273 6.88 228 14:33 12.04.2022
4262 Clouds 1 1014 98 81 6.14 238 13:39 12.04.2022
4263 Clouds 1 1014 99 41 5.33 233 12:59 12.04.2022
4264 Snow 1 1013 99 36 4.49 234 11:47 12.04.2022
4265 Snow 1 1013 99 34 3.72 244 11:24 12.04.2022
4266 Snow 1 1012 100 36 2.73 240 09:25 12.04.2022
4267 Snow 1 1012 100 54 2.04 217 08:18 12.04.2022
4268 Snow 1 1014 99 40 3.08 203 06:33 12.04.2022
4269 Snow 1 1014 98 40 3.1 198 05:36 12.04.2022
4270 Clouds 1 1016 98 77 3.01 179 01:47 12.04.2022
4271 Clouds 0 1017 99 165 1.58 185 23:19 11.04.2022
4272 Clouds 0 1017 99 177 1.91 205 21:49 11.04.2022
4273 Clouds 0 1017 99 155 2.11 223 21:18 11.04.2022
4274 Clouds 0 1017 99 155 2.11 223 20:30 11.04.2022
4275 Clouds 1 1018 98 636 3.67 229 19:56 11.04.2022
4276 Clouds 1 1017 98 123 3.54 211 19:21 11.04.2022
4277 Clouds 1 1017 98 123 3.54 211 18:48 11.04.2022
4278 Snow 1 1017 98 109 3.97 226 17:57 11.04.2022
4279 Snow 1 1017 98 102 4.45 222 16:57 11.04.2022
4280 Snow 1 1016 98 108 4.51 215 16:20 11.04.2022
4281 Snow 1 1016 98 100 4.42 213 14:35 11.04.2022
4282 Clouds 1 1015 99 82 5.42 217 12:53 11.04.2022
4283 Clouds 1 1015 99 82 5.42 217 12:35 11.04.2022
4284 Snow 2 1015 98 97 6.1 213 11:37 11.04.2022
4285 Rain 2 1015 99 96 6.53 212 10:34 11.04.2022
4286 Rain 2 1014 99 112 7.02 202 09:22 11.04.2022
4287 Clouds 2 1014 99 70 6 194 06:51 11.04.2022
4288 Clouds 1 1015 100 162 2.67 135 02:30 11.04.2022
4289 Clouds 1 1016 99 47 3.53 189 22:39 10.04.2022
4290 Clouds 1 1016 99 55 3.27 190 21:55 10.04.2022
4291 Clouds 1 1016 99 55 3.27 190 21:33 10.04.2022
4292 Clouds 1 1016 99 74 3.15 189 20:31 10.04.2022
4293 Clouds 1 1016 98 87 4.3 204 19:45 10.04.2022
4294 Snow 1 1016 99 114 3.71 200 19:22 10.04.2022
4295 Snow 1 1016 99 114 3.71 200 18:43 10.04.2022
4296 Snow 1 1016 99 208 3.07 180 17:54 10.04.2022
4297 Snow 1 1016 99 208 3.07 180 17:34 10.04.2022
4298 Clouds -1 1016 99 488 3.16 131 16:25 10.04.2022
4299 Snow -2 1016 97 10000 4 120 15:20 10.04.2022
4300 Snow -3 1017 97 768 4.28 118 14:22 10.04.2022
4301 Snow -2 1017 97 258 4.17 132 12:35 10.04.2022
4302 Snow -3 1017 97 133 4.74 122 11:46 10.04.2022
4303 Snow -3 1017 95 356 5.51 123 11:28 10.04.2022
4304 Snow -3 1017 95 356 5.51 123 10:54 10.04.2022
4305 Snow -3 1017 95 356 5.51 123 10:54 10.04.2022
4306 Snow -4 1017 94 295 6.27 124 09:56 10.04.2022
4307 Snow -4 1018 93 751 7.07 125 09:28 10.04.2022
4308 Snow -5 1017 95 175 6.86 124 08:22 10.04.2022
4309 Snow -6 1018 95 157 7.1 122 07:21 10.04.2022
4310 Snow -8 1018 95 196 7.17 110 05:27 10.04.2022
4311 Clouds -11 1020 82 10000 5.78 107 02:21 10.04.2022
4312 Clouds -11 1022 80 10000 4.85 109 00:25 10.04.2022
4313 Clouds -11 1022 80 10000 4.85 109 23:43 09.04.2022
4314 Clouds -12 1022 81 10000 4.67 107 22:45 09.04.2022
4315 Clouds -12 1022 81 10000 4.62 110 21:34 09.04.2022
4316 Clouds -13 1023 82 10000 4.42 110 20:48 09.04.2022
4317 Clouds -14 1023 83 10000 4.08 111 20:23 09.04.2022
4318 Clouds -12 1023 84 10000 4.09 110 19:41 09.04.2022
4319 Clouds -12 1023 85 10000 4.01 112 18:54 09.04.2022
4320 Clouds -11 1024 86 10000 4.3 112 18:18 09.04.2022
4321 Clouds -11 1024 86 10000 4.3 112 17:34 09.04.2022
4322 Clouds -11 1024 86 10000 4.47 108 16:47 09.04.2022
4323 Clouds -10 1025 86 10000 4.62 107 15:55 09.04.2022
4324 Clouds -10 1025 87 10000 4.64 105 15:28 09.04.2022
4325 Clouds -9 1025 86 10000 4.54 103 14:27 09.04.2022
4326 Clouds -9 1025 86 10000 4.54 103 14:27 09.04.2022
4327 Clouds -9 1025 86 10000 4.54 103 13:54 09.04.2022
4328 Clouds -9 1025 84 10000 4.27 106 12:59 09.04.2022
4329 Clouds -9 1025 84 10000 4.27 106 12:34 09.04.2022
4330 Clouds -9 1025 81 10000 3.21 106 11:21 09.04.2022
4331 Clouds -10 1025 82 10000 2.69 107 10:20 09.04.2022
4332 Clouds -10 1025 82 10000 2.69 107 09:37 09.04.2022
4333 Clouds -11 1025 83 10000 2.47 103 08:50 09.04.2022
4334 Clouds -14 1025 89 10000 2.05 122 05:58 09.04.2022
4335 Clouds -21 1024 99 10000 1.55 187 00:38 09.04.2022
4336 Clouds -22 1024 100 10000 2.09 184 23:25 08.04.2022
4337 Clouds -22 1023 100 10000 1.58 191 21:58 08.04.2022
4338 Clouds -21 1023 100 10000 1.55 189 20:47 08.04.2022
4339 Clouds -22 1023 100 10000 1.48 189 19:58 08.04.2022
4340 Clouds -21 1022 100 10000 1.43 188 19:18 08.04.2022
4341 Clouds -21 1022 100 10000 1.17 197 18:25 08.04.2022
4342 Clouds -21 1022 100 10000 1.17 197 17:45 08.04.2022
4343 Clouds -21 1022 100 10000 0.57 200 17:22 08.04.2022
4344 Clouds -21 1022 100 10000 0.57 200 16:38 08.04.2022
4345 Clouds -19 1021 98 10000 0.26 309 15:53 08.04.2022
4346 Clouds -17 1021 94 10000 0.5 0 15:23 08.04.2022
4347 Clouds -16 1021 93 10000 0.92 21 14:26 08.04.2022
4348 Clouds -16 1021 92 10000 1 45 13:44 08.04.2022
4349 Clouds -16 1021 90 10000 1.36 19 13:25 08.04.2022
4350 Clouds -16 1020 89 10000 1.53 27 11:53 08.04.2022
4351 Clouds -16 1019 90 10000 1.7 35 10:32 08.04.2022
4352 Clouds -18 1018 93 10000 2.04 51 09:26 08.04.2022
4353 Clouds -18 1018 93 10000 2.04 51 08:30 08.04.2022
4354 Clouds -20 1018 97 10000 1.74 44 06:47 08.04.2022
4355 Clouds -25 1017 100 8490 1.31 15 04:34 08.04.2022
4356 Clouds -26 1015 100 7586 0.79 360 00:42 08.04.2022
4357 Clouds -25 1014 100 7068 0.92 25 00:19 08.04.2022
4358 Clouds -24 1014 100 6671 1.4 36 22:58 07.04.2022
4359 Clouds -24 1014 100 6671 1.4 36 22:37 07.04.2022
4360 Clouds -24 1014 100 7299 1.41 41 22:19 07.04.2022
4361 Clouds -24 1014 100 7299 1.41 41 21:49 07.04.2022
4362 Clouds -23 1014 100 6679 1.52 38 20:58 07.04.2022
4363 Clouds -23 1014 100 6679 1.52 38 20:30 07.04.2022
4364 Clouds -21 1013 100 5547 2.31 27 18:29 07.04.2022
4365 Clouds -19 1012 100 5701 2.57 18 17:25 07.04.2022
4366 Clouds -19 1012 100 5701 2.57 18 16:44 07.04.2022
4367 Clouds -17 1012 99 6747 2.83 11 16:20 07.04.2022
4368 Clouds -15 1012 96 6684 3.25 8 14:36 07.04.2022
4369 Clouds -15 1012 93 9571 4 11 13:42 07.04.2022
4370 Clouds -14 1011 91 10000 4.24 4 12:41 07.04.2022
4371 Clouds -14 1011 91 10000 4.19 352 11:29 07.04.2022
4372 Clouds -15 1011 92 10000 3.95 349 09:36 07.04.2022
4373 Clouds -16 1011 93 10000 4 346 08:37 07.04.2022
4374 Clouds -16 1011 93 10000 4 346 08:37 07.04.2022
4375 Clouds -18 1010 97 7950 3.51 333 06:42 07.04.2022
4376 Clouds -22 1010 100 5143 2.94 288 02:47 07.04.2022
4377 Clouds -22 1010 100 5659 3.28 287 02:18 07.04.2022
4378 Clouds -19 1009 98 9469 3.76 295 23:57 06.04.2022
4379 Clouds -18 1008 96 10000 4.06 303 22:48 06.04.2022
4380 Clouds -16 1008 94 10000 4.78 314 22:25 06.04.2022
4381 Clouds -16 1008 94 10000 4.78 314 21:32 06.04.2022
4382 Clouds -15 1007 95 10000 5.59 317 20:28 06.04.2022
4383 Clouds -15 1007 95 10000 5.59 317 19:53 06.04.2022
4384 Clouds -15 1006 94 9071 6.64 322 18:51 06.04.2022
4385 Clouds -14 1006 94 9068 7.36 322 18:22 06.04.2022
4386 Clouds -14 1006 94 9068 7.36 322 17:35 06.04.2022
4387 Clouds -14 1005 93 8203 7.86 321 16:38 06.04.2022
4388 Clouds -13 1005 93 5034 7.96 324 15:48 06.04.2022
4389 Clouds -12 1005 93 3201 8.61 324 14:35 06.04.2022
4390 Clouds -11 1004 93 2440 8.99 322 13:23 06.04.2022
4391 Clouds -10 1003 93 3348 8.66 324 12:22 06.04.2022
4392 Clouds -10 1002 93 3278 8.59 325 10:47 06.04.2022
4393 Clouds -9 1001 93 3130 8.49 326 10:25 06.04.2022
4394 Clouds -9 1001 93 3130 8.49 326 09:40 06.04.2022
4395 Clouds -9 1000 94 2454 7.87 328 08:32 06.04.2022
4396 Clouds -9 1000 94 1445 7.48 325 07:49 06.04.2022
4397 Clouds -13 999 97 1027 6.19 301 03:53 06.04.2022
4398 Clouds -12 999 95 5184 5.13 298 23:52 05.04.2022
4399 Clouds -11 999 95 9165 5.11 295 22:31 05.04.2022
4400 Clouds -10 999 96 4853 4.79 294 21:20 05.04.2022
4401 Clouds -10 999 96 8336 3.27 285 20:25 05.04.2022
4402 Clouds -10 999 96 10000 3 269 19:42 05.04.2022
4403 Clouds -10 999 96 10000 2.95 249 18:18 05.04.2022
4404 Clouds -10 1000 95 10000 3.63 242 16:54 05.04.2022
4405 Clouds -10 999 94 10000 3.28 243 15:56 05.04.2022
4406 Clouds -10 999 94 10000 3.28 243 15:34 05.04.2022
4407 Clouds -10 1000 93 10000 4.14 236 14:35 05.04.2022
4408 Clouds -10 999 93 10000 3.81 218 13:21 05.04.2022
4409 Clouds -10 999 92 10000 4.12 222 11:51 05.04.2022
4410 Clouds -10 999 92 10000 4.12 222 11:51 05.04.2022
4411 Clouds -10 999 92 10000 4.12 222 11:32 05.04.2022
4412 Clouds -11 999 92 10000 5.03 216 09:55 05.04.2022
4413 Clouds -11 999 92 10000 4.91 216 08:54 05.04.2022
4414 Clouds -10 998 93 10000 4.39 215 06:58 05.04.2022
4415 Clouds -12 997 97 6932 3.45 204 01:55 05.04.2022
4416 Clouds -8 996 97 10000 2.25 130 22:44 04.04.2022
4417 Snow -7 996 96 1921 3.71 106 22:26 04.04.2022
4418 Snow -6 997 95 294 5.53 100 21:21 04.04.2022
4419 Snow -6 997 95 294 5.53 100 20:50 04.04.2022
4420 Snow -7 998 94 216 7.03 99 19:58 04.04.2022
4421 Snow -7 998 94 163 8.09 97 19:26 04.04.2022
4422 Snow -7 998 94 163 8.09 97 18:33 04.04.2022
4423 Snow -8 999 94 140 9.77 97 16:37 04.04.2022
4424 Snow -8 1000 94 142 10.52 95 15:47 04.04.2022
4425 Snow -8 1000 93 162 11.28 92 15:29 04.04.2022
4426 Snow -8 1000 93 162 11.28 92 14:46 04.04.2022
4427 Snow -8 1000 93 178 11.77 92 13:31 04.04.2022
4428 Clouds -8 1002 90 1495 11.92 88 11:56 04.04.2022
4429 Clouds -8 1003 86 10000 11.9 90 11:29 04.04.2022
4430 Clouds -9 1005 84 10000 11.01 97 09:18 04.04.2022
4431 Clouds -13 1008 93 10000 7.56 89 05:21 04.04.2022
4432 Clouds -15 1011 97 9146 5.69 89 01:36 04.04.2022
4433 Clouds -18 1012 100 8136 3.17 102 22:45 03.04.2022
4434 Clouds -18 1013 98 10000 3.02 106 21:47 03.04.2022
4435 Clouds -18 1013 98 10000 2.86 120 20:57 03.04.2022
4436 Clouds -18 1014 96 10000 2.43 136 19:51 03.04.2022
4437 Clouds -17 1014 96 10000 2.15 160 18:33 03.04.2022
4438 Clouds -16 1014 96 10000 3 185 17:48 03.04.2022
4439 Clouds -15 1014 96 10000 3.28 195 17:21 03.04.2022
4440 Clouds -15 1014 96 10000 3.28 195 16:42 03.04.2022
4441 Clouds -12 1015 93 10000 3.48 211 15:18 03.04.2022
4442 Clouds -10 1015 92 10000 3.82 221 13:57 03.04.2022
4443 Clouds -9 1015 90 10000 4.44 229 12:48 03.04.2022
4444 Clouds -8 1014 90 10000 5.14 233 11:33 03.04.2022
4445 Clouds -7 1014 92 4387 5.21 249 09:40 03.04.2022
4446 Clouds -7 1013 92 1527 3.36 241 08:50 03.04.2022
4447 Clouds -8 1012 95 798 0.49 265 05:42 03.04.2022
4448 Snow -10 1011 96 351 1.33 236 02:55 03.04.2022
4449 Snow -8 1010 95 237 3.21 275 23:22 02.04.2022
4450 Snow -8 1010 95 237 3.21 275 23:22 02.04.2022
4451 Snow -8 1010 95 237 3.21 275 22:40 02.04.2022
4452 Snow -8 1009 95 258 3.93 274 21:54 02.04.2022
4453 Snow -8 1009 95 245 4.17 274 21:19 02.04.2022
4454 Snow -8 1009 95 245 4.17 274 20:35 02.04.2022
4455 Clouds -11 1009 94 1046 4.84 279 18:45 02.04.2022
4456 Clouds -11 1008 95 733 4.56 285 18:18 02.04.2022
4457 Snow -10 1008 94 631 5.06 303 16:45 02.04.2022
4458 Snow -7 1006 94 215 6.34 292 15:27 02.04.2022
4459 Snow -7 1006 94 215 6.34 292 14:52 02.04.2022
4460 Snow -7 1006 94 238 6.23 282 14:20 02.04.2022
4461 Snow -7 1006 94 382 6 284 13:29 02.04.2022
4462 Snow -7 1005 92 409 6.42 285 12:20 02.04.2022
4463 Snow -7 1004 92 441 6.54 283 10:22 02.04.2022
4464 Clouds -8 1004 91 1068 5.61 276 07:48 02.04.2022
4465 Clouds -11 1002 96 473 3.39 274 04:25 02.04.2022
4466 Snow -9 1001 95 171 3.56 265 01:21 02.04.2022
4467 Snow -9 1001 95 252 4.36 262 23:54 01.04.2022
4468 Snow -9 1000 94 287 5.05 268 22:46 01.04.2022
4469 Snow -8 999 95 356 5.17 282 20:55 01.04.2022
4470 Snow -8 999 95 356 5.17 282 20:35 01.04.2022
4471 Snow -8 999 94 230 6.44 270 19:41 01.04.2022
4472 Snow -7 999 94 196 7.41 265 19:23 01.04.2022
4473 Snow -7 999 94 196 7.41 265 18:37 01.04.2022
4474 Snow -7 998 93 235 8.11 263 17:38 01.04.2022
4475 Snow -10 998 93 337 6.94 254 15:46 01.04.2022
4476 Clouds -9 998 93 410 7.23 257 14:53 01.04.2022
4477 Clouds -8 998 90 2862 7.9 258 13:39 01.04.2022
4478 Clouds -8 998 90 1314 8.7 248 13:20 01.04.2022
4479 Clouds -9 997 90 1748 8.99 249 12:24 01.04.2022
4480 Clouds -9 997 90 2557 9.12 249 10:50 01.04.2022
4481 Clouds -10 997 90 4001 8.86 250 09:39 01.04.2022
4482 Clouds -12 997 92 10000 8.23 247 07:41 01.04.2022
4483 Clouds -15 997 94 10000 7.46 241 05:38 01.04.2022
4484 Clouds -16 997 95 10000 7.47 242 04:41 01.04.2022
4485 Clouds -17 997 92 10000 7.24 244 03:18 01.04.2022
4486 Clouds -17 997 90 10000 7.49 246 01:35 01.04.2022
4487 Clouds -18 997 90 10000 6.89 254 22:31 31.03.2022
4488 Clouds -18 997 91 10000 7.08 258 21:44 31.03.2022
4489 Clouds -18 996 92 10000 7.35 259 20:51 31.03.2022
4490 Clouds -17 996 92 10000 7.63 261 20:28 31.03.2022
4491 Clouds -17 997 92 10000 7.43 263 19:29 31.03.2022
4492 Clouds -17 997 92 10000 7.43 263 18:34 31.03.2022
4493 Clouds -16 997 93 10000 7.23 268 16:47 31.03.2022
4494 Clouds -15 997 93 8481 7.02 272 15:56 31.03.2022
4495 Clouds -15 997 92 8999 6.97 276 15:29 31.03.2022
4496 Clouds -15 997 92 8999 6.97 276 14:48 31.03.2022
4497 Clouds -14 996 92 10000 6.99 277 13:42 31.03.2022
4498 Clouds -13 996 92 10000 6.8 286 11:31 31.03.2022
4499 Clouds -14 995 94 9156 6.85 291 10:26 31.03.2022
4500 Clouds -14 995 94 9156 6.85 291 09:39 31.03.2022
4501 Clouds -13 996 95 5649 5.64 293 07:48 31.03.2022
4502 Clouds -18 997 99 2754 2.81 265 02:33 31.03.2022
4503 Clouds -20 998 100 2687 1.98 252 23:24 30.03.2022
4504 Clouds -20 998 100 2804 2.04 243 21:57 30.03.2022
4505 Clouds -20 998 100 2804 2.04 243 21:31 30.03.2022
4506 Clouds -20 998 100 2817 2.15 235 20:44 30.03.2022
4507 Clouds -20 999 100 3643 2.02 234 19:47 30.03.2022
4508 Clouds -20 999 100 5309 2.26 230 18:41 30.03.2022
4509 Clouds -20 999 100 8731 2.37 226 17:51 30.03.2022
4510 Clouds -19 999 100 8622 2.44 215 17:20 30.03.2022
4511 Clouds -19 999 100 8622 2.44 215 16:40 30.03.2022
4512 Clouds -17 999 98 10000 2.5 213 15:55 30.03.2022
4513 Clouds -15 1000 96 10000 2.4 203 14:35 30.03.2022
4514 Clouds -12 1000 92 10000 2.09 210 13:22 30.03.2022
4515 Clouds -11 999 90 10000 2.23 219 12:22 30.03.2022
4516 Clouds -12 999 90 10000 2.77 217 10:48 30.03.2022
4517 Clouds -12 999 91 10000 2.95 216 09:43 30.03.2022
4518 Clouds -14 1000 93 10000 3.15 210 08:21 30.03.2022
4519 Clouds -14 999 94 10000 3.15 212 06:50 30.03.2022
4520 Clouds -14 999 94 10000 3.25 213 05:40 30.03.2022
4521 Clouds -13 999 93 10000 3.26 210 01:48 30.03.2022
4522 Clouds -15 997 94 10000 3.66 210 22:39 29.03.2022
4523 Clouds -15 997 94 10000 3.74 215 21:48 29.03.2022
4524 Clouds -14 997 95 10000 3.76 220 21:28 29.03.2022
4525 Clouds -13 997 97 10000 2.99 235 20:25 29.03.2022
4526 Clouds -13 997 97 10000 2.99 235 19:31 29.03.2022
4527 Clouds -11 996 96 10000 2.74 245 18:53 29.03.2022
4528 Clouds -10 996 95 2391 2.96 246 17:48 29.03.2022
4529 Clouds -9 996 95 997 3.13 249 17:18 29.03.2022
4530 Clouds -9 996 95 997 3.13 249 16:52 29.03.2022
4531 Clouds -8 995 95 525 2.35 248 15:29 29.03.2022
4532 Clouds -8 995 95 525 2.35 248 14:43 29.03.2022
4533 Snow -7 995 94 481 1.76 261 13:34 29.03.2022
4534 Clouds -7 995 85 10000 1.44 218 12:21 29.03.2022
4535 Clouds -7 994 87 10000 1.68 195 10:59 29.03.2022
4536 Clouds -7 994 89 10000 1.58 183 09:51 29.03.2022
4537 Clouds -8 994 90 10000 2.32 179 08:43 29.03.2022
4538 Clouds -10 993 93 10000 3.39 149 06:21 29.03.2022
4539 Clouds -11 992 94 10000 3.1 141 02:19 29.03.2022
4540 Clouds -9 991 95 4051 3.96 142 23:26 28.03.2022
4541 Clouds -9 991 95 4051 3.96 142 23:26 28.03.2022
4542 Clouds -9 991 95 4051 3.96 142 23:26 28.03.2022
4543 Clouds -9 991 95 4051 3.96 142 22:56 28.03.2022
4544 Clouds -9 991 95 4051 3.96 142 22:31 28.03.2022
4545 Clouds -11 990 97 2323 3.95 138 21:38 28.03.2022
4546 Clouds -11 990 93 10000 3.62 130 20:32 28.03.2022
4547 Clouds -9 990 92 10000 3.64 126 19:48 28.03.2022
4548 Clouds -9 990 92 10000 3.64 126 19:30 28.03.2022
4549 Clouds -8 990 91 6813 4.02 122 18:44 28.03.2022
4550 Clouds -6 990 90 10000 4.4 125 17:41 28.03.2022
4551 Clouds -6 991 92 10000 4.42 121 16:47 28.03.2022
4552 Clouds -6 991 93 1964 4.79 106 14:53 28.03.2022
4553 Clouds -6 991 93 2974 5.08 103 14:23 28.03.2022
4554 Clouds -7 991 93 3051 5.21 102 12:51 28.03.2022
4555 Clouds -7 992 92 10000 5.36 103 11:43 28.03.2022
4556 Snow -7 993 91 3011 5.85 105 09:55 28.03.2022
4557 Snow -8 993 93 389 6.28 100 09:20 28.03.2022
4558 Snow -9 994 94 297 6.91 96 08:23 28.03.2022
4559 Snow -9 994 94 297 7.28 95 07:56 28.03.2022
4560 Snow -11 995 94 166 7.78 92 05:55 28.03.2022
4561 Clouds -15 1001 92 1600 8.88 90 23:53 27.03.2022
4562 Clouds -15 1002 91 10000 8.86 90 22:34 27.03.2022
4563 Clouds -15 1003 91 10000 8.69 85 21:42 27.03.2022
4564 Clouds -15 1004 91 10000 8.39 84 20:58 27.03.2022
4565 Clouds -16 1005 93 10000 7.55 77 20:18 27.03.2022
4566 Clouds -16 1005 93 10000 7.55 77 19:34 27.03.2022
4567 Clouds -16 1006 95 10000 6.73 76 18:30 27.03.2022
4568 Clouds -17 1007 95 10000 6.07 78 17:55 27.03.2022
4569 Clouds -17 1007 95 10000 6.07 78 17:35 27.03.2022
4570 Clouds -18 1007 95 10000 4.97 80 15:46 27.03.2022
4571 Clouds -17 1008 94 10000 4.8 79 13:57 27.03.2022
4572 Clouds -17 1009 92 10000 4.45 77 12:50 27.03.2022
4573 Clouds -17 1009 92 10000 3.73 77 11:30 27.03.2022
4574 Clouds -18 1009 95 10000 2.91 74 09:37 27.03.2022
4575 Clouds -21 1010 99 10000 2.16 90 06:54 27.03.2022
4576 Clouds -25 1010 100 6772 1.54 117 01:55 27.03.2022
4577 Clouds -24 1009 100 10000 1.28 138 00:25 27.03.2022
4578 Clouds -24 1009 100 10000 1.26 156 22:45 26.03.2022
4579 Clouds -24 1009 100 10000 1.3 169 21:50 26.03.2022
4580 Clouds -24 1009 100 8939 1.31 171 21:28 26.03.2022
4581 Clouds -23 1009 100 7004 1.36 179 19:31 26.03.2022
4582 Clouds -23 1008 100 6650 1.09 143 18:25 26.03.2022
4583 Clouds -23 1008 100 6650 1.09 143 17:33 26.03.2022
4584 Clouds -22 1007 100 6961 0.98 127 16:30 26.03.2022
4585 Clouds -21 1007 100 7244 0.97 95 15:35 26.03.2022
4586 Clouds -16 1006 94 10000 1.19 56 13:55 26.03.2022
4587 Clouds -14 1006 93 10000 2.34 42 13:19 26.03.2022
4588 Clouds -14 1005 91 10000 2.57 40 11:42 26.03.2022
4589 Clouds -14 1005 91 10000 2.41 44 10:32 26.03.2022
4590 Clouds -15 1003 94 9899 2.51 58 08:44 26.03.2022
4591 Clouds -16 1002 97 5569 2.91 71 06:37 26.03.2022
4592 Clouds -19 1001 100 6595 2.64 67 05:29 26.03.2022
4593 Clouds -17 999 98 8667 2.89 81 00:41 26.03.2022
4594 Clouds -15 999 94 10000 2.43 111 21:56 25.03.2022
4595 Clouds -15 999 93 10000 2.56 140 20:46 25.03.2022
4596 Clouds -15 1000 92 10000 2.91 166 20:20 25.03.2022
4597 Clouds -19 1001 98 10000 3.68 197 18:51 25.03.2022
4598 Clouds -19 1002 97 10000 3.68 206 17:53 25.03.2022
4599 Clouds -19 1002 96 10000 3.72 215 17:27 25.03.2022
4600 Clouds -18 1003 95 10000 3.83 222 16:21 25.03.2022
4601 Clouds -17 1003 90 10000 4.09 233 14:54 25.03.2022
4602 Clouds -15 1004 93 10000 3.54 236 13:26 25.03.2022
4603 Clouds -12 1003 89 10000 3.28 266 10:35 25.03.2022
4604 Clouds -12 1003 85 10000 4.21 291 09:28 25.03.2022
4605 Clouds -12 1003 85 10000 4.21 291 08:36 25.03.2022
4606 Clouds -12 1003 85 10000 4.62 299 07:30 25.03.2022
4607 Clouds -11 1001 89 5491 5.52 321 06:29 25.03.2022
4608 Clouds -11 1001 89 5491 5.52 321 06:29 25.03.2022
4609 Clouds -11 1000 94 465 6.17 322 01:57 25.03.2022
4610 Snow -11 999 94 342 5.82 326 22:55 24.03.2022
4611 Snow -11 998 95 302 5.03 322 21:52 24.03.2022
4612 Snow -11 998 95 309 4.7 320 20:40 24.03.2022
4613 Snow -11 998 95 292 4.51 318 19:48 24.03.2022
4614 Clouds -11 997 95 634 4.94 308 17:50 24.03.2022
4615 Clouds -11 997 95 572 4.72 301 17:23 24.03.2022
4616 Clouds -11 997 95 681 4.35 294 15:52 24.03.2022
4617 Clouds -11 997 94 969 4.22 294 14:50 24.03.2022
4618 Clouds -11 997 93 1588 4.3 295 14:20 24.03.2022
4619 Clouds -10 996 92 3003 4.26 299 13:24 24.03.2022
4620 Clouds -10 996 90 4160 4.67 301 11:52 24.03.2022
4621 Clouds -10 996 88 6166 5.52 309 10:18 24.03.2022
4622 Clouds -10 995 89 4403 5.81 308 08:49 24.03.2022
4623 Clouds -11 995 92 2846 5.54 306 06:55 24.03.2022
4624 Clouds -11 994 93 697 5.82 311 03:59 24.03.2022
4625 Snow -10 992 93 306 6.86 306 23:21 23.03.2022
4626 Clouds -10 992 93 358 7.21 309 21:45 23.03.2022
4627 Clouds -10 991 92 918 7.5 311 21:20 23.03.2022
4628 Clouds -10 991 92 718 7.8 311 19:46 23.03.2022
4629 Clouds -10 990 92 508 8.01 311 18:59 23.03.2022
4630 Snow -9 989 92 442 8.28 312 17:38 23.03.2022
4631 Snow -9 989 93 403 8.51 313 16:50 23.03.2022
4632 Clouds -9 987 93 537 8.53 314 14:52 23.03.2022
4633 Clouds -9 987 93 537 8.53 314 14:32 23.03.2022
4634 Clouds -7 985 93 804 8.6 318 13:21 23.03.2022
4635 Snow -6 981 94 191 8.87 307 10:20 23.03.2022
4636 Snow -5 980 94 194 8.58 300 06:55 23.03.2022
4637 Snow -5 979 95 216 8.89 294 05:27 23.03.2022
4638 Snow -5 979 94 738 11.21 300 00:35 23.03.2022
4639 Snow -3 977 96 184 8.69 285 23:41 22.03.2022
4640 Snow -4 978 93 352 9.59 236 21:30 22.03.2022
4641 Snow -4 980 93 271 9.23 234 20:49 22.03.2022
4642 Snow -4 981 92 747 9.63 240 19:52 22.03.2022
4643 Snow -4 981 92 406 9.6 243 19:24 22.03.2022
4644 Snow -4 981 92 406 9.6 243 18:45 22.03.2022
4645 Snow -4 982 92 452 9.5 249 17:38 22.03.2022
4646 Snow -4 983 92 538 9.6 244 16:28 22.03.2022
4647 Snow -3 984 91 1377 9.44 242 15:23 22.03.2022
4648 Snow -3 984 91 1377 9.44 242 14:59 22.03.2022
4649 Snow -3 984 91 1377 9.44 242 14:41 22.03.2022
4650 Clouds -4 985 91 629 10.09 236 13:36 22.03.2022
4651 Clouds -3 987 85 10000 9.15 247 11:52 22.03.2022
4652 Clouds -3 988 83 10000 9.04 256 10:46 22.03.2022
4653 Clouds -2 989 89 3823 9.3 262 08:38 22.03.2022
4654 Clouds -2 990 86 5407 7.74 267 06:53 22.03.2022
4655 Snow -5 993 92 326 11.52 216 03:52 22.03.2022
4656 Snow -7 999 91 663 11.67 208 00:29 22.03.2022
4657 Snow -8 1002 92 524 10.34 207 22:42 21.03.2022
4658 Clouds -9 1007 92 8410 9.34 214 21:18 21.03.2022
4659 Clouds -9 1007 92 8410 9.34 214 21:18 21.03.2022
4660 Clouds -9 1007 92 8410 9.34 214 20:41 21.03.2022
4661 Clouds -9 1008 92 4312 8.59 214 19:59 21.03.2022
4662 Clouds -9 1008 92 4312 8.59 214 19:34 21.03.2022
4663 Clouds -9 1010 93 10000 7.22 215 18:36 21.03.2022
4664 Clouds -10 1013 93 2373 6.6 223 17:19 21.03.2022
4665 Clouds -10 1013 93 2373 6.6 223 16:51 21.03.2022
4666 Clouds -11 1014 94 1078 6.33 224 16:24 21.03.2022
4667 Clouds -13 1015 95 1698 5.32 222 15:21 21.03.2022
4668 Clouds -13 1016 95 5317 4.53 221 14:28 21.03.2022
4669 Clouds -14 1016 96 10000 3.65 220 12:43 21.03.2022
4670 Clouds -14 1016 96 10000 3.11 226 11:54 21.03.2022
4671 Clouds -13 1017 97 7194 2.22 244 10:49 21.03.2022
4672 Clouds -13 1017 97 4998 2.04 303 09:21 21.03.2022
4673 Clouds -15 1016 98 6435 2.4 325 06:59 21.03.2022
4674 Clouds -17 1013 100 3371 3 345 03:29 21.03.2022
4675 Clouds -16 1010 100 3035 3.26 351 00:35 21.03.2022
4676 Clouds -11 1008 95 7243 6.39 25 22:55 20.03.2022
4677 Snow -10 1006 95 898 6.86 24 21:57 20.03.2022
4678 Snow -10 1006 95 898 6.86 24 21:30 20.03.2022
4679 Snow -9 1004 95 405 6.66 20 20:47 20.03.2022
4680 Snow -9 1002 95 262 6.03 16 20:24 20.03.2022
4681 Snow -9 1002 95 262 6.03 16 19:43 20.03.2022
4682 Snow -8 1001 95 225 5.89 15 18:44 20.03.2022
4683 Snow -8 999 96 143 5.5 12 17:38 20.03.2022
4684 Snow -7 998 96 154 5.08 11 16:58 20.03.2022
4685 Clouds -7 997 96 786 4.07 7 15:52 20.03.2022
4686 Clouds -6 996 97 1526 4.84 19 14:36 20.03.2022
4687 Clouds -4 994 94 4240 5.36 344 13:20 20.03.2022
4688 Snow -2 993 94 2131 5.43 338 11:37 20.03.2022
4689 Clouds -3 992 92 2592 5.02 301 09:57 20.03.2022
4690 Clouds -5 992 94 4422 4.55 276 07:50 20.03.2022
4691 Clouds -8 992 96 8454 4.53 254 05:49 20.03.2022
4692 Clouds -6 993 93 10000 5.53 236 02:53 20.03.2022
4693 Clouds -6 994 92 6423 6.61 240 00:48 20.03.2022
4694 Clouds -5 995 93 6332 8.06 260 23:20 19.03.2022
4695 Clouds -4 996 94 6500 9.31 258 21:32 19.03.2022
4696 Clouds -3 997 93 1084 10.93 257 20:58 19.03.2022
4697 Clouds -1 998 90 4447 11.95 266 18:59 19.03.2022
4698 Snow -1 998 90 1921 12.74 269 18:25 19.03.2022
4699 Snow -1 998 90 1921 12.74 269 17:41 19.03.2022
4700 Snow -1 999 95 185 12.6 262 16:24 19.03.2022
4701 Snow -1 1001 94 391 11.52 259 15:19 19.03.2022
4702 Snow -1 1002 95 227 9.84 255 13:35 19.03.2022
4703 Clouds 0 1003 90 1201 10.76 260 12:41 19.03.2022
4704 Snow 0 1004 90 6808 10.65 263 11:54 19.03.2022
4705 Clouds -1 1005 93 1345 10.43 255 11:25 19.03.2022
4706 Snow -3 1007 93 442 9.25 249 08:23 19.03.2022
4707 Clouds -7 1011 95 7400 9.63 228 04:23 19.03.2022
4708 Clouds -7 1012 94 10000 9.29 230 02:30 19.03.2022
4709 Clouds -4 1015 97 2684 7.1 231 23:46 18.03.2022
4710 Clouds -3 1017 97 1850 5.93 243 22:29 18.03.2022
4711 Clouds -3 1017 97 1850 5.93 243 21:55 18.03.2022
4712 Clouds -3 1018 97 1700 6.26 257 19:54 18.03.2022
4713 Clouds -3 1018 97 1798 7.34 257 19:22 18.03.2022
4714 Clouds -4 1018 96 2287 8.03 248 18:27 18.03.2022
4715 Clouds -5 1018 96 10000 8.69 244 16:52 18.03.2022
4716 Clouds -6 1019 94 10000 9.16 239 15:43 18.03.2022
4717 Clouds -6 1020 92 10000 9.14 236 14:25 18.03.2022
4718 Clouds -5 1020 91 10000 8.93 231 12:39 18.03.2022
4719 Clouds -3 1022 93 10000 8.68 232 11:21 18.03.2022
4720 Clouds -3 1022 96 4455 8.58 232 09:34 18.03.2022
4721 Clouds -3 1023 97 1222 8.38 235 08:42 18.03.2022
4722 Clouds -5 1023 93 10000 7.54 233 06:42 18.03.2022
4723 Clouds -6 1023 92 10000 7.34 242 03:30 18.03.2022
4724 Clouds -5 1024 89 10000 6.83 251 00:54 18.03.2022
4725 Clouds -5 1024 89 10000 6.95 252 23:52 17.03.2022
4726 Clouds -4 1023 89 10000 7.55 249 22:26 17.03.2022
4727 Clouds -4 1023 89 10000 7.55 249 21:51 17.03.2022
4728 Clouds -5 1023 92 10000 7.65 245 21:27 17.03.2022
4729 Clouds -5 1023 92 10000 7.65 245 20:52 17.03.2022
4730 Clouds -6 1023 94 10000 7.6 243 19:55 17.03.2022
4731 Clouds -6 1023 94 10000 7.6 243 19:33 17.03.2022
4732 Clouds -5 1023 96 10000 8.13 246 18:51 17.03.2022
4733 Clouds -7 1023 96 10000 7.99 245 17:26 17.03.2022
4734 Clouds -7 1023 94 9137 8.41 246 15:52 17.03.2022
4735 Clouds -7 1023 94 9137 8.41 246 15:34 17.03.2022
4736 Clouds -6 1023 93 10000 8.95 243 14:48 17.03.2022
4737 Clouds -6 1024 92 7077 9.26 248 13:22 17.03.2022
4738 Clouds -6 1024 94 6309 8.79 244 12:37 17.03.2022
4739 Clouds -6 1024 94 4888 8.87 243 11:30 17.03.2022
4740 Clouds -6 1024 93 8283 9.47 246 10:34 17.03.2022
4741 Clouds -2 1025 94 10000 8.81 239 08:41 17.03.2022
4742 Clouds 0 1025 93 10000 8.13 246 07:52 17.03.2022
4743 Clouds 0 1025 97 1049 6.42 259 05:48 17.03.2022
4744 Clouds 0 1025 96 1035 6.1 268 03:41 17.03.2022
4745 Clouds 0 1024 94 10000 5.99 281 00:21 17.03.2022
4746 Clouds 0 1024 96 1941 5.93 273 22:52 16.03.2022
4747 Clouds 0 1024 96 1941 5.93 273 22:33 16.03.2022
4748 Clouds 0 1024 97 1967 5.53 263 21:52 16.03.2022
4749 Clouds 0 1024 98 354 5.13 266 20:28 16.03.2022
4750 Clouds 0 1024 98 469 5.17 269 19:22 16.03.2022
4751 Clouds 0 1023 98 389 4.64 277 18:40 16.03.2022
4752 Clouds 0 1023 97 3960 4.64 271 17:44 16.03.2022
4753 Clouds 0 1023 97 4087 4.76 268 17:26 16.03.2022
4754 Clouds 0 1023 97 2636 5.08 273 15:56 16.03.2022
4755 Snow 0 1023 98 1263 5.6 276 14:31 16.03.2022
4756 Snow 0 1023 97 532 5.92 268 13:32 16.03.2022
4757 Snow 0 1021 97 341 6.18 266 11:58 16.03.2022
4758 Clouds -1 1022 96 398 6.19 258 11:21 16.03.2022
4759 Clouds -2 1022 95 3400 6.26 255 10:27 16.03.2022
4760 Clouds -2 1022 95 3400 6.26 255 09:42 16.03.2022
4761 Clouds -6 1022 93 1967 7.1 251 06:27 16.03.2022
4762 Snow -6 1023 93 809 7.79 252 01:56 16.03.2022
4763 Snow -6 1023 95 142 8.18 256 22:44 15.03.2022
4764 Snow -5 1023 95 165 8.41 258 22:18 15.03.2022
4765 Snow -5 1023 94 282 8.7 257 20:36 15.03.2022
4766 Snow -6 1024 94 310 8.99 255 18:58 15.03.2022
4767 Snow -6 1024 94 161 9.89 249 17:24 15.03.2022
4768 Snow -6 1024 94 161 9.89 249 16:32 15.03.2022
4769 Snow -7 1025 93 281 9.98 244 15:21 15.03.2022
4770 Snow -7 1025 93 281 9.98 244 14:45 15.03.2022
4771 Snow -7 1025 93 238 10 241 13:46 15.03.2022
4772 Clouds -9 1027 93 446 9.2 234 12:29 15.03.2022
4773 Clouds -9 1027 93 446 9.2 234 11:31 15.03.2022
4774 Clouds -11 1027 93 5549 8.64 234 09:46 15.03.2022
4775 Clouds -11 1028 93 5683 8.36 236 08:42 15.03.2022
4776 Clouds -11 1028 94 5296 8.25 238 07:52 15.03.2022
4777 Clouds -11 1028 94 5296 8.25 238 07:32 15.03.2022
4778 Clouds -11 1028 94 9622 7.72 240 03:41 15.03.2022
4779 Clouds -9 1028 93 1054 7.46 249 23:44 14.03.2022
4780 Clouds -9 1028 93 1613 7.4 248 23:23 14.03.2022
4781 Clouds -9 1028 93 1122 7.62 248 22:26 14.03.2022
4782 Clouds -9 1028 93 1122 7.62 248 21:30 14.03.2022
4783 Clouds -9 1028 93 3282 7.69 245 20:41 14.03.2022
4784 Clouds -9 1027 93 2594 7.83 243 20:19 14.03.2022
4785 Clouds -9 1028 93 2180 7.75 245 18:55 14.03.2022
4786 Clouds -10 1028 93 1257 7.8 243 17:54 14.03.2022
4787 Clouds -10 1028 93 1286 7.8 241 16:58 14.03.2022
4788 Clouds -10 1028 93 1606 7.58 240 15:43 14.03.2022
4789 Clouds -11 1028 94 2974 7.53 240 14:40 14.03.2022
4790 Clouds -11 1028 94 10000 6.97 235 12:22 14.03.2022
4791 Clouds -11 1028 94 10000 6.78 238 10:51 14.03.2022
4792 Clouds -12 1028 94 10000 6.42 237 09:44 14.03.2022
4793 Clouds -12 1028 94 10000 5.95 237 09:21 14.03.2022
4794 Clouds -12 1028 94 10000 5.95 237 08:55 14.03.2022
4795 Clouds -14 1028 97 10000 4.64 236 07:28 14.03.2022
4796 Clouds -16 1028 99 5504 3.84 237 05:44 14.03.2022
4797 Clouds -17 1027 100 1169 3.09 238 01:55 14.03.2022
4798 Clouds -17 1026 100 1123 2.88 234 01:24 14.03.2022
4799 Clouds -17 1025 100 3432 2.41 229 22:43 13.03.2022
4800 Clouds -17 1025 100 4283 1.89 238 21:29 13.03.2022
4801 Clouds -17 1025 100 4283 1.89 238 20:55 13.03.2022
4802 Clouds -17 1025 100 4283 1.89 238 20:30 13.03.2022
4803 Clouds -17 1024 99 7689 2.12 224 19:49 13.03.2022
4804 Clouds -17 1023 99 10000 1.98 222 19:27 13.03.2022
4805 Clouds -17 1023 99 10000 1.98 222 18:59 13.03.2022
4806 Clouds -17 1023 99 10000 1.98 222 18:31 13.03.2022
4807 Clouds -17 1023 99 10000 1.59 208 17:40 13.03.2022
4808 Clouds -17 1023 99 10000 1.59 208 17:40 13.03.2022
4809 Clouds -17 1023 99 10000 1.41 208 16:57 13.03.2022
4810 Clouds -17 1022 99 10000 1.04 228 16:29 13.03.2022
4811 Clouds -17 1022 99 10000 1.04 228 15:44 13.03.2022
4812 Clouds -16 1021 98 10000 1.37 207 14:51 13.03.2022
4813 Clouds -15 1020 98 10000 1.57 185 13:33 13.03.2022
4814 Clouds -13 1020 97 10000 1.63 156 12:38 13.03.2022
4815 Clouds -12 1019 96 10000 1.63 132 11:51 13.03.2022
4816 Clouds -12 1019 96 10000 1.63 132 11:31 13.03.2022
4817 Clouds -12 1019 96 10000 1.63 132 11:31 13.03.2022
4818 Clouds -11 1018 95 10000 1.62 116 10:46 13.03.2022
4819 Clouds -11 1017 95 10000 1.62 117 09:59 13.03.2022
4820 Clouds -11 1017 95 10000 1.62 117 09:40 13.03.2022
4821 Clouds -11 1016 94 10000 1.74 148 08:45 13.03.2022
4822 Clouds -12 1015 95 10000 2.05 154 07:40 13.03.2022
4823 Clouds -14 1014 97 10000 2.48 142 05:40 13.03.2022
4824 Clouds -14 1011 97 10000 2.5 156 02:39 13.03.2022
4825 Clouds -12 1008 95 10000 3.65 162 23:33 12.03.2022
4826 Clouds -10 1006 94 10000 3.79 148 21:53 12.03.2022
4827 Clouds -9 1004 92 10000 4.59 151 20:29 12.03.2022
4828 Clouds -9 1004 92 10000 4.59 151 19:47 12.03.2022
4829 Clouds -8 1003 89 10000 5.18 145 18:55 12.03.2022
4830 Clouds -10 1003 93 10000 4.54 130 18:21 12.03.2022
4831 Clouds -10 1002 92 10000 4.34 127 17:23 12.03.2022
4832 Clouds -9 1002 90 10000 4.62 135 16:23 12.03.2022
4833 Clouds -9 1002 88 10000 5.49 155 15:22 12.03.2022
4834 Clouds -8 1002 87 10000 6.72 166 14:27 12.03.2022
4835 Clouds -9 1003 86 10000 7.21 176 12:35 12.03.2022
4836 Clouds -8 1002 87 10000 8.01 181 11:56 12.03.2022
4837 Clouds -8 1002 87 10000 8.01 181 11:34 12.03.2022
4838 Clouds -8 1002 87 10000 8.25 185 10:52 12.03.2022
4839 Clouds -8 1002 87 10000 8.32 189 09:44 12.03.2022
4840 Clouds -8 1002 88 10000 8.14 191 08:53 12.03.2022
4841 Clouds -9 1003 89 10000 8.49 196 06:53 12.03.2022
4842 Clouds -9 1003 87 10000 11.03 201 01:44 12.03.2022
4843 Clouds -9 1005 86 10000 11.48 200 23:51 11.03.2022
4844 Clouds -9 1005 86 10000 11.52 199 22:45 11.03.2022
4845 Clouds -10 1006 87 4815 11.33 197 21:26 11.03.2022
4846 Clouds -10 1006 87 4815 11.33 197 20:51 11.03.2022
4847 Clouds -10 1007 87 4303 11.21 196 20:28 11.03.2022
4848 Clouds -10 1007 87 4303 11.21 196 19:36 11.03.2022
4849 Clouds -10 1008 87 5121 11.04 195 18:51 11.03.2022
4850 Clouds -11 1010 87 4989 10.57 196 17:28 11.03.2022
4851 Clouds -11 1011 86 4533 10.53 198 16:27 11.03.2022
4852 Clouds -11 1011 86 4533 10.53 198 15:52 11.03.2022
4853 Clouds -12 1012 87 3943 10.43 201 14:18 11.03.2022
4854 Clouds -12 1013 87 5773 10.41 201 12:43 11.03.2022
4855 Clouds -12 1014 87 5980 10.6 202 12:20 11.03.2022
4856 Clouds -12 1014 88 7939 10.82 201 11:28 11.03.2022
4857 Clouds -12 1015 88 10000 11.08 203 09:36 11.03.2022
4858 Clouds -13 1016 89 10000 11.23 206 08:28 11.03.2022
4859 Clouds -13 1016 89 10000 11.23 206 07:48 11.03.2022
4860 Clouds -13 1016 89 10000 11.08 206 06:55 11.03.2022
4861 Clouds -13 1017 89 1591 11.13 207 04:44 11.03.2022
4862 Clouds -13 1019 89 9263 11.15 210 01:51 11.03.2022
4863 Clouds -13 1021 89 6496 11.21 213 22:33 10.03.2022
4864 Clouds -14 1022 89 6447 10.99 212 21:58 10.03.2022
4865 Clouds -14 1023 89 5898 10.94 211 21:25 10.03.2022
4866 Clouds -14 1023 89 5898 10.94 211 20:37 10.03.2022
4867 Clouds -16 1024 89 10000 10.66 211 19:22 10.03.2022
4868 Clouds -16 1025 86 10000 10.94 213 17:55 10.03.2022
4869 Clouds -16 1026 85 10000 10.65 212 16:53 10.03.2022
4870 Clouds -17 1028 83 10000 9.87 211 15:29 10.03.2022
4871 Clouds -17 1029 84 10000 9.25 210 13:46 10.03.2022
4872 Clouds -18 1029 85 10000 8.75 210 12:41 10.03.2022
4873 Clouds -19 1031 89 10000 8.35 215 11:29 10.03.2022
4874 Clouds -20 1031 92 10000 8.23 216 09:43 10.03.2022
4875 Clouds -22 1031 92 10000 8.09 219 08:23 10.03.2022
4876 Clouds -24 1032 97 10000 7.47 220 05:32 10.03.2022
4877 Clouds -24 1033 94 10000 6.28 217 02:33 10.03.2022
4878 Clouds -25 1032 95 10000 5.38 220 23:32 09.03.2022
4879 Clouds -26 1032 95 10000 5.18 220 22:22 09.03.2022
4880 Clouds -26 1032 95 10000 5.18 220 21:44 09.03.2022
4881 Clouds -26 1032 95 10000 4.98 221 20:44 09.03.2022
4882 Clouds -26 1032 94 10000 4.62 225 18:50 09.03.2022
4883 Clouds -27 1031 94 10000 4.73 224 17:28 09.03.2022
4884 Clouds -27 1031 94 10000 4.73 224 16:39 09.03.2022
4885 Clouds -27 1031 94 10000 4.7 225 15:32 09.03.2022
4886 Clouds -26 1031 93 10000 4.37 230 14:19 09.03.2022
4887 Clear -26 1030 92 10000 3.83 228 12:59 09.03.2022
4888 Clear -25 1029 92 10000 3.73 229 12:20 09.03.2022
4889 Clear -25 1029 92 10000 3.73 229 11:45 09.03.2022
4890 Clear -24 1029 91 10000 3.84 231 10:50 09.03.2022
4891 Clear -25 1028 93 10000 3.64 229 09:22 09.03.2022
4892 Clear -25 1028 93 10000 3.64 229 08:42 09.03.2022
4893 Clouds -30 1027 96 10000 3.66 222 04:49 09.03.2022
4894 Clouds -31 1026 97 10000 3.44 222 00:55 09.03.2022
4895 Clouds -31 1025 97 10000 3.28 225 23:21 08.03.2022
4896 Clouds -31 1025 97 10000 3.28 225 22:45 08.03.2022
4897 Clouds -31 1025 97 10000 3.15 226 21:43 08.03.2022
4898 Clouds -31 1024 97 10000 3.07 226 21:18 08.03.2022
4899 Clouds -31 1024 97 10000 3 228 19:59 08.03.2022
4900 Clouds -31 1024 97 10000 3.03 230 18:53 08.03.2022
4901 Clouds -31 1024 97 9204 2.8 233 17:51 08.03.2022
4902 Clouds -31 1024 98 9188 2.62 234 16:35 08.03.2022
4903 Clouds -30 1024 98 10000 2.21 253 14:23 08.03.2022
4904 Clouds -29 1023 97 10000 2.02 263 12:44 08.03.2022
4905 Clouds -28 1022 96 10000 1.73 274 11:53 08.03.2022
4906 Clouds -28 1022 96 10000 1.73 274 11:34 08.03.2022
4907 Clouds -27 1022 95 10000 1.72 302 10:22 08.03.2022
4908 Clouds -28 1022 97 7575 1.61 305 08:28 08.03.2022
4909 Clouds -28 1021 99 3928 1.25 312 05:47 08.03.2022
4910 Clouds -28 1020 98 2109 1.92 351 00:43 08.03.2022
4911 Clouds -32 1020 100 5122 1.26 14 22:23 07.03.2022
4912 Clouds -32 1020 100 5122 1.26 14 21:35 07.03.2022
4913 Clouds -32 1020 100 5146 1.48 31 20:54 07.03.2022
4914 Clouds -31 1020 100 5189 1.65 30 20:22 07.03.2022
4915 Clouds -31 1020 100 5189 1.65 30 19:38 07.03.2022
4916 Clouds -31 1020 100 4748 1.77 15 18:47 07.03.2022
4917 Clouds -31 1020 100 4596 1.94 20 17:54 07.03.2022
4918 Clouds -30 1020 100 4702 2.12 24 16:56 07.03.2022
4919 Clouds -29 1020 100 4547 2.59 28 16:20 07.03.2022
4920 Clouds -28 1020 99 3039 3.37 12 14:19 07.03.2022
4921 Clouds -28 1019 99 3166 3.24 0 12:33 07.03.2022
4922 Clouds -28 1019 97 2651 3.44 3 10:39 07.03.2022
4923 Clouds -28 1019 97 3160 3.39 0 09:47 07.03.2022
4924 Clouds -29 1019 100 3865 2.97 360 06:20 07.03.2022
4925 Clouds -31 1019 100 5141 1.63 24 00:23 07.03.2022
4926 Clouds -31 1019 100 5141 1.63 24 23:35 06.03.2022
4927 Clouds -31 1019 100 5109 1.71 34 22:57 06.03.2022
4928 Clouds -30 1019 100 5427 1.8 38 22:19 06.03.2022
4929 Clouds -30 1019 100 5325 1.87 44 20:50 06.03.2022
4930 Clouds -30 1019 100 4686 1.95 46 20:23 06.03.2022
4931 Clouds -29 1019 100 4348 1.83 49 19:21 06.03.2022
4932 Clouds -30 1019 100 4773 1.64 55 18:25 06.03.2022
4933 Clouds -30 1019 100 5004 1.69 59 17:21 06.03.2022
4934 Clouds -30 1019 100 5004 1.69 59 16:42 06.03.2022
4935 Clouds -30 1019 100 5709 1.74 60 15:54 06.03.2022
4936 Clouds -30 1019 100 6378 2.26 54 14:49 06.03.2022
4937 Clouds -30 1019 100 6378 2.26 54 14:31 06.03.2022
4938 Clouds -28 1019 98 6857 2.81 49 13:29 06.03.2022
4939 Clouds -29 1019 99 6765 3.09 52 12:35 06.03.2022
4940 Clouds -27 1019 97 7517 3.07 52 11:18 06.03.2022
4941 Clouds -27 1019 97 7585 3.12 57 10:27 06.03.2022
4942 Clouds -27 1019 97 6632 2.94 63 08:30 06.03.2022
4943 Clouds -27 1019 98 5296 2.68 63 07:35 06.03.2022
4944 Clouds -28 1019 100 4125 1.82 57 05:40 06.03.2022
4945 Clouds -28 1020 100 2208 1.69 24 00:51 06.03.2022
4946 Clouds -29 1020 100 2386 1.48 26 00:30 06.03.2022
4947 Clouds -29 1021 100 2387 1.16 351 23:21 05.03.2022
4948 Clouds -29 1021 100 2387 1.16 351 22:47 05.03.2022
4949 Clouds -29 1021 100 2632 0.99 358 21:56 05.03.2022
4950 Clouds -29 1021 100 3287 0.94 19 21:23 05.03.2022
4951 Clouds -28 1021 100 4175 0.77 24 19:44 05.03.2022
4952 Clouds -29 1021 100 4791 0.86 10 18:54 05.03.2022
4953 Clouds -29 1021 100 4072 1.06 14 18:27 05.03.2022
4954 Clouds -28 1021 100 4530 1.18 14 16:34 05.03.2022
4955 Clouds -28 1021 100 5022 1.52 20 15:31 05.03.2022
4956 Clouds -28 1022 100 5389 1.89 18 14:47 05.03.2022
4957 Clouds -26 1022 100 5592 2.04 14 14:29 05.03.2022
4958 Clouds -25 1022 99 5609 2.57 13 13:22 05.03.2022
4959 Clouds -24 1022 99 6877 2.73 359 11:48 05.03.2022
4960 Clouds -23 1022 98 6825 2.71 2 11:19 05.03.2022
4961 Clouds -23 1022 98 7414 2.69 4 10:18 05.03.2022
4962 Clouds -23 1021 98 6473 2.95 7 08:59 05.03.2022
4963 Clouds -24 1021 99 4596 2.98 1 07:38 05.03.2022
4964 Clouds -27 1021 100 3488 2.18 333 05:43 05.03.2022
4965 Clouds -28 1021 100 3598 2.11 322 02:27 05.03.2022
4966 Clouds -29 1021 100 5006 2.23 326 23:37 04.03.2022
4967 Clouds -29 1021 100 4487 2.21 325 22:42 04.03.2022
4968 Clouds -29 1021 100 3788 2.25 333 21:48 04.03.2022
4969 Clouds -28 1021 100 3828 2.27 337 20:54 04.03.2022
4970 Clouds -28 1021 100 3365 2.14 337 20:24 04.03.2022
4971 Clouds -28 1021 100 3365 2.14 337 19:36 04.03.2022
4972 Clouds -27 1020 100 4249 2.17 346 18:44 04.03.2022
4973 Clouds -27 1020 100 4505 2.34 346 17:32 04.03.2022
4974 Clouds -26 1020 100 4015 2.15 337 16:46 04.03.2022
4975 Clouds -25 1020 100 3526 2 297 15:29 04.03.2022
4976 Clouds -25 1020 100 4537 2.2 292 14:29 04.03.2022
4977 Clouds -23 1020 100 5893 2.25 301 13:26 04.03.2022
4978 Clouds -21 1020 97 6890 2.78 327 11:41 04.03.2022
4979 Clouds -21 1020 95 2257 3.05 337 10:50 04.03.2022
4980 Clouds -23 1019 97 2209 2.88 337 09:42 04.03.2022
4981 Clouds -24 1019 98 3935 2.55 337 08:39 04.03.2022
4982 Clouds -25 1019 98 4067 2.41 343 07:34 04.03.2022
4983 Clouds -30 1018 100 3372 1.75 294 03:53 04.03.2022
4984 Clouds -29 1017 100 5510 2.11 304 00:24 04.03.2022
4985 Clouds -28 1017 100 5435 2.25 306 22:27 03.03.2022
4986 Clouds -28 1017 100 5435 2.25 306 21:42 03.03.2022
4987 Clouds -28 1016 100 5467 2 306 21:24 03.03.2022
4988 Clouds -28 1016 100 5511 2.02 315 19:52 03.03.2022
4989 Clouds -27 1015 100 5125 1.99 323 18:54 03.03.2022
4990 Clouds -27 1015 100 5321 2.13 334 18:23 03.03.2022
4991 Clouds -27 1015 100 5321 2.13 334 17:30 03.03.2022
4992 Clouds -26 1014 100 4117 2.59 358 16:24 03.03.2022
4993 Clouds -25 1014 100 3647 3.08 352 15:23 03.03.2022
4994 Clouds -25 1014 100 3647 3.08 352 14:43 03.03.2022
4995 Clouds -23 1013 100 3116 3.83 349 13:24 03.03.2022
4996 Clouds -22 1012 100 2802 4.09 350 12:22 03.03.2022
4997 Clouds -21 1011 99 1676 4.04 358 10:47 03.03.2022
4998 Clouds -22 1010 100 1412 3.45 2 09:41 03.03.2022
4999 Clouds -23 1009 100 3531 2.69 18 07:50 03.03.2022
5000 Clouds -24 1008 100 3819 2.68 29 06:36 03.03.2022
5001 Clouds -23 1004 100 5121 3.75 49 02:42 03.03.2022
5002 Clouds -16 1001 97 2982 6.79 64 23:34 02.03.2022
5003 Clouds -15 1001 95 2483 7.17 72 22:52 02.03.2022
5004 Clouds -14 1000 95 1736 7.25 79 21:34 02.03.2022
5005 Clouds -14 999 95 1649 7.24 79 20:55 02.03.2022
5006 Clouds -14 999 95 1474 6.99 84 20:24 02.03.2022
5007 Clouds -14 999 95 1474 6.99 84 20:24 02.03.2022
5008 Clouds -14 999 95 1474 6.99 84 19:37 02.03.2022
5009 Clouds -14 999 96 1504 6.83 87 18:54 02.03.2022
5010 Clouds -14 999 95 825 6.8 89 18:19 02.03.2022
5011 Clouds -14 999 95 825 6.8 89 17:36 02.03.2022
5012 Clouds -13 999 96 517 6.47 89 16:51 02.03.2022
5013 Snow -12 1000 96 191 4.84 93 14:59 02.03.2022
5014 Snow -12 1000 96 176 4.17 93 13:30 02.03.2022
5015 Snow -12 1001 95 161 3.34 105 12:45 02.03.2022
5016 Clouds -12 1002 92 1148 3.16 109 11:59 02.03.2022
5017 Clouds -12 1002 88 10000 3.02 116 11:25 02.03.2022
5018 Clouds -12 1003 89 10000 2.88 128 10:25 02.03.2022
5019 Clouds -13 1004 91 10000 2.71 135 09:25 02.03.2022
5020 Clouds -15 1005 93 10000 2.54 147 07:59 02.03.2022
5021 Clouds -15 1005 94 10000 2.5 174 07:23 02.03.2022
5022 Clouds -18 1008 99 10000 3.18 200 03:46 02.03.2022
5023 Clouds -20 1010 100 9352 3.28 214 00:39 02.03.2022
5024 Clouds -20 1011 99 10000 3.57 233 22:50 01.03.2022
5025 Clouds -20 1011 99 10000 3.57 233 22:31 01.03.2022
5026 Clouds -19 1011 96 10000 3.97 239 21:25 01.03.2022
5027 Clouds -19 1011 96 10000 3.97 239 20:37 01.03.2022
5028 Clouds -18 1011 94 10000 3.73 236 20:18 01.03.2022
5029 Clouds -19 1011 99 10000 3.44 225 18:52 01.03.2022
5030 Clouds -20 1011 98 10000 3.27 230 18:21 01.03.2022
5031 Clouds -20 1011 98 10000 3.27 230 18:21 01.03.2022
5032 Clouds -20 1011 98 10000 3.27 230 17:37 01.03.2022
5033 Clouds -19 1012 98 10000 3.15 233 16:35 01.03.2022
5034 Clouds -19 1012 98 10000 3.21 234 15:47 01.03.2022
5035 Clouds -19 1011 98 10000 2.96 234 14:41 01.03.2022
5036 Clouds -19 1011 98 10000 2.56 248 14:23 01.03.2022
5037 Clouds -16 1011 97 10000 2.67 256 13:26 01.03.2022
5038 Clouds -18 1011 97 10000 2.67 253 12:35 01.03.2022
5039 Clouds -16 1010 98 10000 2.42 271 10:52 01.03.2022
5040 Clouds -15 1009 94 10000 3.66 303 09:27 01.03.2022
5041 Clouds -15 1008 96 10000 3.95 310 08:20 01.03.2022
5042 Clouds -16 1007 96 10000 4.4 312 06:47 01.03.2022
5043 Clouds -13 1002 88 10000 8.21 332 02:57 01.03.2022
5044 Clouds -12 998 92 7817 8.61 339 00:47 01.03.2022
5045 Clouds -11 996 92 9194 9.22 340 23:36 28.02.2022
5046 Clouds -11 994 91 10000 10 348 22:38 28.02.2022
5047 Snow -10 992 93 1377 10.71 351 21:43 28.02.2022
5048 Snow -10 989 95 124 9.9 357 20:34 28.02.2022
5049 Snow -9 987 95 110 9.93 4 19:51 28.02.2022
5050 Snow -9 986 95 107 8.29 4 18:50 28.02.2022
5051 Snow -5 984 97 121 6.31 4 17:37 28.02.2022
5052 Snow -4 983 97 247 3.69 3 17:18 28.02.2022
5053 Snow -4 983 97 238 3.06 351 15:59 28.02.2022
5054 Snow -4 983 97 222 2.27 328 14:32 28.02.2022
5055 Snow -4 983 97 182 1.67 264 13:53 28.02.2022
5056 Snow -2 981 97 148 4.04 242 13:19 28.02.2022
5057 Snow -3 982 96 181 5.31 227 11:59 28.02.2022
5058 Snow -4 984 94 286 7.12 224 11:19 28.02.2022
5059 Clouds -4 985 91 948 8.73 221 10:23 28.02.2022
5060 Clouds -4 985 91 948 8.73 221 09:44 28.02.2022
5061 Snow -4 986 91 1211 9.02 221 08:54 28.02.2022
5062 Snow -4 988 93 280 9.49 224 07:59 28.02.2022
5063 Snow -4 989 93 339 9.39 228 06:31 28.02.2022
5064 Snow -4 991 91 3453 10.05 235 04:31 28.02.2022
5065 Snow -5 994 92 451 10.29 234 00:53 28.02.2022
5066 Clouds -7 997 90 907 10.12 233 22:55 27.02.2022
5067 Clouds -7 997 90 907 10.12 233 22:32 27.02.2022
5068 Snow -7 998 91 440 11.2 230 21:42 27.02.2022
5069 Snow -7 1000 91 245 11.97 228 20:50 27.02.2022
5070 Snow -8 1001 91 242 12.5 225 20:18 27.02.2022
5071 Snow -8 1001 91 242 12.5 225 19:49 27.02.2022
5072 Snow -8 1003 91 223 12.08 226 19:22 27.02.2022
5073 Snow -8 1003 91 221 11.83 224 18:37 27.02.2022
5074 Snow -8 1005 92 217 11.23 227 17:52 27.02.2022
5075 Clouds -8 1007 84 10000 10.72 233 16:30 27.02.2022
5076 Clouds -7 1009 81 10000 11.1 241 15:24 27.02.2022
5077 Clouds -8 1011 88 10000 9.81 240 12:37 27.02.2022
5078 Clouds -7 1011 89 10000 10.14 241 11:54 27.02.2022
5079 Clouds -11 1011 91 3163 10.36 225 10:37 27.02.2022
5080 Clouds -12 1012 92 999 8.89 223 09:58 27.02.2022
5081 Clear -15 1013 84 10000 7.46 226 09:24 27.02.2022
5082 Clear -15 1013 84 10000 7.46 226 08:51 27.02.2022
5083 Clouds -17 1013 92 10000 4.1 230 06:30 27.02.2022
5084 Clouds -17 1012 100 7061 3.18 300 04:19 27.02.2022
5085 Clouds -14 1009 97 6241 6.13 352 00:32 27.02.2022
5086 Clouds -13 1007 97 1263 6.19 359 22:50 26.02.2022
5087 Snow -13 1006 96 537 5.68 7 21:34 26.02.2022
5088 Snow -12 1005 96 169 6.45 4 20:43 26.02.2022
5089 Snow -10 1005 95 168 5.17 6 19:58 26.02.2022
5090 Snow -10 1005 95 168 5.17 6 19:33 26.02.2022
5091 Snow -11 1005 96 109 5.6 12 18:40 26.02.2022
5092 Snow -9 1004 96 120 4.73 10 17:38 26.02.2022
5093 Snow -7 1004 97 123 2.6 345 16:48 26.02.2022
5094 Snow -7 1003 97 287 1.54 244 15:45 26.02.2022
5095 Clouds -5 1003 96 725 2.65 225 15:20 26.02.2022
5096 Clouds -5 1003 96 725 2.65 225 14:51 26.02.2022
5097 Clouds -5 1003 96 1077 3.19 224 14:24 26.02.2022
5098 Clouds -4 1003 95 3593 4.12 231 12:59 26.02.2022
5099 Clouds -3 1002 95 1343 5.1 225 11:54 26.02.2022
5100 Clouds -3 1002 94 4467 5.23 221 11:27 26.02.2022
5101 Clouds -3 1001 94 10000 5.42 220 10:22 26.02.2022
5102 Clouds -3 1001 94 4255 5.87 225 08:35 26.02.2022
5103 Clouds -3 1001 94 2093 5.47 225 06:46 26.02.2022
5104 Clouds -2 999 93 2429 7.47 242 00:26 26.02.2022
5105 Clouds -3 998 93 1322 7.97 241 22:44 25.02.2022
5106 Snow -3 997 93 821 7.98 235 21:33 25.02.2022
5107 Snow -2 997 95 392 7.71 237 20:57 25.02.2022
5108 Snow -2 996 95 263 8.25 239 20:28 25.02.2022
5109 Snow -2 995 93 547 9.54 232 18:18 25.02.2022
5110 Snow -3 995 93 390 10.23 225 17:20 25.02.2022
5111 Snow -4 994 94 233 9.94 218 16:20 25.02.2022
5112 Snow -4 994 94 233 9.94 218 15:42 25.02.2022
5113 Snow -5 994 92 416 10.55 210 15:18 25.02.2022
5114 Snow -5 994 92 416 10.55 210 14:39 25.02.2022
5115 Clouds -7 994 88 1962 11.91 200 13:30 25.02.2022
5116 Snow -8 995 91 520 10.01 191 12:42 25.02.2022
5117 Clouds -11 996 85 10000 8.39 185 11:23 25.02.2022
5118 Clouds -12 997 86 10000 8.39 186 10:24 25.02.2022
5119 Clouds -12 997 86 10000 8.39 186 09:52 25.02.2022
5120 Clouds -13 998 87 10000 8.6 187 08:42 25.02.2022
5121 Clouds -13 998 85 10000 8.76 189 07:36 25.02.2022
5122 Clouds -14 999 85 10000 7.38 181 05:45 25.02.2022
5123 Clouds -16 1002 93 10000 6.89 194 02:49 25.02.2022
5124 Clouds -17 1004 96 10000 5.9 213 22:55 24.02.2022
5125 Clouds -17 1004 98 8337 5.6 216 21:51 24.02.2022
5126 Clouds -17 1004 98 8337 5.6 216 21:31 24.02.2022
5127 Clouds -17 1004 97 10000 4.85 217 20:53 24.02.2022
5128 Clouds -17 1004 97 10000 4.7 222 19:38 24.02.2022
5129 Clouds -17 1004 97 8279 4.52 228 18:37 24.02.2022
5130 Clouds -16 1004 97 5876 4.42 232 18:18 24.02.2022
5131 Clouds -16 1004 97 5876 4.42 232 17:33 24.02.2022
5132 Clouds -14 1004 96 4659 3.61 241 16:29 24.02.2022
5133 Clouds -14 1004 96 4659 3.61 241 15:46 24.02.2022
5134 Clouds -13 1003 95 2658 3.51 243 14:52 24.02.2022
5135 Clouds -12 1003 95 914 3.47 242 14:20 24.02.2022
5136 Clouds -12 1003 95 914 3.47 242 13:39 24.02.2022
5137 Snow -11 1003 95 253 2.95 249 12:33 24.02.2022
5138 Clouds -12 1002 95 557 1.81 254 10:40 24.02.2022
5139 Clouds -13 1002 96 7470 1.59 246 08:56 24.02.2022
5140 Clouds -13 1002 96 7470 1.59 246 08:38 24.02.2022
5141 Clouds -14 1001 95 8554 1.33 244 05:52 24.02.2022
5142 Clouds -13 1000 90 10000 1.44 210 01:56 24.02.2022
5143 Clouds -12 1000 89 10000 1.87 172 22:38 23.02.2022
5144 Clouds -12 1000 89 10000 1.93 159 21:37 23.02.2022
5145 Clouds -12 1000 89 10000 2.2 143 20:31 23.02.2022
5146 Clouds -11 1000 89 10000 2.22 131 19:44 23.02.2022
5147 Clouds -11 1001 90 6616 2.59 134 18:32 23.02.2022
5148 Clouds -11 1001 92 4323 2.75 130 17:30 23.02.2022
5149 Clouds -11 1002 95 558 2.9 128 14:34 23.02.2022
5150 Clouds -12 1003 94 2218 2.69 119 12:37 23.02.2022
5151 Clouds -13 1004 89 5372 3.39 118 11:24 23.02.2022
5152 Clouds -13 1004 89 5372 3.39 118 10:31 23.02.2022
5153 Clouds -14 1004 84 10000 4.18 124 08:58 23.02.2022
5154 Clouds -14 1005 82 10000 4.51 121 07:57 23.02.2022
5155 Clouds -18 1006 94 10000 3.53 113 03:48 23.02.2022
5156 Clouds -23 1007 100 5354 2.8 132 00:26 23.02.2022
5157 Clouds -23 1007 100 5354 2.8 132 23:35 22.02.2022
5158 Clouds -24 1007 100 4508 2.49 139 22:31 22.02.2022
5159 Clouds -24 1007 100 5420 1.97 145 21:49 22.02.2022
5160 Clouds -24 1007 100 5420 1.97 145 21:30 22.02.2022
5161 Clouds -23 1006 100 5355 1.8 129 20:52 22.02.2022
5162 Clouds -22 1006 100 5027 1.24 105 20:29 22.02.2022
5163 Clouds -22 1006 100 5027 1.24 105 19:36 22.02.2022
5164 Clouds -22 1006 100 5097 0.93 60 19:18 22.02.2022
5165 Clouds -19 1006 100 7023 1.43 39 17:48 22.02.2022
5166 Clouds -18 1005 100 6720 2 25 17:21 22.02.2022
5167 Clouds -18 1005 100 6720 2 25 16:36 22.02.2022
5168 Clouds -18 1004 100 6233 2.34 20 15:40 22.02.2022
5169 Clouds -17 1004 100 5144 2.5 12 14:44 22.02.2022
5170 Clouds -15 1002 100 3935 3.48 2 12:23 22.02.2022
5171 Clouds -14 1001 99 3389 4.02 2 10:50 22.02.2022
5172 Clouds -14 999 99 2275 4.32 356 08:40 22.02.2022
5173 Clouds -13 997 96 869 4.85 348 07:26 22.02.2022
5174 Clouds -12 996 96 441 4.69 348 04:31 22.02.2022
5175 Clouds -11 994 95 383 4.56 343 01:45 22.02.2022
5176 Clouds -11 994 95 383 4.56 343 01:44 22.02.2022
5177 Clouds -9 992 96 541 3.3 320 22:44 21.02.2022
5178 Clouds -9 991 97 764 2.85 299 21:33 21.02.2022
5179 Clouds -9 990 97 599 2.61 277 20:35 21.02.2022
5180 Clouds -8 990 96 1094 2.43 239 18:46 21.02.2022
5181 Clouds -8 990 96 1880 2.64 224 16:56 21.02.2022
5182 Clouds -8 989 96 950 2.81 213 15:20 21.02.2022
5183 Clouds -7 989 95 609 2.95 205 14:21 21.02.2022
5184 Clouds -6 989 95 595 3.09 205 13:20 21.02.2022
5185 Clouds -7 989 94 3258 2.83 194 12:23 21.02.2022
5186 Clouds -6 988 92 10000 3.24 191 10:58 21.02.2022
5187 Clouds -6 988 92 6243 3.67 195 09:34 21.02.2022
5188 Clouds -6 988 92 10000 4.12 180 04:52 21.02.2022
5189 Clouds -6 989 88 10000 4.35 179 23:32 20.02.2022
5190 Clouds -4 989 88 10000 6.68 192 22:21 20.02.2022
5191 Clouds -4 989 88 10000 6.68 192 21:42 20.02.2022
5192 Clouds -4 989 90 10000 6.59 191 20:53 20.02.2022
5193 Clouds -4 990 90 10000 6.2 194 20:23 20.02.2022
5194 Clouds -4 990 90 10000 6.2 194 19:31 20.02.2022
5195 Clouds -4 990 90 10000 6.2 194 19:31 20.02.2022
5196 Clouds -4 990 90 10000 6.21 195 18:50 20.02.2022
5197 Clouds -5 990 90 10000 5.45 193 18:31 20.02.2022
5198 Clouds -4 990 90 10000 6.29 196 17:47 20.02.2022
5199 Clouds -5 991 91 2099 7.25 203 15:31 20.02.2022
5200 Clouds -5 991 91 3607 7.39 207 14:41 20.02.2022
5201 Clouds -4 990 91 1911 7.93 215 13:23 20.02.2022
5202 Clouds -4 990 91 2035 8.03 214 12:22 20.02.2022
5203 Snow -3 990 93 491 8.46 215 10:21 20.02.2022
5204 Snow -3 990 93 491 8.46 215 09:53 20.02.2022
5205 Clouds -3 989 90 3246 9.72 214 07:45 20.02.2022
5206 Snow -2 989 94 333 8.23 208 00:54 20.02.2022
5207 Snow -3 989 93 475 8.22 206 00:29 20.02.2022
5208 Clouds -3 990 90 7590 7.88 211 22:25 19.02.2022
5209 Clouds -3 990 90 7590 7.88 211 21:57 19.02.2022
5210 Clouds -3 990 90 10000 8.03 213 20:48 19.02.2022
5211 Snow -2 989 94 1074 7.72 216 19:42 19.02.2022
5212 Clouds -2 989 92 2186 7.42 216 19:20 19.02.2022
5213 Clouds -2 990 91 6043 8.32 209 18:29 19.02.2022
5214 Clouds -2 990 91 6043 8.32 209 17:33 19.02.2022
5215 Snow -2 990 93 558 9.28 208 16:21 19.02.2022
5216 Clouds -1 990 91 2994 9.27 215 14:56 19.02.2022
5217 Snow -1 990 93 1140 9.44 210 13:59 19.02.2022
5218 Snow -1 990 93 580 9.16 215 11:59 19.02.2022
5219 Snow -1 990 93 580 9.16 215 11:36 19.02.2022
5220 Snow -1 989 92 1984 9.77 220 09:27 19.02.2022
5221 Snow -2 988 93 631 9.39 212 06:52 19.02.2022
5222 Snow -2 989 95 356 6.73 193 01:39 19.02.2022
5223 Snow -4 991 95 260 4.93 166 22:54 18.02.2022
5224 Snow -5 992 95 163 4 146 21:28 18.02.2022
5225 Snow -5 992 95 163 4 146 20:31 18.02.2022
5226 Snow -6 993 96 149 3.92 123 19:51 18.02.2022
5227 Snow -9 994 96 123 3.74 88 18:39 18.02.2022
5228 Snow -10 995 96 129 3.86 93 18:19 18.02.2022
5229 Snow -11 996 96 131 4.14 94 17:20 18.02.2022
5230 Snow -12 997 96 122 5.1 89 14:39 18.02.2022
5231 Snow -13 997 96 117 5.57 85 13:47 18.02.2022
5232 Snow -14 998 96 116 6.08 84 12:51 18.02.2022
5233 Snow -14 999 96 121 6.65 86 11:57 18.02.2022
5234 Snow -14 1000 96 122 5.98 85 10:47 18.02.2022
5235 Clouds -16 1001 94 1297 4.72 83 09:20 18.02.2022
5236 Clouds -18 1001 97 10000 2.63 71 06:48 18.02.2022
5237 Clouds -19 1002 99 9628 1.88 70 05:34 18.02.2022
5238 Clouds -21 1002 100 2796 1.58 265 22:39 17.02.2022
5239 Clouds -21 1002 100 2748 1.89 256 21:42 17.02.2022
5240 Clouds -20 1001 100 2643 2.19 255 20:52 17.02.2022
5241 Clouds -20 1001 100 2643 2.19 255 20:33 17.02.2022
5242 Clouds -20 1000 100 2962 2.2 260 19:42 17.02.2022
5243 Clouds -19 1000 100 4447 2.07 296 18:29 17.02.2022
5244 Clouds -19 1000 100 4447 2.07 296 17:45 17.02.2022
5245 Clouds -16 999 98 5045 2.14 333 15:58 17.02.2022
5246 Clouds -15 999 97 2328 2.06 2 14:30 17.02.2022
5247 Snow -14 998 96 351 2.19 36 13:47 17.02.2022
5248 Snow -14 998 96 169 3 76 11:55 17.02.2022
5249 Snow -14 998 95 249 3.62 84 10:57 17.02.2022
5250 Snow -16 998 96 151 4.72 89 07:56 17.02.2022
5251 Clouds -18 1002 98 10000 4.14 106 23:50 16.02.2022
5252 Clouds -18 1002 98 10000 3.88 109 22:38 16.02.2022
5253 Clouds -19 1003 99 10000 3.56 118 20:24 16.02.2022
5254 Clouds -19 1004 99 10000 3.53 120 19:23 16.02.2022
5255 Clouds -20 1004 100 10000 3.3 120 18:34 16.02.2022
5256 Clouds -18 1005 98 10000 3.26 128 17:24 16.02.2022
5257 Clouds -17 1006 96 10000 3.77 136 15:23 16.02.2022
5258 Clouds -17 1006 95 10000 3.9 142 13:46 16.02.2022
5259 Clouds -15 1006 91 10000 4.2 145 12:27 16.02.2022
5260 Clouds -15 1006 91 10000 4.2 145 11:46 16.02.2022
5261 Clouds -14 1006 90 10000 4.55 155 10:35 16.02.2022
5262 Clouds -13 1006 90 10000 5.08 168 09:39 16.02.2022
5263 Clouds -14 1005 91 5726 4.49 154 06:44 16.02.2022
5264 Clouds -14 1005 90 4059 4.62 159 02:47 16.02.2022
5265 Clouds -14 1005 89 4923 5.73 160 22:34 15.02.2022
5266 Snow -13 1005 91 1130 5.57 157 21:50 15.02.2022
5267 Snow -13 1005 91 1130 5.57 157 21:30 15.02.2022
5268 Snow -13 1005 91 558 5.66 153 20:58 15.02.2022
5269 Clouds -13 1005 90 565 5.79 153 20:26 15.02.2022
5270 Clouds -13 1005 90 565 5.79 153 19:45 15.02.2022
5271 Clouds -12 1006 88 1673 5.8 151 18:26 15.02.2022
5272 Clouds -12 1006 88 1673 5.8 151 17:53 15.02.2022
5273 Clouds -12 1006 88 1673 5.8 151 17:32 15.02.2022
5274 Clouds -13 1007 89 1650 5.54 144 15:43 15.02.2022
5275 Clouds -13 1007 86 2046 5.23 142 14:31 15.02.2022
5276 Clouds -15 1008 84 10000 4.92 135 13:25 15.02.2022
5277 Clouds -15 1009 86 10000 5 128 11:41 15.02.2022
5278 Clouds -16 1009 89 10000 4.52 133 10:27 15.02.2022
5279 Clouds -17 1010 95 10000 4.33 130 08:42 15.02.2022
5280 Clouds -18 1011 96 10000 4.08 140 06:45 15.02.2022
5281 Clouds -18 1014 96 10000 3.72 155 23:35 14.02.2022
5282 Clouds -18 1015 97 10000 3.8 163 21:57 14.02.2022
5283 Clouds -18 1015 98 10000 3.67 162 20:53 14.02.2022
5284 Clouds -19 1015 98 10000 3.5 158 19:49 14.02.2022
5285 Clouds -19 1015 98 10000 3.44 161 19:29 14.02.2022
5286 Clouds -19 1016 97 10000 3.44 168 18:23 14.02.2022
5287 Clouds -18 1016 97 10000 3.42 171 17:28 14.02.2022
5288 Clouds -18 1016 97 10000 3.42 171 16:33 14.02.2022
5289 Clouds -18 1016 96 10000 3.39 170 14:43 14.02.2022
5290 Clouds -18 1016 96 10000 3.41 172 13:34 14.02.2022
5291 Clouds -18 1016 96 10000 3.42 173 12:58 14.02.2022
5292 Clouds -17 1016 96 10000 3.31 173 11:57 14.02.2022
5293 Clouds -17 1016 96 10000 3.31 173 11:38 14.02.2022
5294 Clouds -17 1016 96 10000 3.3 175 10:18 14.02.2022
5295 Clouds -16 1015 95 10000 3.42 176 07:49 14.02.2022
5296 Clouds -16 1015 94 10000 3.49 183 07:24 14.02.2022
5297 Clouds -15 1013 92 10000 5.26 191 22:48 13.02.2022
5298 Clouds -15 1013 91 10000 6.12 193 22:30 13.02.2022
5299 Clouds -15 1013 91 10000 6.12 193 21:57 13.02.2022
5300 Clouds -15 1012 90 10000 7.19 196 21:20 13.02.2022
5301 Clouds -14 1011 89 10000 8.19 197 20:27 13.02.2022
5302 Clouds -14 1010 89 10000 9.05 197 18:58 13.02.2022
5303 Clouds -14 1011 89 10000 8.65 195 18:40 13.02.2022
5304 Clouds -14 1010 88 10000 9.8 195 17:22 13.02.2022
5305 Clouds -14 1009 88 10000 10.23 194 15:51 13.02.2022
5306 Clouds -14 1008 88 10000 10.49 194 14:50 13.02.2022
5307 Clouds -15 1008 87 10000 9.86 189 13:27 13.02.2022
5308 Clouds -15 1008 87 10000 9.86 189 12:42 13.02.2022
5309 Clouds -15 1006 88 5335 8.91 184 10:44 13.02.2022
5310 Clouds -16 1006 87 10000 8.62 182 10:25 13.02.2022
5311 Clouds -16 1006 87 10000 8.34 179 08:56 13.02.2022
5312 Clouds -15 1006 82 10000 7.43 169 02:49 13.02.2022
5313 Clouds -14 1006 84 10000 5.79 159 00:32 13.02.2022
5314 Clouds -13 1007 90 739 5.17 161 22:55 12.02.2022
5315 Clouds -13 1007 90 739 5.17 161 22:30 12.02.2022
5316 Clouds -13 1007 82 10000 5.36 171 21:18 12.02.2022
5317 Clouds -13 1007 83 10000 6.41 181 20:24 12.02.2022
5318 Clouds -13 1007 75 10000 7.2 184 18:54 12.02.2022
5319 Clouds -13 1008 77 10000 7.69 186 18:36 12.02.2022
5320 Clouds -13 1008 73 10000 7.71 183 17:40 12.02.2022
5321 Clouds -14 1008 75 10000 7.84 184 16:46 12.02.2022
5322 Clouds -14 1009 78 10000 7.67 184 15:59 12.02.2022
5323 Clouds -14 1009 80 10000 7.61 181 15:21 12.02.2022
5324 Clouds -14 1009 81 10000 7.8 180 14:29 12.02.2022
5325 Clouds -14 1010 82 10000 7.76 181 11:34 12.02.2022
5326 Clouds -14 1010 83 10000 8.05 182 10:33 12.02.2022
5327 Clouds -14 1010 84 10000 8.34 182 09:38 12.02.2022
5328 Clouds -14 1010 84 10000 8.37 182 08:47 12.02.2022
5329 Clouds -13 1009 84 10000 8.81 182 07:47 12.02.2022
5330 Clouds -14 1009 82 10000 9.18 181 05:31 12.02.2022
5331 Clouds -13 1010 84 10000 9.4 184 02:19 12.02.2022
5332 Clouds -13 1010 85 10000 9.37 183 00:31 12.02.2022
5333 Clouds -13 1010 85 10000 9.7 182 22:24 11.02.2022
5334 Clouds -13 1010 85 10000 9.7 182 21:43 11.02.2022
5335 Clouds -13 1010 82 10000 9.71 183 20:37 11.02.2022
5336 Clouds -13 1010 82 10000 10.03 184 19:31 11.02.2022
5337 Clouds -12 1011 83 10000 10.5 187 18:47 11.02.2022
5338 Clouds -11 1011 85 10000 10.86 186 17:27 11.02.2022
5339 Clouds -11 1011 85 10000 10.86 186 16:56 11.02.2022
5340 Clouds -11 1011 83 10000 10.84 186 15:33 11.02.2022
5341 Clouds -11 1011 81 10000 10.48 184 14:38 11.02.2022
5342 Clouds -11 1012 80 10000 10.11 182 14:20 11.02.2022
5343 Clouds -11 1012 80 10000 10.11 182 13:47 11.02.2022
5344 Clouds -11 1012 80 10000 9.85 181 13:28 11.02.2022
5345 Clouds -10 1012 80 10000 9.28 178 11:27 11.02.2022
5346 Clouds -9 1012 82 10000 9.1 176 09:39 11.02.2022
5347 Clouds -8 1012 84 10000 9.08 176 08:39 11.02.2022
5348 Clouds -8 1012 87 8929 8.72 176 08:21 11.02.2022
5349 Clouds -6 1012 87 8700 8.63 179 06:31 11.02.2022
5350 Clouds -6 1012 88 1961 10.55 192 02:25 11.02.2022
5351 Clouds -6 1012 88 1715 10.22 190 00:46 11.02.2022
5352 Clouds -8 1012 88 2635 10.4 189 22:45 10.02.2022
5353 Clouds -8 1012 87 3219 10.6 191 21:44 10.02.2022
5354 Clouds -8 1012 87 4464 11.03 192 20:52 10.02.2022
5355 Clouds -9 1011 86 8079 11.38 194 20:24 10.02.2022
5356 Clouds -9 1011 85 10000 11.59 195 19:24 10.02.2022
5357 Clouds -10 1011 84 10000 11.33 194 18:33 10.02.2022
5358 Clouds -10 1011 84 10000 11.89 195 17:25 10.02.2022
5359 Clouds -10 1011 84 10000 11.89 195 16:47 10.02.2022
5360 Clouds -10 1011 86 6162 11.71 195 15:45 10.02.2022
5361 Clouds -10 1011 86 4420 11.44 195 15:25 10.02.2022
5362 Clouds -10 1011 86 4420 11.44 195 14:44 10.02.2022
5363 Clouds -10 1011 84 8742 11.62 195 14:22 10.02.2022
5364 Clouds -10 1011 82 10000 11.72 193 13:20 10.02.2022
5365 Clouds -10 1011 82 10000 10.53 194 11:58 10.02.2022
5366 Clouds -10 1011 82 10000 10.53 194 11:32 10.02.2022
5367 Clouds -10 1011 81 10000 10.68 192 10:32 10.02.2022
5368 Clouds -10 1012 84 10000 10.82 193 09:46 10.02.2022
5369 Clouds -10 1012 78 10000 9.91 188 08:42 10.02.2022
5370 Clouds -9 1013 80 10000 10.2 179 06:34 10.02.2022
5371 Clear -10 1015 77 10000 10.24 183 03:33 10.02.2022
5372 Clear -11 1017 70 10000 8.42 180 01:18 10.02.2022
5373 Clear -11 1017 71 10000 7.88 177 00:41 10.02.2022
5374 Clear -10 1018 70 10000 8.89 187 00:23 10.02.2022
5375 Clear -9 1018 69 10000 10.75 195 22:57 09.02.2022
5376 Clear -9 1018 69 10000 10.75 195 22:33 09.02.2022
5377 Clear -9 1018 72 10000 11.63 198 21:48 09.02.2022
5378 Clear -10 1018 76 10000 11.76 199 21:27 09.02.2022
5379 Clear -10 1018 76 10000 11.76 199 20:45 09.02.2022
5380 Clear -10 1018 79 10000 11.31 199 20:22 09.02.2022
5381 Clear -10 1018 79 10000 11.31 199 19:42 09.02.2022
5382 Clouds -10 1018 81 10000 11.2 199 18:50 09.02.2022
5383 Clouds -11 1019 85 10000 10.73 199 17:24 09.02.2022
5384 Clouds -11 1019 85 10000 10.59 199 16:20 09.02.2022
5385 Clouds -11 1019 85 10000 10.71 199 15:24 09.02.2022
5386 Clouds -12 1018 86 10000 11.17 200 12:54 09.02.2022
5387 Clouds -12 1018 86 10000 10.91 201 11:36 09.02.2022
5388 Clouds -12 1017 86 10000 11.13 202 10:35 09.02.2022
5389 Clouds -12 1017 86 10000 11.2 203 09:53 09.02.2022
5390 Clouds -12 1017 86 10000 11.23 203 09:22 09.02.2022
5391 Clouds -12 1017 86 10000 11.23 203 08:46 09.02.2022
5392 Clouds -13 1016 86 10000 10.64 206 06:52 09.02.2022
5393 Clouds -14 1016 85 10000 10.43 206 04:30 09.02.2022
5394 Clouds -14 1016 85 10000 10.43 206 03:48 09.02.2022
5395 Clouds -14 1016 78 10000 9.55 198 23:45 08.02.2022
5396 Clouds -14 1016 75 10000 9.69 198 23:19 08.02.2022
5397 Clouds -14 1016 75 10000 9.69 198 23:19 08.02.2022
5398 Clouds -14 1016 75 10000 9.69 198 22:38 08.02.2022
5399 Clouds -13 1016 73 10000 9.96 198 22:20 08.02.2022
5400 Clouds -13 1016 73 10000 9.97 201 21:22 08.02.2022
5401 Clouds -13 1016 73 10000 9.97 201 20:58 08.02.2022
5402 Clouds -13 1016 73 10000 9.97 201 20:37 08.02.2022
5403 Clouds -13 1015 75 10000 9.34 203 19:28 08.02.2022
5404 Clouds -13 1016 75 10000 8.77 205 18:24 08.02.2022
5405 Clouds -13 1016 75 10000 8.77 205 17:30 08.02.2022
5406 Clouds -13 1016 78 10000 8.02 205 15:47 08.02.2022
5407 Clouds -12 1016 79 10000 7.96 204 15:27 08.02.2022
5408 Clouds -12 1017 80 10000 7.35 204 13:50 08.02.2022
5409 Clouds -13 1017 80 10000 7.02 205 12:24 08.02.2022
5410 Clouds -13 1017 80 10000 7.16 208 10:49 08.02.2022
5411 Clouds -13 1017 79 10000 7.63 207 09:49 08.02.2022
5412 Clouds -13 1017 79 10000 7.85 203 08:39 08.02.2022
5413 Clouds -13 1017 78 10000 7.76 202 06:49 08.02.2022
5414 Clouds -13 1017 77 10000 8.16 201 04:40 08.02.2022
5415 Clouds -13 1017 78 10000 7.79 200 04:22 08.02.2022
5416 Clouds -13 1017 78 10000 7.79 200 03:36 08.02.2022
5417 Clouds -12 1017 78 10000 7.87 200 03:18 08.02.2022
5418 Clouds -12 1017 78 10000 7.85 200 02:59 08.02.2022
5419 Clouds -12 1017 78 10000 7.85 200 02:36 08.02.2022
5420 Clouds -12 1017 78 10000 8.1 201 02:18 08.02.2022
5421 Clouds -12 1017 78 10000 8.1 201 01:44 08.02.2022
5422 Clouds -12 1017 79 10000 8.24 201 01:25 08.02.2022
5423 Clouds -12 1017 79 10000 8.24 201 00:55 08.02.2022
5424 Clouds -11 1017 80 10000 8.09 203 00:21 08.02.2022
5425 Clouds -11 1017 80 10000 8.09 203 23:44 07.02.2022
5426 Clouds -11 1017 80 10000 8.04 203 23:18 07.02.2022
5427 Clouds -11 1017 80 10000 8.04 203 22:59 07.02.2022
5428 Clouds -11 1016 80 10000 8.03 200 22:19 07.02.2022
5429 Clouds -11 1016 80 10000 8.03 200 21:50 07.02.2022
5430 Clouds -11 1017 80 10000 7.67 199 21:27 07.02.2022
5431 Clouds -11 1017 80 10000 7.67 199 20:45 07.02.2022
5432 Clouds -11 1017 80 10000 7.67 197 20:27 07.02.2022
5433 Clouds -11 1017 80 10000 7.67 197 19:47 07.02.2022
5434 Clouds -11 1017 80 10000 7.53 197 18:37 07.02.2022
5435 Clouds -10 1017 79 10000 7.75 196 17:23 07.02.2022
5436 Clouds -10 1017 79 10000 7.75 196 16:52 07.02.2022
5437 Clouds -10 1017 78 10000 7.93 195 15:48 07.02.2022
5438 Clouds -11 1018 80 10000 7.73 191 13:58 07.02.2022
5439 Clouds -11 1017 81 10000 8.27 192 13:27 07.02.2022
5440 Clouds -10 1018 79 10000 8.24 195 12:18 07.02.2022
5441 Clouds -10 1018 79 10000 8.24 195 11:40 07.02.2022
5442 Clouds -10 1018 77 10000 7.94 194 11:22 07.02.2022
5443 Clouds -10 1018 77 10000 7.94 194 10:41 07.02.2022
5444 Clouds -11 1018 74 10000 7.75 193 10:22 07.02.2022
5445 Clouds -11 1018 74 10000 7.75 193 09:51 07.02.2022
5446 Clouds -11 1018 73 10000 7.86 194 09:18 07.02.2022
5447 Clouds -12 1018 72 10000 7.63 192 07:44 07.02.2022
5448 Clouds -14 1018 73 10000 6 187 06:34 07.02.2022
5449 Clouds -15 1018 78 10000 4.88 177 04:31 07.02.2022
5450 Clouds -17 1019 84 10000 4.04 171 01:37 07.02.2022
5451 Clouds -17 1020 82 10000 3.46 164 23:51 06.02.2022
5452 Clouds -17 1020 83 10000 3.46 155 23:20 06.02.2022
5453 Clouds -17 1020 83 10000 3.46 155 22:41 06.02.2022
5454 Clouds -17 1021 84 10000 3.37 154 21:38 06.02.2022
5455 Clouds -17 1021 86 10000 3.07 160 21:20 06.02.2022
5456 Clouds -17 1021 86 10000 3.07 160 20:48 06.02.2022
5457 Clouds -17 1021 87 10000 3.1 165 20:21 06.02.2022
5458 Clouds -17 1021 88 10000 2.85 169 19:18 06.02.2022
5459 Clouds -17 1022 89 10000 2.88 172 18:28 06.02.2022
5460 Clouds -17 1022 89 10000 2.88 172 17:30 06.02.2022
5461 Clouds -17 1022 89 10000 2.89 174 16:51 06.02.2022
5462 Clouds -17 1022 89 10000 2.95 172 15:51 06.02.2022
5463 Clouds -18 1023 90 10000 3.03 169 15:28 06.02.2022
5464 Clouds -18 1023 90 10000 3.03 169 15:00 06.02.2022
5465 Clouds -18 1023 90 10000 2.9 171 13:59 06.02.2022
5466 Clouds -18 1023 90 10000 2.92 175 13:20 06.02.2022
5467 Clouds -19 1023 91 10000 3.38 177 12:27 06.02.2022
5468 Clouds -19 1023 92 10000 3.47 177 10:33 06.02.2022
5469 Clouds -18 1023 91 10000 3.14 180 09:43 06.02.2022
5470 Clouds -17 1023 90 10000 3.32 186 08:41 06.02.2022
5471 Clouds -18 1022 91 10000 3.14 188 06:34 06.02.2022
5472 Clouds -18 1022 91 10000 3.47 187 05:28 06.02.2022
5473 Clouds -18 1022 91 10000 3.47 187 05:28 06.02.2022
5474 Clouds -20 1023 94 10000 3.32 191 02:25 06.02.2022
5475 Clouds -20 1023 95 10000 3.17 194 00:32 06.02.2022
5476 Clouds -22 1023 96 10000 3.28 193 23:39 05.02.2022
5477 Clouds -22 1022 97 10000 3.76 202 21:47 05.02.2022
5478 Clouds -22 1022 97 10000 3.83 206 20:41 05.02.2022
5479 Clouds -22 1022 97 10000 4 207 20:20 05.02.2022
5480 Clouds -22 1022 97 10000 4 207 19:42 05.02.2022
5481 Clouds -22 1022 97 10000 3.78 204 18:30 05.02.2022
5482 Clouds -21 1022 97 10000 3.92 205 17:35 05.02.2022
5483 Clouds -21 1021 97 10000 4.15 210 15:51 05.02.2022
5484 Clouds -20 1021 97 10000 4.03 211 15:29 05.02.2022
5485 Clouds -18 1020 94 10000 4.22 211 13:25 05.02.2022
5486 Clouds -18 1020 94 10000 4.22 211 13:25 05.02.2022
5487 Clouds -18 1020 95 10000 3.98 208 12:42 05.02.2022
5488 Clouds -17 1019 95 4840 5.14 222 11:29 05.02.2022
5489 Clouds -17 1019 95 4840 5.14 222 10:43 05.02.2022
5490 Clouds -17 1019 95 10000 4.46 218 09:49 05.02.2022
5491 Clouds -17 1018 95 10000 4.23 218 08:39 05.02.2022
5492 Clouds -14 1017 94 3980 3.35 225 06:59 05.02.2022
5493 Clouds -14 1017 95 1101 3.18 224 06:27 05.02.2022
5494 Clouds -14 1016 96 1611 1.69 224 02:31 05.02.2022
5495 Clouds -14 1015 96 778 0.88 239 01:18 05.02.2022
5496 Clouds -15 1015 97 1032 0.35 254 00:36 05.02.2022
5497 Clouds -15 1015 97 1072 0.32 296 23:33 04.02.2022
5498 Clouds -15 1014 97 908 0.3 267 22:37 04.02.2022
5499 Clouds -14 1013 97 1454 0.26 141 21:36 04.02.2022
5500 Clouds -14 1013 97 1104 0.63 93 21:18 04.02.2022
5501 Clouds -13 1013 97 748 0.89 81 20:29 04.02.2022
5502 Clouds -14 1013 97 1694 1.29 74 18:35 04.02.2022
5503 Clouds -13 1012 97 627 1.48 63 16:20 04.02.2022
5504 Clouds -13 1012 96 568 1.3 71 15:18 04.02.2022
5505 Clouds -13 1012 97 615 1.36 77 14:26 04.02.2022
5506 Clouds -13 1012 97 740 1.4 78 12:43 04.02.2022
5507 Clouds -13 1012 97 1221 0.88 88 11:44 04.02.2022
5508 Clouds -13 1012 97 1357 0.94 93 10:51 04.02.2022
5509 Clouds -14 1011 98 1483 0.8 101 09:31 04.02.2022
5510 Clouds -15 1011 98 1789 1.19 118 07:35 04.02.2022
5511 Clouds -15 1011 97 1152 1.39 140 02:54 04.02.2022
5512 Clouds -15 1011 97 1152 1.39 140 02:33 04.02.2022
5513 Clouds -16 1011 97 1877 1.34 179 23:34 03.02.2022
5514 Clouds -16 1011 97 4996 1.56 181 22:48 03.02.2022
5515 Clouds -15 1011 96 4484 1.85 185 21:51 03.02.2022
5516 Clouds -14 1012 95 2782 2.01 187 20:50 03.02.2022
5517 Clouds -13 1012 95 1587 1.81 187 20:21 03.02.2022
5518 Clouds -13 1012 95 1587 1.81 187 19:34 03.02.2022
5519 Clouds -14 1012 96 2539 1.88 207 18:48 03.02.2022
5520 Clouds -14 1012 96 1488 1.64 208 17:47 03.02.2022
5521 Clouds -14 1012 96 1121 1.55 208 16:46 03.02.2022
5522 Clouds -13 1012 96 696 0.87 220 14:54 03.02.2022
5523 Clouds -13 1012 96 643 0.61 169 13:19 03.02.2022
5524 Clouds -14 1012 96 610 1.03 73 11:43 03.02.2022
5525 Clouds -13 1012 95 519 2.36 65 08:40 03.02.2022
5526 Snow -14 1013 95 395 2.89 71 07:20 03.02.2022
5527 Snow -15 1014 95 254 3.39 81 00:33 03.02.2022
5528 Clouds -15 1014 96 408 3.25 78 23:45 02.02.2022
5529 Clouds -16 1014 97 684 3.13 77 22:36 02.02.2022
5530 Clouds -16 1014 97 619 3.05 81 21:37 02.02.2022
5531 Clouds -16 1014 97 2439 3.24 84 20:56 02.02.2022
5532 Clouds -17 1014 99 5646 3.15 81 20:00 02.02.2022
5533 Clouds -17 1014 99 5646 3.15 81 19:41 02.02.2022
5534 Clouds -17 1014 100 7238 3.26 85 18:53 02.02.2022
5535 Clouds -19 1015 100 7824 3.59 88 18:22 02.02.2022
5536 Clouds -18 1015 100 7330 3.76 86 17:20 02.02.2022
5537 Clouds -18 1015 100 7330 3.76 86 17:20 02.02.2022
5538 Clouds -18 1015 100 7330 3.76 86 16:46 02.02.2022
5539 Clouds -16 1015 99 8026 3.61 86 13:57 02.02.2022
5540 Clouds -16 1015 98 8926 3.16 89 12:26 02.02.2022
5541 Clouds -16 1015 98 8926 3.16 89 11:37 02.02.2022
5542 Clouds -16 1015 99 8280 2.73 90 10:38 02.02.2022
5543 Clouds -20 1015 100 7113 1.96 109 07:40 02.02.2022
5544 Clouds -19 1016 97 10000 2.36 192 00:34 02.02.2022
5545 Clouds -17 1015 97 10000 3.2 206 21:55 01.02.2022
5546 Clouds -17 1015 97 10000 3.35 209 20:47 01.02.2022
5547 Clouds -16 1015 96 10000 4.81 210 17:59 01.02.2022
5548 Clouds -16 1014 96 10000 4.69 210 16:42 01.02.2022
5549 Clouds -14 1014 95 10000 4.86 210 14:49 01.02.2022
5550 Clouds -13 1014 95 10000 5.07 212 12:47 01.02.2022
5551 Clouds -13 1013 94 10000 5.59 212 11:34 01.02.2022
5552 Clouds -13 1011 91 10000 7.69 210 05:43 01.02.2022
5553 Clouds -14 1011 93 10000 7.6 212 23:51 31.01.2022
5554 Clouds -14 1011 93 10000 7.58 211 23:28 31.01.2022
5555 Clouds -13 1010 93 10000 7.47 211 21:59 31.01.2022
5556 Clouds -13 1010 93 10000 7.47 211 21:32 31.01.2022
5557 Clouds -13 1010 93 10000 7.17 211 20:33 31.01.2022
5558 Clouds -13 1010 93 10000 7.08 211 19:45 31.01.2022
5559 Clouds -12 1011 90 10000 7.33 210 18:26 31.01.2022
5560 Clouds -12 1011 90 10000 7.33 210 17:43 31.01.2022
5561 Clouds -12 1011 90 10000 7.37 209 16:43 31.01.2022
5562 Clouds -12 1010 89 10000 7.51 208 15:43 31.01.2022
5563 Clouds -11 1010 89 8721 7.95 204 14:24 31.01.2022
5564 Clouds -11 1010 89 10000 7.91 203 12:39 31.01.2022
5565 Clouds -11 1009 89 10000 7.93 203 11:58 31.01.2022
5566 Clouds -11 1009 88 10000 7.75 202 10:51 31.01.2022
5567 Clouds -11 1009 88 10000 7.75 202 10:32 31.01.2022
5568 Clouds -10 1009 88 10000 7.72 196 09:27 31.01.2022
5569 Clouds -10 1009 88 10000 7.72 196 08:51 31.01.2022
5570 Clouds -10 1009 89 4775 7.56 190 08:20 31.01.2022
5571 Clouds -10 1009 87 7497 7 181 06:18 31.01.2022
5572 Clouds -9 1009 88 10000 6.57 181 02:18 31.01.2022
5573 Clouds -10 1010 89 10000 5.77 188 23:19 30.01.2022
5574 Clouds -11 1010 90 10000 5.46 188 22:29 30.01.2022
5575 Clouds -11 1010 90 10000 5.46 188 21:42 30.01.2022
5576 Clouds -11 1010 90 10000 5.34 189 21:19 30.01.2022
5577 Clouds -11 1011 91 10000 4.78 187 20:49 30.01.2022
5578 Clouds -12 1011 93 10000 4.69 186 20:29 30.01.2022
5579 Clouds -12 1011 93 10000 4.69 186 19:52 30.01.2022
5580 Clouds -12 1011 94 10000 4.6 184 18:44 30.01.2022
5581 Clouds -13 1010 95 10000 4.39 185 18:20 30.01.2022
5582 Clouds -13 1010 95 10000 4.46 187 17:27 30.01.2022
5583 Clouds -13 1010 95 10000 4.46 187 16:40 30.01.2022
5584 Clouds -13 1010 95 10000 4.33 186 16:22 30.01.2022
5585 Clouds -13 1010 95 10000 4.33 186 15:50 30.01.2022
5586 Clouds -13 1010 95 10000 4.33 186 15:32 30.01.2022
5587 Clouds -13 1010 94 10000 4.67 192 14:46 30.01.2022
5588 Clouds -10 1010 90 10000 5.6 204 12:47 30.01.2022
5589 Clouds -10 1009 90 10000 5.81 203 12:25 30.01.2022
5590 Clouds -10 1009 89 10000 5.92 202 10:36 30.01.2022
5591 Clouds -11 1009 89 9375 5.97 196 09:56 30.01.2022
5592 Clouds -11 1008 88 10000 6.05 191 08:56 30.01.2022
5593 Clouds -12 1008 88 10000 6.41 184 07:29 30.01.2022
5594 Clouds -13 1008 89 10000 5.23 172 01:56 30.01.2022
5595 Clouds -14 1008 89 10000 4.92 176 00:41 30.01.2022
5596 Clouds -14 1009 89 10000 5.13 185 23:20 29.01.2022
5597 Clouds -14 1009 89 10000 5.44 187 21:58 29.01.2022
5598 Clouds -14 1009 89 10000 5.65 190 21:25 29.01.2022
5599 Clouds -14 1009 89 10000 5.65 190 20:35 29.01.2022
5600 Clouds -14 1009 88 10000 6.1 193 19:36 29.01.2022
5601 Clouds -14 1009 88 10000 6.24 196 18:58 29.01.2022
5602 Clouds -14 1009 89 10000 6.11 196 18:26 29.01.2022
5603 Clouds -14 1009 89 10000 6.11 196 17:35 29.01.2022
5604 Clouds -15 1009 89 10000 6.01 196 16:37 29.01.2022
5605 Clouds -17 1011 92 10000 5.95 198 14:23 29.01.2022
5606 Clouds -17 1011 92 10000 5.95 198 13:45 29.01.2022
5607 Clouds -17 1011 92 10000 6.24 200 13:24 29.01.2022
5608 Clouds -17 1011 92 10000 6.64 203 11:50 29.01.2022
5609 Clouds -17 1011 92 10000 7.21 206 11:24 29.01.2022
5610 Clouds -16 1010 91 10000 7.62 210 09:29 29.01.2022
5611 Clouds -14 1010 92 10000 7.8 214 06:55 29.01.2022
5612 Clouds -11 1009 90 10000 8.22 222 00:36 29.01.2022
5613 Clouds -10 1008 90 10000 8.42 224 23:59 28.01.2022
5614 Clouds -10 1008 90 9635 8.34 224 22:51 28.01.2022
5615 Clouds -11 1008 91 10000 8.17 221 22:22 28.01.2022
5616 Clouds -11 1008 91 10000 8.17 221 21:37 28.01.2022
5617 Clouds -12 1007 91 10000 8.34 219 20:30 28.01.2022
5618 Clouds -12 1007 92 10000 8.27 219 19:33 28.01.2022
5619 Clouds -12 1007 91 10000 8.43 219 18:46 28.01.2022
5620 Clouds -12 1007 91 10000 8.72 216 17:42 28.01.2022
5621 Clouds -14 1006 92 10000 7.78 209 15:21 28.01.2022
5622 Clouds -15 1006 92 10000 7.52 210 13:57 28.01.2022
5623 Clouds -14 1006 92 10000 7.02 211 12:31 28.01.2022
5624 Clouds -15 1006 92 6675 7.17 210 11:36 28.01.2022
5625 Clouds -15 1006 92 9565 7.12 207 09:53 28.01.2022
5626 Clouds -16 1005 93 10000 6.7 205 08:26 28.01.2022
5627 Clouds -16 1005 93 10000 6.7 205 07:34 28.01.2022
5628 Clouds -17 1005 95 10000 7.06 209 05:23 28.01.2022
5629 Clouds -17 1005 95 10000 6.77 209 03:44 28.01.2022
5630 Clouds -17 1006 95 10000 6.54 209 02:22 28.01.2022
5631 Clouds -17 1006 95 10000 6.54 209 01:33 28.01.2022
5632 Clouds -18 1005 96 10000 6.39 210 23:25 27.01.2022
5633 Clouds -18 1005 96 10000 6.33 211 21:49 27.01.2022
5634 Clouds -18 1005 96 10000 6.4 211 21:29 27.01.2022
5635 Clouds -18 1005 96 10000 6.4 211 20:44 27.01.2022
5636 Clouds -17 1005 95 10000 6.46 207 18:55 27.01.2022
5637 Clouds -17 1006 95 10000 6.65 206 17:56 27.01.2022
5638 Clouds -16 1006 95 10000 7.38 206 14:42 27.01.2022
5639 Clouds -16 1006 94 10000 7.46 204 13:36 27.01.2022
5640 Clouds -16 1006 94 10000 7.91 207 12:40 27.01.2022
5641 Clouds -15 1006 94 10000 9.06 210 10:23 27.01.2022
5642 Clouds -15 1006 93 10000 9.15 211 08:56 27.01.2022
5643 Clouds -15 1006 93 10000 9.15 211 08:31 27.01.2022
5644 Clouds -14 1005 94 10000 10.55 213 05:59 27.01.2022
5645 Clouds -13 1004 91 5124 10.74 219 02:36 27.01.2022
5646 Clouds -11 1003 91 4529 11.56 218 23:32 26.01.2022
5647 Clouds -11 1002 90 7544 11.91 220 21:57 26.01.2022
5648 Clouds -11 1002 90 7544 11.91 220 21:33 26.01.2022
5649 Clouds -10 1001 89 7303 12.24 220 20:36 26.01.2022
5650 Clouds -9 1000 90 1171 12.01 220 19:55 26.01.2022
5651 Clouds -9 1000 90 726 11.58 217 19:20 26.01.2022
5652 Clouds -9 1000 90 726 11.58 217 18:40 26.01.2022
5653 Clouds -10 1001 90 1511 11.62 217 17:49 26.01.2022
5654 Clouds -10 1000 89 2220 11.51 217 17:21 26.01.2022
5655 Snow -10 1000 90 2357 11.26 217 16:27 26.01.2022
5656 Snow -10 1000 90 2357 11.26 217 15:47 26.01.2022
5657 Clouds -9 999 92 7973 11.2 214 13:24 26.01.2022
5658 Clouds -9 999 91 3698 10.76 214 11:40 26.01.2022
5659 Clouds -8 998 91 10000 9.53 217 10:20 26.01.2022
5660 Clouds -8 998 91 10000 9.53 217 09:43 26.01.2022
5661 Clouds -6 998 89 10000 9.22 225 07:32 26.01.2022
5662 Clouds -5 997 91 10000 7.59 208 00:48 26.01.2022
5663 Clouds -5 997 91 10000 7.59 208 00:48 26.01.2022
5664 Clouds -5 997 91 9577 8 204 23:54 25.01.2022
5665 Clouds -5 997 91 7547 7.61 203 22:50 25.01.2022
5666 Clouds -5 997 91 7547 7.61 203 22:50 25.01.2022
5667 Clouds -4 997 92 4846 7.78 207 22:21 25.01.2022
5668 Clouds -4 997 92 4846 7.78 207 21:41 25.01.2022
5669 Clouds -4 997 92 10000 7.87 209 20:46 25.01.2022
5670 Clouds -4 997 92 10000 8.11 211 20:21 25.01.2022
5671 Clouds -4 997 92 10000 8.11 211 19:44 25.01.2022
5672 Clouds -3 997 91 6486 7.64 217 18:22 25.01.2022
5673 Clouds -3 997 91 6486 7.64 217 17:42 25.01.2022
5674 Clouds -3 997 91 3602 7.67 220 16:35 25.01.2022
5675 Clouds -2 997 91 4154 8.17 222 15:44 25.01.2022
5676 Clouds -3 996 92 2636 8.39 217 15:26 25.01.2022
5677 Clouds -3 996 92 2636 8.39 217 14:57 25.01.2022
5678 Clouds -3 996 92 2636 8.39 217 14:57 25.01.2022
5679 Snow -5 996 92 587 10.39 216 13:18 25.01.2022
5680 Snow -6 995 89 1776 13.11 208 10:00 25.01.2022
5681 Snow -7 995 90 653 13.61 205 08:33 25.01.2022
5682 Snow -8 995 91 317 13.65 203 07:28 25.01.2022
5683 Snow -8 996 91 349 13.54 204 06:22 25.01.2022
5684 Snow -9 997 90 710 15.06 204 01:36 25.01.2022
5685 Snow -10 999 88 877 14.74 203 23:36 24.01.2022
5686 Snow -10 999 89 1014 14.98 205 23:18 24.01.2022
5687 Snow -10 999 89 1014 14.98 205 22:59 24.01.2022
5688 Snow -10 999 89 1014 14.98 205 22:41 24.01.2022
5689 Snow -10 1000 89 616 15.39 205 21:45 24.01.2022
5690 Snow -10 1000 89 516 15.35 206 21:27 24.01.2022
5691 Snow -10 1001 89 630 15.46 205 20:29 24.01.2022
5692 Snow -10 1001 89 630 15.46 205 19:39 24.01.2022
5693 Snow -10 1002 89 477 15.61 205 18:55 24.01.2022
5694 Snow -10 1002 89 386 15.6 205 17:44 24.01.2022
5695 Clouds -10 1003 87 1352 15.79 203 17:23 24.01.2022
5696 Clouds -10 1003 87 1352 15.79 203 16:32 24.01.2022
5697 Clouds -10 1004 86 10000 15.76 203 15:52 24.01.2022
5698 Clouds -11 1006 85 10000 15.02 205 14:27 24.01.2022
5699 Clouds -11 1007 86 10000 14.26 205 12:36 24.01.2022
5700 Clouds -12 1008 86 10000 13.57 207 11:53 24.01.2022
5701 Clouds -12 1010 87 10000 13.03 205 10:24 24.01.2022
5702 Clouds -12 1010 87 10000 13.03 205 09:46 24.01.2022
5703 Clouds -12 1011 88 10000 13.26 206 08:19 24.01.2022
5704 Clouds -11 1013 87 10000 12.86 212 02:33 24.01.2022
5705 Clouds -11 1014 87 3851 13.07 211 01:28 24.01.2022
5706 Clouds -11 1014 88 3682 12.94 211 00:34 24.01.2022
5707 Clouds -11 1014 87 10000 12.93 210 23:47 23.01.2022
5708 Clouds -12 1015 88 10000 13.32 207 22:21 23.01.2022
5709 Clouds -12 1015 88 10000 13.32 207 21:42 23.01.2022
5710 Clouds -12 1015 89 10000 13.14 206 21:24 23.01.2022
5711 Clouds -13 1016 90 10000 12.55 204 20:28 23.01.2022
5712 Clouds -13 1016 89 10000 11.69 205 19:19 23.01.2022
5713 Clouds -13 1016 89 10000 11.69 205 18:41 23.01.2022
5714 Clouds -13 1018 89 3114 10.64 206 17:27 23.01.2022
5715 Clouds -14 1018 90 4438 10.15 207 16:27 23.01.2022
5716 Clouds -15 1019 90 10000 9.76 205 14:54 23.01.2022
5717 Clouds -15 1019 88 10000 9.54 206 14:19 23.01.2022
5718 Clouds -14 1019 90 10000 9.27 205 12:47 23.01.2022
5719 Clouds -13 1020 90 8971 8.93 205 12:21 23.01.2022
5720 Clouds -12 1020 90 10000 8.35 201 11:27 23.01.2022
5721 Clouds -12 1020 90 10000 8.35 201 10:59 23.01.2022
5722 Clouds -13 1020 93 10000 7.12 200 10:25 23.01.2022
5723 Clouds -13 1020 93 10000 7.12 200 09:33 23.01.2022
5724 Clouds -14 1021 95 10000 6.74 201 08:50 23.01.2022
5725 Clouds -14 1022 95 10000 4.99 200 04:41 23.01.2022
5726 Clouds -17 1023 94 10000 3.4 203 01:43 23.01.2022
5727 Clouds -18 1023 97 10000 3.29 208 00:56 23.01.2022
5728 Clouds -18 1023 98 10000 3.23 214 00:22 23.01.2022
5729 Clouds -18 1023 100 6430 3.35 218 23:18 22.01.2022
5730 Clouds -18 1023 100 6430 3.35 218 22:33 22.01.2022
5731 Clouds -18 1022 100 5831 3.42 221 20:47 22.01.2022
5732 Clouds -18 1022 100 5682 3.6 222 19:46 22.01.2022
5733 Clouds -18 1021 100 5462 3.77 223 18:43 22.01.2022
5734 Clouds -18 1021 100 5256 4.05 228 17:56 22.01.2022
5735 Clouds -18 1021 100 5256 4.05 228 17:35 22.01.2022
5736 Clouds -18 1020 100 5676 3.89 230 16:55 22.01.2022
5737 Clouds -17 1020 99 10000 3.8 237 15:49 22.01.2022
5738 Clouds -17 1019 98 10000 3.84 237 14:57 22.01.2022
5739 Clouds -17 1018 96 10000 3.6 237 13:36 22.01.2022
5740 Clouds -18 1017 95 10000 3.44 233 12:40 22.01.2022
5741 Clouds -19 1017 99 10000 2.76 228 12:22 22.01.2022
5742 Clouds -18 1016 100 10000 2.52 233 10:55 22.01.2022
5743 Clouds -17 1015 100 6774 1.98 253 10:27 22.01.2022
5744 Clouds -17 1015 100 6774 1.98 253 09:43 22.01.2022
5745 Clouds -16 1014 100 6838 1.84 277 08:51 22.01.2022
5746 Clouds -12 1012 96 10000 1.69 300 07:28 22.01.2022
5747 Clouds -10 1010 96 2696 2.92 352 04:50 22.01.2022
5748 Clouds -6 1007 95 331 3.62 237 00:57 22.01.2022
5749 Clouds -7 1006 93 450 5.64 220 23:21 21.01.2022
5750 Snow -7 1005 92 694 6.16 218 22:19 21.01.2022
5751 Clouds -7 1004 91 8086 6.82 216 19:55 21.01.2022
5752 Clouds -8 1003 91 10000 7.27 207 18:23 21.01.2022
5753 Clouds -8 1003 91 10000 7.41 207 17:18 21.01.2022
5754 Clouds -8 1002 91 10000 7.69 210 15:27 21.01.2022
5755 Clouds -8 1000 91 6283 8.01 214 13:18 21.01.2022
5756 Clouds -7 999 91 9453 8.56 216 12:26 21.01.2022
5757 Clouds -8 998 90 6803 9.06 217 11:26 21.01.2022
5758 Clouds -8 997 90 3073 9.14 215 09:34 21.01.2022
5759 Clouds -8 995 89 5077 8.86 211 08:21 21.01.2022
5760 Clouds -9 994 89 4450 9.04 210 04:37 21.01.2022
5761 Clouds -9 992 89 1549 9.68 209 22:53 20.01.2022
5762 Clouds -9 991 89 1004 9.32 207 21:49 20.01.2022
5763 Clouds -9 991 89 1004 9.32 207 21:31 20.01.2022
5764 Snow -9 991 91 440 8.64 206 20:21 20.01.2022
5765 Snow -9 991 91 423 8.73 205 19:19 20.01.2022
5766 Clouds -8 991 90 540 8.95 204 17:46 20.01.2022
5767 Clouds -8 991 88 2450 8.77 205 16:35 20.01.2022
5768 Clouds -8 991 88 2450 8.77 205 16:35 20.01.2022
5769 Clouds -8 991 87 9455 8.78 206 15:40 20.01.2022
5770 Clouds -8 991 88 10000 8.66 207 14:40 20.01.2022
5771 Clouds -8 991 88 10000 8.63 207 13:21 20.01.2022
5772 Clouds -8 991 88 10000 8.75 207 12:31 20.01.2022
5773 Clouds -9 991 88 10000 8.5 209 11:20 20.01.2022
5774 Clouds -9 991 89 2480 8.59 209 10:19 20.01.2022
5775 Clouds -9 991 90 921 8.52 210 09:19 20.01.2022
5776 Clouds -10 990 88 10000 9.14 209 07:24 20.01.2022
5777 Snow -10 991 90 299 9.44 201 00:41 20.01.2022
5778 Clouds -11 992 89 764 8.69 192 22:50 19.01.2022
5779 Clouds -12 992 89 10000 8.14 191 21:44 19.01.2022
5780 Clouds -13 993 90 10000 7.22 190 21:22 19.01.2022
5781 Clouds -13 993 90 10000 7.22 190 20:45 19.01.2022
5782 Clouds -17 994 93 10000 6.05 192 19:27 19.01.2022
5783 Clouds -19 994 94 10000 5.26 190 17:52 19.01.2022
5784 Clouds -19 994 94 10000 5.26 190 17:32 19.01.2022
5785 Clouds -18 996 94 10000 4.7 198 15:44 19.01.2022
5786 Clouds -20 996 95 10000 3.81 195 13:38 19.01.2022
5787 Clouds -21 997 96 10000 3.19 192 12:24 19.01.2022
5788 Clouds -21 997 96 10000 3.19 192 11:38 19.01.2022
5789 Clouds -21 997 96 10000 3.13 202 10:20 19.01.2022
5790 Clouds -21 997 96 10000 3.13 202 09:33 19.01.2022
5791 Clouds -23 997 96 10000 3.22 208 06:34 19.01.2022
5792 Clouds -24 998 97 10000 2.43 236 01:40 19.01.2022
5793 Clouds -22 998 97 7096 2.84 221 23:18 18.01.2022
5794 Clouds -22 999 97 2299 3.02 232 21:56 18.01.2022
5795 Clouds -23 999 99 1565 2.98 236 20:47 18.01.2022
5796 Clouds -23 998 99 3971 3.14 237 19:54 18.01.2022
5797 Clouds -23 998 99 3971 3.14 237 19:35 18.01.2022
5798 Clouds -22 998 98 4594 3.01 237 18:36 18.01.2022
5799 Clouds -21 998 98 3577 3.22 236 17:51 18.01.2022
5800 Clouds -20 998 98 3162 2.96 234 16:35 18.01.2022
5801 Clouds -21 998 99 3420 2.97 234 15:26 18.01.2022
5802 Clouds -21 998 99 3420 2.97 234 14:54 18.01.2022
5803 Clouds -21 997 100 1333 2.2 245 11:52 18.01.2022
5804 Clouds -21 997 100 2105 1.76 241 10:43 18.01.2022
5805 Clouds -22 996 100 2885 1.63 240 08:49 18.01.2022
5806 Clouds -22 996 100 3021 0.99 255 07:46 18.01.2022
5807 Clouds -23 995 100 3949 1.27 247 02:20 18.01.2022
5808 Clouds -23 994 100 9355 1.38 257 23:22 17.01.2022
5809 Clouds -23 993 100 10000 1.27 252 22:19 17.01.2022
5810 Clouds -23 993 100 10000 1.27 252 21:32 17.01.2022
5811 Clouds -23 992 100 10000 0.54 207 19:51 17.01.2022
5812 Clouds -23 992 100 10000 1.53 149 18:28 17.01.2022
5813 Clouds -23 992 100 6873 0.7 125 17:24 17.01.2022
5814 Clouds -23 992 100 6481 0.32 199 16:24 17.01.2022
5815 Clouds -23 992 100 6447 1.04 160 14:59 17.01.2022
5816 Clouds -23 992 100 6447 1.04 160 14:33 17.01.2022
5817 Clouds -23 992 100 5703 0.48 206 13:20 17.01.2022
5818 Clouds -23 992 100 5703 0.48 206 12:52 17.01.2022
5819 Clouds -23 991 100 6027 0.48 199 11:47 17.01.2022
5820 Clouds -23 991 100 6655 0.83 146 10:21 17.01.2022
5821 Clouds -23 991 100 6955 0.67 163 08:44 17.01.2022
5822 Clouds -22 990 100 10000 1.94 150 07:22 17.01.2022
5823 Clouds -22 990 100 10000 1.94 150 07:22 17.01.2022
5824 Clouds -20 990 98 4048 3.13 196 02:23 17.01.2022
5825 Clouds -19 990 97 10000 3.25 198 00:53 17.01.2022
5826 Clouds -19 988 97 6274 3.93 209 21:26 16.01.2022
5827 Clouds -19 988 97 6274 3.93 209 20:30 16.01.2022
5828 Clouds -19 988 97 5675 3.71 210 18:48 16.01.2022
5829 Clouds -17 988 96 1998 3.33 210 17:55 16.01.2022
5830 Clouds -17 988 96 1432 3.15 214 16:56 16.01.2022
5831 Clouds -17 988 96 1260 3.06 218 15:50 16.01.2022
5832 Clouds -17 988 96 3074 2.75 227 14:30 16.01.2022
5833 Clouds -18 988 97 3672 2.68 224 13:33 16.01.2022
5834 Clouds -19 989 98 5798 2.26 218 12:22 16.01.2022
5835 Clouds -19 989 98 5798 2.26 218 11:38 16.01.2022
5836 Clouds -19 989 97 7630 2.66 207 10:43 16.01.2022
5837 Clouds -18 989 96 10000 2.98 202 09:58 16.01.2022
5838 Clouds -18 989 96 10000 2.98 202 09:38 16.01.2022
5839 Clouds -17 989 96 5898 3.21 202 09:19 16.01.2022
5840 Clouds -18 989 97 10000 3.19 190 07:21 16.01.2022
5841 Clouds -15 989 94 10000 5.02 200 00:36 16.01.2022
5842 Clouds -14 989 91 10000 5.78 201 22:55 15.01.2022
5843 Clouds -13 988 92 10000 6.42 199 21:22 15.01.2022
5844 Clouds -13 988 92 10000 6.42 199 20:45 15.01.2022
5845 Clouds -12 987 91 9167 6.68 199 20:22 15.01.2022
5846 Clouds -11 986 89 6275 6.96 203 19:27 15.01.2022
5847 Clouds -11 986 89 5244 7.51 204 18:20 15.01.2022
5848 Clouds -11 986 88 5256 8.02 202 16:49 15.01.2022
5849 Clouds -11 984 87 6363 8.71 193 14:38 15.01.2022
5850 Clouds -11 984 86 10000 8.59 191 12:52 15.01.2022
5851 Clouds -11 983 86 10000 8.6 190 11:32 15.01.2022
5852 Clouds -11 982 86 10000 8.64 186 09:46 15.01.2022
5853 Clouds -10 981 86 10000 8.19 178 04:46 15.01.2022
5854 Clouds -9 979 86 9527 7.58 181 23:21 14.01.2022
5855 Clouds -10 978 84 10000 7.2 173 21:18 14.01.2022
5856 Clouds -9 978 84 10000 7.12 173 20:25 14.01.2022
5857 Clouds -9 978 84 10000 7.12 173 19:50 14.01.2022
5858 Clouds -9 978 85 6448 7.58 174 18:41 14.01.2022
5859 Clouds -9 977 86 4253 7.67 173 17:36 14.01.2022
5860 Clouds -9 977 86 7735 8.1 172 16:42 14.01.2022
5861 Clouds -9 977 82 10000 8.17 173 15:32 14.01.2022
5862 Clouds -10 977 85 10000 8.15 164 14:26 14.01.2022
5863 Clouds -10 977 84 10000 8.22 166 12:58 14.01.2022
5864 Clouds -10 977 89 864 8.53 171 11:52 14.01.2022
5865 Clouds -11 978 89 1294 8.8 171 10:39 14.01.2022
5866 Clouds -11 977 84 10000 8.99 170 08:53 14.01.2022
5867 Clouds -11 977 89 785 8.6 164 07:30 14.01.2022
5868 Clouds -12 979 85 10000 9.99 200 02:27 14.01.2022
5869 Clouds -13 980 86 4641 9.62 198 00:21 14.01.2022
5870 Clouds -14 981 87 1771 9.13 197 21:47 13.01.2022
5871 Clouds -13 981 86 8916 9.11 201 21:29 13.01.2022
5872 Clouds -13 981 86 7229 10.02 203 19:47 13.01.2022
5873 Clouds -13 982 89 796 10.12 202 19:28 13.01.2022
5874 Clouds -13 982 89 561 9.78 202 18:37 13.01.2022
5875 Snow -13 983 91 283 9.99 198 16:52 13.01.2022
5876 Snow -13 983 91 293 10.32 194 15:39 13.01.2022
5877 Clouds -12 984 88 1020 10.96 194 15:20 13.01.2022
5878 Clouds -11 985 85 10000 11.25 204 13:29 13.01.2022
5879 Clouds -10 988 87 7231 10.04 205 10:49 13.01.2022
5880 Clouds -10 989 87 10000 10.35 213 09:23 13.01.2022
5881 Clouds -10 990 88 4983 9.93 215 08:29 13.01.2022
5882 Clouds -10 990 88 4983 9.93 215 07:58 13.01.2022
5883 Clouds -10 990 88 4358 9.68 216 07:18 13.01.2022
5884 Clouds -10 992 89 4046 9.73 217 05:20 13.01.2022
5885 Clouds -10 993 89 3587 9.37 219 03:34 13.01.2022
5886 Clouds -10 994 90 1578 9.49 224 01:38 13.01.2022
5887 Clouds -10 995 89 3092 10.21 227 23:53 12.01.2022
5888 Clouds -10 995 89 3092 10.21 227 23:34 12.01.2022
5889 Clouds -10 996 89 2034 10.13 228 22:22 12.01.2022
5890 Clouds -10 996 89 2034 10.13 228 21:43 12.01.2022
5891 Clouds -10 996 89 7180 10.16 229 21:18 12.01.2022
5892 Clouds -10 996 89 7180 10.16 229 20:44 12.01.2022
5893 Snow -10 998 90 1008 9.47 227 18:49 12.01.2022
5894 Snow -11 998 92 260 9.46 227 18:18 12.01.2022
5895 Clouds -11 999 89 1161 9.27 224 16:52 12.01.2022
5896 Clouds -12 1001 89 1743 9.11 221 14:50 12.01.2022
5897 Clouds -12 1002 89 2615 9.01 219 14:19 12.01.2022
5898 Clouds -11 1003 89 2160 8.99 222 12:57 12.01.2022
5899 Clouds -12 1007 91 2551 8.01 219 09:26 12.01.2022
5900 Clouds -11 1008 91 6548 7.74 222 07:57 12.01.2022
5901 Clouds -11 1008 91 6548 7.74 222 07:33 12.01.2022
5902 Clouds -12 1010 100 1078 4.1 237 02:20 12.01.2022
5903 Clouds -15 1011 98 6243 3.77 246 23:26 11.01.2022
5904 Clouds -15 1011 97 10000 4.12 251 22:25 11.01.2022
5905 Clouds -15 1011 97 10000 4.12 251 21:58 11.01.2022
5906 Clouds -15 1011 96 10000 4.44 254 20:39 11.01.2022
5907 Clouds -14 1011 96 10000 4.61 247 19:31 11.01.2022
5908 Clouds -13 1011 95 6206 4.71 229 17:53 11.01.2022
5909 Clouds -12 1011 93 1340 5.07 225 16:40 11.01.2022
5910 Clouds -14 1011 95 2086 4.39 211 16:18 11.01.2022
5911 Clouds -14 1011 95 2086 4.39 211 16:18 11.01.2022
5912 Clouds -15 1011 94 10000 4.89 207 14:50 11.01.2022
5913 Clouds -15 1011 94 10000 4.89 207 14:32 11.01.2022
5914 Clouds -15 1011 93 10000 5.42 203 13:48 11.01.2022
5915 Clouds -14 1012 93 10000 4.83 198 13:25 11.01.2022
5916 Clouds -13 1011 93 10000 5.6 204 12:25 11.01.2022
5917 Clouds -14 1012 94 10000 5.46 202 10:32 11.01.2022
5918 Clouds -15 1013 95 10000 5.03 199 07:54 11.01.2022
5919 Clouds -16 1014 96 2118 4.51 217 03:51 11.01.2022
5920 Clouds -19 1015 98 8962 4.54 222 00:27 11.01.2022
5921 Clouds -19 1015 98 8962 4.54 222 23:39 10.01.2022
5922 Clouds -19 1014 98 6831 4.63 219 22:39 10.01.2022
5923 Clouds -19 1014 97 5503 4.49 220 22:18 10.01.2022
5924 Clouds -19 1014 97 5503 4.49 220 21:33 10.01.2022
5925 Clouds -17 1014 96 5757 4.26 222 20:59 10.01.2022
5926 Clouds -17 1014 96 5757 4.26 222 20:41 10.01.2022
5927 Clouds -16 1013 94 5021 4.14 223 20:19 10.01.2022
5928 Clouds -16 1013 94 5021 4.14 223 19:38 10.01.2022
5929 Clouds -16 1013 95 10000 4.8 231 19:19 10.01.2022
5930 Clouds -16 1013 95 10000 4.8 231 18:46 10.01.2022
5931 Clouds -16 1012 94 1885 4.99 229 16:48 10.01.2022
5932 Clouds -17 1012 95 6231 4.7 227 16:26 10.01.2022
5933 Clouds -19 1012 98 10000 4.54 226 14:43 10.01.2022
5934 Clouds -19 1012 98 4852 3.4 233 13:22 10.01.2022
5935 Clouds -19 1011 98 3465 3.57 235 11:56 10.01.2022
5936 Clouds -18 1010 96 3035 4.37 234 10:49 10.01.2022
5937 Clouds -18 1010 96 1722 4.84 231 09:37 10.01.2022
5938 Clouds -18 1008 95 2722 5.72 227 05:52 10.01.2022
5939 Clouds -16 1006 93 3552 6.27 230 02:32 10.01.2022
5940 Clouds -16 1006 94 3268 5.41 226 01:21 10.01.2022
5941 Clouds -17 1006 95 2694 4.54 225 00:21 10.01.2022
5942 Clouds -18 1005 96 3267 3.51 224 22:47 09.01.2022
5943 Clouds -18 1005 96 3165 2.99 219 22:18 09.01.2022
5944 Clouds -18 1005 96 3165 2.99 219 21:41 09.01.2022
5945 Clouds -18 1005 96 3165 2.99 219 21:41 09.01.2022
5946 Clouds -19 1004 97 1727 2.49 214 21:22 09.01.2022
5947 Clouds -19 1004 97 1727 2.49 214 21:22 09.01.2022
5948 Clouds -19 1004 97 1727 2.49 214 20:46 09.01.2022
5949 Clouds -20 1004 98 1609 2.07 209 20:28 09.01.2022
5950 Clouds -20 1004 98 1609 2.07 209 19:39 09.01.2022
5951 Clouds -20 1004 99 2446 1.96 203 19:20 09.01.2022
5952 Clouds -19 1004 96 3018 1.73 197 18:38 09.01.2022
5953 Clouds -19 1004 95 4522 1.82 203 18:18 09.01.2022
5954 Clouds -19 1004 95 4522 1.82 203 17:30 09.01.2022
5955 Clouds -20 1004 96 4198 1.89 207 16:50 09.01.2022
5956 Clouds -21 1003 96 8832 2.12 211 15:51 09.01.2022
5957 Clouds -21 1003 96 8832 2.12 211 15:32 09.01.2022
5958 Clouds -21 1003 95 10000 2.11 219 14:39 09.01.2022
5959 Clouds -20 1003 96 10000 2.05 224 13:49 09.01.2022
5960 Clouds -23 1003 98 10000 1.86 224 12:19 09.01.2022
5961 Clouds -23 1003 98 10000 1.86 224 11:38 09.01.2022
5962 Clouds -22 1002 99 10000 1.96 249 09:55 09.01.2022
5963 Clouds -21 1001 99 9801 2.07 263 09:24 09.01.2022
5964 Clouds -20 1001 98 8093 2.21 281 07:54 09.01.2022
5965 Snow -16 998 95 394 2.41 297 01:30 09.01.2022
5966 Clouds -16 997 96 341 2.44 286 00:50 09.01.2022
5967 Clouds -17 996 96 450 2.69 303 23:36 08.01.2022
5968 Clouds -16 996 95 647 2.64 298 22:56 08.01.2022
5969 Snow -16 995 96 389 2.61 293 21:32 08.01.2022
5970 Snow -16 995 96 275 2.22 284 20:44 08.01.2022
5971 Snow -16 994 96 226 2.03 276 20:23 08.01.2022
5972 Snow -17 994 96 214 1.98 269 19:22 08.01.2022
5973 Clouds -19 994 97 448 3.12 230 17:49 08.01.2022
5974 Clouds -19 994 96 521 3.23 233 16:57 08.01.2022
5975 Clouds -19 994 96 496 3.4 238 15:35 08.01.2022
5976 Clouds -19 993 97 392 3.6 236 14:33 08.01.2022
5977 Clouds -21 994 96 2149 3.71 222 12:36 08.01.2022
5978 Clouds -19 993 95 2484 3.58 222 10:46 08.01.2022
5979 Clouds -18 992 95 2189 3.31 227 10:24 08.01.2022
5980 Clouds -18 992 95 2189 3.31 227 09:34 08.01.2022
5981 Clouds -18 992 95 2189 3.31 227 09:34 08.01.2022
5982 Clouds -16 992 95 503 2.67 240 07:18 08.01.2022
5983 Clouds -17 992 96 364 1.52 245 01:52 08.01.2022
5984 Clouds -17 993 96 396 0.64 75 00:25 08.01.2022
5985 Clouds -17 993 96 457 1.09 84 22:39 07.01.2022
5986 Snow -17 994 96 360 1.77 90 20:40 07.01.2022
5987 Snow -17 994 96 244 2.31 91 19:39 07.01.2022
5988 Snow -18 996 97 231 3.02 89 18:50 07.01.2022
5989 Clouds -18 996 97 285 3.07 88 18:26 07.01.2022
5990 Clouds -19 997 97 1001 2.94 93 17:24 07.01.2022
5991 Clouds -19 998 98 5205 3.01 99 16:22 07.01.2022
5992 Clouds -19 999 98 10000 3.45 100 13:52 07.01.2022
5993 Clouds -19 1000 96 10000 3.64 104 13:18 07.01.2022
5994 Clouds -18 1000 93 10000 3.15 109 12:25 07.01.2022
5995 Snow -14 1002 96 258 2.8 127 06:47 07.01.2022
5996 Snow -14 1004 96 160 3.08 126 02:54 07.01.2022
5997 Snow -15 1005 96 195 3.4 126 01:52 07.01.2022
5998 Snow -15 1005 96 236 3.85 124 01:27 07.01.2022
5999 Snow -15 1005 96 236 3.85 124 00:55 07.01.2022
6000 Snow -15 1006 95 446 4.07 130 22:42 06.01.2022
6001 Snow -16 1007 95 323 4.12 128 21:23 06.01.2022
6002 Snow -17 1008 96 255 3.82 118 20:20 06.01.2022
6003 Snow -17 1008 96 255 3.82 118 19:40 06.01.2022
6004 Clouds -19 1010 89 10000 2.76 133 17:53 06.01.2022
6005 Clouds -19 1010 89 10000 2.76 133 17:32 06.01.2022
6006 Clouds -20 1010 87 10000 2.84 155 16:40 06.01.2022
6007 Clouds -20 1010 82 10000 3.36 175 15:45 06.01.2022
6008 Clouds -21 1011 78 10000 4.03 188 15:23 06.01.2022
6009 Clouds -22 1011 78 10000 4.52 193 14:21 06.01.2022
6010 Clouds -22 1011 78 10000 4.52 193 13:47 06.01.2022
6011 Clouds -22 1011 78 10000 4.49 195 12:43 06.01.2022
6012 Clouds -22 1011 78 10000 5.68 202 11:41 06.01.2022
6013 Clouds -23 1011 80 10000 6.45 208 11:21 06.01.2022
6014 Clouds -24 1011 82 10000 7.84 213 08:50 06.01.2022
6015 Clouds -23 1008 96 995 7.33 218 00:43 06.01.2022
6016 Clouds -25 1008 96 1099 5.13 211 23:36 05.01.2022
6017 Clouds -28 1008 91 2859 4.54 216 22:54 05.01.2022
6018 Clouds -28 1008 91 2859 4.54 216 22:30 05.01.2022
6019 Clear -29 1007 88 10000 3.72 232 21:46 05.01.2022
6020 Clear -29 1007 90 10000 3.9 252 20:49 05.01.2022
6021 Clear -29 1006 91 10000 4.57 266 19:59 05.01.2022
6022 Clouds -29 1006 92 10000 4.51 257 18:38 05.01.2022
6023 Clouds -29 1005 94 10000 5.17 270 17:23 05.01.2022
6024 Clouds -29 1005 94 10000 5.17 270 16:38 05.01.2022
6025 Clouds -29 1004 95 10000 5.7 286 15:20 05.01.2022
6026 Clouds -29 1003 95 10000 5.76 295 13:51 05.01.2022
6027 Clouds -30 1002 95 9085 5.77 298 12:51 05.01.2022
6028 Clouds -30 1001 95 8266 6.39 305 10:32 05.01.2022
6029 Clouds -30 999 94 2958 6.83 320 07:45 05.01.2022
6030 Clouds -31 998 94 8072 6.33 323 06:24 05.01.2022
6031 Clouds -29 996 94 562 7.74 344 00:58 05.01.2022
6032 Clouds -28 995 95 493 8.05 349 23:27 04.01.2022
6033 Clouds -28 995 95 493 8.05 349 22:42 04.01.2022
6034 Clouds -28 995 95 361 8.04 360 21:21 04.01.2022
6035 Clouds -28 995 95 433 8.38 6 19:20 04.01.2022
6036 Clouds -28 996 94 1072 8.1 12 17:44 04.01.2022
6037 Clouds -28 997 94 877 8.15 15 16:43 04.01.2022
6038 Clouds -28 997 94 693 8.22 20 16:23 04.01.2022
6039 Clouds -27 997 95 638 8.34 24 14:54 04.01.2022
6040 Clouds -27 997 95 638 8.34 24 14:34 04.01.2022
6041 Clouds -27 998 95 1073 8.56 29 13:27 04.01.2022
6042 Clouds -26 998 95 1474 8.23 37 10:41 04.01.2022
6043 Clouds -26 998 94 964 8.73 45 09:20 04.01.2022
6044 Clouds -26 998 94 964 8.73 45 08:30 04.01.2022
6045 Snow -25 1000 97 345 9.5 57 02:31 04.01.2022
6046 Snow -25 1001 97 263 9.38 61 00:41 04.01.2022
6047 Snow -25 1001 96 326 9.68 65 23:19 03.01.2022
6048 Clouds -25 1002 96 307 9.87 66 21:52 03.01.2022
6049 Clouds -25 1002 96 307 9.87 66 21:32 03.01.2022
6050 Snow -25 1002 97 246 10.13 67 19:56 03.01.2022
6051 Snow -25 1003 97 248 10.04 68 18:48 03.01.2022
6052 Clouds -25 1003 97 254 10.04 69 18:27 03.01.2022
6053 Snow -25 1004 97 218 10.22 69 16:58 03.01.2022
6054 Snow -25 1004 97 279 9.95 72 14:56 03.01.2022
6055 Snow -25 1004 97 279 9.95 72 14:30 03.01.2022
6056 Snow -25 1005 97 245 10 72 12:46 03.01.2022
6057 Clouds -25 1005 96 317 10.12 72 11:35 03.01.2022
6058 Clouds -25 1006 96 409 9.87 72 10:27 03.01.2022
6059 Clouds -26 1007 96 514 9.86 72 08:47 03.01.2022
6060 Clouds -26 1007 95 1512 9.85 74 07:34 03.01.2022
6061 Clouds -26 1007 95 1512 9.85 74 07:34 03.01.2022
6062 Clouds -27 1010 97 2961 9.23 77 23:55 02.01.2022
6063 Clouds -27 1010 98 2632 9.04 79 23:22 02.01.2022
6064 Clouds -27 1010 98 2632 9.04 79 22:53 02.01.2022
6065 Clouds -27 1011 98 2996 9.12 77 21:42 02.01.2022
6066 Clouds -27 1011 98 3268 9.2 76 20:33 02.01.2022
6067 Clouds -27 1011 98 3335 9.23 77 19:55 02.01.2022
6068 Clouds -27 1011 98 3335 9.23 77 19:30 02.01.2022
6069 Clouds -28 1012 97 4710 9.2 76 18:46 02.01.2022
6070 Clouds -28 1012 97 4710 9.2 76 18:46 02.01.2022
6071 Clouds -29 1012 98 4473 9.14 75 17:54 02.01.2022
6072 Clouds -29 1012 98 4473 9.14 75 17:36 02.01.2022
6073 Clouds -29 1012 98 4456 9.02 73 17:18 02.01.2022
6074 Clouds -29 1012 98 4397 9.05 74 16:25 02.01.2022
6075 Clouds -29 1012 98 4254 9.21 74 14:32 02.01.2022
6076 Clouds -28 1012 98 3932 9.41 75 12:50 02.01.2022
6077 Clouds -28 1012 98 3852 9.48 74 11:58 02.01.2022
6078 Clouds -28 1012 98 3680 9.2 72 11:26 02.01.2022
6079 Clouds -28 1012 98 3680 9.2 72 10:46 02.01.2022
6080 Clouds -27 1012 98 3808 9.18 73 09:45 02.01.2022
6081 Clouds -26 1012 98 3427 9.46 76 05:21 02.01.2022
6082 Clouds -26 1012 98 3466 9.26 77 01:41 02.01.2022
6083 Clouds -25 1011 97 3934 9.15 79 23:39 01.01.2022
6084 Clouds -25 1011 98 3748 9.18 78 22:57 01.01.2022
6085 Clouds -25 1011 98 3910 9.03 77 22:22 01.01.2022
6086 Clouds -25 1011 98 3910 9.03 77 21:43 01.01.2022
6087 Clouds -25 1011 98 3919 8.9 77 20:53 01.01.2022
6088 Clouds -25 1011 98 3910 8.78 77 19:57 01.01.2022
6089 Clouds -25 1011 98 3943 8.62 78 19:19 01.01.2022
6090 Clouds -25 1012 97 4687 8.38 77 17:58 01.01.2022
6091 Clouds -25 1011 98 4111 8.42 78 16:37 01.01.2022
6092 Clouds -25 1011 98 3776 8.35 78 16:19 01.01.2022
6093 Clouds -25 1011 98 3910 8.34 79 15:26 01.01.2022
6094 Clouds -25 1011 98 3857 8.25 79 13:46 01.01.2022
6095 Clouds -24 1011 98 3752 8.25 79 12:49 01.01.2022
6096 Clouds -24 1011 97 4622 8.43 84 11:56 01.01.2022
6097 Clouds -24 1011 97 4568 8.34 85 11:22 01.01.2022
6098 Clouds -24 1011 97 4524 8.46 86 10:27 01.01.2022
6099 Clouds -24 1011 97 4524 8.46 86 09:46 01.01.2022
6100 Clouds -24 1010 97 4263 8.11 85 08:26 01.01.2022
6101 Clouds -24 1010 97 4263 8.11 85 07:44 01.01.2022
6102 Clouds -25 1011 98 4732 8 87 06:47 01.01.2022
6103 Clouds -26 1011 98 5600 7.5 89 05:27 01.01.2022
6104 Clouds -26 1011 98 5600 7.5 89 04:38 01.01.2022
6105 Clouds -27 1012 99 6326 7.02 89 01:59 01.01.2022
6106 Clouds -27 1012 99 6352 6.57 91 23:36 31.12.2021
6107 Clouds -27 1012 99 6379 6.09 92 21:53 31.12.2021
6108 Clouds -27 1012 99 6551 6.29 91 20:38 31.12.2021
6109 Clouds -27 1012 98 7007 6.32 90 19:30 31.12.2021
6110 Clouds -27 1013 99 7594 5.94 92 18:37 31.12.2021
6111 Clouds -26 1013 99 7768 5.8 92 17:40 31.12.2021
6112 Clouds -26 1013 98 7531 5.74 93 17:18 31.12.2021
6113 Clouds -26 1013 97 8123 5.68 93 16:25 31.12.2021
6114 Clouds -26 1013 97 8123 5.68 93 15:57 31.12.2021
6115 Clouds -26 1014 97 10000 5.43 93 15:28 31.12.2021
6116 Clouds -26 1014 97 10000 5.43 93 14:56 31.12.2021
6117 Clouds -26 1014 97 10000 5.43 93 14:30 31.12.2021
6118 Clouds -26 1014 97 10000 5.36 95 13:36 31.12.2021
6119 Clouds -26 1014 98 10000 5.34 95 12:45 31.12.2021
6120 Clouds -26 1014 96 10000 5.1 97 11:51 31.12.2021
6121 Clouds -26 1014 96 10000 5.1 97 11:30 31.12.2021
6122 Clouds -26 1014 96 10000 4.95 99 10:38 31.12.2021
6123 Clouds -26 1014 96 10000 4.7 98 09:55 31.12.2021
6124 Clouds -26 1014 96 10000 4.7 98 09:33 31.12.2021
6125 Clouds -25 1014 97 10000 4.32 101 08:39 31.12.2021
6126 Clouds -25 1013 97 10000 4.35 107 07:31 31.12.2021
6127 Clouds -26 1014 98 10000 2.6 117 23:32 30.12.2021
6128 Clouds -26 1014 98 10000 2.5 121 22:33 30.12.2021
6129 Clouds -26 1014 98 10000 2.38 123 21:59 30.12.2021
6130 Clouds -26 1014 98 10000 2.38 123 21:59 30.12.2021
6131 Clouds -26 1014 98 10000 2.38 123 21:37 30.12.2021
6132 Clouds -26 1014 98 10000 2.26 127 20:47 30.12.2021
6133 Clouds -26 1013 98 10000 2.17 127 20:27 30.12.2021
6134 Clouds -26 1013 98 10000 2.17 127 19:48 30.12.2021
6135 Clouds -26 1013 97 10000 2.08 129 18:48 30.12.2021
6136 Clouds -26 1014 96 10000 1.9 151 18:19 30.12.2021
6137 Clouds -26 1014 97 10000 1.95 164 16:20 30.12.2021
6138 Clouds -26 1014 97 10000 1.95 164 15:52 30.12.2021
6139 Clouds -26 1014 96 10000 1.9 161 14:40 30.12.2021
6140 Clouds -26 1014 96 10000 1.83 167 13:57 30.12.2021
6141 Clouds -26 1013 97 10000 1.72 162 12:44 30.12.2021
6142 Clouds -25 1013 96 10000 1.68 175 11:22 30.12.2021
6143 Clouds -25 1012 97 10000 1.75 179 09:59 30.12.2021
6144 Clouds -26 1012 97 10000 1.73 174 09:23 30.12.2021
6145 Clouds -25 1012 96 10000 1.4 163 06:54 30.12.2021
6146 Clouds -24 1011 96 10000 1.34 181 04:20 30.12.2021
6147 Clouds -24 1011 96 10000 1.34 181 04:20 30.12.2021
6148 Clouds -24 1011 96 10000 1.34 181 03:38 30.12.2021
6149 Clouds -25 1010 97 10000 1.03 180 23:57 29.12.2021
6150 Clouds -25 1010 97 10000 1.03 180 23:31 29.12.2021
6151 Clouds -25 1010 96 10000 1.01 172 22:24 29.12.2021
6152 Clouds -25 1010 96 10000 1.01 172 21:53 29.12.2021
6153 Clouds -25 1009 96 10000 1.2 160 20:40 29.12.2021
6154 Clouds -25 1009 95 10000 1.35 164 19:51 29.12.2021
6155 Clouds -24 1009 95 10000 1.58 174 19:24 29.12.2021
6156 Clouds -24 1009 95 10000 1.86 179 18:19 29.12.2021
6157 Clouds -24 1009 95 9984 2.06 181 17:28 29.12.2021
6158 Clouds -24 1009 95 9984 2.06 181 16:49 29.12.2021
6159 Clouds -24 1009 94 10000 2.18 174 16:19 29.12.2021
6160 Clouds -24 1009 94 10000 2.31 171 14:40 29.12.2021
6161 Clouds -24 1008 94 10000 2.58 166 12:48 29.12.2021
6162 Clouds -24 1009 94 10000 2.56 166 12:20 29.12.2021
6163 Clouds -24 1008 94 10000 2.56 163 10:31 29.12.2021
6164 Clouds -23 1007 94 10000 3.7 174 07:52 29.12.2021
6165 Clouds -24 1007 94 10000 3.76 168 06:45 29.12.2021
6166 Clouds -23 1006 94 10000 4.03 171 06:24 29.12.2021
6167 Clouds -23 1006 94 10000 4.03 171 05:42 29.12.2021
6168 Clouds -21 1006 93 10000 4.38 172 03:18 29.12.2021
6169 Clouds -21 1005 93 10000 4.19 175 00:24 29.12.2021
6170 Clouds -21 1005 93 10000 4.19 175 23:47 28.12.2021
6171 Clouds -20 1005 92 10000 4.45 181 22:43 28.12.2021
6172 Clouds -20 1004 91 10000 4.65 179 22:24 28.12.2021
6173 Clouds -20 1004 91 10000 4.65 179 21:53 28.12.2021
6174 Clouds -19 1004 91 10000 4.57 178 20:47 28.12.2021
6175 Clouds -19 1004 93 4728 4.27 178 19:39 28.12.2021
6176 Clouds -20 1004 95 10000 3.76 173 18:44 28.12.2021
6177 Clouds -20 1004 95 10000 3.64 171 18:19 28.12.2021
6178 Clouds -19 1003 93 10000 3.46 165 16:35 28.12.2021
6179 Clouds -18 1003 92 10000 3.37 161 15:51 28.12.2021
6180 Clouds -18 1003 93 10000 3.39 158 15:25 28.12.2021
6181 Clouds -18 1003 93 10000 3.39 158 14:52 28.12.2021
6182 Clouds -18 1003 94 7117 3.28 155 14:21 28.12.2021
6183 Clouds -18 1003 94 7117 3.28 155 13:51 28.12.2021
6184 Clouds -18 1003 94 7117 3.28 155 13:51 28.12.2021
6185 Clouds -18 1003 93 7830 3.04 145 13:28 28.12.2021
6186 Clouds -18 1003 93 7830 3.04 145 12:49 28.12.2021
6187 Clouds -17 1003 92 5440 2.84 147 11:51 28.12.2021
6188 Clouds -16 1003 96 618 2.81 139 09:27 28.12.2021
6189 Clouds -16 1003 95 820 3.8 127 07:28 28.12.2021
6190 Clouds -17 1006 94 8977 2.04 142 00:59 28.12.2021
6191 Clouds -17 1007 96 4210 2.11 90 23:26 27.12.2021
6192 Clouds -18 1008 97 5687 2.45 81 21:54 27.12.2021
6193 Clouds -19 1009 98 6854 2.48 78 21:26 27.12.2021
6194 Clouds -19 1010 98 9762 2.65 82 20:24 27.12.2021
6195 Clouds -19 1010 98 9762 2.65 82 19:43 27.12.2021
6196 Clouds -20 1010 99 10000 2.73 83 18:54 27.12.2021
6197 Clouds -19 1010 95 10000 2.7 86 17:50 27.12.2021
6198 Clouds -20 1011 94 10000 2.57 101 16:57 27.12.2021
6199 Clouds -21 1011 94 10000 2.6 116 15:53 27.12.2021
6200 Clouds -21 1011 92 10000 2.85 123 14:34 27.12.2021
6201 Clouds -20 1011 90 10000 2.99 130 13:40 27.12.2021
6202 Clouds -20 1012 87 10000 3.48 133 12:47 27.12.2021
6203 Clouds -18 1011 85 10000 4.01 147 10:36 27.12.2021
6204 Clouds -18 1011 86 10000 3.83 152 10:18 27.12.2021
6205 Clouds -18 1011 86 10000 3.61 148 08:39 27.12.2021
6206 Clouds -18 1010 88 10000 3.76 157 07:32 27.12.2021
6207 Clouds -15 1007 86 10000 7.3 186 02:26 27.12.2021
6208 Clouds -15 1007 88 10000 6.2 182 00:23 27.12.2021
6209 Clouds -15 1007 88 10000 6.2 182 23:41 26.12.2021
6210 Clouds -15 1006 88 10000 5.79 184 22:47 26.12.2021
6211 Clouds -15 1005 88 10000 5.31 182 21:29 26.12.2021
6212 Snow -14 1005 90 861 5.24 173 19:49 26.12.2021
6213 Clouds -15 1006 91 1220 5.93 113 18:25 26.12.2021
6214 Clouds -15 1006 91 1220 5.93 113 17:44 26.12.2021
6215 Clouds -15 1007 91 5620 4.17 108 14:38 26.12.2021
6216 Clouds -15 1007 94 294 3.56 108 13:43 26.12.2021
6217 Clouds -16 1008 90 9828 3.24 111 13:21 26.12.2021
6218 Clouds -16 1008 91 10000 3.19 108 12:34 26.12.2021
6219 Clouds -18 1009 94 10000 2.95 118 10:48 26.12.2021
6220 Clouds -20 1010 97 998 2.59 118 09:29 26.12.2021
6221 Clouds -20 1010 97 998 2.59 118 08:44 26.12.2021
6222 Clouds -20 1010 97 785 2.5 115 08:23 26.12.2021
6223 Clouds -23 1011 95 4701 2.5 138 01:36 26.12.2021
6224 Clouds -22 1011 94 2352 2.45 142 00:20 26.12.2021
6225 Clouds -22 1011 94 3409 2.42 145 23:28 25.12.2021
6226 Clouds -22 1011 94 5487 2.56 153 22:29 25.12.2021
6227 Clouds -22 1011 94 8002 2.81 160 21:29 25.12.2021
6228 Clouds -22 1010 93 10000 2.97 158 19:46 25.12.2021
6229 Clouds -22 1010 93 10000 2.87 152 19:18 25.12.2021
6230 Clouds -22 1010 95 10000 3.1 143 18:26 25.12.2021
6231 Clouds -21 1010 92 10000 3.07 139 16:49 25.12.2021
6232 Clouds -21 1010 93 10000 2.72 140 15:30 25.12.2021
6233 Clouds -21 1009 97 10000 2.36 121 14:22 25.12.2021
6234 Clouds -20 1010 98 10000 3.12 115 12:19 25.12.2021
6235 Clouds -19 1010 96 10000 4.25 112 10:38 25.12.2021
6236 Clouds -17 1009 94 10000 5.56 108 09:48 25.12.2021
6237 Clouds -14 1008 92 1598 7.35 96 07:27 25.12.2021
6238 Clouds -13 1009 94 314 9.08 70 01:36 25.12.2021
6239 Clouds -13 1011 93 10000 7.51 56 00:19 25.12.2021
6240 Clouds -14 1013 94 10000 6.08 74 21:51 24.12.2021
6241 Clouds -16 1015 92 10000 4.15 83 19:27 24.12.2021
6242 Clouds -16 1015 92 10000 4.15 83 18:41 24.12.2021
6243 Clouds -18 1016 91 10000 2.96 86 16:44 24.12.2021
6244 Clouds -18 1016 91 10000 2.59 92 15:50 24.12.2021
6245 Clouds -18 1016 91 10000 2.59 92 15:50 24.12.2021
6246 Clouds -19 1016 90 10000 2.34 96 15:20 24.12.2021
6247 Clouds -19 1016 90 10000 2.34 96 14:34 24.12.2021
6248 Clouds -21 1017 91 10000 2.27 123 13:54 24.12.2021
6249 Clouds -21 1017 91 10000 2.27 123 13:32 24.12.2021
6250 Clouds -22 1017 91 10000 2.47 124 12:40 24.12.2021
6251 Clouds -22 1017 91 10000 2.64 112 11:43 24.12.2021
6252 Clouds -22 1017 91 10000 2.54 123 11:24 24.12.2021
6253 Clouds -22 1017 91 10000 2.54 123 10:35 24.12.2021
6254 Clear -20 1017 85 10000 3.5 166 08:48 24.12.2021
6255 Clear -20 1016 83 10000 4.45 186 07:58 24.12.2021
6256 Clouds -20 1016 84 10000 5.37 189 06:59 24.12.2021
6257 Clouds -19 1011 91 10000 7.77 204 00:47 24.12.2021
6258 Clouds -19 1010 91 10000 8.17 209 23:50 23.12.2021
6259 Clouds -19 1009 91 10000 9 212 22:53 23.12.2021
6260 Clouds -20 1007 92 10000 9.01 214 22:24 23.12.2021
6261 Clouds -20 1007 92 10000 9.01 214 21:41 23.12.2021
6262 Clouds -20 1006 91 10000 8.98 214 20:31 23.12.2021
6263 Clouds -20 1006 91 10000 8.98 214 20:31 23.12.2021
6264 Clouds -19 1005 91 10000 8.91 214 19:30 23.12.2021
6265 Clouds -19 1005 91 10000 8.91 214 19:30 23.12.2021
6266 Clouds -19 1003 92 4823 8.28 216 18:18 23.12.2021
6267 Clouds -19 1003 92 4823 8.28 216 17:45 23.12.2021
6268 Clouds -19 1001 93 3954 6.49 216 16:27 23.12.2021
6269 Clouds -19 1001 93 3954 6.49 216 15:48 23.12.2021
6270 Clouds -19 1001 93 3954 6.49 216 15:30 23.12.2021
6271 Clouds -20 1001 94 9822 5.66 216 14:42 23.12.2021
6272 Clouds -20 1001 93 10000 4.88 214 13:43 23.12.2021
6273 Clouds -20 1001 93 10000 3.64 217 11:52 23.12.2021
6274 Clouds -20 1001 94 10000 2.9 219 09:55 23.12.2021
6275 Clouds -20 1001 94 10000 2.9 219 09:34 23.12.2021
6276 Clouds -20 1001 94 10000 2.69 209 08:38 23.12.2021
6277 Clouds -21 1000 96 10000 3.18 189 05:43 23.12.2021
6278 Clouds -18 1000 96 10000 4.02 199 02:56 23.12.2021
6279 Snow -14 1000 96 145 4.38 59 22:53 22.12.2021
6280 Snow -15 1001 96 127 5.11 54 22:22 22.12.2021
6281 Snow -15 1001 96 127 5.11 54 21:37 22.12.2021
6282 Snow -16 1002 96 129 4.79 62 21:19 22.12.2021
6283 Snow -16 1002 96 129 4.79 62 20:40 22.12.2021
6284 Clouds -17 1002 95 344 4.47 72 19:57 22.12.2021
6285 Clouds -20 1004 97 3099 4.74 76 18:55 22.12.2021
6286 Clouds -21 1005 98 3862 4.78 76 17:38 22.12.2021
6287 Clouds -24 1006 100 7183 3.78 89 16:25 22.12.2021
6288 Clouds -25 1007 98 10000 3.64 96 14:34 22.12.2021
6289 Clouds -25 1008 98 10000 3.43 92 12:55 22.12.2021
6290 Clouds -25 1008 98 10000 2.23 92 11:50 22.12.2021
6291 Clouds -25 1009 95 10000 1.82 110 09:53 22.12.2021
6292 Clouds -25 1010 93 10000 1.43 108 08:34 22.12.2021
6293 Clouds -26 1011 90 10000 2.13 157 05:56 22.12.2021
6294 Clouds -26 1011 90 10000 2.13 157 05:37 22.12.2021
6295 Clouds -26 1011 88 10000 1.95 159 05:19 22.12.2021
6296 Clouds -26 1011 88 10000 1.95 159 04:40 22.12.2021
6297 Clouds -26 1012 88 10000 2.05 160 03:53 22.12.2021
6298 Clouds -26 1012 88 10000 2.05 160 03:31 22.12.2021
6299 Clouds -27 1014 87 10000 1.44 216 23:49 21.12.2021
6300 Clouds -27 1014 86 10000 1.83 209 22:41 21.12.2021
6301 Clouds -27 1015 88 10000 2.14 193 21:58 21.12.2021
6302 Clouds -27 1015 88 10000 2.14 193 21:33 21.12.2021
6303 Clouds -28 1015 91 10000 2.1 167 20:42 21.12.2021
6304 Clouds -28 1016 92 10000 2.21 147 20:18 21.12.2021
6305 Clouds -28 1016 92 10000 2.21 147 19:34 21.12.2021
6306 Clouds -30 1016 96 10000 2.22 148 18:28 21.12.2021
6307 Clouds -30 1016 96 10000 2.22 148 17:58 21.12.2021
6308 Clouds -30 1016 96 10000 2.22 148 17:40 21.12.2021
6309 Clouds -29 1017 97 10000 2.48 121 15:46 21.12.2021
6310 Clouds -29 1018 97 10000 3.61 107 14:24 21.12.2021
6311 Clouds -29 1018 97 10000 3.61 107 13:42 21.12.2021
6312 Clouds -28 1019 96 10000 4.59 105 12:29 21.12.2021
6313 Clouds -28 1020 96 10000 4.7 103 10:39 21.12.2021
6314 Clouds -28 1021 96 10000 5.13 106 09:56 21.12.2021
6315 Clouds -28 1021 95 10000 5.35 105 08:57 21.12.2021
6316 Clouds -28 1021 95 10000 5.38 104 07:44 21.12.2021
6317 Clouds -28 1022 95 10000 5.26 103 07:22 21.12.2021
6318 Clouds -28 1023 96 10000 4.47 103 03:26 21.12.2021
6319 Clouds -28 1023 96 10000 4.47 103 02:30 21.12.2021
6320 Clouds -28 1025 96 10000 4.51 105 23:54 20.12.2021
6321 Clouds -28 1025 97 10000 4.41 104 22:36 20.12.2021
6322 Clouds -28 1025 96 10000 4.39 106 21:59 20.12.2021
6323 Clouds -28 1026 96 10000 4.57 108 21:27 20.12.2021
6324 Clouds -28 1026 96 10000 4.57 108 20:54 20.12.2021
6325 Clouds -28 1026 96 10000 4.81 106 20:23 20.12.2021
6326 Clouds -28 1026 96 10000 4.81 106 19:38 20.12.2021
6327 Clouds -28 1026 96 10000 5.08 105 19:19 20.12.2021
6328 Clouds -28 1026 95 10000 4.9 104 18:33 20.12.2021
6329 Clouds -27 1026 94 10000 5.29 104 17:50 20.12.2021
6330 Clouds -27 1026 95 10000 5.81 103 16:47 20.12.2021
6331 Clouds -27 1026 95 10000 6.07 99 15:57 20.12.2021
6332 Clouds -27 1026 95 10000 6.07 99 15:35 20.12.2021
6333 Clouds -27 1026 95 10000 6.18 97 13:32 20.12.2021
6334 Clouds -27 1026 95 10000 6.31 97 12:30 20.12.2021
6335 Clouds -26 1026 96 10000 6.34 98 10:46 20.12.2021
6336 Clouds -26 1026 96 10000 6.29 98 09:40 20.12.2021
6337 Clouds -26 1026 96 10000 6.33 99 08:50 20.12.2021
6338 Clouds -26 1026 96 10000 6.33 99 08:31 20.12.2021
6339 Clouds -26 1026 95 10000 6.26 101 07:32 20.12.2021
6340 Clouds -26 1026 94 10000 5.98 100 06:39 20.12.2021
6341 Clouds -27 1024 95 10000 4.88 101 00:20 20.12.2021
6342 Clouds -27 1024 94 10000 4.85 102 22:56 19.12.2021
6343 Clouds -27 1024 94 10000 4.85 102 22:32 19.12.2021
6344 Clouds -27 1024 94 10000 4.99 101 21:32 19.12.2021
6345 Clouds -27 1023 94 10000 5.21 102 20:42 19.12.2021
6346 Clouds -27 1023 95 10000 5.54 101 20:23 19.12.2021
6347 Clouds -27 1023 95 10000 5.54 101 19:41 19.12.2021
6348 Clouds -27 1023 96 10000 5.93 100 18:42 19.12.2021
6349 Clouds -27 1022 97 9714 6.13 100 17:53 19.12.2021
6350 Clouds -27 1022 97 9714 6.13 100 17:30 19.12.2021
6351 Clouds -26 1022 97 8858 6.49 101 16:41 19.12.2021
6352 Clouds -26 1022 97 8757 6.78 98 15:55 19.12.2021
6353 Clouds -27 1022 97 7923 7.05 97 15:24 19.12.2021
6354 Clouds -27 1022 97 7923 7.05 97 14:45 19.12.2021
6355 Clouds -27 1022 97 6739 7.38 96 13:32 19.12.2021
6356 Clouds -26 1022 98 4978 7.62 93 12:59 19.12.2021
6357 Clouds -26 1022 98 3884 7.5 92 12:29 19.12.2021
6358 Clouds -26 1022 98 3884 7.5 92 11:37 19.12.2021
6359 Clouds -26 1021 99 3524 7.52 91 10:49 19.12.2021
6360 Clouds -25 1021 100 3539 7.59 90 10:22 19.12.2021
6361 Clouds -25 1021 99 3895 7.61 88 08:46 19.12.2021
6362 Clouds -25 1021 99 4200 7.58 89 06:30 19.12.2021
6363 Clouds -25 1020 97 4641 6.4 96 01:51 19.12.2021
6364 Clouds -24 1020 96 4733 6.3 96 00:54 19.12.2021
6365 Clouds -22 1019 94 3025 6.05 89 22:59 18.12.2021
6366 Clouds -21 1019 94 2015 5.85 88 22:24 18.12.2021
6367 Clouds -21 1019 94 2015 5.85 88 21:43 18.12.2021
6368 Clouds -21 1019 96 2096 5.12 84 21:22 18.12.2021
6369 Clouds -20 1019 96 3015 5.01 79 20:25 18.12.2021
6370 Clouds -20 1019 96 3015 5.01 79 19:34 18.12.2021
6371 Clouds -18 1019 95 5463 4.63 96 18:24 18.12.2021
6372 Clouds -18 1019 95 5463 4.63 96 17:49 18.12.2021
6373 Clouds -17 1019 94 7800 4.61 92 16:36 18.12.2021
6374 Clouds -17 1019 93 10000 4.43 87 16:18 18.12.2021
6375 Clouds -17 1020 93 9042 3.65 82 14:54 18.12.2021
6376 Clouds -17 1021 94 6681 2.97 83 13:44 18.12.2021
6377 Clouds -21 1022 100 2748 2.19 115 11:55 18.12.2021
6378 Clouds -21 1022 100 3741 2.92 112 09:54 18.12.2021
6379 Clouds -21 1022 100 3741 2.92 112 09:30 18.12.2021
6380 Clouds -21 1022 100 4358 2.95 118 08:36 18.12.2021
6381 Clouds -21 1022 100 4358 2.95 118 08:36 18.12.2021
6382 Clouds -22 1022 100 4008 3.93 107 06:27 18.12.2021
6383 Clouds -23 1023 99 7580 4.48 104 00:58 18.12.2021
6384 Clouds -23 1023 98 9578 4.88 102 23:47 17.12.2021
6385 Clouds -23 1023 96 10000 5.38 100 22:37 17.12.2021
6386 Clouds -22 1023 95 10000 6.21 97 21:29 17.12.2021
6387 Clouds -22 1023 95 10000 6.21 97 20:43 17.12.2021
6388 Clouds -22 1023 95 10000 6.46 96 19:51 17.12.2021
6389 Clouds -21 1022 95 10000 6.64 97 18:39 17.12.2021
6390 Clouds -21 1022 95 10000 6.76 97 17:47 17.12.2021
6391 Clouds -21 1022 95 10000 6.83 96 16:50 17.12.2021
6392 Clouds -21 1022 96 10000 7.02 96 16:26 17.12.2021
6393 Clouds -20 1021 97 7769 7.12 96 15:27 17.12.2021
6394 Clouds -20 1021 97 7769 7.12 96 14:42 17.12.2021
6395 Clouds -20 1021 99 4267 6.87 96 13:35 17.12.2021
6396 Clouds -20 1020 100 2798 7.22 95 12:28 17.12.2021
6397 Clouds -19 1020 100 2620 7.45 94 10:41 17.12.2021
6398 Clouds -19 1019 100 2603 7.45 92 09:47 17.12.2021
6399 Clouds -19 1019 100 2603 7.45 92 09:47 17.12.2021
6400 Clouds -18 1019 100 2860 7.47 89 08:31 17.12.2021
6401 Clouds -17 1018 99 3098 7.83 89 07:21 17.12.2021
6402 Clouds -16 1016 97 3531 8 89 04:40 17.12.2021
6403 Clouds -15 1014 96 4850 7.92 93 23:58 16.12.2021
6404 Clouds -14 1013 95 6326 7.78 94 22:24 16.12.2021
6405 Clouds -14 1013 95 6326 7.78 94 21:51 16.12.2021
6406 Clouds -14 1013 95 6326 7.78 94 21:30 16.12.2021
6407 Clouds -14 1013 94 2528 7.57 96 20:31 16.12.2021
6408 Clouds -13 1012 94 750 7.53 98 19:51 16.12.2021
6409 Clouds -11 1011 94 445 6.39 101 18:41 16.12.2021
6410 Snow -10 1010 95 373 6.11 101 17:57 16.12.2021
6411 Snow -10 1010 95 373 6.11 101 17:31 16.12.2021
6412 Snow -8 1010 95 322 5.69 109 16:23 16.12.2021
6413 Snow -8 1010 95 304 5.68 113 15:20 16.12.2021
6414 Snow -8 1009 95 214 5.67 116 13:43 16.12.2021
6415 Snow -7 1009 95 209 4.16 115 11:46 16.12.2021
6416 Snow -7 1009 96 221 3.64 115 11:18 16.12.2021
6417 Snow -8 1009 96 294 3.38 115 10:27 16.12.2021
6418 Snow -8 1009 95 493 3.33 118 08:37 16.12.2021
6419 Snow -9 1009 95 332 3.52 128 06:22 16.12.2021
6420 Snow -9 1010 95 234 3.7 134 02:54 16.12.2021
6421 Clouds -10 1011 95 309 3.21 131 23:35 15.12.2021
6422 Clouds -10 1012 94 924 3.05 134 22:48 15.12.2021
6423 Clouds -12 1012 94 2634 3 146 21:57 15.12.2021
6424 Clouds -13 1012 94 10000 3.09 150 21:28 15.12.2021
6425 Clouds -13 1012 94 10000 3.09 150 20:31 15.12.2021
6426 Clouds -13 1013 95 8707 2.92 152 19:52 15.12.2021
6427 Clouds -14 1013 95 10000 2.87 155 18:39 15.12.2021
6428 Clouds -14 1013 95 10000 2.85 159 17:55 15.12.2021
6429 Clouds -14 1013 95 10000 2.85 159 17:37 15.12.2021
6430 Clouds -14 1014 95 10000 2.93 161 16:35 15.12.2021
6431 Clouds -14 1014 95 10000 2.79 166 15:47 15.12.2021
6432 Clouds -14 1014 95 10000 2.67 155 15:28 15.12.2021
6433 Clouds -15 1014 95 10000 2.67 157 14:42 15.12.2021
6434 Clouds -15 1015 97 10000 2.71 149 12:46 15.12.2021
6435 Clouds -14 1015 96 10000 2.75 132 10:44 15.12.2021
6436 Clouds -14 1015 97 10000 2.99 135 08:55 15.12.2021
6437 Clouds -14 1015 97 10000 3.11 137 07:44 15.12.2021
6438 Clouds -7 1013 97 2584 0.45 116 01:39 15.12.2021
6439 Clouds -6 1012 95 1769 0.98 73 23:42 14.12.2021
6440 Clouds -6 1011 95 1879 0.93 57 22:49 14.12.2021
6441 Clouds -6 1011 95 1814 0.85 20 22:25 14.12.2021
6442 Clouds -6 1010 95 1467 0.73 341 20:57 14.12.2021
6443 Clouds -7 1009 95 1795 0.72 287 19:44 14.12.2021
6444 Clouds -7 1009 94 2766 0.83 260 19:20 14.12.2021
6445 Clouds -7 1009 94 3651 0.97 251 18:29 14.12.2021
6446 Clouds -7 1009 94 3651 0.97 251 17:33 14.12.2021
6447 Clouds -7 1009 93 3351 1.49 231 16:42 14.12.2021
6448 Clouds -9 1008 94 2419 2.4 226 15:37 14.12.2021
6449 Clouds -9 1008 95 817 3.3 227 13:32 14.12.2021
6450 Snow -9 1007 94 482 5.01 225 12:21 14.12.2021
6451 Clouds -9 1006 94 478 5.99 225 11:24 14.12.2021
6452 Snow -9 1006 93 490 6.66 225 10:24 14.12.2021
6453 Snow -9 1006 93 490 6.66 225 09:51 14.12.2021
6454 Clouds -9 1006 92 1008 7.85 224 08:28 14.12.2021
6455 Clouds -9 1006 92 1008 7.85 224 07:59 14.12.2021
6456 Clouds -10 1006 92 1732 8.31 224 05:38 14.12.2021
6457 Clouds -8 1009 91 754 9.32 226 22:59 13.12.2021
6458 Clouds -9 1010 91 812 9.23 222 21:53 13.12.2021
6459 Clouds -9 1010 91 812 9.23 222 21:34 13.12.2021
6460 Snow -9 1011 91 713 9.27 219 20:45 13.12.2021
6461 Snow -9 1011 91 340 9.3 215 19:57 13.12.2021
6462 Snow -9 1012 92 299 9.4 210 19:19 13.12.2021
6463 Snow -10 1014 91 381 9.58 203 17:26 13.12.2021
6464 Snow -10 1015 91 386 9.17 202 15:56 13.12.2021
6465 Snow -10 1015 91 386 9.17 202 15:38 13.12.2021
6466 Clouds -9 1017 89 10000 8.42 195 13:49 13.12.2021
6467 Clouds -9 1018 90 10000 8.18 197 13:18 13.12.2021
6468 Clouds -9 1020 90 10000 7.63 195 12:22 13.12.2021
6469 Clouds -9 1020 90 10000 7.63 195 11:36 13.12.2021
6470 Clouds -10 1020 90 10000 6.81 193 10:53 13.12.2021
6471 Clouds -11 1021 91 10000 6.28 194 10:21 13.12.2021
6472 Clouds -12 1023 93 10000 4.56 188 08:28 13.12.2021
6473 Clouds -13 1024 93 10000 3.98 187 05:37 13.12.2021
6474 Clouds -13 1025 92 10000 3.54 187 03:31 13.12.2021
6475 Clouds -13 1026 95 10000 2.83 194 23:39 12.12.2021
6476 Clouds -12 1026 96 10000 2.8 185 21:52 12.12.2021
6477 Clouds -12 1026 96 10000 2.65 186 20:45 12.12.2021
6478 Clouds -12 1026 96 10000 2.57 183 19:30 12.12.2021
6479 Clouds -13 1026 96 10000 2.12 201 17:46 12.12.2021
6480 Clouds -13 1025 96 10000 1.96 203 16:28 12.12.2021
6481 Clouds -13 1025 96 10000 1.96 203 15:51 12.12.2021
6482 Clouds -13 1025 96 10000 1.96 204 15:26 12.12.2021
6483 Clouds -13 1025 96 10000 1.96 204 14:37 12.12.2021
6484 Clouds -13 1024 96 10000 1.99 211 13:34 12.12.2021
6485 Clouds -13 1024 97 10000 2.04 205 12:32 12.12.2021
6486 Clouds -13 1023 97 10000 2.04 203 11:44 12.12.2021
6487 Clouds -13 1023 97 10000 2.13 208 11:25 12.12.2021
6488 Clouds -13 1023 97 10000 2.13 208 10:39 12.12.2021
6489 Clouds -13 1023 97 10000 2.47 213 09:44 12.12.2021
6490 Clouds -12 1022 96 10000 2.5 210 08:38 12.12.2021
6491 Clouds -13 1022 97 6313 3.25 201 06:34 12.12.2021
6492 Clouds -12 1021 98 4459 3.41 204 05:22 12.12.2021
6493 Clouds -9 1020 93 10000 3.21 203 03:58 12.12.2021
6494 Clouds -7 1020 93 9648 3.32 216 00:36 12.12.2021
6495 Clouds -5 1020 94 2696 3.35 229 22:24 11.12.2021
6496 Clouds -5 1020 94 2696 3.35 229 21:52 11.12.2021
6497 Clouds -5 1019 92 5043 3.31 243 21:21 11.12.2021
6498 Clouds -5 1019 93 8808 3.02 242 19:37 11.12.2021
6499 Clouds -6 1020 94 3773 3.73 217 18:53 11.12.2021
6500 Clouds -6 1020 94 3773 3.73 217 18:30 11.12.2021
6501 Clouds -6 1020 95 2109 3.55 214 17:37 11.12.2021
6502 Clouds -8 1021 94 3783 4.01 215 15:55 11.12.2021
6503 Clouds -8 1021 94 3783 4.01 215 15:35 11.12.2021
6504 Clouds -7 1021 94 545 4.4 223 13:46 11.12.2021
6505 Clouds -8 1021 100 141 4.43 231 11:55 11.12.2021
6506 Clouds -11 1021 99 1468 4.15 227 09:57 11.12.2021
6507 Clouds -11 1021 99 1468 4.15 227 09:34 11.12.2021
6508 Clouds -10 1019 99 7285 2.9 263 03:25 11.12.2021
6509 Clouds -6 1018 95 2132 2.96 304 00:44 11.12.2021
6510 Clouds -6 1018 96 893 2.36 317 23:39 10.12.2021
6511 Snow -6 1017 96 206 2.18 12 22:27 10.12.2021
6512 Snow -6 1017 96 206 2.18 12 21:37 10.12.2021
6513 Snow -6 1016 96 168 3.95 11 19:55 10.12.2021
6514 Snow -6 1015 95 219 4.9 1 19:18 10.12.2021
6515 Snow -9 1016 96 209 2.96 293 17:23 10.12.2021
6516 Snow -9 1016 96 209 2.96 293 16:32 10.12.2021
6517 Snow -10 1016 96 240 2.94 285 15:42 10.12.2021
6518 Clouds -11 1016 95 271 2.63 274 15:23 10.12.2021
6519 Snow -11 1016 95 414 2.47 272 13:53 10.12.2021
6520 Snow -11 1016 95 414 2.47 272 13:31 10.12.2021
6521 Snow -12 1016 95 275 2.23 262 12:47 10.12.2021
6522 Snow -12 1016 94 304 2.01 259 11:34 10.12.2021
6523 Snow -12 1016 94 236 2.07 255 10:50 10.12.2021
6524 Snow -12 1016 94 262 2.04 244 09:33 10.12.2021
6525 Clouds -13 1017 93 1036 2.54 216 07:24 10.12.2021
6526 Clouds -14 1019 92 10000 4.13 218 02:53 10.12.2021
6527 Clouds -14 1019 92 10000 4.59 213 01:32 10.12.2021
6528 Clouds -15 1019 93 10000 5.87 217 23:39 09.12.2021
6529 Clouds -15 1019 90 10000 6.3 217 22:41 09.12.2021
6530 Clouds -14 1019 88 10000 6.8 220 22:21 09.12.2021
6531 Clouds -14 1019 87 10000 6.77 220 21:38 09.12.2021
6532 Clouds -13 1019 86 10000 7.43 219 20:34 09.12.2021
6533 Clouds -12 1020 92 10000 8.62 220 19:22 09.12.2021
6534 Clouds -12 1020 92 10000 8.62 220 18:59 09.12.2021
6535 Clouds -10 1019 92 4349 8.64 221 17:58 09.12.2021
6536 Snow -8 1019 93 689 8.87 222 17:28 09.12.2021
6537 Snow -8 1019 93 689 8.87 222 16:57 09.12.2021
6538 Snow -7 1019 93 538 7.74 225 16:20 09.12.2021
6539 Snow -5 1018 94 376 7.06 230 14:58 09.12.2021
6540 Snow -5 1019 95 198 7.07 232 13:51 09.12.2021
6541 Snow -4 1018 95 181 6.82 244 12:47 09.12.2021
6542 Snow -3 1018 97 211 3.85 252 11:25 09.12.2021
6543 Snow -4 1018 97 642 2.73 253 10:20 09.12.2021
6544 Clouds -4 1017 97 10000 4.55 266 06:53 09.12.2021
6545 Clouds -2 1016 94 10000 5.25 283 03:50 09.12.2021
6546 Snow -1 1014 96 241 8.86 281 00:24 09.12.2021
6547 Snow -1 1014 96 241 8.86 281 23:32 08.12.2021
6548 Snow -1 1014 96 193 9.86 279 22:56 08.12.2021
6549 Snow -1 1014 96 180 10.42 278 21:50 08.12.2021
6550 Snow -1 1014 96 180 10.42 278 21:32 08.12.2021
6551 Snow -1 1013 94 371 11.03 277 20:31 08.12.2021
6552 Snow -1 1013 94 536 11.7 277 19:55 08.12.2021
6553 Snow -1 1013 94 604 11.9 278 18:57 08.12.2021
6554 Snow -1 1012 92 2164 11.85 280 18:22 08.12.2021
6555 Snow -1 1012 91 3207 12.12 281 16:44 08.12.2021
6556 Clouds -1 1012 89 6622 12.56 281 15:40 08.12.2021
6557 Clouds -1 1012 90 3991 12.98 280 15:21 08.12.2021
6558 Snow -1 1011 91 1917 14.27 277 13:21 08.12.2021
6559 Clouds -1 1012 89 3077 15 272 10:42 08.12.2021
6560 Clouds -2 1012 87 9343 14.55 268 09:32 08.12.2021
6561 Clouds -2 1013 79 10000 13.9 263 07:50 08.12.2021
6562 Clouds -7 1015 91 1913 12.09 240 05:22 08.12.2021
6563 Clouds -7 1018 92 1222 11.13 241 00:21 08.12.2021
6564 Clouds -6 1019 91 740 10.51 246 22:48 07.12.2021
6565 Clouds -6 1019 86 10000 8.07 256 21:25 07.12.2021
6566 Clouds -9 1020 93 6406 7.02 249 20:25 07.12.2021
6567 Clouds -10 1020 92 10000 6.3 242 18:59 07.12.2021
6568 Clouds -11 1020 94 10000 5.67 244 18:20 07.12.2021
6569 Clouds -12 1020 95 4785 5.69 243 17:23 07.12.2021
6570 Clouds -12 1020 95 4785 5.69 243 16:41 07.12.2021
6571 Clouds -12 1020 92 10000 5.87 246 15:59 07.12.2021
6572 Clouds -10 1020 84 10000 5.6 260 14:37 07.12.2021
6573 Snow -7 1019 85 6170 6.64 292 13:29 07.12.2021
6574 Clouds -8 1018 81 1222 4.09 297 12:21 07.12.2021
6575 Clouds -9 1018 75 10000 4.06 318 10:45 07.12.2021
6576 Clouds -8 1017 73 10000 4.58 336 09:20 07.12.2021
6577 Clouds -8 1016 76 10000 4.61 357 06:40 07.12.2021
6578 Clouds -8 1015 76 10000 5.34 2 05:47 07.12.2021
6579 Clouds -8 1013 79 10000 6.07 358 02:35 07.12.2021
6580 Clouds -8 1010 72 10000 6.04 10 23:21 06.12.2021
6581 Clouds -8 1010 72 10000 6.04 10 22:40 06.12.2021
6582 Clouds -8 1009 77 10000 6.49 10 21:59 06.12.2021
6583 Clouds -8 1008 82 2694 6.55 3 21:21 06.12.2021
6584 Clouds -8 1008 82 2694 6.55 3 20:32 06.12.2021
6585 Clouds -7 1006 81 7204 7.74 352 19:24 06.12.2021
6586 Clouds -7 1006 81 5542 7.72 346 18:31 06.12.2021
6587 Clouds -7 1005 76 10000 8.08 340 17:53 06.12.2021
6588 Clouds -7 1005 76 10000 8.08 340 17:30 06.12.2021
6589 Snow -6 1003 76 10000 7.79 338 15:51 06.12.2021
6590 Snow -7 1002 94 443 5.19 327 13:53 06.12.2021
6591 Clouds -7 1001 82 10000 6.8 290 12:40 06.12.2021
6592 Clouds -7 1001 78 10000 7.44 285 11:54 06.12.2021
6593 Clouds -7 1000 85 10000 7.87 274 09:37 06.12.2021
6594 Clouds -5 999 82 10000 7.7 278 07:18 06.12.2021
6595 Clouds -4 1002 91 2487 10.76 240 00:38 06.12.2021
6596 Clouds -4 1004 86 10000 9.7 244 21:54 05.12.2021
6597 Clouds -4 1005 83 10000 8.55 242 21:25 05.12.2021
6598 Clouds -7 1006 89 10000 7.76 229 20:20 05.12.2021
6599 Clouds -7 1006 89 10000 7.76 229 19:57 05.12.2021
6600 Clouds -8 1006 90 10000 7.83 223 19:22 05.12.2021
6601 Clouds -8 1007 91 10000 7.42 222 18:25 05.12.2021
6602 Clouds -8 1007 91 10000 7.42 222 17:49 05.12.2021
6603 Clouds -8 1008 90 10000 6.38 228 16:57 05.12.2021
6604 Clouds -9 1008 92 10000 6.18 231 16:28 05.12.2021
6605 Clouds -9 1008 92 10000 6.18 231 15:58 05.12.2021
6606 Clouds -9 1008 92 10000 6.29 234 14:45 05.12.2021
6607 Snow -9 1008 93 1862 6.57 234 14:27 05.12.2021
6608 Snow -9 1008 93 1862 6.57 234 13:31 05.12.2021
6609 Snow -10 1008 94 194 7.52 233 12:41 05.12.2021
6610 Snow -11 1008 94 242 8.32 225 12:23 05.12.2021
6611 Snow -11 1008 94 242 8.32 225 11:37 05.12.2021
6612 Clouds -14 1009 94 5359 8.15 220 10:21 05.12.2021
6613 Clouds -14 1009 95 7443 8.41 218 08:50 05.12.2021
6614 Clouds -13 1009 97 5010 7.37 218 04:56 05.12.2021
6615 Clouds -15 1009 99 7459 8.18 207 01:23 05.12.2021
6616 Clouds -15 1009 97 1899 10.7 202 22:32 04.12.2021
6617 Clouds -15 1009 97 4261 11.8 202 21:36 04.12.2021
6618 Clouds -15 1008 95 10000 12.67 203 20:40 04.12.2021
6619 Clouds -15 1008 94 10000 13.49 204 19:33 04.12.2021
6620 Clouds -15 1009 93 8916 12.6 197 18:43 04.12.2021
6621 Snow -15 1009 94 1093 12.76 195 17:47 04.12.2021
6622 Snow -15 1010 97 239 12 193 17:20 04.12.2021
6623 Snow -15 1010 97 239 12 193 16:46 04.12.2021
6624 Snow -15 1011 96 416 10.95 198 16:27 04.12.2021
6625 Clouds -16 1014 95 561 8.46 213 12:44 04.12.2021
6626 Clouds -16 1014 94 10000 7.21 218 11:34 04.12.2021
6627 Clouds -16 1015 95 10000 6.16 224 10:57 04.12.2021
6628 Clouds -16 1015 95 10000 6.18 221 09:40 04.12.2021
6629 Clouds -17 1015 99 754 5.61 211 08:28 04.12.2021
6630 Snow -17 1014 98 220 3.77 175 04:43 04.12.2021
6631 Snow -16 1011 96 585 1.76 117 00:49 04.12.2021
6632 Snow -16 1010 92 397 3.7 103 23:33 03.12.2021
6633 Snow -15 1009 92 321 7.49 83 22:51 03.12.2021
6634 Snow -13 1007 83 2286 9.17 29 21:54 03.12.2021
6635 Clouds -14 1006 81 3294 7.8 11 21:20 03.12.2021
6636 Clouds -14 1006 81 3294 7.8 11 20:42 03.12.2021
6637 Snow -13 1005 80 2838 9.32 9 19:21 03.12.2021
6638 Snow -13 1004 82 2826 6.61 0 18:22 03.12.2021
6639 Snow -13 1004 82 2826 6.61 0 17:30 03.12.2021
6640 Snow -13 1002 91 1483 2.59 53 13:35 03.12.2021
6641 Snow -13 1001 93 450 5.44 63 12:21 03.12.2021
6642 Snow -13 1001 92 416 6.18 64 11:19 03.12.2021
6643 Snow